<?xml version="1.0" encoding="UTF-8" standalone="no" ?>
<gpx xmlns="http://www.topografix.com/GPX/1/1" xmlns:xsi="http://www.w3.org/2001/XMLSchema-instance" xsi:schemaLocation="http://www.topografix.com/GPX/1/1 http://www.topografix.com/GPX/1/1/gpx.xsd" version="1.1" creator="VisuGPX - https://www.visugpx.com">
  <metadata>
    <name>Rando vtt Mervent 2019</name>
    <desc><![CDATA[Superbes paysages!]]></desc>
  </metadata>
  <trk>
    <name><![CDATA[Rando vtt Mervent 2019]]></name>
    <trkseg>
      <trkpt lat="46.52413" lon="-0.75706">
        <ele>131.48</ele>
        <time>2019-06-16T06:27:39.000Z</time>
      </trkpt>
      <trkpt lat="46.52422" lon="-0.75711">
        <ele>139.41</ele>
        <time>2019-06-16T06:27:50.000Z</time>
      </trkpt>
      <trkpt lat="46.52413" lon="-0.75715">
        <ele>143.03</ele>
        <time>2019-06-16T06:28:27.000Z</time>
      </trkpt>
      <trkpt lat="46.52404" lon="-0.75713">
        <ele>144.08</ele>
        <time>2019-06-16T06:28:40.000Z</time>
      </trkpt>
      <trkpt lat="46.52396" lon="-0.75717">
        <ele>145.86</ele>
        <time>2019-06-16T06:28:56.000Z</time>
      </trkpt>
      <trkpt lat="46.52397" lon="-0.75703">
        <ele>147.15</ele>
        <time>2019-06-16T06:29:28.000Z</time>
      </trkpt>
      <trkpt lat="46.52391" lon="-0.75693">
        <ele>147.7</ele>
        <time>2019-06-16T06:29:36.000Z</time>
      </trkpt>
      <trkpt lat="46.52383" lon="-0.75682">
        <ele>148.6</ele>
        <time>2019-06-16T06:29:40.000Z</time>
      </trkpt>
      <trkpt lat="46.52372" lon="-0.75688">
        <ele>148.96</ele>
        <time>2019-06-16T06:29:43.000Z</time>
      </trkpt>
      <trkpt lat="46.52366" lon="-0.75698">
        <ele>149.1</ele>
        <time>2019-06-16T06:29:46.000Z</time>
      </trkpt>
      <trkpt lat="46.52358" lon="-0.75708">
        <ele>149.2</ele>
        <time>2019-06-16T06:29:50.000Z</time>
      </trkpt>
      <trkpt lat="46.52351" lon="-0.75695">
        <ele>149.92</ele>
        <time>2019-06-16T06:29:54.000Z</time>
      </trkpt>
      <trkpt lat="46.52346" lon="-0.7568">
        <ele>150.8</ele>
        <time>2019-06-16T06:29:56.000Z</time>
      </trkpt>
      <trkpt lat="46.52338" lon="-0.75669">
        <ele>152</ele>
        <time>2019-06-16T06:29:58.000Z</time>
      </trkpt>
      <trkpt lat="46.52329" lon="-0.7566">
        <ele>152.23</ele>
        <time>2019-06-16T06:30:01.000Z</time>
      </trkpt>
      <trkpt lat="46.52319" lon="-0.7566">
        <ele>152.48</ele>
        <time>2019-06-16T06:30:04.000Z</time>
      </trkpt>
      <trkpt lat="46.52313" lon="-0.75672">
        <ele>152.67</ele>
        <time>2019-06-16T06:30:07.000Z</time>
      </trkpt>
      <trkpt lat="46.52315" lon="-0.75693">
        <ele>152.7</ele>
        <time>2019-06-16T06:30:10.000Z</time>
      </trkpt>
      <trkpt lat="46.52314" lon="-0.75709">
        <ele>152.25</ele>
        <time>2019-06-16T06:30:12.000Z</time>
      </trkpt>
      <trkpt lat="46.52314" lon="-0.75723">
        <ele>150.68</ele>
        <time>2019-06-16T06:30:14.000Z</time>
      </trkpt>
      <trkpt lat="46.52308" lon="-0.75737">
        <ele>149.07</ele>
        <time>2019-06-16T06:30:17.000Z</time>
      </trkpt>
      <trkpt lat="46.52293" lon="-0.75739">
        <ele>146.76</ele>
        <time>2019-06-16T06:30:20.000Z</time>
      </trkpt>
      <trkpt lat="46.52281" lon="-0.75743">
        <ele>145.49</ele>
        <time>2019-06-16T06:30:22.000Z</time>
      </trkpt>
      <trkpt lat="46.52268" lon="-0.75749">
        <ele>144.22</ele>
        <time>2019-06-16T06:30:24.000Z</time>
      </trkpt>
      <trkpt lat="46.52254" lon="-0.75752">
        <ele>142.67</ele>
        <time>2019-06-16T06:30:26.000Z</time>
      </trkpt>
      <trkpt lat="46.52239" lon="-0.75755">
        <ele>140.97</ele>
        <time>2019-06-16T06:30:28.000Z</time>
      </trkpt>
      <trkpt lat="46.52227" lon="-0.75758">
        <ele>138.95</ele>
        <time>2019-06-16T06:30:30.000Z</time>
      </trkpt>
      <trkpt lat="46.52219" lon="-0.75767">
        <ele>136.22</ele>
        <time>2019-06-16T06:30:33.000Z</time>
      </trkpt>
      <trkpt lat="46.52222" lon="-0.7578">
        <ele>134.63</ele>
        <time>2019-06-16T06:30:35.000Z</time>
      </trkpt>
      <trkpt lat="46.52227" lon="-0.75796">
        <ele>132.96</ele>
        <time>2019-06-16T06:30:37.000Z</time>
      </trkpt>
      <trkpt lat="46.52231" lon="-0.75811">
        <ele>132.28</ele>
        <time>2019-06-16T06:30:40.000Z</time>
      </trkpt>
      <trkpt lat="46.52222" lon="-0.75804">
        <ele>132.26</ele>
        <time>2019-06-16T06:30:45.000Z</time>
      </trkpt>
      <trkpt lat="46.52214" lon="-0.7579">
        <ele>132.87</ele>
        <time>2019-06-16T06:30:47.000Z</time>
      </trkpt>
      <trkpt lat="46.52205" lon="-0.75774">
        <ele>133.23</ele>
        <time>2019-06-16T06:30:49.000Z</time>
      </trkpt>
      <trkpt lat="46.52196" lon="-0.75758">
        <ele>133.58</ele>
        <time>2019-06-16T06:30:51.000Z</time>
      </trkpt>
      <trkpt lat="46.52186" lon="-0.75742">
        <ele>133.55</ele>
        <time>2019-06-16T06:30:53.000Z</time>
      </trkpt>
      <trkpt lat="46.52175" lon="-0.75726">
        <ele>133.5</ele>
        <time>2019-06-16T06:30:55.000Z</time>
      </trkpt>
      <trkpt lat="46.52166" lon="-0.75708">
        <ele>133.24</ele>
        <time>2019-06-16T06:30:57.000Z</time>
      </trkpt>
      <trkpt lat="46.52156" lon="-0.75689">
        <ele>132.92</ele>
        <time>2019-06-16T06:30:59.000Z</time>
      </trkpt>
      <trkpt lat="46.52146" lon="-0.75671">
        <ele>132.55</ele>
        <time>2019-06-16T06:31:01.000Z</time>
      </trkpt>
      <trkpt lat="46.52135" lon="-0.75653">
        <ele>132.29</ele>
        <time>2019-06-16T06:31:03.000Z</time>
      </trkpt>
      <trkpt lat="46.52124" lon="-0.75636">
        <ele>131.99</ele>
        <time>2019-06-16T06:31:05.000Z</time>
      </trkpt>
      <trkpt lat="46.52115" lon="-0.75618">
        <ele>131.94</ele>
        <time>2019-06-16T06:31:07.000Z</time>
      </trkpt>
      <trkpt lat="46.52108" lon="-0.756">
        <ele>132.04</ele>
        <time>2019-06-16T06:31:09.000Z</time>
      </trkpt>
      <trkpt lat="46.52099" lon="-0.75582">
        <ele>132.16</ele>
        <time>2019-06-16T06:31:11.000Z</time>
      </trkpt>
      <trkpt lat="46.52093" lon="-0.75564">
        <ele>132.12</ele>
        <time>2019-06-16T06:31:13.000Z</time>
      </trkpt>
      <trkpt lat="46.52088" lon="-0.75546">
        <ele>132.06</ele>
        <time>2019-06-16T06:31:15.000Z</time>
      </trkpt>
      <trkpt lat="46.52084" lon="-0.75527">
        <ele>131.98</ele>
        <time>2019-06-16T06:31:17.000Z</time>
      </trkpt>
      <trkpt lat="46.52081" lon="-0.75507">
        <ele>132.03</ele>
        <time>2019-06-16T06:31:19.000Z</time>
      </trkpt>
      <trkpt lat="46.52079" lon="-0.75486">
        <ele>131.99</ele>
        <time>2019-06-16T06:31:21.000Z</time>
      </trkpt>
      <trkpt lat="46.52078" lon="-0.75466">
        <ele>131.89</ele>
        <time>2019-06-16T06:31:23.000Z</time>
      </trkpt>
      <trkpt lat="46.52078" lon="-0.75445">
        <ele>131.75</ele>
        <time>2019-06-16T06:31:25.000Z</time>
      </trkpt>
      <trkpt lat="46.52076" lon="-0.75423">
        <ele>131.63</ele>
        <time>2019-06-16T06:31:27.000Z</time>
      </trkpt>
      <trkpt lat="46.52078" lon="-0.75402">
        <ele>131.4</ele>
        <time>2019-06-16T06:31:29.000Z</time>
      </trkpt>
      <trkpt lat="46.52082" lon="-0.75382">
        <ele>131.18</ele>
        <time>2019-06-16T06:31:31.000Z</time>
      </trkpt>
      <trkpt lat="46.52091" lon="-0.75365">
        <ele>130.78</ele>
        <time>2019-06-16T06:31:33.000Z</time>
      </trkpt>
      <trkpt lat="46.52102" lon="-0.75347">
        <ele>130.37</ele>
        <time>2019-06-16T06:31:35.000Z</time>
      </trkpt>
      <trkpt lat="46.52114" lon="-0.75328">
        <ele>130.11</ele>
        <time>2019-06-16T06:31:37.000Z</time>
      </trkpt>
      <trkpt lat="46.52121" lon="-0.75318">
        <ele>129.99</ele>
        <time>2019-06-16T06:31:38.000Z</time>
      </trkpt>
      <trkpt lat="46.52127" lon="-0.75308">
        <ele>129.88</ele>
        <time>2019-06-16T06:31:39.000Z</time>
      </trkpt>
      <trkpt lat="46.52134" lon="-0.75298">
        <ele>129.69</ele>
        <time>2019-06-16T06:31:40.000Z</time>
      </trkpt>
      <trkpt lat="46.52142" lon="-0.75287">
        <ele>129.45</ele>
        <time>2019-06-16T06:31:41.000Z</time>
      </trkpt>
      <trkpt lat="46.52149" lon="-0.75276">
        <ele>129.15</ele>
        <time>2019-06-16T06:31:42.000Z</time>
      </trkpt>
      <trkpt lat="46.52156" lon="-0.75265">
        <ele>128.9</ele>
        <time>2019-06-16T06:31:43.000Z</time>
      </trkpt>
      <trkpt lat="46.52164" lon="-0.75253">
        <ele>128.66</ele>
        <time>2019-06-16T06:31:44.000Z</time>
      </trkpt>
      <trkpt lat="46.52171" lon="-0.75242">
        <ele>128.39</ele>
        <time>2019-06-16T06:31:45.000Z</time>
      </trkpt>
      <trkpt lat="46.52179" lon="-0.75231">
        <ele>128.08</ele>
        <time>2019-06-16T06:31:46.000Z</time>
      </trkpt>
      <trkpt lat="46.52187" lon="-0.7522">
        <ele>127.76</ele>
        <time>2019-06-16T06:31:47.000Z</time>
      </trkpt>
      <trkpt lat="46.52195" lon="-0.75208">
        <ele>127.5</ele>
        <time>2019-06-16T06:31:48.000Z</time>
      </trkpt>
      <trkpt lat="46.52203" lon="-0.75196">
        <ele>127.24</ele>
        <time>2019-06-16T06:31:49.000Z</time>
      </trkpt>
      <trkpt lat="46.52211" lon="-0.75184">
        <ele>126.59</ele>
        <time>2019-06-16T06:31:50.000Z</time>
      </trkpt>
      <trkpt lat="46.52219" lon="-0.75171">
        <ele>125.68</ele>
        <time>2019-06-16T06:31:51.000Z</time>
      </trkpt>
      <trkpt lat="46.52227" lon="-0.75159">
        <ele>124.81</ele>
        <time>2019-06-16T06:31:52.000Z</time>
      </trkpt>
      <trkpt lat="46.52235" lon="-0.75147">
        <ele>124.11</ele>
        <time>2019-06-16T06:31:53.000Z</time>
      </trkpt>
      <trkpt lat="46.52244" lon="-0.75134">
        <ele>123.58</ele>
        <time>2019-06-16T06:31:54.000Z</time>
      </trkpt>
      <trkpt lat="46.52252" lon="-0.75121">
        <ele>123.16</ele>
        <time>2019-06-16T06:31:55.000Z</time>
      </trkpt>
      <trkpt lat="46.52261" lon="-0.75108">
        <ele>122.83</ele>
        <time>2019-06-16T06:31:56.000Z</time>
      </trkpt>
      <trkpt lat="46.52269" lon="-0.75096">
        <ele>122.48</ele>
        <time>2019-06-16T06:31:57.000Z</time>
      </trkpt>
      <trkpt lat="46.52278" lon="-0.75083">
        <ele>122.1</ele>
        <time>2019-06-16T06:31:58.000Z</time>
      </trkpt>
      <trkpt lat="46.52285" lon="-0.7507">
        <ele>121.75</ele>
        <time>2019-06-16T06:31:59.000Z</time>
      </trkpt>
      <trkpt lat="46.52293" lon="-0.75057">
        <ele>121.57</ele>
        <time>2019-06-16T06:32:00.000Z</time>
      </trkpt>
      <trkpt lat="46.523" lon="-0.75045">
        <ele>121.39</ele>
        <time>2019-06-16T06:32:01.000Z</time>
      </trkpt>
      <trkpt lat="46.52309" lon="-0.75037">
        <ele>121.13</ele>
        <time>2019-06-16T06:32:02.000Z</time>
      </trkpt>
      <trkpt lat="46.52317" lon="-0.75029">
        <ele>120.9</ele>
        <time>2019-06-16T06:32:03.000Z</time>
      </trkpt>
      <trkpt lat="46.52325" lon="-0.75023">
        <ele>120.72</ele>
        <time>2019-06-16T06:32:04.000Z</time>
      </trkpt>
      <trkpt lat="46.52334" lon="-0.75017">
        <ele>120.55</ele>
        <time>2019-06-16T06:32:05.000Z</time>
      </trkpt>
      <trkpt lat="46.52342" lon="-0.75011">
        <ele>120.41</ele>
        <time>2019-06-16T06:32:06.000Z</time>
      </trkpt>
      <trkpt lat="46.52357" lon="-0.74999">
        <ele>120.13</ele>
        <time>2019-06-16T06:32:08.000Z</time>
      </trkpt>
      <trkpt lat="46.5237" lon="-0.74987">
        <ele>120.03</ele>
        <time>2019-06-16T06:32:10.000Z</time>
      </trkpt>
      <trkpt lat="46.52383" lon="-0.74977">
        <ele>119.94</ele>
        <time>2019-06-16T06:32:12.000Z</time>
      </trkpt>
      <trkpt lat="46.52394" lon="-0.74967">
        <ele>119.91</ele>
        <time>2019-06-16T06:32:14.000Z</time>
      </trkpt>
      <trkpt lat="46.52406" lon="-0.74957">
        <ele>120</ele>
        <time>2019-06-16T06:32:16.000Z</time>
      </trkpt>
      <trkpt lat="46.52417" lon="-0.74949">
        <ele>120.03</ele>
        <time>2019-06-16T06:32:18.000Z</time>
      </trkpt>
      <trkpt lat="46.52426" lon="-0.74938">
        <ele>120.17</ele>
        <time>2019-06-16T06:32:20.000Z</time>
      </trkpt>
      <trkpt lat="46.52429" lon="-0.74924">
        <ele>120.27</ele>
        <time>2019-06-16T06:32:22.000Z</time>
      </trkpt>
      <trkpt lat="46.52425" lon="-0.74909">
        <ele>120.34</ele>
        <time>2019-06-16T06:32:24.000Z</time>
      </trkpt>
      <trkpt lat="46.52417" lon="-0.749">
        <ele>120.7</ele>
        <time>2019-06-16T06:32:26.000Z</time>
      </trkpt>
      <trkpt lat="46.52409" lon="-0.74892">
        <ele>120.81</ele>
        <time>2019-06-16T06:32:28.000Z</time>
      </trkpt>
      <trkpt lat="46.52402" lon="-0.74884">
        <ele>120.19</ele>
        <time>2019-06-16T06:32:30.000Z</time>
      </trkpt>
      <trkpt lat="46.52394" lon="-0.74874">
        <ele>119.51</ele>
        <time>2019-06-16T06:32:32.000Z</time>
      </trkpt>
      <trkpt lat="46.52387" lon="-0.74864">
        <ele>119.44</ele>
        <time>2019-06-16T06:32:34.000Z</time>
      </trkpt>
      <trkpt lat="46.52379" lon="-0.74853">
        <ele>119.51</ele>
        <time>2019-06-16T06:32:36.000Z</time>
      </trkpt>
      <trkpt lat="46.52371" lon="-0.7484">
        <ele>119.07</ele>
        <time>2019-06-16T06:32:38.000Z</time>
      </trkpt>
      <trkpt lat="46.5236" lon="-0.74827">
        <ele>117.91</ele>
        <time>2019-06-16T06:32:40.000Z</time>
      </trkpt>
      <trkpt lat="46.52351" lon="-0.74814">
        <ele>115.61</ele>
        <time>2019-06-16T06:32:42.000Z</time>
      </trkpt>
      <trkpt lat="46.52343" lon="-0.74802">
        <ele>113.85</ele>
        <time>2019-06-16T06:32:44.000Z</time>
      </trkpt>
      <trkpt lat="46.52334" lon="-0.74789">
        <ele>111.91</ele>
        <time>2019-06-16T06:32:46.000Z</time>
      </trkpt>
      <trkpt lat="46.52324" lon="-0.74776">
        <ele>108.79</ele>
        <time>2019-06-16T06:32:48.000Z</time>
      </trkpt>
      <trkpt lat="46.52312" lon="-0.74759">
        <ele>106.93</ele>
        <time>2019-06-16T06:32:50.000Z</time>
      </trkpt>
      <trkpt lat="46.52303" lon="-0.74738">
        <ele>106.41</ele>
        <time>2019-06-16T06:32:52.000Z</time>
      </trkpt>
      <trkpt lat="46.523" lon="-0.74726">
        <ele>105.97</ele>
        <time>2019-06-16T06:32:53.000Z</time>
      </trkpt>
      <trkpt lat="46.52296" lon="-0.74703">
        <ele>104.67</ele>
        <time>2019-06-16T06:32:55.000Z</time>
      </trkpt>
      <trkpt lat="46.52294" lon="-0.74684">
        <ele>103.42</ele>
        <time>2019-06-16T06:32:57.000Z</time>
      </trkpt>
      <trkpt lat="46.52294" lon="-0.7467">
        <ele>102.3</ele>
        <time>2019-06-16T06:32:59.000Z</time>
      </trkpt>
      <trkpt lat="46.52296" lon="-0.74657">
        <ele>102.16</ele>
        <time>2019-06-16T06:33:02.000Z</time>
      </trkpt>
      <trkpt lat="46.52299" lon="-0.74643">
        <ele>101.94</ele>
        <time>2019-06-16T06:33:07.000Z</time>
      </trkpt>
      <trkpt lat="46.523" lon="-0.7463">
        <ele>101.89</ele>
        <time>2019-06-16T06:33:12.000Z</time>
      </trkpt>
      <trkpt lat="46.52292" lon="-0.74617">
        <ele>102.64</ele>
        <time>2019-06-16T06:33:22.000Z</time>
      </trkpt>
      <trkpt lat="46.52285" lon="-0.74628">
        <ele>105.08</ele>
        <time>2019-06-16T06:33:35.000Z</time>
      </trkpt>
      <trkpt lat="46.52279" lon="-0.74638">
        <ele>107.59</ele>
        <time>2019-06-16T06:33:41.000Z</time>
      </trkpt>
      <trkpt lat="46.52269" lon="-0.74644">
        <ele>112.19</ele>
        <time>2019-06-16T06:33:51.000Z</time>
      </trkpt>
      <trkpt lat="46.5226" lon="-0.74646">
        <ele>115.93</ele>
        <time>2019-06-16T06:34:00.000Z</time>
      </trkpt>
      <trkpt lat="46.52253" lon="-0.74652">
        <ele>119.42</ele>
        <time>2019-06-16T06:34:09.000Z</time>
      </trkpt>
      <trkpt lat="46.52244" lon="-0.7466">
        <ele>121.19</ele>
        <time>2019-06-16T06:34:17.000Z</time>
      </trkpt>
      <trkpt lat="46.52237" lon="-0.74671">
        <ele>122.34</ele>
        <time>2019-06-16T06:34:21.000Z</time>
      </trkpt>
      <trkpt lat="46.52231" lon="-0.74681">
        <ele>122.92</ele>
        <time>2019-06-16T06:34:24.000Z</time>
      </trkpt>
      <trkpt lat="46.52225" lon="-0.74692">
        <ele>123.19</ele>
        <time>2019-06-16T06:34:28.000Z</time>
      </trkpt>
      <trkpt lat="46.5222" lon="-0.74704">
        <ele>122.95</ele>
        <time>2019-06-16T06:34:32.000Z</time>
      </trkpt>
      <trkpt lat="46.52216" lon="-0.74717">
        <ele>121.89</ele>
        <time>2019-06-16T06:34:38.000Z</time>
      </trkpt>
      <trkpt lat="46.52207" lon="-0.74726">
        <ele>121.05</ele>
        <time>2019-06-16T06:34:43.000Z</time>
      </trkpt>
      <trkpt lat="46.52198" lon="-0.74735">
        <ele>120.42</ele>
        <time>2019-06-16T06:34:46.000Z</time>
      </trkpt>
      <trkpt lat="46.52185" lon="-0.7475">
        <ele>118.46</ele>
        <time>2019-06-16T06:34:49.000Z</time>
      </trkpt>
      <trkpt lat="46.5218" lon="-0.74762">
        <ele>118.21</ele>
        <time>2019-06-16T06:34:51.000Z</time>
      </trkpt>
      <trkpt lat="46.52169" lon="-0.74775">
        <ele>117.79</ele>
        <time>2019-06-16T06:34:54.000Z</time>
      </trkpt>
      <trkpt lat="46.52163" lon="-0.74787">
        <ele>117.53</ele>
        <time>2019-06-16T06:34:58.000Z</time>
      </trkpt>
      <trkpt lat="46.52154" lon="-0.74781">
        <ele>116.93</ele>
        <time>2019-06-16T06:35:04.000Z</time>
      </trkpt>
      <trkpt lat="46.52146" lon="-0.74775">
        <ele>116.94</ele>
        <time>2019-06-16T06:35:09.000Z</time>
      </trkpt>
      <trkpt lat="46.5214" lon="-0.74762">
        <ele>117.12</ele>
        <time>2019-06-16T06:35:13.000Z</time>
      </trkpt>
      <trkpt lat="46.52132" lon="-0.74753">
        <ele>117.26</ele>
        <time>2019-06-16T06:35:15.000Z</time>
      </trkpt>
      <trkpt lat="46.52126" lon="-0.74739">
        <ele>117.51</ele>
        <time>2019-06-16T06:35:17.000Z</time>
      </trkpt>
      <trkpt lat="46.52116" lon="-0.74731">
        <ele>118.54</ele>
        <time>2019-06-16T06:35:21.000Z</time>
      </trkpt>
      <trkpt lat="46.52109" lon="-0.7472">
        <ele>119.57</ele>
        <time>2019-06-16T06:35:25.000Z</time>
      </trkpt>
      <trkpt lat="46.52104" lon="-0.74709">
        <ele>119.85</ele>
        <time>2019-06-16T06:35:26.000Z</time>
      </trkpt>
      <trkpt lat="46.52096" lon="-0.74699">
        <ele>120.66</ele>
        <time>2019-06-16T06:35:29.000Z</time>
      </trkpt>
      <trkpt lat="46.52088" lon="-0.74686">
        <ele>121.81</ele>
        <time>2019-06-16T06:35:34.000Z</time>
      </trkpt>
      <trkpt lat="46.52081" lon="-0.74674">
        <ele>123.02</ele>
        <time>2019-06-16T06:35:40.000Z</time>
      </trkpt>
      <trkpt lat="46.52078" lon="-0.7466">
        <ele>124.3</ele>
        <time>2019-06-16T06:35:45.000Z</time>
      </trkpt>
      <trkpt lat="46.52068" lon="-0.7465">
        <ele>126.22</ele>
        <time>2019-06-16T06:35:52.000Z</time>
      </trkpt>
      <trkpt lat="46.5206" lon="-0.74644">
        <ele>127.74</ele>
        <time>2019-06-16T06:35:57.000Z</time>
      </trkpt>
      <trkpt lat="46.52049" lon="-0.74641">
        <ele>129.88</ele>
        <time>2019-06-16T06:36:04.000Z</time>
      </trkpt>
      <trkpt lat="46.52041" lon="-0.74633">
        <ele>132.49</ele>
        <time>2019-06-16T06:36:12.000Z</time>
      </trkpt>
      <trkpt lat="46.52036" lon="-0.74621">
        <ele>133.91</ele>
        <time>2019-06-16T06:36:18.000Z</time>
      </trkpt>
      <trkpt lat="46.52029" lon="-0.74609">
        <ele>135.37</ele>
        <time>2019-06-16T06:36:31.000Z</time>
      </trkpt>
      <trkpt lat="46.52021" lon="-0.74602">
        <ele>137.19</ele>
        <time>2019-06-16T06:36:48.000Z</time>
      </trkpt>
      <trkpt lat="46.52012" lon="-0.74594">
        <ele>137.76</ele>
        <time>2019-06-16T06:36:53.000Z</time>
      </trkpt>
      <trkpt lat="46.52007" lon="-0.74581">
        <ele>138.43</ele>
        <time>2019-06-16T06:36:59.000Z</time>
      </trkpt>
      <trkpt lat="46.52003" lon="-0.74565">
        <ele>138.55</ele>
        <time>2019-06-16T06:37:05.000Z</time>
      </trkpt>
      <trkpt lat="46.52" lon="-0.74552">
        <ele>138.43</ele>
        <time>2019-06-16T06:37:10.000Z</time>
      </trkpt>
      <trkpt lat="46.51998" lon="-0.74538">
        <ele>139.25</ele>
        <time>2019-06-16T06:37:17.000Z</time>
      </trkpt>
      <trkpt lat="46.51996" lon="-0.74522">
        <ele>140.19</ele>
        <time>2019-06-16T06:37:23.000Z</time>
      </trkpt>
      <trkpt lat="46.51992" lon="-0.74508">
        <ele>140.61</ele>
        <time>2019-06-16T06:37:28.000Z</time>
      </trkpt>
      <trkpt lat="46.51984" lon="-0.74495">
        <ele>141.01</ele>
        <time>2019-06-16T06:37:32.000Z</time>
      </trkpt>
      <trkpt lat="46.51981" lon="-0.74483">
        <ele>141.06</ele>
        <time>2019-06-16T06:37:35.000Z</time>
      </trkpt>
      <trkpt lat="46.51978" lon="-0.74469">
        <ele>141.48</ele>
        <time>2019-06-16T06:37:41.000Z</time>
      </trkpt>
      <trkpt lat="46.51974" lon="-0.74457">
        <ele>142.57</ele>
        <time>2019-06-16T06:37:46.000Z</time>
      </trkpt>
      <trkpt lat="46.51968" lon="-0.74444">
        <ele>144.09</ele>
        <time>2019-06-16T06:37:53.000Z</time>
      </trkpt>
      <trkpt lat="46.5196" lon="-0.7443">
        <ele>145.01</ele>
        <time>2019-06-16T06:37:59.000Z</time>
      </trkpt>
      <trkpt lat="46.51955" lon="-0.74417">
        <ele>145.38</ele>
        <time>2019-06-16T06:38:02.000Z</time>
      </trkpt>
      <trkpt lat="46.51948" lon="-0.74404">
        <ele>146.04</ele>
        <time>2019-06-16T06:38:08.000Z</time>
      </trkpt>
      <trkpt lat="46.51942" lon="-0.74394">
        <ele>146.97</ele>
        <time>2019-06-16T06:38:14.000Z</time>
      </trkpt>
      <trkpt lat="46.51933" lon="-0.74384">
        <ele>147.48</ele>
        <time>2019-06-16T06:38:19.000Z</time>
      </trkpt>
      <trkpt lat="46.51925" lon="-0.74377">
        <ele>147.47</ele>
        <time>2019-06-16T06:38:25.000Z</time>
      </trkpt>
      <trkpt lat="46.51918" lon="-0.74367">
        <ele>147.44</ele>
        <time>2019-06-16T06:38:29.000Z</time>
      </trkpt>
      <trkpt lat="46.51906" lon="-0.74356">
        <ele>147.17</ele>
        <time>2019-06-16T06:38:34.000Z</time>
      </trkpt>
      <trkpt lat="46.519" lon="-0.74347">
        <ele>147.11</ele>
        <time>2019-06-16T06:38:37.000Z</time>
      </trkpt>
      <trkpt lat="46.51893" lon="-0.74336">
        <ele>147.28</ele>
        <time>2019-06-16T06:38:41.000Z</time>
      </trkpt>
      <trkpt lat="46.51888" lon="-0.74325">
        <ele>147.47</ele>
        <time>2019-06-16T06:38:47.000Z</time>
      </trkpt>
      <trkpt lat="46.51878" lon="-0.74316">
        <ele>148</ele>
        <time>2019-06-16T06:38:53.000Z</time>
      </trkpt>
      <trkpt lat="46.51872" lon="-0.74303">
        <ele>148.92</ele>
        <time>2019-06-16T06:38:57.000Z</time>
      </trkpt>
      <trkpt lat="46.51866" lon="-0.74291">
        <ele>149.73</ele>
        <time>2019-06-16T06:39:02.000Z</time>
      </trkpt>
      <trkpt lat="46.5186" lon="-0.74278">
        <ele>149.95</ele>
        <time>2019-06-16T06:39:06.000Z</time>
      </trkpt>
      <trkpt lat="46.51855" lon="-0.74267">
        <ele>150.03</ele>
        <time>2019-06-16T06:39:12.000Z</time>
      </trkpt>
      <trkpt lat="46.5185" lon="-0.74255">
        <ele>150.57</ele>
        <time>2019-06-16T06:39:17.000Z</time>
      </trkpt>
      <trkpt lat="46.51843" lon="-0.74244">
        <ele>151.14</ele>
        <time>2019-06-16T06:39:22.000Z</time>
      </trkpt>
      <trkpt lat="46.51837" lon="-0.74232">
        <ele>151.56</ele>
        <time>2019-06-16T06:39:27.000Z</time>
      </trkpt>
      <trkpt lat="46.51829" lon="-0.74218">
        <ele>151.75</ele>
        <time>2019-06-16T06:39:32.000Z</time>
      </trkpt>
      <trkpt lat="46.51823" lon="-0.74203">
        <ele>151.95</ele>
        <time>2019-06-16T06:39:37.000Z</time>
      </trkpt>
      <trkpt lat="46.51818" lon="-0.74188">
        <ele>152.15</ele>
        <time>2019-06-16T06:39:41.000Z</time>
      </trkpt>
      <trkpt lat="46.51814" lon="-0.74174">
        <ele>152.21</ele>
        <time>2019-06-16T06:39:46.000Z</time>
      </trkpt>
      <trkpt lat="46.51809" lon="-0.74163">
        <ele>152.1</ele>
        <time>2019-06-16T06:39:50.000Z</time>
      </trkpt>
      <trkpt lat="46.51803" lon="-0.74148">
        <ele>151.87</ele>
        <time>2019-06-16T06:39:55.000Z</time>
      </trkpt>
      <trkpt lat="46.51797" lon="-0.74136">
        <ele>151.9</ele>
        <time>2019-06-16T06:39:59.000Z</time>
      </trkpt>
      <trkpt lat="46.51791" lon="-0.74123">
        <ele>152.17</ele>
        <time>2019-06-16T06:40:03.000Z</time>
      </trkpt>
      <trkpt lat="46.51786" lon="-0.74112">
        <ele>152.24</ele>
        <time>2019-06-16T06:40:06.000Z</time>
      </trkpt>
      <trkpt lat="46.5178" lon="-0.741">
        <ele>152.18</ele>
        <time>2019-06-16T06:40:09.000Z</time>
      </trkpt>
      <trkpt lat="46.51772" lon="-0.74085">
        <ele>152.04</ele>
        <time>2019-06-16T06:40:13.000Z</time>
      </trkpt>
      <trkpt lat="46.51762" lon="-0.74084">
        <ele>151.97</ele>
        <time>2019-06-16T06:40:16.000Z</time>
      </trkpt>
      <trkpt lat="46.5175" lon="-0.7409">
        <ele>151.81</ele>
        <time>2019-06-16T06:40:18.000Z</time>
      </trkpt>
      <trkpt lat="46.5174" lon="-0.74097">
        <ele>149.07</ele>
        <time>2019-06-16T06:40:20.000Z</time>
      </trkpt>
      <trkpt lat="46.5173" lon="-0.74103">
        <ele>146.78</ele>
        <time>2019-06-16T06:40:22.000Z</time>
      </trkpt>
      <trkpt lat="46.5172" lon="-0.74109">
        <ele>145.08</ele>
        <time>2019-06-16T06:40:24.000Z</time>
      </trkpt>
      <trkpt lat="46.51711" lon="-0.74114">
        <ele>143.94</ele>
        <time>2019-06-16T06:40:26.000Z</time>
      </trkpt>
      <trkpt lat="46.51699" lon="-0.74122">
        <ele>142.59</ele>
        <time>2019-06-16T06:40:29.000Z</time>
      </trkpt>
      <trkpt lat="46.51688" lon="-0.74131">
        <ele>141.8</ele>
        <time>2019-06-16T06:40:32.000Z</time>
      </trkpt>
      <trkpt lat="46.51687" lon="-0.74146">
        <ele>141.75</ele>
        <time>2019-06-16T06:40:35.000Z</time>
      </trkpt>
      <trkpt lat="46.51698" lon="-0.74162">
        <ele>141.78</ele>
        <time>2019-06-16T06:40:38.000Z</time>
      </trkpt>
      <trkpt lat="46.51702" lon="-0.74179">
        <ele>143.53</ele>
        <time>2019-06-16T06:40:42.000Z</time>
      </trkpt>
      <trkpt lat="46.51706" lon="-0.74198">
        <ele>145.73</ele>
        <time>2019-06-16T06:40:45.000Z</time>
      </trkpt>
      <trkpt lat="46.51708" lon="-0.74215">
        <ele>148.06</ele>
        <time>2019-06-16T06:40:47.000Z</time>
      </trkpt>
      <trkpt lat="46.51708" lon="-0.74228">
        <ele>150.13</ele>
        <time>2019-06-16T06:40:49.000Z</time>
      </trkpt>
      <trkpt lat="46.517" lon="-0.74242">
        <ele>151.03</ele>
        <time>2019-06-16T06:40:52.000Z</time>
      </trkpt>
      <trkpt lat="46.51688" lon="-0.74254">
        <ele>151.43</ele>
        <time>2019-06-16T06:40:55.000Z</time>
      </trkpt>
      <trkpt lat="46.5168" lon="-0.74262">
        <ele>151.7</ele>
        <time>2019-06-16T06:40:57.000Z</time>
      </trkpt>
      <trkpt lat="46.51669" lon="-0.74273">
        <ele>152.34</ele>
        <time>2019-06-16T06:41:00.000Z</time>
      </trkpt>
      <trkpt lat="46.51662" lon="-0.74282">
        <ele>152.6</ele>
        <time>2019-06-16T06:41:02.000Z</time>
      </trkpt>
      <trkpt lat="46.51652" lon="-0.74294">
        <ele>152.94</ele>
        <time>2019-06-16T06:41:05.000Z</time>
      </trkpt>
      <trkpt lat="46.51642" lon="-0.74306">
        <ele>153.04</ele>
        <time>2019-06-16T06:41:07.000Z</time>
      </trkpt>
      <trkpt lat="46.51632" lon="-0.74316">
        <ele>152.61</ele>
        <time>2019-06-16T06:41:09.000Z</time>
      </trkpt>
      <trkpt lat="46.51624" lon="-0.74327">
        <ele>152.65</ele>
        <time>2019-06-16T06:41:11.000Z</time>
      </trkpt>
      <trkpt lat="46.51616" lon="-0.74337">
        <ele>152.16</ele>
        <time>2019-06-16T06:41:13.000Z</time>
      </trkpt>
      <trkpt lat="46.51608" lon="-0.74347">
        <ele>151.47</ele>
        <time>2019-06-16T06:41:15.000Z</time>
      </trkpt>
      <trkpt lat="46.516" lon="-0.74357">
        <ele>150.74</ele>
        <time>2019-06-16T06:41:17.000Z</time>
      </trkpt>
      <trkpt lat="46.51593" lon="-0.74366">
        <ele>149.77</ele>
        <time>2019-06-16T06:41:19.000Z</time>
      </trkpt>
      <trkpt lat="46.51585" lon="-0.74374">
        <ele>149.01</ele>
        <time>2019-06-16T06:41:21.000Z</time>
      </trkpt>
      <trkpt lat="46.51579" lon="-0.74384">
        <ele>148.49</ele>
        <time>2019-06-16T06:41:23.000Z</time>
      </trkpt>
      <trkpt lat="46.51569" lon="-0.74394">
        <ele>147.93</ele>
        <time>2019-06-16T06:41:25.000Z</time>
      </trkpt>
      <trkpt lat="46.51561" lon="-0.74405">
        <ele>147.23</ele>
        <time>2019-06-16T06:41:27.000Z</time>
      </trkpt>
      <trkpt lat="46.51553" lon="-0.74417">
        <ele>146.13</ele>
        <time>2019-06-16T06:41:29.000Z</time>
      </trkpt>
      <trkpt lat="46.51546" lon="-0.74426">
        <ele>145.49</ele>
        <time>2019-06-16T06:41:32.000Z</time>
      </trkpt>
      <trkpt lat="46.5154" lon="-0.74437">
        <ele>145.02</ele>
        <time>2019-06-16T06:41:41.000Z</time>
      </trkpt>
      <trkpt lat="46.51534" lon="-0.74447">
        <ele>144.83</ele>
        <time>2019-06-16T06:41:45.000Z</time>
      </trkpt>
      <trkpt lat="46.51527" lon="-0.74461">
        <ele>144.64</ele>
        <time>2019-06-16T06:41:49.000Z</time>
      </trkpt>
      <trkpt lat="46.51519" lon="-0.7447">
        <ele>144.51</ele>
        <time>2019-06-16T06:41:51.000Z</time>
      </trkpt>
      <trkpt lat="46.51511" lon="-0.7448">
        <ele>144.29</ele>
        <time>2019-06-16T06:41:54.000Z</time>
      </trkpt>
      <trkpt lat="46.51501" lon="-0.74491">
        <ele>144</ele>
        <time>2019-06-16T06:41:57.000Z</time>
      </trkpt>
      <trkpt lat="46.51491" lon="-0.74503">
        <ele>143.74</ele>
        <time>2019-06-16T06:42:00.000Z</time>
      </trkpt>
      <trkpt lat="46.51484" lon="-0.74513">
        <ele>143.59</ele>
        <time>2019-06-16T06:42:02.000Z</time>
      </trkpt>
      <trkpt lat="46.51477" lon="-0.74523">
        <ele>142.56</ele>
        <time>2019-06-16T06:42:04.000Z</time>
      </trkpt>
      <trkpt lat="46.51469" lon="-0.74538">
        <ele>140.57</ele>
        <time>2019-06-16T06:42:06.000Z</time>
      </trkpt>
      <trkpt lat="46.51463" lon="-0.7455">
        <ele>138.43</ele>
        <time>2019-06-16T06:42:08.000Z</time>
      </trkpt>
      <trkpt lat="46.51457" lon="-0.74561">
        <ele>136.64</ele>
        <time>2019-06-16T06:42:10.000Z</time>
      </trkpt>
      <trkpt lat="46.51451" lon="-0.74572">
        <ele>135.53</ele>
        <time>2019-06-16T06:42:12.000Z</time>
      </trkpt>
      <trkpt lat="46.51442" lon="-0.74582">
        <ele>134.41</ele>
        <time>2019-06-16T06:42:14.000Z</time>
      </trkpt>
      <trkpt lat="46.51434" lon="-0.74591">
        <ele>132.72</ele>
        <time>2019-06-16T06:42:16.000Z</time>
      </trkpt>
      <trkpt lat="46.51429" lon="-0.74604">
        <ele>131.02</ele>
        <time>2019-06-16T06:42:18.000Z</time>
      </trkpt>
      <trkpt lat="46.51423" lon="-0.74622">
        <ele>129.72</ele>
        <time>2019-06-16T06:42:20.000Z</time>
      </trkpt>
      <trkpt lat="46.51419" lon="-0.74644">
        <ele>128.79</ele>
        <time>2019-06-16T06:42:22.000Z</time>
      </trkpt>
      <trkpt lat="46.51416" lon="-0.74668">
        <ele>127.89</ele>
        <time>2019-06-16T06:42:24.000Z</time>
      </trkpt>
      <trkpt lat="46.51413" lon="-0.74693">
        <ele>126.89</ele>
        <time>2019-06-16T06:42:26.000Z</time>
      </trkpt>
      <trkpt lat="46.51412" lon="-0.74706">
        <ele>126.4</ele>
        <time>2019-06-16T06:42:27.000Z</time>
      </trkpt>
      <trkpt lat="46.51403" lon="-0.74729">
        <ele>125.58</ele>
        <time>2019-06-16T06:42:29.000Z</time>
      </trkpt>
      <trkpt lat="46.51398" lon="-0.74739">
        <ele>125.25</ele>
        <time>2019-06-16T06:42:30.000Z</time>
      </trkpt>
      <trkpt lat="46.51392" lon="-0.74749">
        <ele>124.92</ele>
        <time>2019-06-16T06:42:31.000Z</time>
      </trkpt>
      <trkpt lat="46.51386" lon="-0.74759">
        <ele>124.64</ele>
        <time>2019-06-16T06:42:32.000Z</time>
      </trkpt>
      <trkpt lat="46.51374" lon="-0.74778">
        <ele>124.15</ele>
        <time>2019-06-16T06:42:34.000Z</time>
      </trkpt>
      <trkpt lat="46.51365" lon="-0.74798">
        <ele>123.76</ele>
        <time>2019-06-16T06:42:36.000Z</time>
      </trkpt>
      <trkpt lat="46.51358" lon="-0.74819">
        <ele>123.5</ele>
        <time>2019-06-16T06:42:38.000Z</time>
      </trkpt>
      <trkpt lat="46.5135" lon="-0.74834">
        <ele>123.2</ele>
        <time>2019-06-16T06:42:40.000Z</time>
      </trkpt>
      <trkpt lat="46.5134" lon="-0.74842">
        <ele>123.09</ele>
        <time>2019-06-16T06:42:42.000Z</time>
      </trkpt>
      <trkpt lat="46.51331" lon="-0.74849">
        <ele>123.05</ele>
        <time>2019-06-16T06:42:44.000Z</time>
      </trkpt>
      <trkpt lat="46.51318" lon="-0.74855">
        <ele>123.08</ele>
        <time>2019-06-16T06:42:46.000Z</time>
      </trkpt>
      <trkpt lat="46.51307" lon="-0.74859">
        <ele>123.49</ele>
        <time>2019-06-16T06:42:48.000Z</time>
      </trkpt>
      <trkpt lat="46.51296" lon="-0.74864">
        <ele>123.89</ele>
        <time>2019-06-16T06:42:50.000Z</time>
      </trkpt>
      <trkpt lat="46.51285" lon="-0.7487">
        <ele>124.27</ele>
        <time>2019-06-16T06:42:52.000Z</time>
      </trkpt>
      <trkpt lat="46.51273" lon="-0.7488">
        <ele>124.79</ele>
        <time>2019-06-16T06:42:54.000Z</time>
      </trkpt>
      <trkpt lat="46.51263" lon="-0.7489">
        <ele>125.43</ele>
        <time>2019-06-16T06:42:56.000Z</time>
      </trkpt>
      <trkpt lat="46.51252" lon="-0.74901">
        <ele>125.92</ele>
        <time>2019-06-16T06:42:58.000Z</time>
      </trkpt>
      <trkpt lat="46.51242" lon="-0.74912">
        <ele>126.22</ele>
        <time>2019-06-16T06:43:00.000Z</time>
      </trkpt>
      <trkpt lat="46.51231" lon="-0.74923">
        <ele>126.43</ele>
        <time>2019-06-16T06:43:02.000Z</time>
      </trkpt>
      <trkpt lat="46.51221" lon="-0.7493">
        <ele>126.7</ele>
        <time>2019-06-16T06:43:04.000Z</time>
      </trkpt>
      <trkpt lat="46.51211" lon="-0.74936">
        <ele>127.04</ele>
        <time>2019-06-16T06:43:06.000Z</time>
      </trkpt>
      <trkpt lat="46.512" lon="-0.74939">
        <ele>127.58</ele>
        <time>2019-06-16T06:43:08.000Z</time>
      </trkpt>
      <trkpt lat="46.51189" lon="-0.74943">
        <ele>128.08</ele>
        <time>2019-06-16T06:43:10.000Z</time>
      </trkpt>
      <trkpt lat="46.51176" lon="-0.74945">
        <ele>128.97</ele>
        <time>2019-06-16T06:43:13.000Z</time>
      </trkpt>
      <trkpt lat="46.51165" lon="-0.74948">
        <ele>129.31</ele>
        <time>2019-06-16T06:43:15.000Z</time>
      </trkpt>
      <trkpt lat="46.51156" lon="-0.74955">
        <ele>129.58</ele>
        <time>2019-06-16T06:43:17.000Z</time>
      </trkpt>
      <trkpt lat="46.51145" lon="-0.74961">
        <ele>129.96</ele>
        <time>2019-06-16T06:43:19.000Z</time>
      </trkpt>
      <trkpt lat="46.51135" lon="-0.74965">
        <ele>130.06</ele>
        <time>2019-06-16T06:43:21.000Z</time>
      </trkpt>
      <trkpt lat="46.51124" lon="-0.74969">
        <ele>129.4</ele>
        <time>2019-06-16T06:43:23.000Z</time>
      </trkpt>
      <trkpt lat="46.5111" lon="-0.74967">
        <ele>128.56</ele>
        <time>2019-06-16T06:43:25.000Z</time>
      </trkpt>
      <trkpt lat="46.51096" lon="-0.74956">
        <ele>128.58</ele>
        <time>2019-06-16T06:43:27.000Z</time>
      </trkpt>
      <trkpt lat="46.51089" lon="-0.74945">
        <ele>129.73</ele>
        <time>2019-06-16T06:43:29.000Z</time>
      </trkpt>
      <trkpt lat="46.51083" lon="-0.74934">
        <ele>131.43</ele>
        <time>2019-06-16T06:43:31.000Z</time>
      </trkpt>
      <trkpt lat="46.51077" lon="-0.74921">
        <ele>132.6</ele>
        <time>2019-06-16T06:43:33.000Z</time>
      </trkpt>
      <trkpt lat="46.51069" lon="-0.74906">
        <ele>133.3</ele>
        <time>2019-06-16T06:43:35.000Z</time>
      </trkpt>
      <trkpt lat="46.5106" lon="-0.74891">
        <ele>134.8</ele>
        <time>2019-06-16T06:43:37.000Z</time>
      </trkpt>
      <trkpt lat="46.51053" lon="-0.74877">
        <ele>136.52</ele>
        <time>2019-06-16T06:43:39.000Z</time>
      </trkpt>
      <trkpt lat="46.51047" lon="-0.74863">
        <ele>137.91</ele>
        <time>2019-06-16T06:43:41.000Z</time>
      </trkpt>
      <trkpt lat="46.51042" lon="-0.74844">
        <ele>138.76</ele>
        <time>2019-06-16T06:43:43.000Z</time>
      </trkpt>
      <trkpt lat="46.51038" lon="-0.74828">
        <ele>142.11</ele>
        <time>2019-06-16T06:43:46.000Z</time>
      </trkpt>
      <trkpt lat="46.51041" lon="-0.74811">
        <ele>142.35</ele>
        <time>2019-06-16T06:43:48.000Z</time>
      </trkpt>
      <trkpt lat="46.5104" lon="-0.74798">
        <ele>142.5</ele>
        <time>2019-06-16T06:43:50.000Z</time>
      </trkpt>
      <trkpt lat="46.51034" lon="-0.74784">
        <ele>143.89</ele>
        <time>2019-06-16T06:43:52.000Z</time>
      </trkpt>
      <trkpt lat="46.51024" lon="-0.74765">
        <ele>145.01</ele>
        <time>2019-06-16T06:43:54.000Z</time>
      </trkpt>
      <trkpt lat="46.51017" lon="-0.74752">
        <ele>145.77</ele>
        <time>2019-06-16T06:43:56.000Z</time>
      </trkpt>
      <trkpt lat="46.51012" lon="-0.7474">
        <ele>146.07</ele>
        <time>2019-06-16T06:43:58.000Z</time>
      </trkpt>
      <trkpt lat="46.51003" lon="-0.74734">
        <ele>145.87</ele>
        <time>2019-06-16T06:44:01.000Z</time>
      </trkpt>
      <trkpt lat="46.50994" lon="-0.74729">
        <ele>145.38</ele>
        <time>2019-06-16T06:44:04.000Z</time>
      </trkpt>
      <trkpt lat="46.50988" lon="-0.74717">
        <ele>144.73</ele>
        <time>2019-06-16T06:44:07.000Z</time>
      </trkpt>
      <trkpt lat="46.50978" lon="-0.74716">
        <ele>142.76</ele>
        <time>2019-06-16T06:44:14.000Z</time>
      </trkpt>
      <trkpt lat="46.50971" lon="-0.74728">
        <ele>140.77</ele>
        <time>2019-06-16T06:44:19.000Z</time>
      </trkpt>
      <trkpt lat="46.50961" lon="-0.74726">
        <ele>139.3</ele>
        <time>2019-06-16T06:44:23.000Z</time>
      </trkpt>
      <trkpt lat="46.5095" lon="-0.74723">
        <ele>138</ele>
        <time>2019-06-16T06:44:27.000Z</time>
      </trkpt>
      <trkpt lat="46.50935" lon="-0.74717">
        <ele>136.96</ele>
        <time>2019-06-16T06:44:30.000Z</time>
      </trkpt>
      <trkpt lat="46.50921" lon="-0.74716">
        <ele>136.16</ele>
        <time>2019-06-16T06:44:32.000Z</time>
      </trkpt>
      <trkpt lat="46.50913" lon="-0.74711">
        <ele>134.15</ele>
        <time>2019-06-16T06:44:38.000Z</time>
      </trkpt>
      <trkpt lat="46.50905" lon="-0.74702">
        <ele>133.41</ele>
        <time>2019-06-16T06:44:41.000Z</time>
      </trkpt>
      <trkpt lat="46.50897" lon="-0.74688">
        <ele>132.74</ele>
        <time>2019-06-16T06:44:44.000Z</time>
      </trkpt>
      <trkpt lat="46.50889" lon="-0.74677">
        <ele>132.01</ele>
        <time>2019-06-16T06:44:47.000Z</time>
      </trkpt>
      <trkpt lat="46.50883" lon="-0.74666">
        <ele>131.32</ele>
        <time>2019-06-16T06:44:49.000Z</time>
      </trkpt>
      <trkpt lat="46.50872" lon="-0.74664">
        <ele>130.34</ele>
        <time>2019-06-16T06:44:52.000Z</time>
      </trkpt>
      <trkpt lat="46.50863" lon="-0.74666">
        <ele>129.46</ele>
        <time>2019-06-16T06:44:55.000Z</time>
      </trkpt>
      <trkpt lat="46.50855" lon="-0.74674">
        <ele>128.73</ele>
        <time>2019-06-16T06:44:58.000Z</time>
      </trkpt>
      <trkpt lat="46.50845" lon="-0.74675">
        <ele>127.8</ele>
        <time>2019-06-16T06:45:02.000Z</time>
      </trkpt>
      <trkpt lat="46.50837" lon="-0.74667">
        <ele>126.64</ele>
        <time>2019-06-16T06:45:08.000Z</time>
      </trkpt>
      <trkpt lat="46.50828" lon="-0.74661">
        <ele>126.14</ele>
        <time>2019-06-16T06:45:16.000Z</time>
      </trkpt>
      <trkpt lat="46.50819" lon="-0.74668">
        <ele>126.04</ele>
        <time>2019-06-16T06:45:20.000Z</time>
      </trkpt>
      <trkpt lat="46.50807" lon="-0.74673">
        <ele>126.05</ele>
        <time>2019-06-16T06:45:22.000Z</time>
      </trkpt>
      <trkpt lat="46.50794" lon="-0.74679">
        <ele>126.16</ele>
        <time>2019-06-16T06:45:24.000Z</time>
      </trkpt>
      <trkpt lat="46.50781" lon="-0.74685">
        <ele>126.89</ele>
        <time>2019-06-16T06:45:26.000Z</time>
      </trkpt>
      <trkpt lat="46.50763" lon="-0.74688">
        <ele>127.72</ele>
        <time>2019-06-16T06:45:27.000Z</time>
      </trkpt>
      <trkpt lat="46.50754" lon="-0.74695">
        <ele>128.32</ele>
        <time>2019-06-16T06:45:29.000Z</time>
      </trkpt>
      <trkpt lat="46.50741" lon="-0.74706">
        <ele>127.38</ele>
        <time>2019-06-16T06:45:31.000Z</time>
      </trkpt>
      <trkpt lat="46.5073" lon="-0.74714">
        <ele>124.81</ele>
        <time>2019-06-16T06:45:33.000Z</time>
      </trkpt>
      <trkpt lat="46.5072" lon="-0.74722">
        <ele>124.46</ele>
        <time>2019-06-16T06:45:36.000Z</time>
      </trkpt>
      <trkpt lat="46.50711" lon="-0.7473">
        <ele>122.29</ele>
        <time>2019-06-16T06:45:39.000Z</time>
      </trkpt>
      <trkpt lat="46.50702" lon="-0.7474">
        <ele>119.74</ele>
        <time>2019-06-16T06:45:41.000Z</time>
      </trkpt>
      <trkpt lat="46.50694" lon="-0.74752">
        <ele>117.23</ele>
        <time>2019-06-16T06:45:43.000Z</time>
      </trkpt>
      <trkpt lat="46.50684" lon="-0.7476">
        <ele>115.93</ele>
        <time>2019-06-16T06:45:45.000Z</time>
      </trkpt>
      <trkpt lat="46.50672" lon="-0.7477">
        <ele>114.65</ele>
        <time>2019-06-16T06:45:47.000Z</time>
      </trkpt>
      <trkpt lat="46.50658" lon="-0.74778">
        <ele>113.34</ele>
        <time>2019-06-16T06:45:49.000Z</time>
      </trkpt>
      <trkpt lat="46.50644" lon="-0.74783">
        <ele>111.63</ele>
        <time>2019-06-16T06:45:51.000Z</time>
      </trkpt>
      <trkpt lat="46.50631" lon="-0.74791">
        <ele>109.96</ele>
        <time>2019-06-16T06:45:53.000Z</time>
      </trkpt>
      <trkpt lat="46.50619" lon="-0.74801">
        <ele>108.72</ele>
        <time>2019-06-16T06:45:55.000Z</time>
      </trkpt>
      <trkpt lat="46.50606" lon="-0.74808">
        <ele>107.81</ele>
        <time>2019-06-16T06:45:57.000Z</time>
      </trkpt>
      <trkpt lat="46.50592" lon="-0.74813">
        <ele>106.69</ele>
        <time>2019-06-16T06:45:59.000Z</time>
      </trkpt>
      <trkpt lat="46.50578" lon="-0.7482">
        <ele>105.77</ele>
        <time>2019-06-16T06:46:01.000Z</time>
      </trkpt>
      <trkpt lat="46.50568" lon="-0.74823">
        <ele>105.12</ele>
        <time>2019-06-16T06:46:02.000Z</time>
      </trkpt>
      <trkpt lat="46.50559" lon="-0.74824">
        <ele>104.11</ele>
        <time>2019-06-16T06:46:03.000Z</time>
      </trkpt>
      <trkpt lat="46.50549" lon="-0.74826">
        <ele>102.61</ele>
        <time>2019-06-16T06:46:04.000Z</time>
      </trkpt>
      <trkpt lat="46.50532" lon="-0.74826">
        <ele>99.67</ele>
        <time>2019-06-16T06:46:06.000Z</time>
      </trkpt>
      <trkpt lat="46.50515" lon="-0.74825">
        <ele>96.44</ele>
        <time>2019-06-16T06:46:08.000Z</time>
      </trkpt>
      <trkpt lat="46.505" lon="-0.74823">
        <ele>93.41</ele>
        <time>2019-06-16T06:46:10.000Z</time>
      </trkpt>
      <trkpt lat="46.50483" lon="-0.74816">
        <ele>90.25</ele>
        <time>2019-06-16T06:46:12.000Z</time>
      </trkpt>
      <trkpt lat="46.50467" lon="-0.74806">
        <ele>87.63</ele>
        <time>2019-06-16T06:46:14.000Z</time>
      </trkpt>
      <trkpt lat="46.50455" lon="-0.74791">
        <ele>87.21</ele>
        <time>2019-06-16T06:46:16.000Z</time>
      </trkpt>
      <trkpt lat="46.50444" lon="-0.74772">
        <ele>87.61</ele>
        <time>2019-06-16T06:46:18.000Z</time>
      </trkpt>
      <trkpt lat="46.50438" lon="-0.7476">
        <ele>87.35</ele>
        <time>2019-06-16T06:46:19.000Z</time>
      </trkpt>
      <trkpt lat="46.50431" lon="-0.74731">
        <ele>88.2</ele>
        <time>2019-06-16T06:46:20.000Z</time>
      </trkpt>
      <trkpt lat="46.50427" lon="-0.74716">
        <ele>89.3</ele>
        <time>2019-06-16T06:46:21.000Z</time>
      </trkpt>
      <trkpt lat="46.50423" lon="-0.74702">
        <ele>90.36</ele>
        <time>2019-06-16T06:46:22.000Z</time>
      </trkpt>
      <trkpt lat="46.5042" lon="-0.74689">
        <ele>91.28</ele>
        <time>2019-06-16T06:46:23.000Z</time>
      </trkpt>
      <trkpt lat="46.50413" lon="-0.74666">
        <ele>92.79</ele>
        <time>2019-06-16T06:46:25.000Z</time>
      </trkpt>
      <trkpt lat="46.50402" lon="-0.74651">
        <ele>94.11</ele>
        <time>2019-06-16T06:46:27.000Z</time>
      </trkpt>
      <trkpt lat="46.50391" lon="-0.74647">
        <ele>95.79</ele>
        <time>2019-06-16T06:46:29.000Z</time>
      </trkpt>
      <trkpt lat="46.50377" lon="-0.74656">
        <ele>96.73</ele>
        <time>2019-06-16T06:46:31.000Z</time>
      </trkpt>
      <trkpt lat="46.50362" lon="-0.74663">
        <ele>97.51</ele>
        <time>2019-06-16T06:46:33.000Z</time>
      </trkpt>
      <trkpt lat="46.50348" lon="-0.74668">
        <ele>98.56</ele>
        <time>2019-06-16T06:46:35.000Z</time>
      </trkpt>
      <trkpt lat="46.50335" lon="-0.74674">
        <ele>99.93</ele>
        <time>2019-06-16T06:46:37.000Z</time>
      </trkpt>
      <trkpt lat="46.50325" lon="-0.74682">
        <ele>101.81</ele>
        <time>2019-06-16T06:46:39.000Z</time>
      </trkpt>
      <trkpt lat="46.50316" lon="-0.74689">
        <ele>104.02</ele>
        <time>2019-06-16T06:46:41.000Z</time>
      </trkpt>
      <trkpt lat="46.50308" lon="-0.74699">
        <ele>106.34</ele>
        <time>2019-06-16T06:46:43.000Z</time>
      </trkpt>
      <trkpt lat="46.50299" lon="-0.74714">
        <ele>107.6</ele>
        <time>2019-06-16T06:46:45.000Z</time>
      </trkpt>
      <trkpt lat="46.50291" lon="-0.74734">
        <ele>106.88</ele>
        <time>2019-06-16T06:46:47.000Z</time>
      </trkpt>
      <trkpt lat="46.50283" lon="-0.74752">
        <ele>104.75</ele>
        <time>2019-06-16T06:46:49.000Z</time>
      </trkpt>
      <trkpt lat="46.50278" lon="-0.74767">
        <ele>102.73</ele>
        <time>2019-06-16T06:46:51.000Z</time>
      </trkpt>
      <trkpt lat="46.50273" lon="-0.74782">
        <ele>101.22</ele>
        <time>2019-06-16T06:46:53.000Z</time>
      </trkpt>
      <trkpt lat="46.50268" lon="-0.74797">
        <ele>99.93</ele>
        <time>2019-06-16T06:46:55.000Z</time>
      </trkpt>
      <trkpt lat="46.50263" lon="-0.74809">
        <ele>98.86</ele>
        <time>2019-06-16T06:46:57.000Z</time>
      </trkpt>
      <trkpt lat="46.50257" lon="-0.74824">
        <ele>97.55</ele>
        <time>2019-06-16T06:47:00.000Z</time>
      </trkpt>
      <trkpt lat="46.50251" lon="-0.74838">
        <ele>97.41</ele>
        <time>2019-06-16T06:47:03.000Z</time>
      </trkpt>
      <trkpt lat="46.50245" lon="-0.74851">
        <ele>97.27</ele>
        <time>2019-06-16T06:47:06.000Z</time>
      </trkpt>
      <trkpt lat="46.50239" lon="-0.74864">
        <ele>97.19</ele>
        <time>2019-06-16T06:47:10.000Z</time>
      </trkpt>
      <trkpt lat="46.50236" lon="-0.74876">
        <ele>97.24</ele>
        <time>2019-06-16T06:47:13.000Z</time>
      </trkpt>
      <trkpt lat="46.50234" lon="-0.7489">
        <ele>97.38</ele>
        <time>2019-06-16T06:47:16.000Z</time>
      </trkpt>
      <trkpt lat="46.50234" lon="-0.74904">
        <ele>97.64</ele>
        <time>2019-06-16T06:47:19.000Z</time>
      </trkpt>
      <trkpt lat="46.50234" lon="-0.74918">
        <ele>98.19</ele>
        <time>2019-06-16T06:47:23.000Z</time>
      </trkpt>
      <trkpt lat="46.50236" lon="-0.74932">
        <ele>98.8</ele>
        <time>2019-06-16T06:47:27.000Z</time>
      </trkpt>
      <trkpt lat="46.50238" lon="-0.74945">
        <ele>99.99</ele>
        <time>2019-06-16T06:47:33.000Z</time>
      </trkpt>
      <trkpt lat="46.50247" lon="-0.74953">
        <ele>101.41</ele>
        <time>2019-06-16T06:47:39.000Z</time>
      </trkpt>
      <trkpt lat="46.50261" lon="-0.74954">
        <ele>102.71</ele>
        <time>2019-06-16T06:47:42.000Z</time>
      </trkpt>
      <trkpt lat="46.5027" lon="-0.74954">
        <ele>104.58</ele>
        <time>2019-06-16T06:47:47.000Z</time>
      </trkpt>
      <trkpt lat="46.5028" lon="-0.74957">
        <ele>105.96</ele>
        <time>2019-06-16T06:47:54.000Z</time>
      </trkpt>
      <trkpt lat="46.50289" lon="-0.74954">
        <ele>106.58</ele>
        <time>2019-06-16T06:47:58.000Z</time>
      </trkpt>
      <trkpt lat="46.50298" lon="-0.7495">
        <ele>107.56</ele>
        <time>2019-06-16T06:48:06.000Z</time>
      </trkpt>
      <trkpt lat="46.50308" lon="-0.74948">
        <ele>108.32</ele>
        <time>2019-06-16T06:48:10.000Z</time>
      </trkpt>
      <trkpt lat="46.50317" lon="-0.74948">
        <ele>110.23</ele>
        <time>2019-06-16T06:48:17.000Z</time>
      </trkpt>
      <trkpt lat="46.50326" lon="-0.74943">
        <ele>112.97</ele>
        <time>2019-06-16T06:48:28.000Z</time>
      </trkpt>
      <trkpt lat="46.50335" lon="-0.74943">
        <ele>114.46</ele>
        <time>2019-06-16T06:48:35.000Z</time>
      </trkpt>
      <trkpt lat="46.50343" lon="-0.74951">
        <ele>115.61</ele>
        <time>2019-06-16T06:48:44.000Z</time>
      </trkpt>
      <trkpt lat="46.50351" lon="-0.74957">
        <ele>116.8</ele>
        <time>2019-06-16T06:48:51.000Z</time>
      </trkpt>
      <trkpt lat="46.50359" lon="-0.74965">
        <ele>118.61</ele>
        <time>2019-06-16T06:49:00.000Z</time>
      </trkpt>
      <trkpt lat="46.50369" lon="-0.74973">
        <ele>120.38</ele>
        <time>2019-06-16T06:49:07.000Z</time>
      </trkpt>
      <trkpt lat="46.50375" lon="-0.74985">
        <ele>121.14</ele>
        <time>2019-06-16T06:49:12.000Z</time>
      </trkpt>
      <trkpt lat="46.50384" lon="-0.74995">
        <ele>121.74</ele>
        <time>2019-06-16T06:49:18.000Z</time>
      </trkpt>
      <trkpt lat="46.50391" lon="-0.75005">
        <ele>122.37</ele>
        <time>2019-06-16T06:49:25.000Z</time>
      </trkpt>
      <trkpt lat="46.50391" lon="-0.75019">
        <ele>123.16</ele>
        <time>2019-06-16T06:49:31.000Z</time>
      </trkpt>
      <trkpt lat="46.50398" lon="-0.75031">
        <ele>124.78</ele>
        <time>2019-06-16T06:49:39.000Z</time>
      </trkpt>
      <trkpt lat="46.50404" lon="-0.75042">
        <ele>125.45</ele>
        <time>2019-06-16T06:49:44.000Z</time>
      </trkpt>
      <trkpt lat="46.50407" lon="-0.75056">
        <ele>126.24</ele>
        <time>2019-06-16T06:49:50.000Z</time>
      </trkpt>
      <trkpt lat="46.50411" lon="-0.75068">
        <ele>127.1</ele>
        <time>2019-06-16T06:49:55.000Z</time>
      </trkpt>
      <trkpt lat="46.50419" lon="-0.75077">
        <ele>128.01</ele>
        <time>2019-06-16T06:50:00.000Z</time>
      </trkpt>
      <trkpt lat="46.50428" lon="-0.75086">
        <ele>129.46</ele>
        <time>2019-06-16T06:50:06.000Z</time>
      </trkpt>
      <trkpt lat="46.50438" lon="-0.75092">
        <ele>130.67</ele>
        <time>2019-06-16T06:50:11.000Z</time>
      </trkpt>
      <trkpt lat="46.50446" lon="-0.75097">
        <ele>131.61</ele>
        <time>2019-06-16T06:50:16.000Z</time>
      </trkpt>
      <trkpt lat="46.50456" lon="-0.75104">
        <ele>132.51</ele>
        <time>2019-06-16T06:50:22.000Z</time>
      </trkpt>
      <trkpt lat="46.50464" lon="-0.7511">
        <ele>133.32</ele>
        <time>2019-06-16T06:50:27.000Z</time>
      </trkpt>
      <trkpt lat="46.50473" lon="-0.75117">
        <ele>134.53</ele>
        <time>2019-06-16T06:50:33.000Z</time>
      </trkpt>
      <trkpt lat="46.50484" lon="-0.7512">
        <ele>135.66</ele>
        <time>2019-06-16T06:50:39.000Z</time>
      </trkpt>
      <trkpt lat="46.50494" lon="-0.75125">
        <ele>136.59</ele>
        <time>2019-06-16T06:50:44.000Z</time>
      </trkpt>
      <trkpt lat="46.50503" lon="-0.7513">
        <ele>137.24</ele>
        <time>2019-06-16T06:50:48.000Z</time>
      </trkpt>
      <trkpt lat="46.50512" lon="-0.75136">
        <ele>138.24</ele>
        <time>2019-06-16T06:50:55.000Z</time>
      </trkpt>
      <trkpt lat="46.50522" lon="-0.75138">
        <ele>138.8</ele>
        <time>2019-06-16T06:51:00.000Z</time>
      </trkpt>
      <trkpt lat="46.50532" lon="-0.75134">
        <ele>139.43</ele>
        <time>2019-06-16T06:51:05.000Z</time>
      </trkpt>
      <trkpt lat="46.50542" lon="-0.75136">
        <ele>139.9</ele>
        <time>2019-06-16T06:51:09.000Z</time>
      </trkpt>
      <trkpt lat="46.50552" lon="-0.75139">
        <ele>140.04</ele>
        <time>2019-06-16T06:51:12.000Z</time>
      </trkpt>
      <trkpt lat="46.50563" lon="-0.75143">
        <ele>140.07</ele>
        <time>2019-06-16T06:51:15.000Z</time>
      </trkpt>
      <trkpt lat="46.50574" lon="-0.75147">
        <ele>140.01</ele>
        <time>2019-06-16T06:51:18.000Z</time>
      </trkpt>
      <trkpt lat="46.50584" lon="-0.75144">
        <ele>139.84</ele>
        <time>2019-06-16T06:51:21.000Z</time>
      </trkpt>
      <trkpt lat="46.50596" lon="-0.75143">
        <ele>139.63</ele>
        <time>2019-06-16T06:51:24.000Z</time>
      </trkpt>
      <trkpt lat="46.5061" lon="-0.75143">
        <ele>139.58</ele>
        <time>2019-06-16T06:51:27.000Z</time>
      </trkpt>
      <trkpt lat="46.50621" lon="-0.75143">
        <ele>138.85</ele>
        <time>2019-06-16T06:51:30.000Z</time>
      </trkpt>
      <trkpt lat="46.50631" lon="-0.7515">
        <ele>138.81</ele>
        <time>2019-06-16T06:51:32.000Z</time>
      </trkpt>
      <trkpt lat="46.5064" lon="-0.75156">
        <ele>139.32</ele>
        <time>2019-06-16T06:51:34.000Z</time>
      </trkpt>
      <trkpt lat="46.50649" lon="-0.75158">
        <ele>140.27</ele>
        <time>2019-06-16T06:51:36.000Z</time>
      </trkpt>
      <trkpt lat="46.50659" lon="-0.75156">
        <ele>141.1</ele>
        <time>2019-06-16T06:51:38.000Z</time>
      </trkpt>
      <trkpt lat="46.50673" lon="-0.75158">
        <ele>141.67</ele>
        <time>2019-06-16T06:51:41.000Z</time>
      </trkpt>
      <trkpt lat="46.50684" lon="-0.75161">
        <ele>142.02</ele>
        <time>2019-06-16T06:51:43.000Z</time>
      </trkpt>
      <trkpt lat="46.50691" lon="-0.75182">
        <ele>142.12</ele>
        <time>2019-06-16T06:51:46.000Z</time>
      </trkpt>
      <trkpt lat="46.50691" lon="-0.75201">
        <ele>142.21</ele>
        <time>2019-06-16T06:51:48.000Z</time>
      </trkpt>
      <trkpt lat="46.50691" lon="-0.75216">
        <ele>143.02</ele>
        <time>2019-06-16T06:51:50.000Z</time>
      </trkpt>
      <trkpt lat="46.50691" lon="-0.75234">
        <ele>144.57</ele>
        <time>2019-06-16T06:51:53.000Z</time>
      </trkpt>
      <trkpt lat="46.50691" lon="-0.75251">
        <ele>145.83</ele>
        <time>2019-06-16T06:51:56.000Z</time>
      </trkpt>
      <trkpt lat="46.50692" lon="-0.75269">
        <ele>146.09</ele>
        <time>2019-06-16T06:51:59.000Z</time>
      </trkpt>
      <trkpt lat="46.50694" lon="-0.75286">
        <ele>146.1</ele>
        <time>2019-06-16T06:52:02.000Z</time>
      </trkpt>
      <trkpt lat="46.50695" lon="-0.75303">
        <ele>146.13</ele>
        <time>2019-06-16T06:52:05.000Z</time>
      </trkpt>
      <trkpt lat="46.50695" lon="-0.75318">
        <ele>146.23</ele>
        <time>2019-06-16T06:52:08.000Z</time>
      </trkpt>
      <trkpt lat="46.50695" lon="-0.75335">
        <ele>146.47</ele>
        <time>2019-06-16T06:52:11.000Z</time>
      </trkpt>
      <trkpt lat="46.50695" lon="-0.75352">
        <ele>147.6</ele>
        <time>2019-06-16T06:52:14.000Z</time>
      </trkpt>
      <trkpt lat="46.50695" lon="-0.75368">
        <ele>148.52</ele>
        <time>2019-06-16T06:52:17.000Z</time>
      </trkpt>
      <trkpt lat="46.50696" lon="-0.75386">
        <ele>149.96</ele>
        <time>2019-06-16T06:52:20.000Z</time>
      </trkpt>
      <trkpt lat="46.50697" lon="-0.75403">
        <ele>151.64</ele>
        <time>2019-06-16T06:52:23.000Z</time>
      </trkpt>
      <trkpt lat="46.50697" lon="-0.75419">
        <ele>151.82</ele>
        <time>2019-06-16T06:52:26.000Z</time>
      </trkpt>
      <trkpt lat="46.50697" lon="-0.75434">
        <ele>152.11</ele>
        <time>2019-06-16T06:52:29.000Z</time>
      </trkpt>
      <trkpt lat="46.50698" lon="-0.75452">
        <ele>152.44</ele>
        <time>2019-06-16T06:52:32.000Z</time>
      </trkpt>
      <trkpt lat="46.507" lon="-0.7547">
        <ele>153.58</ele>
        <time>2019-06-16T06:52:35.000Z</time>
      </trkpt>
      <trkpt lat="46.50703" lon="-0.75488">
        <ele>155.16</ele>
        <time>2019-06-16T06:52:38.000Z</time>
      </trkpt>
      <trkpt lat="46.50705" lon="-0.75507">
        <ele>155.77</ele>
        <time>2019-06-16T06:52:41.000Z</time>
      </trkpt>
      <trkpt lat="46.50707" lon="-0.75526">
        <ele>154.33</ele>
        <time>2019-06-16T06:52:44.000Z</time>
      </trkpt>
      <trkpt lat="46.50708" lon="-0.75546">
        <ele>153.44</ele>
        <time>2019-06-16T06:52:47.000Z</time>
      </trkpt>
      <trkpt lat="46.50709" lon="-0.75562">
        <ele>153.98</ele>
        <time>2019-06-16T06:52:49.000Z</time>
      </trkpt>
      <trkpt lat="46.5071" lon="-0.75575">
        <ele>154.19</ele>
        <time>2019-06-16T06:52:51.000Z</time>
      </trkpt>
      <trkpt lat="46.50711" lon="-0.7559">
        <ele>154.46</ele>
        <time>2019-06-16T06:52:53.000Z</time>
      </trkpt>
      <trkpt lat="46.50712" lon="-0.75605">
        <ele>155.01</ele>
        <time>2019-06-16T06:52:55.000Z</time>
      </trkpt>
      <trkpt lat="46.50714" lon="-0.75622">
        <ele>154.53</ele>
        <time>2019-06-16T06:52:57.000Z</time>
      </trkpt>
      <trkpt lat="46.50715" lon="-0.7564">
        <ele>153.62</ele>
        <time>2019-06-16T06:52:59.000Z</time>
      </trkpt>
      <trkpt lat="46.50716" lon="-0.75657">
        <ele>152.84</ele>
        <time>2019-06-16T06:53:01.000Z</time>
      </trkpt>
      <trkpt lat="46.50718" lon="-0.75672">
        <ele>152.85</ele>
        <time>2019-06-16T06:53:03.000Z</time>
      </trkpt>
      <trkpt lat="46.50719" lon="-0.75689">
        <ele>152.72</ele>
        <time>2019-06-16T06:53:05.000Z</time>
      </trkpt>
      <trkpt lat="46.5072" lon="-0.75704">
        <ele>152.56</ele>
        <time>2019-06-16T06:53:07.000Z</time>
      </trkpt>
      <trkpt lat="46.5072" lon="-0.75723">
        <ele>152.39</ele>
        <time>2019-06-16T06:53:09.000Z</time>
      </trkpt>
      <trkpt lat="46.50722" lon="-0.75741">
        <ele>152.75</ele>
        <time>2019-06-16T06:53:11.000Z</time>
      </trkpt>
      <trkpt lat="46.50723" lon="-0.75761">
        <ele>153.6</ele>
        <time>2019-06-16T06:53:13.000Z</time>
      </trkpt>
      <trkpt lat="46.50723" lon="-0.75782">
        <ele>154.12</ele>
        <time>2019-06-16T06:53:15.000Z</time>
      </trkpt>
      <trkpt lat="46.50725" lon="-0.75799">
        <ele>155.2</ele>
        <time>2019-06-16T06:53:17.000Z</time>
      </trkpt>
      <trkpt lat="46.50726" lon="-0.75814">
        <ele>155.57</ele>
        <time>2019-06-16T06:53:19.000Z</time>
      </trkpt>
      <trkpt lat="46.50726" lon="-0.75832">
        <ele>155.66</ele>
        <time>2019-06-16T06:53:22.000Z</time>
      </trkpt>
      <trkpt lat="46.50726" lon="-0.7585">
        <ele>155.57</ele>
        <time>2019-06-16T06:53:25.000Z</time>
      </trkpt>
      <trkpt lat="46.50726" lon="-0.75865">
        <ele>155.58</ele>
        <time>2019-06-16T06:53:27.000Z</time>
      </trkpt>
      <trkpt lat="46.50718" lon="-0.75868">
        <ele>155.72</ele>
        <time>2019-06-16T06:53:36.000Z</time>
      </trkpt>
      <trkpt lat="46.50707" lon="-0.75861">
        <ele>155.76</ele>
        <time>2019-06-16T06:53:39.000Z</time>
      </trkpt>
      <trkpt lat="46.50697" lon="-0.7586">
        <ele>155.8</ele>
        <time>2019-06-16T06:53:42.000Z</time>
      </trkpt>
      <trkpt lat="46.50686" lon="-0.75852">
        <ele>155.85</ele>
        <time>2019-06-16T06:53:45.000Z</time>
      </trkpt>
      <trkpt lat="46.50676" lon="-0.75844">
        <ele>155.97</ele>
        <time>2019-06-16T06:53:49.000Z</time>
      </trkpt>
      <trkpt lat="46.50667" lon="-0.75846">
        <ele>156.15</ele>
        <time>2019-06-16T06:53:52.000Z</time>
      </trkpt>
      <trkpt lat="46.50658" lon="-0.75851">
        <ele>157.22</ele>
        <time>2019-06-16T06:53:57.000Z</time>
      </trkpt>
      <trkpt lat="46.5065" lon="-0.75854">
        <ele>157.96</ele>
        <time>2019-06-16T06:54:00.000Z</time>
      </trkpt>
      <trkpt lat="46.50639" lon="-0.75858">
        <ele>158.79</ele>
        <time>2019-06-16T06:54:03.000Z</time>
      </trkpt>
      <trkpt lat="46.50629" lon="-0.75859">
        <ele>159.75</ele>
        <time>2019-06-16T06:54:06.000Z</time>
      </trkpt>
      <trkpt lat="46.5062" lon="-0.75864">
        <ele>160.73</ele>
        <time>2019-06-16T06:54:09.000Z</time>
      </trkpt>
      <trkpt lat="46.50611" lon="-0.75866">
        <ele>161.23</ele>
        <time>2019-06-16T06:54:11.000Z</time>
      </trkpt>
      <trkpt lat="46.506" lon="-0.7588">
        <ele>161.58</ele>
        <time>2019-06-16T06:54:13.000Z</time>
      </trkpt>
      <trkpt lat="46.50593" lon="-0.75889">
        <ele>161.79</ele>
        <time>2019-06-16T06:54:16.000Z</time>
      </trkpt>
      <trkpt lat="46.50584" lon="-0.75881">
        <ele>162.12</ele>
        <time>2019-06-16T06:54:20.000Z</time>
      </trkpt>
      <trkpt lat="46.50574" lon="-0.75872">
        <ele>165.12</ele>
        <time>2019-06-16T06:54:23.000Z</time>
      </trkpt>
      <trkpt lat="46.50567" lon="-0.75861">
        <ele>165.43</ele>
        <time>2019-06-16T06:54:26.000Z</time>
      </trkpt>
      <trkpt lat="46.50556" lon="-0.75845">
        <ele>169.71</ele>
        <time>2019-06-16T06:54:28.000Z</time>
      </trkpt>
      <trkpt lat="46.50548" lon="-0.75834">
        <ele>170.1</ele>
        <time>2019-06-16T06:54:30.000Z</time>
      </trkpt>
      <trkpt lat="46.50533" lon="-0.75817">
        <ele>175.85</ele>
        <time>2019-06-16T06:54:33.000Z</time>
      </trkpt>
      <trkpt lat="46.50521" lon="-0.75802">
        <ele>176.04</ele>
        <time>2019-06-16T06:54:35.000Z</time>
      </trkpt>
      <trkpt lat="46.50504" lon="-0.75799">
        <ele>176.02</ele>
        <time>2019-06-16T06:54:37.000Z</time>
      </trkpt>
      <trkpt lat="46.50491" lon="-0.75806">
        <ele>175.73</ele>
        <time>2019-06-16T06:54:39.000Z</time>
      </trkpt>
      <trkpt lat="46.50477" lon="-0.7581">
        <ele>175.31</ele>
        <time>2019-06-16T06:54:41.000Z</time>
      </trkpt>
      <trkpt lat="46.50465" lon="-0.7581">
        <ele>172.03</ele>
        <time>2019-06-16T06:54:43.000Z</time>
      </trkpt>
      <trkpt lat="46.50452" lon="-0.75811">
        <ele>166.76</ele>
        <time>2019-06-16T06:54:45.000Z</time>
      </trkpt>
      <trkpt lat="46.50442" lon="-0.75813">
        <ele>164.4</ele>
        <time>2019-06-16T06:54:47.000Z</time>
      </trkpt>
      <trkpt lat="46.50431" lon="-0.75814">
        <ele>163.31</ele>
        <time>2019-06-16T06:54:49.000Z</time>
      </trkpt>
      <trkpt lat="46.5042" lon="-0.75815">
        <ele>162.61</ele>
        <time>2019-06-16T06:54:51.000Z</time>
      </trkpt>
      <trkpt lat="46.50407" lon="-0.75814">
        <ele>162.42</ele>
        <time>2019-06-16T06:54:54.000Z</time>
      </trkpt>
      <trkpt lat="46.50393" lon="-0.75818">
        <ele>162.03</ele>
        <time>2019-06-16T06:54:56.000Z</time>
      </trkpt>
      <trkpt lat="46.50377" lon="-0.75818">
        <ele>161.37</ele>
        <time>2019-06-16T06:54:58.000Z</time>
      </trkpt>
      <trkpt lat="46.50364" lon="-0.75817">
        <ele>161.22</ele>
        <time>2019-06-16T06:55:00.000Z</time>
      </trkpt>
      <trkpt lat="46.50356" lon="-0.75827">
        <ele>161.03</ele>
        <time>2019-06-16T06:55:02.000Z</time>
      </trkpt>
      <trkpt lat="46.50348" lon="-0.75835">
        <ele>160.62</ele>
        <time>2019-06-16T06:55:04.000Z</time>
      </trkpt>
      <trkpt lat="46.50339" lon="-0.7585">
        <ele>160.03</ele>
        <time>2019-06-16T06:55:07.000Z</time>
      </trkpt>
      <trkpt lat="46.50336" lon="-0.75866">
        <ele>156.01</ele>
        <time>2019-06-16T06:55:09.000Z</time>
      </trkpt>
      <trkpt lat="46.50332" lon="-0.75878">
        <ele>154.47</ele>
        <time>2019-06-16T06:55:11.000Z</time>
      </trkpt>
      <trkpt lat="46.50325" lon="-0.75889">
        <ele>154.25</ele>
        <time>2019-06-16T06:55:13.000Z</time>
      </trkpt>
      <trkpt lat="46.50318" lon="-0.75902">
        <ele>153.3</ele>
        <time>2019-06-16T06:55:15.000Z</time>
      </trkpt>
      <trkpt lat="46.50309" lon="-0.75912">
        <ele>152.42</ele>
        <time>2019-06-16T06:55:17.000Z</time>
      </trkpt>
      <trkpt lat="46.50299" lon="-0.75924">
        <ele>152.36</ele>
        <time>2019-06-16T06:55:20.000Z</time>
      </trkpt>
      <trkpt lat="46.50289" lon="-0.75933">
        <ele>152.3</ele>
        <time>2019-06-16T06:55:23.000Z</time>
      </trkpt>
      <trkpt lat="46.50283" lon="-0.75945">
        <ele>152.31</ele>
        <time>2019-06-16T06:55:25.000Z</time>
      </trkpt>
      <trkpt lat="46.50275" lon="-0.75957">
        <ele>152.5</ele>
        <time>2019-06-16T06:55:27.000Z</time>
      </trkpt>
      <trkpt lat="46.50268" lon="-0.75966">
        <ele>153.11</ele>
        <time>2019-06-16T06:55:29.000Z</time>
      </trkpt>
      <trkpt lat="46.5026" lon="-0.75977">
        <ele>154.5</ele>
        <time>2019-06-16T06:55:31.000Z</time>
      </trkpt>
      <trkpt lat="46.50253" lon="-0.75985">
        <ele>154.66</ele>
        <time>2019-06-16T06:55:36.000Z</time>
      </trkpt>
      <trkpt lat="46.50245" lon="-0.75995">
        <ele>154.38</ele>
        <time>2019-06-16T06:55:40.000Z</time>
      </trkpt>
      <trkpt lat="46.50237" lon="-0.76">
        <ele>154.04</ele>
        <time>2019-06-16T06:55:42.000Z</time>
      </trkpt>
      <trkpt lat="46.50237" lon="-0.76014">
        <ele>153.64</ele>
        <time>2019-06-16T06:55:45.000Z</time>
      </trkpt>
      <trkpt lat="46.5024" lon="-0.76027">
        <ele>153.46</ele>
        <time>2019-06-16T06:55:48.000Z</time>
      </trkpt>
      <trkpt lat="46.50243" lon="-0.7604">
        <ele>153.45</ele>
        <time>2019-06-16T06:55:51.000Z</time>
      </trkpt>
      <trkpt lat="46.50249" lon="-0.76051">
        <ele>153.48</ele>
        <time>2019-06-16T06:55:53.000Z</time>
      </trkpt>
      <trkpt lat="46.50258" lon="-0.76071">
        <ele>153.67</ele>
        <time>2019-06-16T06:55:56.000Z</time>
      </trkpt>
      <trkpt lat="46.50268" lon="-0.76083">
        <ele>153.78</ele>
        <time>2019-06-16T06:55:58.000Z</time>
      </trkpt>
      <trkpt lat="46.50277" lon="-0.76094">
        <ele>153.62</ele>
        <time>2019-06-16T06:56:01.000Z</time>
      </trkpt>
      <trkpt lat="46.50284" lon="-0.76107">
        <ele>153.12</ele>
        <time>2019-06-16T06:56:06.000Z</time>
      </trkpt>
      <trkpt lat="46.50288" lon="-0.76122">
        <ele>152.38</ele>
        <time>2019-06-16T06:56:11.000Z</time>
      </trkpt>
      <trkpt lat="46.50288" lon="-0.76136">
        <ele>152.01</ele>
        <time>2019-06-16T06:56:14.000Z</time>
      </trkpt>
      <trkpt lat="46.50284" lon="-0.76149">
        <ele>151.56</ele>
        <time>2019-06-16T06:56:18.000Z</time>
      </trkpt>
      <trkpt lat="46.50271" lon="-0.7615">
        <ele>151.22</ele>
        <time>2019-06-16T06:56:21.000Z</time>
      </trkpt>
      <trkpt lat="46.50257" lon="-0.7615">
        <ele>151.07</ele>
        <time>2019-06-16T06:56:23.000Z</time>
      </trkpt>
      <trkpt lat="46.50245" lon="-0.76156">
        <ele>150.41</ele>
        <time>2019-06-16T06:56:25.000Z</time>
      </trkpt>
      <trkpt lat="46.50236" lon="-0.76163">
        <ele>150.33</ele>
        <time>2019-06-16T06:56:27.000Z</time>
      </trkpt>
      <trkpt lat="46.50227" lon="-0.76173">
        <ele>150.09</ele>
        <time>2019-06-16T06:56:30.000Z</time>
      </trkpt>
      <trkpt lat="46.50217" lon="-0.76175">
        <ele>149.89</ele>
        <time>2019-06-16T06:56:33.000Z</time>
      </trkpt>
      <trkpt lat="46.50206" lon="-0.76179">
        <ele>150.07</ele>
        <time>2019-06-16T06:56:36.000Z</time>
      </trkpt>
      <trkpt lat="46.50198" lon="-0.76186">
        <ele>150.45</ele>
        <time>2019-06-16T06:56:38.000Z</time>
      </trkpt>
      <trkpt lat="46.50193" lon="-0.76198">
        <ele>150.81</ele>
        <time>2019-06-16T06:56:40.000Z</time>
      </trkpt>
      <trkpt lat="46.50189" lon="-0.76211">
        <ele>151.1</ele>
        <time>2019-06-16T06:56:42.000Z</time>
      </trkpt>
      <trkpt lat="46.50182" lon="-0.76221">
        <ele>151.67</ele>
        <time>2019-06-16T06:56:45.000Z</time>
      </trkpt>
      <trkpt lat="46.50176" lon="-0.76232">
        <ele>152.13</ele>
        <time>2019-06-16T06:56:47.000Z</time>
      </trkpt>
      <trkpt lat="46.50168" lon="-0.76242">
        <ele>152.56</ele>
        <time>2019-06-16T06:56:49.000Z</time>
      </trkpt>
      <trkpt lat="46.5016" lon="-0.76253">
        <ele>152.82</ele>
        <time>2019-06-16T06:56:51.000Z</time>
      </trkpt>
      <trkpt lat="46.50154" lon="-0.76271">
        <ele>152.9</ele>
        <time>2019-06-16T06:56:53.000Z</time>
      </trkpt>
      <trkpt lat="46.50148" lon="-0.76284">
        <ele>152.77</ele>
        <time>2019-06-16T06:56:55.000Z</time>
      </trkpt>
      <trkpt lat="46.50147" lon="-0.76302">
        <ele>152.03</ele>
        <time>2019-06-16T06:56:58.000Z</time>
      </trkpt>
      <trkpt lat="46.50145" lon="-0.76319">
        <ele>152.09</ele>
        <time>2019-06-16T06:57:00.000Z</time>
      </trkpt>
      <trkpt lat="46.50141" lon="-0.76336">
        <ele>152.27</ele>
        <time>2019-06-16T06:57:03.000Z</time>
      </trkpt>
      <trkpt lat="46.50135" lon="-0.7635">
        <ele>152.39</ele>
        <time>2019-06-16T06:57:05.000Z</time>
      </trkpt>
      <trkpt lat="46.50132" lon="-0.76366">
        <ele>152.38</ele>
        <time>2019-06-16T06:57:08.000Z</time>
      </trkpt>
      <trkpt lat="46.50131" lon="-0.76385">
        <ele>152.03</ele>
        <time>2019-06-16T06:57:12.000Z</time>
      </trkpt>
      <trkpt lat="46.50126" lon="-0.76401">
        <ele>151.81</ele>
        <time>2019-06-16T06:57:14.000Z</time>
      </trkpt>
      <trkpt lat="46.50121" lon="-0.76412">
        <ele>151.58</ele>
        <time>2019-06-16T06:57:16.000Z</time>
      </trkpt>
      <trkpt lat="46.50114" lon="-0.76424">
        <ele>150.41</ele>
        <time>2019-06-16T06:57:23.000Z</time>
      </trkpt>
      <trkpt lat="46.50108" lon="-0.76435">
        <ele>149.99</ele>
        <time>2019-06-16T06:57:26.000Z</time>
      </trkpt>
      <trkpt lat="46.50105" lon="-0.76448">
        <ele>149.26</ele>
        <time>2019-06-16T06:57:31.000Z</time>
      </trkpt>
      <trkpt lat="46.50108" lon="-0.76466">
        <ele>148.9</ele>
        <time>2019-06-16T06:57:35.000Z</time>
      </trkpt>
      <trkpt lat="46.50112" lon="-0.7648">
        <ele>148.9</ele>
        <time>2019-06-16T06:57:37.000Z</time>
      </trkpt>
      <trkpt lat="46.50114" lon="-0.76495">
        <ele>148.97</ele>
        <time>2019-06-16T06:57:40.000Z</time>
      </trkpt>
      <trkpt lat="46.50116" lon="-0.76511">
        <ele>148.98</ele>
        <time>2019-06-16T06:57:42.000Z</time>
      </trkpt>
      <trkpt lat="46.50115" lon="-0.76524">
        <ele>148.79</ele>
        <time>2019-06-16T06:57:47.000Z</time>
      </trkpt>
      <trkpt lat="46.50108" lon="-0.76536">
        <ele>148.26</ele>
        <time>2019-06-16T06:57:53.000Z</time>
      </trkpt>
      <trkpt lat="46.50096" lon="-0.76546">
        <ele>147.67</ele>
        <time>2019-06-16T06:57:56.000Z</time>
      </trkpt>
      <trkpt lat="46.50087" lon="-0.76551">
        <ele>147.1</ele>
        <time>2019-06-16T06:57:59.000Z</time>
      </trkpt>
      <trkpt lat="46.50078" lon="-0.76554">
        <ele>146.13</ele>
        <time>2019-06-16T06:58:04.000Z</time>
      </trkpt>
      <trkpt lat="46.50072" lon="-0.76565">
        <ele>145.59</ele>
        <time>2019-06-16T06:58:07.000Z</time>
      </trkpt>
      <trkpt lat="46.50063" lon="-0.76576">
        <ele>145.3</ele>
        <time>2019-06-16T06:58:09.000Z</time>
      </trkpt>
      <trkpt lat="46.50059" lon="-0.76592">
        <ele>144.94</ele>
        <time>2019-06-16T06:58:12.000Z</time>
      </trkpt>
      <trkpt lat="46.50058" lon="-0.76607">
        <ele>144.59</ele>
        <time>2019-06-16T06:58:15.000Z</time>
      </trkpt>
      <trkpt lat="46.50052" lon="-0.7662">
        <ele>144.11</ele>
        <time>2019-06-16T06:58:19.000Z</time>
      </trkpt>
      <trkpt lat="46.50046" lon="-0.76632">
        <ele>143.76</ele>
        <time>2019-06-16T06:58:22.000Z</time>
      </trkpt>
      <trkpt lat="46.50041" lon="-0.76643">
        <ele>143.45</ele>
        <time>2019-06-16T06:58:24.000Z</time>
      </trkpt>
      <trkpt lat="46.50035" lon="-0.76653">
        <ele>143.12</ele>
        <time>2019-06-16T06:58:26.000Z</time>
      </trkpt>
      <trkpt lat="46.50029" lon="-0.76663">
        <ele>142.5</ele>
        <time>2019-06-16T06:58:31.000Z</time>
      </trkpt>
      <trkpt lat="46.5002" lon="-0.76673">
        <ele>141.99</ele>
        <time>2019-06-16T06:58:35.000Z</time>
      </trkpt>
      <trkpt lat="46.50012" lon="-0.76684">
        <ele>141.38</ele>
        <time>2019-06-16T06:58:39.000Z</time>
      </trkpt>
      <trkpt lat="46.50005" lon="-0.76695">
        <ele>140.58</ele>
        <time>2019-06-16T06:58:44.000Z</time>
      </trkpt>
      <trkpt lat="46.49997" lon="-0.76707">
        <ele>139.73</ele>
        <time>2019-06-16T06:58:48.000Z</time>
      </trkpt>
      <trkpt lat="46.49989" lon="-0.76718">
        <ele>138.9</ele>
        <time>2019-06-16T06:58:52.000Z</time>
      </trkpt>
      <trkpt lat="46.49981" lon="-0.76723">
        <ele>138.29</ele>
        <time>2019-06-16T06:58:56.000Z</time>
      </trkpt>
      <trkpt lat="46.49974" lon="-0.76731">
        <ele>137.75</ele>
        <time>2019-06-16T06:59:00.000Z</time>
      </trkpt>
      <trkpt lat="46.49966" lon="-0.76739">
        <ele>137.26</ele>
        <time>2019-06-16T06:59:04.000Z</time>
      </trkpt>
      <trkpt lat="46.49957" lon="-0.76743">
        <ele>136.89</ele>
        <time>2019-06-16T06:59:07.000Z</time>
      </trkpt>
      <trkpt lat="46.49949" lon="-0.76751">
        <ele>136.36</ele>
        <time>2019-06-16T06:59:11.000Z</time>
      </trkpt>
      <trkpt lat="46.49942" lon="-0.7676">
        <ele>135.89</ele>
        <time>2019-06-16T06:59:16.000Z</time>
      </trkpt>
      <trkpt lat="46.49933" lon="-0.76764">
        <ele>136.15</ele>
        <time>2019-06-16T06:59:21.000Z</time>
      </trkpt>
      <trkpt lat="46.49924" lon="-0.7677">
        <ele>136.95</ele>
        <time>2019-06-16T06:59:25.000Z</time>
      </trkpt>
      <trkpt lat="46.49915" lon="-0.7678">
        <ele>138.05</ele>
        <time>2019-06-16T06:59:30.000Z</time>
      </trkpt>
      <trkpt lat="46.49907" lon="-0.76786">
        <ele>138.92</ele>
        <time>2019-06-16T06:59:34.000Z</time>
      </trkpt>
      <trkpt lat="46.49899" lon="-0.76794">
        <ele>139.54</ele>
        <time>2019-06-16T06:59:37.000Z</time>
      </trkpt>
      <trkpt lat="46.49889" lon="-0.768">
        <ele>140.86</ele>
        <time>2019-06-16T06:59:43.000Z</time>
      </trkpt>
      <trkpt lat="46.49881" lon="-0.76809">
        <ele>141.69</ele>
        <time>2019-06-16T06:59:47.000Z</time>
      </trkpt>
      <trkpt lat="46.49874" lon="-0.76818">
        <ele>142.42</ele>
        <time>2019-06-16T06:59:51.000Z</time>
      </trkpt>
      <trkpt lat="46.49861" lon="-0.76832">
        <ele>143.14</ele>
        <time>2019-06-16T06:59:55.000Z</time>
      </trkpt>
      <trkpt lat="46.49852" lon="-0.76846">
        <ele>143.5</ele>
        <time>2019-06-16T06:59:58.000Z</time>
      </trkpt>
      <trkpt lat="46.49844" lon="-0.76854">
        <ele>143.66</ele>
        <time>2019-06-16T07:00:00.000Z</time>
      </trkpt>
      <trkpt lat="46.49834" lon="-0.76865">
        <ele>143.86</ele>
        <time>2019-06-16T07:00:03.000Z</time>
      </trkpt>
      <trkpt lat="46.49826" lon="-0.76879">
        <ele>143.96</ele>
        <time>2019-06-16T07:00:06.000Z</time>
      </trkpt>
      <trkpt lat="46.49819" lon="-0.7689">
        <ele>143.99</ele>
        <time>2019-06-16T07:00:08.000Z</time>
      </trkpt>
      <trkpt lat="46.49824" lon="-0.76903">
        <ele>144.45</ele>
        <time>2019-06-16T07:00:12.000Z</time>
      </trkpt>
      <trkpt lat="46.49826" lon="-0.76916">
        <ele>144.97</ele>
        <time>2019-06-16T07:00:14.000Z</time>
      </trkpt>
      <trkpt lat="46.49831" lon="-0.76932">
        <ele>145.43</ele>
        <time>2019-06-16T07:00:16.000Z</time>
      </trkpt>
      <trkpt lat="46.49839" lon="-0.76947">
        <ele>145.76</ele>
        <time>2019-06-16T07:00:18.000Z</time>
      </trkpt>
      <trkpt lat="46.49845" lon="-0.76959">
        <ele>145.89</ele>
        <time>2019-06-16T07:00:19.000Z</time>
      </trkpt>
      <trkpt lat="46.49854" lon="-0.76973">
        <ele>147.08</ele>
        <time>2019-06-16T07:00:21.000Z</time>
      </trkpt>
      <trkpt lat="46.49863" lon="-0.76991">
        <ele>145.79</ele>
        <time>2019-06-16T07:00:23.000Z</time>
      </trkpt>
      <trkpt lat="46.49876" lon="-0.77009">
        <ele>144.55</ele>
        <time>2019-06-16T07:00:25.000Z</time>
      </trkpt>
      <trkpt lat="46.49887" lon="-0.77021">
        <ele>143.86</ele>
        <time>2019-06-16T07:00:27.000Z</time>
      </trkpt>
      <trkpt lat="46.49896" lon="-0.77035">
        <ele>143.11</ele>
        <time>2019-06-16T07:00:29.000Z</time>
      </trkpt>
      <trkpt lat="46.49905" lon="-0.77051">
        <ele>142.32</ele>
        <time>2019-06-16T07:00:31.000Z</time>
      </trkpt>
      <trkpt lat="46.49913" lon="-0.77064">
        <ele>141.99</ele>
        <time>2019-06-16T07:00:33.000Z</time>
      </trkpt>
      <trkpt lat="46.49919" lon="-0.7708">
        <ele>142.53</ele>
        <time>2019-06-16T07:00:36.000Z</time>
      </trkpt>
      <trkpt lat="46.49921" lon="-0.77094">
        <ele>142.68</ele>
        <time>2019-06-16T07:00:38.000Z</time>
      </trkpt>
      <trkpt lat="46.49925" lon="-0.77107">
        <ele>142.97</ele>
        <time>2019-06-16T07:00:41.000Z</time>
      </trkpt>
      <trkpt lat="46.4993" lon="-0.7712">
        <ele>143.3</ele>
        <time>2019-06-16T07:00:44.000Z</time>
      </trkpt>
      <trkpt lat="46.49933" lon="-0.77137">
        <ele>143.64</ele>
        <time>2019-06-16T07:00:47.000Z</time>
      </trkpt>
      <trkpt lat="46.49934" lon="-0.77151">
        <ele>143.84</ele>
        <time>2019-06-16T07:00:49.000Z</time>
      </trkpt>
      <trkpt lat="46.49938" lon="-0.77165">
        <ele>144.15</ele>
        <time>2019-06-16T07:00:52.000Z</time>
      </trkpt>
      <trkpt lat="46.49944" lon="-0.77177">
        <ele>144.36</ele>
        <time>2019-06-16T07:00:54.000Z</time>
      </trkpt>
      <trkpt lat="46.4995" lon="-0.77188">
        <ele>144.55</ele>
        <time>2019-06-16T07:00:56.000Z</time>
      </trkpt>
      <trkpt lat="46.49957" lon="-0.77199">
        <ele>144.71</ele>
        <time>2019-06-16T07:00:58.000Z</time>
      </trkpt>
      <trkpt lat="46.49962" lon="-0.7721">
        <ele>144.83</ele>
        <time>2019-06-16T07:01:00.000Z</time>
      </trkpt>
      <trkpt lat="46.49969" lon="-0.77221">
        <ele>145.9</ele>
        <time>2019-06-16T07:01:02.000Z</time>
      </trkpt>
      <trkpt lat="46.49977" lon="-0.77236">
        <ele>146.29</ele>
        <time>2019-06-16T07:01:04.000Z</time>
      </trkpt>
      <trkpt lat="46.49983" lon="-0.7725">
        <ele>146</ele>
        <time>2019-06-16T07:01:06.000Z</time>
      </trkpt>
      <trkpt lat="46.49989" lon="-0.77262">
        <ele>145.18</ele>
        <time>2019-06-16T07:01:08.000Z</time>
      </trkpt>
      <trkpt lat="46.49998" lon="-0.77278">
        <ele>144.56</ele>
        <time>2019-06-16T07:01:10.000Z</time>
      </trkpt>
      <trkpt lat="46.50005" lon="-0.77291">
        <ele>144.25</ele>
        <time>2019-06-16T07:01:12.000Z</time>
      </trkpt>
      <trkpt lat="46.50016" lon="-0.77298">
        <ele>144.41</ele>
        <time>2019-06-16T07:01:14.000Z</time>
      </trkpt>
      <trkpt lat="46.50028" lon="-0.77308">
        <ele>144.86</ele>
        <time>2019-06-16T07:01:16.000Z</time>
      </trkpt>
      <trkpt lat="46.50042" lon="-0.77306">
        <ele>146.22</ele>
        <time>2019-06-16T07:01:19.000Z</time>
      </trkpt>
      <trkpt lat="46.50052" lon="-0.77305">
        <ele>146.29</ele>
        <time>2019-06-16T07:01:21.000Z</time>
      </trkpt>
      <trkpt lat="46.50062" lon="-0.77304">
        <ele>146.19</ele>
        <time>2019-06-16T07:01:23.000Z</time>
      </trkpt>
      <trkpt lat="46.50072" lon="-0.77302">
        <ele>144.16</ele>
        <time>2019-06-16T07:01:26.000Z</time>
      </trkpt>
      <trkpt lat="46.50083" lon="-0.77305">
        <ele>142.89</ele>
        <time>2019-06-16T07:01:27.000Z</time>
      </trkpt>
      <trkpt lat="46.50096" lon="-0.77309">
        <ele>141.72</ele>
        <time>2019-06-16T07:01:29.000Z</time>
      </trkpt>
      <trkpt lat="46.50105" lon="-0.77316">
        <ele>141.16</ele>
        <time>2019-06-16T07:01:31.000Z</time>
      </trkpt>
      <trkpt lat="46.50116" lon="-0.77324">
        <ele>141.56</ele>
        <time>2019-06-16T07:01:33.000Z</time>
      </trkpt>
      <trkpt lat="46.50131" lon="-0.77335">
        <ele>140.94</ele>
        <time>2019-06-16T07:01:35.000Z</time>
      </trkpt>
      <trkpt lat="46.50145" lon="-0.77343">
        <ele>140.46</ele>
        <time>2019-06-16T07:01:37.000Z</time>
      </trkpt>
      <trkpt lat="46.5016" lon="-0.77351">
        <ele>139.95</ele>
        <time>2019-06-16T07:01:39.000Z</time>
      </trkpt>
      <trkpt lat="46.50173" lon="-0.77355">
        <ele>139.56</ele>
        <time>2019-06-16T07:01:41.000Z</time>
      </trkpt>
      <trkpt lat="46.50188" lon="-0.77367">
        <ele>139.52</ele>
        <time>2019-06-16T07:01:43.000Z</time>
      </trkpt>
      <trkpt lat="46.50203" lon="-0.77374">
        <ele>138.94</ele>
        <time>2019-06-16T07:01:45.000Z</time>
      </trkpt>
      <trkpt lat="46.50213" lon="-0.77378">
        <ele>138.9</ele>
        <time>2019-06-16T07:01:46.000Z</time>
      </trkpt>
      <trkpt lat="46.50229" lon="-0.77386">
        <ele>138.62</ele>
        <time>2019-06-16T07:01:48.000Z</time>
      </trkpt>
      <trkpt lat="46.50245" lon="-0.77392">
        <ele>136.66</ele>
        <time>2019-06-16T07:01:50.000Z</time>
      </trkpt>
      <trkpt lat="46.50259" lon="-0.77402">
        <ele>133.74</ele>
        <time>2019-06-16T07:01:52.000Z</time>
      </trkpt>
      <trkpt lat="46.50269" lon="-0.77413">
        <ele>130.72</ele>
        <time>2019-06-16T07:01:54.000Z</time>
      </trkpt>
      <trkpt lat="46.50277" lon="-0.77427">
        <ele>129.07</ele>
        <time>2019-06-16T07:01:59.000Z</time>
      </trkpt>
      <trkpt lat="46.50285" lon="-0.77439">
        <ele>129.32</ele>
        <time>2019-06-16T07:02:02.000Z</time>
      </trkpt>
      <trkpt lat="46.50294" lon="-0.77454">
        <ele>129.63</ele>
        <time>2019-06-16T07:02:05.000Z</time>
      </trkpt>
      <trkpt lat="46.50303" lon="-0.77468">
        <ele>129.74</ele>
        <time>2019-06-16T07:02:07.000Z</time>
      </trkpt>
      <trkpt lat="46.50313" lon="-0.77484">
        <ele>129.68</ele>
        <time>2019-06-16T07:02:09.000Z</time>
      </trkpt>
      <trkpt lat="46.50322" lon="-0.77502">
        <ele>128.35</ele>
        <time>2019-06-16T07:02:11.000Z</time>
      </trkpt>
      <trkpt lat="46.50328" lon="-0.77519">
        <ele>126.9</ele>
        <time>2019-06-16T07:02:13.000Z</time>
      </trkpt>
      <trkpt lat="46.50333" lon="-0.77531">
        <ele>126.66</ele>
        <time>2019-06-16T07:02:15.000Z</time>
      </trkpt>
      <trkpt lat="46.50337" lon="-0.77546">
        <ele>126.49</ele>
        <time>2019-06-16T07:02:17.000Z</time>
      </trkpt>
      <trkpt lat="46.50342" lon="-0.77559">
        <ele>126.39</ele>
        <time>2019-06-16T07:02:19.000Z</time>
      </trkpt>
      <trkpt lat="46.50349" lon="-0.77572">
        <ele>126.31</ele>
        <time>2019-06-16T07:02:21.000Z</time>
      </trkpt>
      <trkpt lat="46.50358" lon="-0.7759">
        <ele>126.21</ele>
        <time>2019-06-16T07:02:24.000Z</time>
      </trkpt>
      <trkpt lat="46.50363" lon="-0.77602">
        <ele>126.2</ele>
        <time>2019-06-16T07:02:25.000Z</time>
      </trkpt>
      <trkpt lat="46.50367" lon="-0.77614">
        <ele>126.17</ele>
        <time>2019-06-16T07:02:27.000Z</time>
      </trkpt>
      <trkpt lat="46.5037" lon="-0.77629">
        <ele>125.9</ele>
        <time>2019-06-16T07:02:30.000Z</time>
      </trkpt>
      <trkpt lat="46.50372" lon="-0.77644">
        <ele>125.09</ele>
        <time>2019-06-16T07:02:33.000Z</time>
      </trkpt>
      <trkpt lat="46.50375" lon="-0.77663">
        <ele>123.98</ele>
        <time>2019-06-16T07:02:36.000Z</time>
      </trkpt>
      <trkpt lat="46.50376" lon="-0.7768">
        <ele>122.75</ele>
        <time>2019-06-16T07:02:39.000Z</time>
      </trkpt>
      <trkpt lat="46.50378" lon="-0.777">
        <ele>121.28</ele>
        <time>2019-06-16T07:02:42.000Z</time>
      </trkpt>
      <trkpt lat="46.50377" lon="-0.77716">
        <ele>119.35</ele>
        <time>2019-06-16T07:02:46.000Z</time>
      </trkpt>
      <trkpt lat="46.50377" lon="-0.77737">
        <ele>117.92</ele>
        <time>2019-06-16T07:02:49.000Z</time>
      </trkpt>
      <trkpt lat="46.50377" lon="-0.77752">
        <ele>117</ele>
        <time>2019-06-16T07:02:51.000Z</time>
      </trkpt>
      <trkpt lat="46.50377" lon="-0.77765">
        <ele>116.04</ele>
        <time>2019-06-16T07:02:53.000Z</time>
      </trkpt>
      <trkpt lat="46.50378" lon="-0.77782">
        <ele>114.61</ele>
        <time>2019-06-16T07:02:56.000Z</time>
      </trkpt>
      <trkpt lat="46.5038" lon="-0.778">
        <ele>113.19</ele>
        <time>2019-06-16T07:02:59.000Z</time>
      </trkpt>
      <trkpt lat="46.5038" lon="-0.77814">
        <ele>108.42</ele>
        <time>2019-06-16T07:03:01.000Z</time>
      </trkpt>
      <trkpt lat="46.50386" lon="-0.77825">
        <ele>107.4</ele>
        <time>2019-06-16T07:03:05.000Z</time>
      </trkpt>
      <trkpt lat="46.50401" lon="-0.77821">
        <ele>106.71</ele>
        <time>2019-06-16T07:03:07.000Z</time>
      </trkpt>
      <trkpt lat="46.50408" lon="-0.77814">
        <ele>106.39</ele>
        <time>2019-06-16T07:03:08.000Z</time>
      </trkpt>
      <trkpt lat="46.50417" lon="-0.77803">
        <ele>105.85</ele>
        <time>2019-06-16T07:03:10.000Z</time>
      </trkpt>
      <trkpt lat="46.50425" lon="-0.77794">
        <ele>103.17</ele>
        <time>2019-06-16T07:03:12.000Z</time>
      </trkpt>
      <trkpt lat="46.5043" lon="-0.77781">
        <ele>102.79</ele>
        <time>2019-06-16T07:03:14.000Z</time>
      </trkpt>
      <trkpt lat="46.50435" lon="-0.77768">
        <ele>102.52</ele>
        <time>2019-06-16T07:03:16.000Z</time>
      </trkpt>
      <trkpt lat="46.50435" lon="-0.77754">
        <ele>102.38</ele>
        <time>2019-06-16T07:03:18.000Z</time>
      </trkpt>
      <trkpt lat="46.5044" lon="-0.77736">
        <ele>102.28</ele>
        <time>2019-06-16T07:03:20.000Z</time>
      </trkpt>
      <trkpt lat="46.50443" lon="-0.77721">
        <ele>102.23</ele>
        <time>2019-06-16T07:03:22.000Z</time>
      </trkpt>
      <trkpt lat="46.50445" lon="-0.77708">
        <ele>102.19</ele>
        <time>2019-06-16T07:03:24.000Z</time>
      </trkpt>
      <trkpt lat="46.50444" lon="-0.77689">
        <ele>102.1</ele>
        <time>2019-06-16T07:03:26.000Z</time>
      </trkpt>
      <trkpt lat="46.50448" lon="-0.77675">
        <ele>102</ele>
        <time>2019-06-16T07:03:28.000Z</time>
      </trkpt>
      <trkpt lat="46.50448" lon="-0.77659">
        <ele>100.6</ele>
        <time>2019-06-16T07:03:30.000Z</time>
      </trkpt>
      <trkpt lat="46.50448" lon="-0.77637">
        <ele>98.82</ele>
        <time>2019-06-16T07:03:32.000Z</time>
      </trkpt>
      <trkpt lat="46.50447" lon="-0.7762">
        <ele>97.13</ele>
        <time>2019-06-16T07:03:34.000Z</time>
      </trkpt>
      <trkpt lat="46.50445" lon="-0.77606">
        <ele>96.28</ele>
        <time>2019-06-16T07:03:40.000Z</time>
      </trkpt>
      <trkpt lat="46.50445" lon="-0.77589">
        <ele>95.75</ele>
        <time>2019-06-16T07:03:44.000Z</time>
      </trkpt>
      <trkpt lat="46.50444" lon="-0.77575">
        <ele>93.72</ele>
        <time>2019-06-16T07:03:46.000Z</time>
      </trkpt>
      <trkpt lat="46.5044" lon="-0.7756">
        <ele>93.37</ele>
        <time>2019-06-16T07:03:49.000Z</time>
      </trkpt>
      <trkpt lat="46.50438" lon="-0.77547">
        <ele>93.24</ele>
        <time>2019-06-16T07:03:52.000Z</time>
      </trkpt>
      <trkpt lat="46.50438" lon="-0.77532">
        <ele>93.15</ele>
        <time>2019-06-16T07:03:55.000Z</time>
      </trkpt>
      <trkpt lat="46.50435" lon="-0.77519">
        <ele>92.9</ele>
        <time>2019-06-16T07:04:01.000Z</time>
      </trkpt>
      <trkpt lat="46.5043" lon="-0.77505">
        <ele>92.15</ele>
        <time>2019-06-16T07:04:06.000Z</time>
      </trkpt>
      <trkpt lat="46.50423" lon="-0.7749">
        <ele>91.39</ele>
        <time>2019-06-16T07:04:10.000Z</time>
      </trkpt>
      <trkpt lat="46.50419" lon="-0.77478">
        <ele>90.61</ele>
        <time>2019-06-16T07:04:13.000Z</time>
      </trkpt>
      <trkpt lat="46.50414" lon="-0.77463">
        <ele>89.45</ele>
        <time>2019-06-16T07:04:17.000Z</time>
      </trkpt>
      <trkpt lat="46.50414" lon="-0.77446">
        <ele>88.82</ele>
        <time>2019-06-16T07:04:20.000Z</time>
      </trkpt>
      <trkpt lat="46.50412" lon="-0.77427">
        <ele>86.55</ele>
        <time>2019-06-16T07:04:23.000Z</time>
      </trkpt>
      <trkpt lat="46.50408" lon="-0.7741">
        <ele>86.1</ele>
        <time>2019-06-16T07:04:26.000Z</time>
      </trkpt>
      <trkpt lat="46.50406" lon="-0.77398">
        <ele>85.92</ele>
        <time>2019-06-16T07:04:29.000Z</time>
      </trkpt>
      <trkpt lat="46.50408" lon="-0.77385">
        <ele>85.89</ele>
        <time>2019-06-16T07:04:33.000Z</time>
      </trkpt>
      <trkpt lat="46.50412" lon="-0.7737">
        <ele>85.98</ele>
        <time>2019-06-16T07:04:36.000Z</time>
      </trkpt>
      <trkpt lat="46.50415" lon="-0.77353">
        <ele>86.03</ele>
        <time>2019-06-16T07:04:39.000Z</time>
      </trkpt>
      <trkpt lat="46.50411" lon="-0.77337">
        <ele>86.14</ele>
        <time>2019-06-16T07:04:42.000Z</time>
      </trkpt>
      <trkpt lat="46.50409" lon="-0.77322">
        <ele>86.27</ele>
        <time>2019-06-16T07:04:45.000Z</time>
      </trkpt>
      <trkpt lat="46.50405" lon="-0.77309">
        <ele>86.45</ele>
        <time>2019-06-16T07:04:48.000Z</time>
      </trkpt>
      <trkpt lat="46.50403" lon="-0.77295">
        <ele>86.72</ele>
        <time>2019-06-16T07:04:51.000Z</time>
      </trkpt>
      <trkpt lat="46.50398" lon="-0.77279">
        <ele>87.27</ele>
        <time>2019-06-16T07:04:55.000Z</time>
      </trkpt>
      <trkpt lat="46.50392" lon="-0.77266">
        <ele>88.05</ele>
        <time>2019-06-16T07:04:59.000Z</time>
      </trkpt>
      <trkpt lat="46.50385" lon="-0.77253">
        <ele>88.67</ele>
        <time>2019-06-16T07:05:02.000Z</time>
      </trkpt>
      <trkpt lat="46.50379" lon="-0.77242">
        <ele>89.29</ele>
        <time>2019-06-16T07:05:05.000Z</time>
      </trkpt>
      <trkpt lat="46.50371" lon="-0.77231">
        <ele>90.2</ele>
        <time>2019-06-16T07:05:09.000Z</time>
      </trkpt>
      <trkpt lat="46.50362" lon="-0.77222">
        <ele>91.27</ele>
        <time>2019-06-16T07:05:13.000Z</time>
      </trkpt>
      <trkpt lat="46.50357" lon="-0.77211">
        <ele>92.11</ele>
        <time>2019-06-16T07:05:16.000Z</time>
      </trkpt>
      <trkpt lat="46.50349" lon="-0.77199">
        <ele>93.13</ele>
        <time>2019-06-16T07:05:20.000Z</time>
      </trkpt>
      <trkpt lat="46.50341" lon="-0.77189">
        <ele>93.81</ele>
        <time>2019-06-16T07:05:23.000Z</time>
      </trkpt>
      <trkpt lat="46.50337" lon="-0.77178">
        <ele>94.52</ele>
        <time>2019-06-16T07:05:26.000Z</time>
      </trkpt>
      <trkpt lat="46.50329" lon="-0.77166">
        <ele>95.5</ele>
        <time>2019-06-16T07:05:30.000Z</time>
      </trkpt>
      <trkpt lat="46.50324" lon="-0.77151">
        <ele>96.33</ele>
        <time>2019-06-16T07:05:33.000Z</time>
      </trkpt>
      <trkpt lat="46.5032" lon="-0.77137">
        <ele>97.24</ele>
        <time>2019-06-16T07:05:36.000Z</time>
      </trkpt>
      <trkpt lat="46.50316" lon="-0.77125">
        <ele>98.01</ele>
        <time>2019-06-16T07:05:39.000Z</time>
      </trkpt>
      <trkpt lat="46.50312" lon="-0.77112">
        <ele>98.59</ele>
        <time>2019-06-16T07:05:42.000Z</time>
      </trkpt>
      <trkpt lat="46.50308" lon="-0.77098">
        <ele>99.2</ele>
        <time>2019-06-16T07:05:46.000Z</time>
      </trkpt>
      <trkpt lat="46.50303" lon="-0.77087">
        <ele>99.54</ele>
        <time>2019-06-16T07:05:49.000Z</time>
      </trkpt>
      <trkpt lat="46.50299" lon="-0.77074">
        <ele>99.81</ele>
        <time>2019-06-16T07:05:53.000Z</time>
      </trkpt>
      <trkpt lat="46.50293" lon="-0.77063">
        <ele>100.02</ele>
        <time>2019-06-16T07:05:57.000Z</time>
      </trkpt>
      <trkpt lat="46.50288" lon="-0.77051">
        <ele>100.72</ele>
        <time>2019-06-16T07:06:02.000Z</time>
      </trkpt>
      <trkpt lat="46.50283" lon="-0.7704">
        <ele>102.24</ele>
        <time>2019-06-16T07:06:08.000Z</time>
      </trkpt>
      <trkpt lat="46.50274" lon="-0.77034">
        <ele>105.44</ele>
        <time>2019-06-16T07:06:29.000Z</time>
      </trkpt>
      <trkpt lat="46.50265" lon="-0.77034">
        <ele>109.66</ele>
        <time>2019-06-16T07:07:07.000Z</time>
      </trkpt>
      <trkpt lat="46.50272" lon="-0.77044">
        <ele>110.71</ele>
        <time>2019-06-16T07:07:13.000Z</time>
      </trkpt>
      <trkpt lat="46.50284" lon="-0.77056">
        <ele>111.13</ele>
        <time>2019-06-16T07:07:16.000Z</time>
      </trkpt>
      <trkpt lat="46.50292" lon="-0.77064">
        <ele>111.38</ele>
        <time>2019-06-16T07:07:18.000Z</time>
      </trkpt>
      <trkpt lat="46.503" lon="-0.77073">
        <ele>111.56</ele>
        <time>2019-06-16T07:07:21.000Z</time>
      </trkpt>
      <trkpt lat="46.50304" lon="-0.77086">
        <ele>111.76</ele>
        <time>2019-06-16T07:07:24.000Z</time>
      </trkpt>
      <trkpt lat="46.50299" lon="-0.77104">
        <ele>111.87</ele>
        <time>2019-06-16T07:07:27.000Z</time>
      </trkpt>
      <trkpt lat="46.50295" lon="-0.77117">
        <ele>112.2</ele>
        <time>2019-06-16T07:07:29.000Z</time>
      </trkpt>
      <trkpt lat="46.50289" lon="-0.77133">
        <ele>112.93</ele>
        <time>2019-06-16T07:07:32.000Z</time>
      </trkpt>
      <trkpt lat="46.50287" lon="-0.77147">
        <ele>113.03</ele>
        <time>2019-06-16T07:07:35.000Z</time>
      </trkpt>
      <trkpt lat="46.50289" lon="-0.7716">
        <ele>113.09</ele>
        <time>2019-06-16T07:07:37.000Z</time>
      </trkpt>
      <trkpt lat="46.50294" lon="-0.77176">
        <ele>112.92</ele>
        <time>2019-06-16T07:07:39.000Z</time>
      </trkpt>
      <trkpt lat="46.50304" lon="-0.77191">
        <ele>110.27</ele>
        <time>2019-06-16T07:07:41.000Z</time>
      </trkpt>
      <trkpt lat="46.50314" lon="-0.77203">
        <ele>109.61</ele>
        <time>2019-06-16T07:07:43.000Z</time>
      </trkpt>
      <trkpt lat="46.50327" lon="-0.77213">
        <ele>109.24</ele>
        <time>2019-06-16T07:07:45.000Z</time>
      </trkpt>
      <trkpt lat="46.5034" lon="-0.77224">
        <ele>108.37</ele>
        <time>2019-06-16T07:07:47.000Z</time>
      </trkpt>
      <trkpt lat="46.50349" lon="-0.77229">
        <ele>108.15</ele>
        <time>2019-06-16T07:07:49.000Z</time>
      </trkpt>
      <trkpt lat="46.50359" lon="-0.77233">
        <ele>107.71</ele>
        <time>2019-06-16T07:07:51.000Z</time>
      </trkpt>
      <trkpt lat="46.50368" lon="-0.77238">
        <ele>107.22</ele>
        <time>2019-06-16T07:07:53.000Z</time>
      </trkpt>
      <trkpt lat="46.50377" lon="-0.77242">
        <ele>106.34</ele>
        <time>2019-06-16T07:07:56.000Z</time>
      </trkpt>
      <trkpt lat="46.5039" lon="-0.77248">
        <ele>105.62</ele>
        <time>2019-06-16T07:07:59.000Z</time>
      </trkpt>
      <trkpt lat="46.50398" lon="-0.77256">
        <ele>103.6</ele>
        <time>2019-06-16T07:08:01.000Z</time>
      </trkpt>
      <trkpt lat="46.50406" lon="-0.77268">
        <ele>102.09</ele>
        <time>2019-06-16T07:08:03.000Z</time>
      </trkpt>
      <trkpt lat="46.50414" lon="-0.77282">
        <ele>101.77</ele>
        <time>2019-06-16T07:08:06.000Z</time>
      </trkpt>
      <trkpt lat="46.50418" lon="-0.77296">
        <ele>100.36</ele>
        <time>2019-06-16T07:08:08.000Z</time>
      </trkpt>
      <trkpt lat="46.50422" lon="-0.77309">
        <ele>99.49</ele>
        <time>2019-06-16T07:08:10.000Z</time>
      </trkpt>
      <trkpt lat="46.50422" lon="-0.77323">
        <ele>99.48</ele>
        <time>2019-06-16T07:08:12.000Z</time>
      </trkpt>
      <trkpt lat="46.50417" lon="-0.77337">
        <ele>99.83</ele>
        <time>2019-06-16T07:08:14.000Z</time>
      </trkpt>
      <trkpt lat="46.50412" lon="-0.77352">
        <ele>100.2</ele>
        <time>2019-06-16T07:08:16.000Z</time>
      </trkpt>
      <trkpt lat="46.50408" lon="-0.77368">
        <ele>100.11</ele>
        <time>2019-06-16T07:08:18.000Z</time>
      </trkpt>
      <trkpt lat="46.50402" lon="-0.77381">
        <ele>101.35</ele>
        <time>2019-06-16T07:08:20.000Z</time>
      </trkpt>
      <trkpt lat="46.50395" lon="-0.77392">
        <ele>101.48</ele>
        <time>2019-06-16T07:08:22.000Z</time>
      </trkpt>
      <trkpt lat="46.5039" lon="-0.77403">
        <ele>101.32</ele>
        <time>2019-06-16T07:08:24.000Z</time>
      </trkpt>
      <trkpt lat="46.50387" lon="-0.77418">
        <ele>101.23</ele>
        <time>2019-06-16T07:08:26.000Z</time>
      </trkpt>
      <trkpt lat="46.50383" lon="-0.77435">
        <ele>101.07</ele>
        <time>2019-06-16T07:08:28.000Z</time>
      </trkpt>
      <trkpt lat="46.50383" lon="-0.77451">
        <ele>100.76</ele>
        <time>2019-06-16T07:08:30.000Z</time>
      </trkpt>
      <trkpt lat="46.50382" lon="-0.77466">
        <ele>100.38</ele>
        <time>2019-06-16T07:08:32.000Z</time>
      </trkpt>
      <trkpt lat="46.50384" lon="-0.7748">
        <ele>99.91</ele>
        <time>2019-06-16T07:08:34.000Z</time>
      </trkpt>
      <trkpt lat="46.50394" lon="-0.77496">
        <ele>99.37</ele>
        <time>2019-06-16T07:08:36.000Z</time>
      </trkpt>
      <trkpt lat="46.50398" lon="-0.77511">
        <ele>98.91</ele>
        <time>2019-06-16T07:08:38.000Z</time>
      </trkpt>
      <trkpt lat="46.50401" lon="-0.77526">
        <ele>98.18</ele>
        <time>2019-06-16T07:08:41.000Z</time>
      </trkpt>
      <trkpt lat="46.50399" lon="-0.77544">
        <ele>97.39</ele>
        <time>2019-06-16T07:08:45.000Z</time>
      </trkpt>
      <trkpt lat="46.50397" lon="-0.77557">
        <ele>97.04</ele>
        <time>2019-06-16T07:08:47.000Z</time>
      </trkpt>
      <trkpt lat="46.50396" lon="-0.77572">
        <ele>96.66</ele>
        <time>2019-06-16T07:08:50.000Z</time>
      </trkpt>
      <trkpt lat="46.50403" lon="-0.77582">
        <ele>96.22</ele>
        <time>2019-06-16T07:08:56.000Z</time>
      </trkpt>
      <trkpt lat="46.50407" lon="-0.77593">
        <ele>95.03</ele>
        <time>2019-06-16T07:09:04.000Z</time>
      </trkpt>
      <trkpt lat="46.50417" lon="-0.77599">
        <ele>94.26</ele>
        <time>2019-06-16T07:09:10.000Z</time>
      </trkpt>
      <trkpt lat="46.50427" lon="-0.77605">
        <ele>92.11</ele>
        <time>2019-06-16T07:09:18.000Z</time>
      </trkpt>
      <trkpt lat="46.50425" lon="-0.77623">
        <ele>90.22</ele>
        <time>2019-06-16T07:09:24.000Z</time>
      </trkpt>
      <trkpt lat="46.50419" lon="-0.77635">
        <ele>89.62</ele>
        <time>2019-06-16T07:09:27.000Z</time>
      </trkpt>
      <trkpt lat="46.50417" lon="-0.77654">
        <ele>89.33</ele>
        <time>2019-06-16T07:09:29.000Z</time>
      </trkpt>
      <trkpt lat="46.50414" lon="-0.77673">
        <ele>87.78</ele>
        <time>2019-06-16T07:09:31.000Z</time>
      </trkpt>
      <trkpt lat="46.50413" lon="-0.77689">
        <ele>85.34</ele>
        <time>2019-06-16T07:09:33.000Z</time>
      </trkpt>
      <trkpt lat="46.50414" lon="-0.77705">
        <ele>85.14</ele>
        <time>2019-06-16T07:09:35.000Z</time>
      </trkpt>
      <trkpt lat="46.50415" lon="-0.77719">
        <ele>83.56</ele>
        <time>2019-06-16T07:09:37.000Z</time>
      </trkpt>
      <trkpt lat="46.50415" lon="-0.77735">
        <ele>82.45</ele>
        <time>2019-06-16T07:09:39.000Z</time>
      </trkpt>
      <trkpt lat="46.50415" lon="-0.77752">
        <ele>82.59</ele>
        <time>2019-06-16T07:09:41.000Z</time>
      </trkpt>
      <trkpt lat="46.50411" lon="-0.77772">
        <ele>83.4</ele>
        <time>2019-06-16T07:09:43.000Z</time>
      </trkpt>
      <trkpt lat="46.5041" lon="-0.77787">
        <ele>83.36</ele>
        <time>2019-06-16T07:09:45.000Z</time>
      </trkpt>
      <trkpt lat="46.50414" lon="-0.77804">
        <ele>83.12</ele>
        <time>2019-06-16T07:09:47.000Z</time>
      </trkpt>
      <trkpt lat="46.50419" lon="-0.77823">
        <ele>82</ele>
        <time>2019-06-16T07:09:49.000Z</time>
      </trkpt>
      <trkpt lat="46.50424" lon="-0.77843">
        <ele>81.65</ele>
        <time>2019-06-16T07:09:51.000Z</time>
      </trkpt>
      <trkpt lat="46.50428" lon="-0.77864">
        <ele>81.89</ele>
        <time>2019-06-16T07:09:53.000Z</time>
      </trkpt>
      <trkpt lat="46.50427" lon="-0.77883">
        <ele>82.34</ele>
        <time>2019-06-16T07:09:55.000Z</time>
      </trkpt>
      <trkpt lat="46.50427" lon="-0.779">
        <ele>82.33</ele>
        <time>2019-06-16T07:09:57.000Z</time>
      </trkpt>
      <trkpt lat="46.50426" lon="-0.77915">
        <ele>82.49</ele>
        <time>2019-06-16T07:10:00.000Z</time>
      </trkpt>
      <trkpt lat="46.50423" lon="-0.77931">
        <ele>82.59</ele>
        <time>2019-06-16T07:10:04.000Z</time>
      </trkpt>
      <trkpt lat="46.50416" lon="-0.77947">
        <ele>83.62</ele>
        <time>2019-06-16T07:10:07.000Z</time>
      </trkpt>
      <trkpt lat="46.50411" lon="-0.77959">
        <ele>85.13</ele>
        <time>2019-06-16T07:10:09.000Z</time>
      </trkpt>
      <trkpt lat="46.50405" lon="-0.7797">
        <ele>85.81</ele>
        <time>2019-06-16T07:10:11.000Z</time>
      </trkpt>
      <trkpt lat="46.504" lon="-0.77981">
        <ele>86.72</ele>
        <time>2019-06-16T07:10:13.000Z</time>
      </trkpt>
      <trkpt lat="46.50393" lon="-0.77995">
        <ele>87.89</ele>
        <time>2019-06-16T07:10:15.000Z</time>
      </trkpt>
      <trkpt lat="46.50385" lon="-0.78012">
        <ele>87.24</ele>
        <time>2019-06-16T07:10:17.000Z</time>
      </trkpt>
      <trkpt lat="46.50378" lon="-0.78028">
        <ele>85.97</ele>
        <time>2019-06-16T07:10:19.000Z</time>
      </trkpt>
      <trkpt lat="46.50372" lon="-0.78048">
        <ele>83.91</ele>
        <time>2019-06-16T07:10:21.000Z</time>
      </trkpt>
      <trkpt lat="46.50367" lon="-0.78068">
        <ele>80.47</ele>
        <time>2019-06-16T07:10:23.000Z</time>
      </trkpt>
      <trkpt lat="46.50363" lon="-0.78087">
        <ele>76.56</ele>
        <time>2019-06-16T07:10:25.000Z</time>
      </trkpt>
      <trkpt lat="46.50362" lon="-0.78102">
        <ele>76.19</ele>
        <time>2019-06-16T07:10:27.000Z</time>
      </trkpt>
      <trkpt lat="46.5037" lon="-0.78122">
        <ele>73.03</ele>
        <time>2019-06-16T07:10:29.000Z</time>
      </trkpt>
      <trkpt lat="46.50382" lon="-0.78149">
        <ele>71.97</ele>
        <time>2019-06-16T07:10:31.000Z</time>
      </trkpt>
      <trkpt lat="46.50393" lon="-0.78162">
        <ele>71.95</ele>
        <time>2019-06-16T07:10:33.000Z</time>
      </trkpt>
      <trkpt lat="46.50407" lon="-0.78166">
        <ele>71.95</ele>
        <time>2019-06-16T07:10:34.000Z</time>
      </trkpt>
      <trkpt lat="46.50418" lon="-0.78169">
        <ele>72.32</ele>
        <time>2019-06-16T07:10:38.000Z</time>
      </trkpt>
      <trkpt lat="46.50431" lon="-0.78174">
        <ele>73.13</ele>
        <time>2019-06-16T07:10:41.000Z</time>
      </trkpt>
      <trkpt lat="46.5044" lon="-0.78178">
        <ele>73.89</ele>
        <time>2019-06-16T07:10:43.000Z</time>
      </trkpt>
      <trkpt lat="46.50451" lon="-0.7818">
        <ele>74.84</ele>
        <time>2019-06-16T07:10:45.000Z</time>
      </trkpt>
      <trkpt lat="46.50465" lon="-0.78184">
        <ele>75.91</ele>
        <time>2019-06-16T07:10:47.000Z</time>
      </trkpt>
      <trkpt lat="46.50475" lon="-0.78186">
        <ele>77.08</ele>
        <time>2019-06-16T07:10:49.000Z</time>
      </trkpt>
      <trkpt lat="46.50487" lon="-0.78184">
        <ele>78.36</ele>
        <time>2019-06-16T07:10:51.000Z</time>
      </trkpt>
      <trkpt lat="46.50497" lon="-0.78181">
        <ele>79.54</ele>
        <time>2019-06-16T07:10:53.000Z</time>
      </trkpt>
      <trkpt lat="46.50507" lon="-0.78179">
        <ele>80.74</ele>
        <time>2019-06-16T07:10:55.000Z</time>
      </trkpt>
      <trkpt lat="46.50518" lon="-0.78175">
        <ele>81.94</ele>
        <time>2019-06-16T07:10:57.000Z</time>
      </trkpt>
      <trkpt lat="46.50531" lon="-0.78166">
        <ele>84.07</ele>
        <time>2019-06-16T07:11:01.000Z</time>
      </trkpt>
      <trkpt lat="46.50541" lon="-0.7816">
        <ele>84.89</ele>
        <time>2019-06-16T07:11:03.000Z</time>
      </trkpt>
      <trkpt lat="46.5055" lon="-0.78152">
        <ele>85.59</ele>
        <time>2019-06-16T07:11:05.000Z</time>
      </trkpt>
      <trkpt lat="46.50558" lon="-0.78145">
        <ele>86.58</ele>
        <time>2019-06-16T07:11:08.000Z</time>
      </trkpt>
      <trkpt lat="46.50567" lon="-0.78138">
        <ele>87.69</ele>
        <time>2019-06-16T07:11:11.000Z</time>
      </trkpt>
      <trkpt lat="46.50577" lon="-0.7813">
        <ele>89.1</ele>
        <time>2019-06-16T07:11:15.000Z</time>
      </trkpt>
      <trkpt lat="46.50586" lon="-0.78123">
        <ele>89.94</ele>
        <time>2019-06-16T07:11:18.000Z</time>
      </trkpt>
      <trkpt lat="46.50594" lon="-0.78114">
        <ele>90.62</ele>
        <time>2019-06-16T07:11:21.000Z</time>
      </trkpt>
      <trkpt lat="46.50603" lon="-0.78103">
        <ele>91.1</ele>
        <time>2019-06-16T07:11:25.000Z</time>
      </trkpt>
      <trkpt lat="46.50606" lon="-0.78089">
        <ele>91.26</ele>
        <time>2019-06-16T07:11:29.000Z</time>
      </trkpt>
      <trkpt lat="46.50604" lon="-0.78075">
        <ele>91.14</ele>
        <time>2019-06-16T07:11:34.000Z</time>
      </trkpt>
      <trkpt lat="46.506" lon="-0.78062">
        <ele>90.61</ele>
        <time>2019-06-16T07:11:39.000Z</time>
      </trkpt>
      <trkpt lat="46.50597" lon="-0.78049">
        <ele>90.06</ele>
        <time>2019-06-16T07:11:44.000Z</time>
      </trkpt>
      <trkpt lat="46.50596" lon="-0.78036">
        <ele>89.4</ele>
        <time>2019-06-16T07:11:50.000Z</time>
      </trkpt>
      <trkpt lat="46.50598" lon="-0.78022">
        <ele>88.87</ele>
        <time>2019-06-16T07:11:56.000Z</time>
      </trkpt>
      <trkpt lat="46.506" lon="-0.78009">
        <ele>88.53</ele>
        <time>2019-06-16T07:12:01.000Z</time>
      </trkpt>
      <trkpt lat="46.50602" lon="-0.77996">
        <ele>88.56</ele>
        <time>2019-06-16T07:12:06.000Z</time>
      </trkpt>
      <trkpt lat="46.50605" lon="-0.77982">
        <ele>88.54</ele>
        <time>2019-06-16T07:12:12.000Z</time>
      </trkpt>
      <trkpt lat="46.50608" lon="-0.77969">
        <ele>88.78</ele>
        <time>2019-06-16T07:12:18.000Z</time>
      </trkpt>
      <trkpt lat="46.50612" lon="-0.77954">
        <ele>89.11</ele>
        <time>2019-06-16T07:12:24.000Z</time>
      </trkpt>
      <trkpt lat="46.50615" lon="-0.77941">
        <ele>89.35</ele>
        <time>2019-06-16T07:12:29.000Z</time>
      </trkpt>
      <trkpt lat="46.50619" lon="-0.77928">
        <ele>89.66</ele>
        <time>2019-06-16T07:12:38.000Z</time>
      </trkpt>
      <trkpt lat="46.50623" lon="-0.77914">
        <ele>89.85</ele>
        <time>2019-06-16T07:12:43.000Z</time>
      </trkpt>
      <trkpt lat="46.50628" lon="-0.77902">
        <ele>90.1</ele>
        <time>2019-06-16T07:12:50.000Z</time>
      </trkpt>
      <trkpt lat="46.50633" lon="-0.77889">
        <ele>90.5</ele>
        <time>2019-06-16T07:12:56.000Z</time>
      </trkpt>
      <trkpt lat="46.50637" lon="-0.77875">
        <ele>91.03</ele>
        <time>2019-06-16T07:13:02.000Z</time>
      </trkpt>
      <trkpt lat="46.50639" lon="-0.77861">
        <ele>91.82</ele>
        <time>2019-06-16T07:13:09.000Z</time>
      </trkpt>
      <trkpt lat="46.50642" lon="-0.77848">
        <ele>92.96</ele>
        <time>2019-06-16T07:13:15.000Z</time>
      </trkpt>
      <trkpt lat="46.50644" lon="-0.77834">
        <ele>96.2</ele>
        <time>2019-06-16T07:13:25.000Z</time>
      </trkpt>
      <trkpt lat="46.50645" lon="-0.77821">
        <ele>98.43</ele>
        <time>2019-06-16T07:13:32.000Z</time>
      </trkpt>
      <trkpt lat="46.50647" lon="-0.77806">
        <ele>100.55</ele>
        <time>2019-06-16T07:13:40.000Z</time>
      </trkpt>
      <trkpt lat="46.5065" lon="-0.77793">
        <ele>102.02</ele>
        <time>2019-06-16T07:13:46.000Z</time>
      </trkpt>
      <trkpt lat="46.50653" lon="-0.77781">
        <ele>103.22</ele>
        <time>2019-06-16T07:13:50.000Z</time>
      </trkpt>
      <trkpt lat="46.50658" lon="-0.77767">
        <ele>104.75</ele>
        <time>2019-06-16T07:13:56.000Z</time>
      </trkpt>
      <trkpt lat="46.50665" lon="-0.77755">
        <ele>106.55</ele>
        <time>2019-06-16T07:14:02.000Z</time>
      </trkpt>
      <trkpt lat="46.50673" lon="-0.77743">
        <ele>107.94</ele>
        <time>2019-06-16T07:14:06.000Z</time>
      </trkpt>
      <trkpt lat="46.50679" lon="-0.77734">
        <ele>108.88</ele>
        <time>2019-06-16T07:14:09.000Z</time>
      </trkpt>
      <trkpt lat="46.50687" lon="-0.77721">
        <ele>109.94</ele>
        <time>2019-06-16T07:14:13.000Z</time>
      </trkpt>
      <trkpt lat="46.50692" lon="-0.77708">
        <ele>110.49</ele>
        <time>2019-06-16T07:14:16.000Z</time>
      </trkpt>
      <trkpt lat="46.50698" lon="-0.77696">
        <ele>111.52</ele>
        <time>2019-06-16T07:14:21.000Z</time>
      </trkpt>
      <trkpt lat="46.50708" lon="-0.77686">
        <ele>112.61</ele>
        <time>2019-06-16T07:14:26.000Z</time>
      </trkpt>
      <trkpt lat="46.50719" lon="-0.77676">
        <ele>113.37</ele>
        <time>2019-06-16T07:14:30.000Z</time>
      </trkpt>
      <trkpt lat="46.50728" lon="-0.77669">
        <ele>113.97</ele>
        <time>2019-06-16T07:14:34.000Z</time>
      </trkpt>
      <trkpt lat="46.5074" lon="-0.77668">
        <ele>114.07</ele>
        <time>2019-06-16T07:14:36.000Z</time>
      </trkpt>
      <trkpt lat="46.50748" lon="-0.77662">
        <ele>114.16</ele>
        <time>2019-06-16T07:14:38.000Z</time>
      </trkpt>
      <trkpt lat="46.50759" lon="-0.77654">
        <ele>114.52</ele>
        <time>2019-06-16T07:14:41.000Z</time>
      </trkpt>
      <trkpt lat="46.50769" lon="-0.77651">
        <ele>115.06</ele>
        <time>2019-06-16T07:14:44.000Z</time>
      </trkpt>
      <trkpt lat="46.5078" lon="-0.77643">
        <ele>116.33</ele>
        <time>2019-06-16T07:14:49.000Z</time>
      </trkpt>
      <trkpt lat="46.50792" lon="-0.77641">
        <ele>117.23</ele>
        <time>2019-06-16T07:14:52.000Z</time>
      </trkpt>
      <trkpt lat="46.50802" lon="-0.77635">
        <ele>118.01</ele>
        <time>2019-06-16T07:14:55.000Z</time>
      </trkpt>
      <trkpt lat="46.50812" lon="-0.77627">
        <ele>118.64</ele>
        <time>2019-06-16T07:14:58.000Z</time>
      </trkpt>
      <trkpt lat="46.50821" lon="-0.77619">
        <ele>119.27</ele>
        <time>2019-06-16T07:15:02.000Z</time>
      </trkpt>
      <trkpt lat="46.50828" lon="-0.7761">
        <ele>119.44</ele>
        <time>2019-06-16T07:15:05.000Z</time>
      </trkpt>
      <trkpt lat="46.50836" lon="-0.77598">
        <ele>119.65</ele>
        <time>2019-06-16T07:15:08.000Z</time>
      </trkpt>
      <trkpt lat="46.50839" lon="-0.77586">
        <ele>120.43</ele>
        <time>2019-06-16T07:15:12.000Z</time>
      </trkpt>
      <trkpt lat="46.5085" lon="-0.77589">
        <ele>122.03</ele>
        <time>2019-06-16T07:15:19.000Z</time>
      </trkpt>
      <trkpt lat="46.50858" lon="-0.77605">
        <ele>122.47</ele>
        <time>2019-06-16T07:15:22.000Z</time>
      </trkpt>
      <trkpt lat="46.50863" lon="-0.77616">
        <ele>122.65</ele>
        <time>2019-06-16T07:15:24.000Z</time>
      </trkpt>
      <trkpt lat="46.50868" lon="-0.7763">
        <ele>122.76</ele>
        <time>2019-06-16T07:15:26.000Z</time>
      </trkpt>
      <trkpt lat="46.5088" lon="-0.77626">
        <ele>124.22</ele>
        <time>2019-06-16T07:15:33.000Z</time>
      </trkpt>
      <trkpt lat="46.50892" lon="-0.77621">
        <ele>124.89</ele>
        <time>2019-06-16T07:15:36.000Z</time>
      </trkpt>
      <trkpt lat="46.50904" lon="-0.77614">
        <ele>127</ele>
        <time>2019-06-16T07:15:38.000Z</time>
      </trkpt>
      <trkpt lat="46.50913" lon="-0.7761">
        <ele>128.53</ele>
        <time>2019-06-16T07:15:39.000Z</time>
      </trkpt>
      <trkpt lat="46.50922" lon="-0.77609">
        <ele>128.63</ele>
        <time>2019-06-16T07:15:40.000Z</time>
      </trkpt>
      <trkpt lat="46.5093" lon="-0.77603">
        <ele>128.7</ele>
        <time>2019-06-16T07:15:41.000Z</time>
      </trkpt>
      <trkpt lat="46.50938" lon="-0.77595">
        <ele>128.83</ele>
        <time>2019-06-16T07:15:43.000Z</time>
      </trkpt>
      <trkpt lat="46.50949" lon="-0.77586">
        <ele>128.77</ele>
        <time>2019-06-16T07:15:45.000Z</time>
      </trkpt>
      <trkpt lat="46.50962" lon="-0.7758">
        <ele>127.79</ele>
        <time>2019-06-16T07:15:48.000Z</time>
      </trkpt>
      <trkpt lat="46.50971" lon="-0.77574">
        <ele>127.79</ele>
        <time>2019-06-16T07:15:52.000Z</time>
      </trkpt>
      <trkpt lat="46.50979" lon="-0.77568">
        <ele>127.65</ele>
        <time>2019-06-16T07:15:56.000Z</time>
      </trkpt>
      <trkpt lat="46.50988" lon="-0.7756">
        <ele>127.48</ele>
        <time>2019-06-16T07:16:01.000Z</time>
      </trkpt>
      <trkpt lat="46.50996" lon="-0.77549">
        <ele>127.33</ele>
        <time>2019-06-16T07:16:05.000Z</time>
      </trkpt>
      <trkpt lat="46.51005" lon="-0.77543">
        <ele>127.18</ele>
        <time>2019-06-16T07:16:09.000Z</time>
      </trkpt>
      <trkpt lat="46.51014" lon="-0.77538">
        <ele>126.85</ele>
        <time>2019-06-16T07:16:15.000Z</time>
      </trkpt>
      <trkpt lat="46.51024" lon="-0.7753">
        <ele>126.87</ele>
        <time>2019-06-16T07:16:21.000Z</time>
      </trkpt>
      <trkpt lat="46.51032" lon="-0.77522">
        <ele>126.94</ele>
        <time>2019-06-16T07:16:25.000Z</time>
      </trkpt>
      <trkpt lat="46.51041" lon="-0.77516">
        <ele>127.13</ele>
        <time>2019-06-16T07:16:30.000Z</time>
      </trkpt>
      <trkpt lat="46.5105" lon="-0.77509">
        <ele>127.24</ele>
        <time>2019-06-16T07:16:35.000Z</time>
      </trkpt>
      <trkpt lat="46.5106" lon="-0.77502">
        <ele>127.71</ele>
        <time>2019-06-16T07:16:41.000Z</time>
      </trkpt>
      <trkpt lat="46.51069" lon="-0.77499">
        <ele>128.28</ele>
        <time>2019-06-16T07:16:46.000Z</time>
      </trkpt>
      <trkpt lat="46.5108" lon="-0.77494">
        <ele>128.95</ele>
        <time>2019-06-16T07:16:51.000Z</time>
      </trkpt>
      <trkpt lat="46.51089" lon="-0.77487">
        <ele>129.51</ele>
        <time>2019-06-16T07:16:56.000Z</time>
      </trkpt>
      <trkpt lat="46.51097" lon="-0.77481">
        <ele>130.12</ele>
        <time>2019-06-16T07:17:00.000Z</time>
      </trkpt>
      <trkpt lat="46.51106" lon="-0.77472">
        <ele>131.11</ele>
        <time>2019-06-16T07:17:05.000Z</time>
      </trkpt>
      <trkpt lat="46.51114" lon="-0.77467">
        <ele>131.85</ele>
        <time>2019-06-16T07:17:09.000Z</time>
      </trkpt>
      <trkpt lat="46.51125" lon="-0.77461">
        <ele>132.47</ele>
        <time>2019-06-16T07:17:13.000Z</time>
      </trkpt>
      <trkpt lat="46.51134" lon="-0.77453">
        <ele>133.06</ele>
        <time>2019-06-16T07:17:17.000Z</time>
      </trkpt>
      <trkpt lat="46.51144" lon="-0.77446">
        <ele>133.74</ele>
        <time>2019-06-16T07:17:22.000Z</time>
      </trkpt>
      <trkpt lat="46.51153" lon="-0.77435">
        <ele>134.24</ele>
        <time>2019-06-16T07:17:26.000Z</time>
      </trkpt>
      <trkpt lat="46.51162" lon="-0.77427">
        <ele>135.02</ele>
        <time>2019-06-16T07:17:31.000Z</time>
      </trkpt>
      <trkpt lat="46.51171" lon="-0.77417">
        <ele>135.47</ele>
        <time>2019-06-16T07:17:35.000Z</time>
      </trkpt>
      <trkpt lat="46.5118" lon="-0.77412">
        <ele>135.9</ele>
        <time>2019-06-16T07:17:40.000Z</time>
      </trkpt>
      <trkpt lat="46.5119" lon="-0.77409">
        <ele>136.52</ele>
        <time>2019-06-16T07:17:45.000Z</time>
      </trkpt>
      <trkpt lat="46.51199" lon="-0.77406">
        <ele>137.31</ele>
        <time>2019-06-16T07:17:50.000Z</time>
      </trkpt>
      <trkpt lat="46.51208" lon="-0.774">
        <ele>138.43</ele>
        <time>2019-06-16T07:17:57.000Z</time>
      </trkpt>
      <trkpt lat="46.51214" lon="-0.77411">
        <ele>138.66</ele>
        <time>2019-06-16T07:18:02.000Z</time>
      </trkpt>
      <trkpt lat="46.51216" lon="-0.77427">
        <ele>138.79</ele>
        <time>2019-06-16T07:18:08.000Z</time>
      </trkpt>
      <trkpt lat="46.51218" lon="-0.77442">
        <ele>139.08</ele>
        <time>2019-06-16T07:18:13.000Z</time>
      </trkpt>
      <trkpt lat="46.51217" lon="-0.77455">
        <ele>139.22</ele>
        <time>2019-06-16T07:18:15.000Z</time>
      </trkpt>
      <trkpt lat="46.51212" lon="-0.77473">
        <ele>139.39</ele>
        <time>2019-06-16T07:18:18.000Z</time>
      </trkpt>
      <trkpt lat="46.5121" lon="-0.77487">
        <ele>139.49</ele>
        <time>2019-06-16T07:18:21.000Z</time>
      </trkpt>
      <trkpt lat="46.51208" lon="-0.77508">
        <ele>139.46</ele>
        <time>2019-06-16T07:18:25.000Z</time>
      </trkpt>
      <trkpt lat="46.5121" lon="-0.77523">
        <ele>139.22</ele>
        <time>2019-06-16T07:18:27.000Z</time>
      </trkpt>
      <trkpt lat="46.51211" lon="-0.7754">
        <ele>138.6</ele>
        <time>2019-06-16T07:18:30.000Z</time>
      </trkpt>
      <trkpt lat="46.51207" lon="-0.77554">
        <ele>137.89</ele>
        <time>2019-06-16T07:18:33.000Z</time>
      </trkpt>
      <trkpt lat="46.51205" lon="-0.77567">
        <ele>136.39</ele>
        <time>2019-06-16T07:18:35.000Z</time>
      </trkpt>
      <trkpt lat="46.51205" lon="-0.77583">
        <ele>136.28</ele>
        <time>2019-06-16T07:18:38.000Z</time>
      </trkpt>
      <trkpt lat="46.51203" lon="-0.77596">
        <ele>136.25</ele>
        <time>2019-06-16T07:18:40.000Z</time>
      </trkpt>
      <trkpt lat="46.51202" lon="-0.77612">
        <ele>136.35</ele>
        <time>2019-06-16T07:18:43.000Z</time>
      </trkpt>
      <trkpt lat="46.51203" lon="-0.77629">
        <ele>136.94</ele>
        <time>2019-06-16T07:18:46.000Z</time>
      </trkpt>
      <trkpt lat="46.51201" lon="-0.77644">
        <ele>137.87</ele>
        <time>2019-06-16T07:18:48.000Z</time>
      </trkpt>
      <trkpt lat="46.51199" lon="-0.77657">
        <ele>138.48</ele>
        <time>2019-06-16T07:18:50.000Z</time>
      </trkpt>
      <trkpt lat="46.51199" lon="-0.77671">
        <ele>138.56</ele>
        <time>2019-06-16T07:18:52.000Z</time>
      </trkpt>
      <trkpt lat="46.51197" lon="-0.77686">
        <ele>138.57</ele>
        <time>2019-06-16T07:18:54.000Z</time>
      </trkpt>
      <trkpt lat="46.51196" lon="-0.77702">
        <ele>138.55</ele>
        <time>2019-06-16T07:18:57.000Z</time>
      </trkpt>
      <trkpt lat="46.51196" lon="-0.77717">
        <ele>138.47</ele>
        <time>2019-06-16T07:18:59.000Z</time>
      </trkpt>
      <trkpt lat="46.51198" lon="-0.77736">
        <ele>137.66</ele>
        <time>2019-06-16T07:19:01.000Z</time>
      </trkpt>
      <trkpt lat="46.51201" lon="-0.77752">
        <ele>137.02</ele>
        <time>2019-06-16T07:19:03.000Z</time>
      </trkpt>
      <trkpt lat="46.51207" lon="-0.77767">
        <ele>135.82</ele>
        <time>2019-06-16T07:19:06.000Z</time>
      </trkpt>
      <trkpt lat="46.51207" lon="-0.7778">
        <ele>135.61</ele>
        <time>2019-06-16T07:19:08.000Z</time>
      </trkpt>
      <trkpt lat="46.51212" lon="-0.77792">
        <ele>135.23</ele>
        <time>2019-06-16T07:19:11.000Z</time>
      </trkpt>
      <trkpt lat="46.51218" lon="-0.77802">
        <ele>133.02</ele>
        <time>2019-06-16T07:19:13.000Z</time>
      </trkpt>
      <trkpt lat="46.51226" lon="-0.77822">
        <ele>132.35</ele>
        <time>2019-06-16T07:19:15.000Z</time>
      </trkpt>
      <trkpt lat="46.51234" lon="-0.77838">
        <ele>132.89</ele>
        <time>2019-06-16T07:19:17.000Z</time>
      </trkpt>
      <trkpt lat="46.51244" lon="-0.77852">
        <ele>133.84</ele>
        <time>2019-06-16T07:19:19.000Z</time>
      </trkpt>
      <trkpt lat="46.51251" lon="-0.77872">
        <ele>133.76</ele>
        <time>2019-06-16T07:19:21.000Z</time>
      </trkpt>
      <trkpt lat="46.5126" lon="-0.77891">
        <ele>133.02</ele>
        <time>2019-06-16T07:19:23.000Z</time>
      </trkpt>
      <trkpt lat="46.5127" lon="-0.77909">
        <ele>132.02</ele>
        <time>2019-06-16T07:19:25.000Z</time>
      </trkpt>
      <trkpt lat="46.51279" lon="-0.77929">
        <ele>131.06</ele>
        <time>2019-06-16T07:19:27.000Z</time>
      </trkpt>
      <trkpt lat="46.51288" lon="-0.77948">
        <ele>130.04</ele>
        <time>2019-06-16T07:19:29.000Z</time>
      </trkpt>
      <trkpt lat="46.51293" lon="-0.77968">
        <ele>129.53</ele>
        <time>2019-06-16T07:19:31.000Z</time>
      </trkpt>
      <trkpt lat="46.51296" lon="-0.77985">
        <ele>129.32</ele>
        <time>2019-06-16T07:19:33.000Z</time>
      </trkpt>
      <trkpt lat="46.51292" lon="-0.78003">
        <ele>130.58</ele>
        <time>2019-06-16T07:19:45.000Z</time>
      </trkpt>
      <trkpt lat="46.51279" lon="-0.78019">
        <ele>131.89</ele>
        <time>2019-06-16T07:19:54.000Z</time>
      </trkpt>
      <trkpt lat="46.51271" lon="-0.78015">
        <ele>132.29</ele>
        <time>2019-06-16T07:19:58.000Z</time>
      </trkpt>
      <trkpt lat="46.51261" lon="-0.78009">
        <ele>133.4</ele>
        <time>2019-06-16T07:20:05.000Z</time>
      </trkpt>
      <trkpt lat="46.5125" lon="-0.77995">
        <ele>134.43</ele>
        <time>2019-06-16T07:20:08.000Z</time>
      </trkpt>
      <trkpt lat="46.51239" lon="-0.77984">
        <ele>135.14</ele>
        <time>2019-06-16T07:20:10.000Z</time>
      </trkpt>
      <trkpt lat="46.51228" lon="-0.77975">
        <ele>135.5</ele>
        <time>2019-06-16T07:20:11.000Z</time>
      </trkpt>
      <trkpt lat="46.51218" lon="-0.77968">
        <ele>135.79</ele>
        <time>2019-06-16T07:20:12.000Z</time>
      </trkpt>
      <trkpt lat="46.51203" lon="-0.7796">
        <ele>136.29</ele>
        <time>2019-06-16T07:20:14.000Z</time>
      </trkpt>
      <trkpt lat="46.51192" lon="-0.77953">
        <ele>136.65</ele>
        <time>2019-06-16T07:20:16.000Z</time>
      </trkpt>
      <trkpt lat="46.51182" lon="-0.77945">
        <ele>136.88</ele>
        <time>2019-06-16T07:20:18.000Z</time>
      </trkpt>
      <trkpt lat="46.51173" lon="-0.7794">
        <ele>137.13</ele>
        <time>2019-06-16T07:20:21.000Z</time>
      </trkpt>
      <trkpt lat="46.51163" lon="-0.77936">
        <ele>137.46</ele>
        <time>2019-06-16T07:20:25.000Z</time>
      </trkpt>
      <trkpt lat="46.51154" lon="-0.7793">
        <ele>137.65</ele>
        <time>2019-06-16T07:20:28.000Z</time>
      </trkpt>
      <trkpt lat="46.51143" lon="-0.77927">
        <ele>137.82</ele>
        <time>2019-06-16T07:20:32.000Z</time>
      </trkpt>
      <trkpt lat="46.51132" lon="-0.77922">
        <ele>137.99</ele>
        <time>2019-06-16T07:20:35.000Z</time>
      </trkpt>
      <trkpt lat="46.51123" lon="-0.77918">
        <ele>138.38</ele>
        <time>2019-06-16T07:20:40.000Z</time>
      </trkpt>
      <trkpt lat="46.51114" lon="-0.77912">
        <ele>138.64</ele>
        <time>2019-06-16T07:20:43.000Z</time>
      </trkpt>
      <trkpt lat="46.51104" lon="-0.77911">
        <ele>141.05</ele>
        <time>2019-06-16T07:20:47.000Z</time>
      </trkpt>
      <trkpt lat="46.51095" lon="-0.77917">
        <ele>143.35</ele>
        <time>2019-06-16T07:20:49.000Z</time>
      </trkpt>
      <trkpt lat="46.51087" lon="-0.77923">
        <ele>143.55</ele>
        <time>2019-06-16T07:20:51.000Z</time>
      </trkpt>
      <trkpt lat="46.51078" lon="-0.77932">
        <ele>144.94</ele>
        <time>2019-06-16T07:20:53.000Z</time>
      </trkpt>
      <trkpt lat="46.51069" lon="-0.7794">
        <ele>145.12</ele>
        <time>2019-06-16T07:20:55.000Z</time>
      </trkpt>
      <trkpt lat="46.51059" lon="-0.77948">
        <ele>145.51</ele>
        <time>2019-06-16T07:20:57.000Z</time>
      </trkpt>
      <trkpt lat="46.51046" lon="-0.77954">
        <ele>146.2</ele>
        <time>2019-06-16T07:20:59.000Z</time>
      </trkpt>
      <trkpt lat="46.51034" lon="-0.77961">
        <ele>146.29</ele>
        <time>2019-06-16T07:21:01.000Z</time>
      </trkpt>
      <trkpt lat="46.51022" lon="-0.77968">
        <ele>146.37</ele>
        <time>2019-06-16T07:21:03.000Z</time>
      </trkpt>
      <trkpt lat="46.51012" lon="-0.77973">
        <ele>146.66</ele>
        <time>2019-06-16T07:21:05.000Z</time>
      </trkpt>
      <trkpt lat="46.51003" lon="-0.77971">
        <ele>146.83</ele>
        <time>2019-06-16T07:21:09.000Z</time>
      </trkpt>
      <trkpt lat="46.50996" lon="-0.77963">
        <ele>145.24</ele>
        <time>2019-06-16T07:21:37.000Z</time>
      </trkpt>
      <trkpt lat="46.50988" lon="-0.77954">
        <ele>139.14</ele>
        <time>2019-06-16T07:21:53.000Z</time>
      </trkpt>
      <trkpt lat="46.50977" lon="-0.77943">
        <ele>129.31</ele>
        <time>2019-06-16T07:22:00.000Z</time>
      </trkpt>
      <trkpt lat="46.50971" lon="-0.77932">
        <ele>123.95</ele>
        <time>2019-06-16T07:22:02.000Z</time>
      </trkpt>
      <trkpt lat="46.50962" lon="-0.77921">
        <ele>123.28</ele>
        <time>2019-06-16T07:22:05.000Z</time>
      </trkpt>
      <trkpt lat="46.50954" lon="-0.7791">
        <ele>122.03</ele>
        <time>2019-06-16T07:22:10.000Z</time>
      </trkpt>
      <trkpt lat="46.50948" lon="-0.77899">
        <ele>120.35</ele>
        <time>2019-06-16T07:22:16.000Z</time>
      </trkpt>
      <trkpt lat="46.50942" lon="-0.77889">
        <ele>117.79</ele>
        <time>2019-06-16T07:22:26.000Z</time>
      </trkpt>
      <trkpt lat="46.50938" lon="-0.77876">
        <ele>114.61</ele>
        <time>2019-06-16T07:22:40.000Z</time>
      </trkpt>
      <trkpt lat="46.50932" lon="-0.77865">
        <ele>113.64</ele>
        <time>2019-06-16T07:22:45.000Z</time>
      </trkpt>
      <trkpt lat="46.50928" lon="-0.77852">
        <ele>111.88</ele>
        <time>2019-06-16T07:22:56.000Z</time>
      </trkpt>
      <trkpt lat="46.50929" lon="-0.77839">
        <ele>110.62</ele>
        <time>2019-06-16T07:23:18.000Z</time>
      </trkpt>
      <trkpt lat="46.50928" lon="-0.77825">
        <ele>110.16</ele>
        <time>2019-06-16T07:23:26.000Z</time>
      </trkpt>
      <trkpt lat="46.50925" lon="-0.77812">
        <ele>109.08</ele>
        <time>2019-06-16T07:23:39.000Z</time>
      </trkpt>
      <trkpt lat="46.50927" lon="-0.77798">
        <ele>108.72</ele>
        <time>2019-06-16T07:23:54.000Z</time>
      </trkpt>
      <trkpt lat="46.50927" lon="-0.77785">
        <ele>108.8</ele>
        <time>2019-06-16T07:24:09.000Z</time>
      </trkpt>
      <trkpt lat="46.50919" lon="-0.77776">
        <ele>109.2</ele>
        <time>2019-06-16T07:24:30.000Z</time>
      </trkpt>
      <trkpt lat="46.50914" lon="-0.77764">
        <ele>109.66</ele>
        <time>2019-06-16T07:24:46.000Z</time>
      </trkpt>
      <trkpt lat="46.50911" lon="-0.77751">
        <ele>109.44</ele>
        <time>2019-06-16T07:24:57.000Z</time>
      </trkpt>
      <trkpt lat="46.50909" lon="-0.77738">
        <ele>110.27</ele>
        <time>2019-06-16T07:25:10.000Z</time>
      </trkpt>
      <trkpt lat="46.50905" lon="-0.77726">
        <ele>111.46</ele>
        <time>2019-06-16T07:25:23.000Z</time>
      </trkpt>
      <trkpt lat="46.50901" lon="-0.77714">
        <ele>112.14</ele>
        <time>2019-06-16T07:25:27.000Z</time>
      </trkpt>
      <trkpt lat="46.50897" lon="-0.77701">
        <ele>112.71</ele>
        <time>2019-06-16T07:25:31.000Z</time>
      </trkpt>
      <trkpt lat="46.50889" lon="-0.7769">
        <ele>113.18</ele>
        <time>2019-06-16T07:25:35.000Z</time>
      </trkpt>
      <trkpt lat="46.50883" lon="-0.7768">
        <ele>113.53</ele>
        <time>2019-06-16T07:25:39.000Z</time>
      </trkpt>
      <trkpt lat="46.50876" lon="-0.77669">
        <ele>113.81</ele>
        <time>2019-06-16T07:25:43.000Z</time>
      </trkpt>
      <trkpt lat="46.50874" lon="-0.77684">
        <ele>114.19</ele>
        <time>2019-06-16T07:25:52.000Z</time>
      </trkpt>
      <trkpt lat="46.50869" lon="-0.77702">
        <ele>114.88</ele>
        <time>2019-06-16T07:25:56.000Z</time>
      </trkpt>
      <trkpt lat="46.50868" lon="-0.77718">
        <ele>115.36</ele>
        <time>2019-06-16T07:25:58.000Z</time>
      </trkpt>
      <trkpt lat="46.50866" lon="-0.77738">
        <ele>115.89</ele>
        <time>2019-06-16T07:26:00.000Z</time>
      </trkpt>
      <trkpt lat="46.50866" lon="-0.77758">
        <ele>121.24</ele>
        <time>2019-06-16T07:26:02.000Z</time>
      </trkpt>
      <trkpt lat="46.50866" lon="-0.77782">
        <ele>125.16</ele>
        <time>2019-06-16T07:26:04.000Z</time>
      </trkpt>
      <trkpt lat="46.50866" lon="-0.77806">
        <ele>128.51</ele>
        <time>2019-06-16T07:26:06.000Z</time>
      </trkpt>
      <trkpt lat="46.50866" lon="-0.77827">
        <ele>131.54</ele>
        <time>2019-06-16T07:26:08.000Z</time>
      </trkpt>
      <trkpt lat="46.50864" lon="-0.77852">
        <ele>132.75</ele>
        <time>2019-06-16T07:26:10.000Z</time>
      </trkpt>
      <trkpt lat="46.50863" lon="-0.7787">
        <ele>132.39</ele>
        <time>2019-06-16T07:26:11.000Z</time>
      </trkpt>
      <trkpt lat="46.50863" lon="-0.77885">
        <ele>131.49</ele>
        <time>2019-06-16T07:26:12.000Z</time>
      </trkpt>
      <trkpt lat="46.50863" lon="-0.77901">
        <ele>130.24</ele>
        <time>2019-06-16T07:26:13.000Z</time>
      </trkpt>
      <trkpt lat="46.50862" lon="-0.77914">
        <ele>129.02</ele>
        <time>2019-06-16T07:26:14.000Z</time>
      </trkpt>
      <trkpt lat="46.50862" lon="-0.77938">
        <ele>126.42</ele>
        <time>2019-06-16T07:26:16.000Z</time>
      </trkpt>
      <trkpt lat="46.50862" lon="-0.77963">
        <ele>123.89</ele>
        <time>2019-06-16T07:26:18.000Z</time>
      </trkpt>
      <trkpt lat="46.50862" lon="-0.77988">
        <ele>121.59</ele>
        <time>2019-06-16T07:26:20.000Z</time>
      </trkpt>
      <trkpt lat="46.5086" lon="-0.78001">
        <ele>120.23</ele>
        <time>2019-06-16T07:26:21.000Z</time>
      </trkpt>
      <trkpt lat="46.50859" lon="-0.78014">
        <ele>118.7</ele>
        <time>2019-06-16T07:26:22.000Z</time>
      </trkpt>
      <trkpt lat="46.50858" lon="-0.78029">
        <ele>117.36</ele>
        <time>2019-06-16T07:26:23.000Z</time>
      </trkpt>
      <trkpt lat="46.50859" lon="-0.78044">
        <ele>116.16</ele>
        <time>2019-06-16T07:26:24.000Z</time>
      </trkpt>
      <trkpt lat="46.50861" lon="-0.78057">
        <ele>115.09</ele>
        <time>2019-06-16T07:26:25.000Z</time>
      </trkpt>
      <trkpt lat="46.50861" lon="-0.78079">
        <ele>113.26</ele>
        <time>2019-06-16T07:26:27.000Z</time>
      </trkpt>
      <trkpt lat="46.50864" lon="-0.78096">
        <ele>111.33</ele>
        <time>2019-06-16T07:26:29.000Z</time>
      </trkpt>
      <trkpt lat="46.50866" lon="-0.78109">
        <ele>110.27</ele>
        <time>2019-06-16T07:26:31.000Z</time>
      </trkpt>
      <trkpt lat="46.50874" lon="-0.78124">
        <ele>107.89</ele>
        <time>2019-06-16T07:26:34.000Z</time>
      </trkpt>
      <trkpt lat="46.50885" lon="-0.78136">
        <ele>107.62</ele>
        <time>2019-06-16T07:26:37.000Z</time>
      </trkpt>
      <trkpt lat="46.50896" lon="-0.78145">
        <ele>107.19</ele>
        <time>2019-06-16T07:26:40.000Z</time>
      </trkpt>
      <trkpt lat="46.50903" lon="-0.78155">
        <ele>106.74</ele>
        <time>2019-06-16T07:26:44.000Z</time>
      </trkpt>
      <trkpt lat="46.50899" lon="-0.78167">
        <ele>106.08</ele>
        <time>2019-06-16T07:26:51.000Z</time>
      </trkpt>
      <trkpt lat="46.50906" lon="-0.78183">
        <ele>102.65</ele>
        <time>2019-06-16T07:26:56.000Z</time>
      </trkpt>
      <trkpt lat="46.50914" lon="-0.78192">
        <ele>101.38</ele>
        <time>2019-06-16T07:26:58.000Z</time>
      </trkpt>
      <trkpt lat="46.50926" lon="-0.78203">
        <ele>101.1</ele>
        <time>2019-06-16T07:27:02.000Z</time>
      </trkpt>
      <trkpt lat="46.50935" lon="-0.78207">
        <ele>99.18</ele>
        <time>2019-06-16T07:27:13.000Z</time>
      </trkpt>
      <trkpt lat="46.50946" lon="-0.78211">
        <ele>98.54</ele>
        <time>2019-06-16T07:27:16.000Z</time>
      </trkpt>
      <trkpt lat="46.50955" lon="-0.78212">
        <ele>97.82</ele>
        <time>2019-06-16T07:27:19.000Z</time>
      </trkpt>
      <trkpt lat="46.50964" lon="-0.78218">
        <ele>97.08</ele>
        <time>2019-06-16T07:27:22.000Z</time>
      </trkpt>
      <trkpt lat="46.50954" lon="-0.78212">
        <ele>94.89</ele>
        <time>2019-06-16T07:27:32.000Z</time>
      </trkpt>
      <trkpt lat="46.50945" lon="-0.78216">
        <ele>93.93</ele>
        <time>2019-06-16T07:27:36.000Z</time>
      </trkpt>
      <trkpt lat="46.50932" lon="-0.78219">
        <ele>93.03</ele>
        <time>2019-06-16T07:27:40.000Z</time>
      </trkpt>
      <trkpt lat="46.50921" lon="-0.78226">
        <ele>92.44</ele>
        <time>2019-06-16T07:27:43.000Z</time>
      </trkpt>
      <trkpt lat="46.50911" lon="-0.78231">
        <ele>91.9</ele>
        <time>2019-06-16T07:27:46.000Z</time>
      </trkpt>
      <trkpt lat="46.50901" lon="-0.78234">
        <ele>91.29</ele>
        <time>2019-06-16T07:27:50.000Z</time>
      </trkpt>
      <trkpt lat="46.50891" lon="-0.78238">
        <ele>91.07</ele>
        <time>2019-06-16T07:27:53.000Z</time>
      </trkpt>
      <trkpt lat="46.5088" lon="-0.78242">
        <ele>90.95</ele>
        <time>2019-06-16T07:27:55.000Z</time>
      </trkpt>
      <trkpt lat="46.50869" lon="-0.78249">
        <ele>90.8</ele>
        <time>2019-06-16T07:27:57.000Z</time>
      </trkpt>
      <trkpt lat="46.50858" lon="-0.78254">
        <ele>89.92</ele>
        <time>2019-06-16T07:27:59.000Z</time>
      </trkpt>
      <trkpt lat="46.50848" lon="-0.78259">
        <ele>90.12</ele>
        <time>2019-06-16T07:28:02.000Z</time>
      </trkpt>
      <trkpt lat="46.50835" lon="-0.78264">
        <ele>90.55</ele>
        <time>2019-06-16T07:28:05.000Z</time>
      </trkpt>
      <trkpt lat="46.50822" lon="-0.78272">
        <ele>93.4</ele>
        <time>2019-06-16T07:28:07.000Z</time>
      </trkpt>
      <trkpt lat="46.50811" lon="-0.78279">
        <ele>93.78</ele>
        <time>2019-06-16T07:28:10.000Z</time>
      </trkpt>
      <trkpt lat="46.50802" lon="-0.78284">
        <ele>94.01</ele>
        <time>2019-06-16T07:28:12.000Z</time>
      </trkpt>
      <trkpt lat="46.50792" lon="-0.78287">
        <ele>94.44</ele>
        <time>2019-06-16T07:28:15.000Z</time>
      </trkpt>
      <trkpt lat="46.50779" lon="-0.78292">
        <ele>94.95</ele>
        <time>2019-06-16T07:28:18.000Z</time>
      </trkpt>
      <trkpt lat="46.50765" lon="-0.78299">
        <ele>95.57</ele>
        <time>2019-06-16T07:28:21.000Z</time>
      </trkpt>
      <trkpt lat="46.5075" lon="-0.78305">
        <ele>95.92</ele>
        <time>2019-06-16T07:28:23.000Z</time>
      </trkpt>
      <trkpt lat="46.5074" lon="-0.78308">
        <ele>96.23</ele>
        <time>2019-06-16T07:28:25.000Z</time>
      </trkpt>
      <trkpt lat="46.50725" lon="-0.78312">
        <ele>96.6</ele>
        <time>2019-06-16T07:28:28.000Z</time>
      </trkpt>
      <trkpt lat="46.50714" lon="-0.78319">
        <ele>97.11</ele>
        <time>2019-06-16T07:28:30.000Z</time>
      </trkpt>
      <trkpt lat="46.50705" lon="-0.78321">
        <ele>96.8</ele>
        <time>2019-06-16T07:28:32.000Z</time>
      </trkpt>
      <trkpt lat="46.50695" lon="-0.78325">
        <ele>96.67</ele>
        <time>2019-06-16T07:28:34.000Z</time>
      </trkpt>
      <trkpt lat="46.50686" lon="-0.78329">
        <ele>96.45</ele>
        <time>2019-06-16T07:28:37.000Z</time>
      </trkpt>
      <trkpt lat="46.50676" lon="-0.78332">
        <ele>95.11</ele>
        <time>2019-06-16T07:28:39.000Z</time>
      </trkpt>
      <trkpt lat="46.50663" lon="-0.78335">
        <ele>94.87</ele>
        <time>2019-06-16T07:28:41.000Z</time>
      </trkpt>
      <trkpt lat="46.50654" lon="-0.78337">
        <ele>92.99</ele>
        <time>2019-06-16T07:28:43.000Z</time>
      </trkpt>
      <trkpt lat="46.50642" lon="-0.78339">
        <ele>91.73</ele>
        <time>2019-06-16T07:28:45.000Z</time>
      </trkpt>
      <trkpt lat="46.50626" lon="-0.78346">
        <ele>90.69</ele>
        <time>2019-06-16T07:28:47.000Z</time>
      </trkpt>
      <trkpt lat="46.50613" lon="-0.78353">
        <ele>90.33</ele>
        <time>2019-06-16T07:28:49.000Z</time>
      </trkpt>
      <trkpt lat="46.50604" lon="-0.7836">
        <ele>89.9</ele>
        <time>2019-06-16T07:28:51.000Z</time>
      </trkpt>
      <trkpt lat="46.50589" lon="-0.78367">
        <ele>86.88</ele>
        <time>2019-06-16T07:28:53.000Z</time>
      </trkpt>
      <trkpt lat="46.5058" lon="-0.78371">
        <ele>84.86</ele>
        <time>2019-06-16T07:28:55.000Z</time>
      </trkpt>
      <trkpt lat="46.50567" lon="-0.78374">
        <ele>84.44</ele>
        <time>2019-06-16T07:28:58.000Z</time>
      </trkpt>
      <trkpt lat="46.50554" lon="-0.78376">
        <ele>83.17</ele>
        <time>2019-06-16T07:29:00.000Z</time>
      </trkpt>
      <trkpt lat="46.50544" lon="-0.78378">
        <ele>81.89</ele>
        <time>2019-06-16T07:29:01.000Z</time>
      </trkpt>
      <trkpt lat="46.50528" lon="-0.78382">
        <ele>79.71</ele>
        <time>2019-06-16T07:29:03.000Z</time>
      </trkpt>
      <trkpt lat="46.50517" lon="-0.78385">
        <ele>78.01</ele>
        <time>2019-06-16T07:29:05.000Z</time>
      </trkpt>
      <trkpt lat="46.50506" lon="-0.78387">
        <ele>77.11</ele>
        <time>2019-06-16T07:29:07.000Z</time>
      </trkpt>
      <trkpt lat="46.50496" lon="-0.78391">
        <ele>77.04</ele>
        <time>2019-06-16T07:29:09.000Z</time>
      </trkpt>
      <trkpt lat="46.50483" lon="-0.78392">
        <ele>77.17</ele>
        <time>2019-06-16T07:29:12.000Z</time>
      </trkpt>
      <trkpt lat="46.50473" lon="-0.78393">
        <ele>77.5</ele>
        <time>2019-06-16T07:29:14.000Z</time>
      </trkpt>
      <trkpt lat="46.50462" lon="-0.78396">
        <ele>77.64</ele>
        <time>2019-06-16T07:29:18.000Z</time>
      </trkpt>
      <trkpt lat="46.50453" lon="-0.78398">
        <ele>77.99</ele>
        <time>2019-06-16T07:29:21.000Z</time>
      </trkpt>
      <trkpt lat="46.50443" lon="-0.78402">
        <ele>78.32</ele>
        <time>2019-06-16T07:29:23.000Z</time>
      </trkpt>
      <trkpt lat="46.50433" lon="-0.78404">
        <ele>78.68</ele>
        <time>2019-06-16T07:29:25.000Z</time>
      </trkpt>
      <trkpt lat="46.50423" lon="-0.78404">
        <ele>79.4</ele>
        <time>2019-06-16T07:29:29.000Z</time>
      </trkpt>
      <trkpt lat="46.50413" lon="-0.78403">
        <ele>80.16</ele>
        <time>2019-06-16T07:29:33.000Z</time>
      </trkpt>
      <trkpt lat="46.50404" lon="-0.78398">
        <ele>80.81</ele>
        <time>2019-06-16T07:29:37.000Z</time>
      </trkpt>
      <trkpt lat="46.50396" lon="-0.78382">
        <ele>81</ele>
        <time>2019-06-16T07:29:40.000Z</time>
      </trkpt>
      <trkpt lat="46.50386" lon="-0.78374">
        <ele>81.08</ele>
        <time>2019-06-16T07:29:43.000Z</time>
      </trkpt>
      <trkpt lat="46.50375" lon="-0.78372">
        <ele>81.39</ele>
        <time>2019-06-16T07:29:47.000Z</time>
      </trkpt>
      <trkpt lat="46.50364" lon="-0.78366">
        <ele>81.58</ele>
        <time>2019-06-16T07:29:51.000Z</time>
      </trkpt>
      <trkpt lat="46.50354" lon="-0.78358">
        <ele>81.5</ele>
        <time>2019-06-16T07:29:53.000Z</time>
      </trkpt>
      <trkpt lat="46.50344" lon="-0.7835">
        <ele>81.35</ele>
        <time>2019-06-16T07:29:55.000Z</time>
      </trkpt>
      <trkpt lat="46.50335" lon="-0.78342">
        <ele>81.11</ele>
        <time>2019-06-16T07:29:57.000Z</time>
      </trkpt>
      <trkpt lat="46.50321" lon="-0.7834">
        <ele>80.46</ele>
        <time>2019-06-16T07:30:00.000Z</time>
      </trkpt>
      <trkpt lat="46.50309" lon="-0.78333">
        <ele>79.3</ele>
        <time>2019-06-16T07:30:03.000Z</time>
      </trkpt>
      <trkpt lat="46.503" lon="-0.78325">
        <ele>77.98</ele>
        <time>2019-06-16T07:30:06.000Z</time>
      </trkpt>
      <trkpt lat="46.50294" lon="-0.78314">
        <ele>77.11</ele>
        <time>2019-06-16T07:30:08.000Z</time>
      </trkpt>
      <trkpt lat="46.50288" lon="-0.78302">
        <ele>76.31</ele>
        <time>2019-06-16T07:30:10.000Z</time>
      </trkpt>
      <trkpt lat="46.50279" lon="-0.78292">
        <ele>75.45</ele>
        <time>2019-06-16T07:30:12.000Z</time>
      </trkpt>
      <trkpt lat="46.50268" lon="-0.78281">
        <ele>67.94</ele>
        <time>2019-06-16T07:30:14.000Z</time>
      </trkpt>
      <trkpt lat="46.50261" lon="-0.78267">
        <ele>67.3</ele>
        <time>2019-06-16T07:30:17.000Z</time>
      </trkpt>
      <trkpt lat="46.50253" lon="-0.78252">
        <ele>66.88</ele>
        <time>2019-06-16T07:30:19.000Z</time>
      </trkpt>
      <trkpt lat="46.50245" lon="-0.7824">
        <ele>64.35</ele>
        <time>2019-06-16T07:30:21.000Z</time>
      </trkpt>
      <trkpt lat="46.50237" lon="-0.78228">
        <ele>61.85</ele>
        <time>2019-06-16T07:30:23.000Z</time>
      </trkpt>
      <trkpt lat="46.50232" lon="-0.78214">
        <ele>61.5</ele>
        <time>2019-06-16T07:30:25.000Z</time>
      </trkpt>
      <trkpt lat="46.50222" lon="-0.78203">
        <ele>59.08</ele>
        <time>2019-06-16T07:30:27.000Z</time>
      </trkpt>
      <trkpt lat="46.50213" lon="-0.78198">
        <ele>56.06</ele>
        <time>2019-06-16T07:30:29.000Z</time>
      </trkpt>
      <trkpt lat="46.502" lon="-0.78187">
        <ele>53.85</ele>
        <time>2019-06-16T07:30:31.000Z</time>
      </trkpt>
      <trkpt lat="46.5019" lon="-0.78177">
        <ele>53.04</ele>
        <time>2019-06-16T07:30:33.000Z</time>
      </trkpt>
      <trkpt lat="46.50179" lon="-0.78169">
        <ele>52.89</ele>
        <time>2019-06-16T07:30:35.000Z</time>
      </trkpt>
      <trkpt lat="46.5017" lon="-0.7816">
        <ele>51.97</ele>
        <time>2019-06-16T07:30:37.000Z</time>
      </trkpt>
      <trkpt lat="46.50162" lon="-0.7815">
        <ele>50.68</ele>
        <time>2019-06-16T07:30:39.000Z</time>
      </trkpt>
      <trkpt lat="46.50153" lon="-0.7814">
        <ele>49.85</ele>
        <time>2019-06-16T07:30:42.000Z</time>
      </trkpt>
      <trkpt lat="46.50142" lon="-0.78133">
        <ele>49.97</ele>
        <time>2019-06-16T07:30:45.000Z</time>
      </trkpt>
      <trkpt lat="46.50132" lon="-0.78131">
        <ele>51.94</ele>
        <time>2019-06-16T07:30:48.000Z</time>
      </trkpt>
      <trkpt lat="46.50123" lon="-0.78139">
        <ele>52.89</ele>
        <time>2019-06-16T07:30:52.000Z</time>
      </trkpt>
      <trkpt lat="46.50116" lon="-0.78149">
        <ele>55.14</ele>
        <time>2019-06-16T07:30:59.000Z</time>
      </trkpt>
      <trkpt lat="46.50108" lon="-0.78156">
        <ele>57.44</ele>
        <time>2019-06-16T07:31:06.000Z</time>
      </trkpt>
      <trkpt lat="46.501" lon="-0.78168">
        <ele>58.22</ele>
        <time>2019-06-16T07:31:09.000Z</time>
      </trkpt>
      <trkpt lat="46.50093" lon="-0.7818">
        <ele>58.96</ele>
        <time>2019-06-16T07:31:12.000Z</time>
      </trkpt>
      <trkpt lat="46.50084" lon="-0.78189">
        <ele>59.58</ele>
        <time>2019-06-16T07:31:15.000Z</time>
      </trkpt>
      <trkpt lat="46.50074" lon="-0.78199">
        <ele>62.14</ele>
        <time>2019-06-16T07:31:18.000Z</time>
      </trkpt>
      <trkpt lat="46.50067" lon="-0.78215">
        <ele>62.75</ele>
        <time>2019-06-16T07:31:21.000Z</time>
      </trkpt>
      <trkpt lat="46.50065" lon="-0.78229">
        <ele>63.34</ele>
        <time>2019-06-16T07:31:24.000Z</time>
      </trkpt>
      <trkpt lat="46.50059" lon="-0.78245">
        <ele>67.28</ele>
        <time>2019-06-16T07:31:27.000Z</time>
      </trkpt>
      <trkpt lat="46.5005" lon="-0.7826">
        <ele>70.36</ele>
        <time>2019-06-16T07:31:30.000Z</time>
      </trkpt>
      <trkpt lat="46.50046" lon="-0.78279">
        <ele>71.82</ele>
        <time>2019-06-16T07:31:33.000Z</time>
      </trkpt>
      <trkpt lat="46.50045" lon="-0.78294">
        <ele>72.03</ele>
        <time>2019-06-16T07:31:35.000Z</time>
      </trkpt>
      <trkpt lat="46.50043" lon="-0.7831">
        <ele>71.95</ele>
        <time>2019-06-16T07:31:37.000Z</time>
      </trkpt>
      <trkpt lat="46.5004" lon="-0.78323">
        <ele>71.77</ele>
        <time>2019-06-16T07:31:39.000Z</time>
      </trkpt>
      <trkpt lat="46.50035" lon="-0.78343">
        <ele>71.4</ele>
        <time>2019-06-16T07:31:42.000Z</time>
      </trkpt>
      <trkpt lat="46.50037" lon="-0.78357">
        <ele>70.87</ele>
        <time>2019-06-16T07:31:44.000Z</time>
      </trkpt>
      <trkpt lat="46.50045" lon="-0.78367">
        <ele>70.16</ele>
        <time>2019-06-16T07:31:47.000Z</time>
      </trkpt>
      <trkpt lat="46.50054" lon="-0.78381">
        <ele>69.07</ele>
        <time>2019-06-16T07:31:50.000Z</time>
      </trkpt>
      <trkpt lat="46.50063" lon="-0.78394">
        <ele>68.66</ele>
        <time>2019-06-16T07:31:52.000Z</time>
      </trkpt>
      <trkpt lat="46.50072" lon="-0.78407">
        <ele>69.06</ele>
        <time>2019-06-16T07:31:55.000Z</time>
      </trkpt>
      <trkpt lat="46.50081" lon="-0.78415">
        <ele>69.18</ele>
        <time>2019-06-16T07:31:57.000Z</time>
      </trkpt>
      <trkpt lat="46.50089" lon="-0.78423">
        <ele>70.6</ele>
        <time>2019-06-16T07:31:59.000Z</time>
      </trkpt>
      <trkpt lat="46.50099" lon="-0.78439">
        <ele>72.76</ele>
        <time>2019-06-16T07:32:02.000Z</time>
      </trkpt>
      <trkpt lat="46.50108" lon="-0.78452">
        <ele>74.28</ele>
        <time>2019-06-16T07:32:04.000Z</time>
      </trkpt>
      <trkpt lat="46.50116" lon="-0.78469">
        <ele>75.24</ele>
        <time>2019-06-16T07:32:06.000Z</time>
      </trkpt>
      <trkpt lat="46.50121" lon="-0.7848">
        <ele>75.56</ele>
        <time>2019-06-16T07:32:07.000Z</time>
      </trkpt>
      <trkpt lat="46.50132" lon="-0.78499">
        <ele>76.72</ele>
        <time>2019-06-16T07:32:09.000Z</time>
      </trkpt>
      <trkpt lat="46.50143" lon="-0.78515">
        <ele>78.12</ele>
        <time>2019-06-16T07:32:11.000Z</time>
      </trkpt>
      <trkpt lat="46.5015" lon="-0.78529">
        <ele>79.03</ele>
        <time>2019-06-16T07:32:13.000Z</time>
      </trkpt>
      <trkpt lat="46.5016" lon="-0.78541">
        <ele>79.11</ele>
        <time>2019-06-16T07:32:15.000Z</time>
      </trkpt>
      <trkpt lat="46.50166" lon="-0.78555">
        <ele>79.66</ele>
        <time>2019-06-16T07:32:17.000Z</time>
      </trkpt>
      <trkpt lat="46.50174" lon="-0.78561">
        <ele>80.02</ele>
        <time>2019-06-16T07:32:19.000Z</time>
      </trkpt>
      <trkpt lat="46.50182" lon="-0.78568">
        <ele>80.1</ele>
        <time>2019-06-16T07:32:22.000Z</time>
      </trkpt>
      <trkpt lat="46.5019" lon="-0.78578">
        <ele>80.58</ele>
        <time>2019-06-16T07:32:29.000Z</time>
      </trkpt>
      <trkpt lat="46.50188" lon="-0.78592">
        <ele>84.07</ele>
        <time>2019-06-16T07:32:32.000Z</time>
      </trkpt>
      <trkpt lat="46.50189" lon="-0.78606">
        <ele>90.08</ele>
        <time>2019-06-16T07:32:34.000Z</time>
      </trkpt>
      <trkpt lat="46.50192" lon="-0.78623">
        <ele>94.67</ele>
        <time>2019-06-16T07:32:36.000Z</time>
      </trkpt>
      <trkpt lat="46.50193" lon="-0.78641">
        <ele>98.38</ele>
        <time>2019-06-16T07:32:38.000Z</time>
      </trkpt>
      <trkpt lat="46.50194" lon="-0.7866">
        <ele>100.42</ele>
        <time>2019-06-16T07:32:40.000Z</time>
      </trkpt>
      <trkpt lat="46.50198" lon="-0.7868">
        <ele>100.31</ele>
        <time>2019-06-16T07:32:42.000Z</time>
      </trkpt>
      <trkpt lat="46.50201" lon="-0.78699">
        <ele>100.63</ele>
        <time>2019-06-16T07:32:44.000Z</time>
      </trkpt>
      <trkpt lat="46.50206" lon="-0.78716">
        <ele>101.15</ele>
        <time>2019-06-16T07:32:46.000Z</time>
      </trkpt>
      <trkpt lat="46.50214" lon="-0.78735">
        <ele>100.87</ele>
        <time>2019-06-16T07:32:48.000Z</time>
      </trkpt>
      <trkpt lat="46.50219" lon="-0.7875">
        <ele>101.39</ele>
        <time>2019-06-16T07:32:50.000Z</time>
      </trkpt>
      <trkpt lat="46.50226" lon="-0.78769">
        <ele>101.06</ele>
        <time>2019-06-16T07:32:52.000Z</time>
      </trkpt>
      <trkpt lat="46.5023" lon="-0.78781">
        <ele>101.26</ele>
        <time>2019-06-16T07:32:53.000Z</time>
      </trkpt>
      <trkpt lat="46.50234" lon="-0.78793">
        <ele>101.41</ele>
        <time>2019-06-16T07:32:54.000Z</time>
      </trkpt>
      <trkpt lat="46.5024" lon="-0.78814">
        <ele>102.99</ele>
        <time>2019-06-16T07:32:56.000Z</time>
      </trkpt>
      <trkpt lat="46.50247" lon="-0.78834">
        <ele>103.77</ele>
        <time>2019-06-16T07:32:58.000Z</time>
      </trkpt>
      <trkpt lat="46.50255" lon="-0.78852">
        <ele>103.63</ele>
        <time>2019-06-16T07:33:00.000Z</time>
      </trkpt>
      <trkpt lat="46.50263" lon="-0.78868">
        <ele>103</ele>
        <time>2019-06-16T07:33:02.000Z</time>
      </trkpt>
      <trkpt lat="46.50272" lon="-0.78881">
        <ele>101.8</ele>
        <time>2019-06-16T07:33:04.000Z</time>
      </trkpt>
      <trkpt lat="46.50279" lon="-0.78892">
        <ele>100.44</ele>
        <time>2019-06-16T07:33:06.000Z</time>
      </trkpt>
      <trkpt lat="46.50283" lon="-0.78904">
        <ele>98.34</ele>
        <time>2019-06-16T07:33:08.000Z</time>
      </trkpt>
      <trkpt lat="46.50289" lon="-0.78921">
        <ele>96.43</ele>
        <time>2019-06-16T07:33:11.000Z</time>
      </trkpt>
      <trkpt lat="46.50293" lon="-0.78935">
        <ele>94.72</ele>
        <time>2019-06-16T07:33:13.000Z</time>
      </trkpt>
      <trkpt lat="46.50298" lon="-0.78953">
        <ele>93.63</ele>
        <time>2019-06-16T07:33:15.000Z</time>
      </trkpt>
      <trkpt lat="46.50306" lon="-0.78972">
        <ele>94.42</ele>
        <time>2019-06-16T07:33:17.000Z</time>
      </trkpt>
      <trkpt lat="46.50314" lon="-0.78989">
        <ele>95.29</ele>
        <time>2019-06-16T07:33:19.000Z</time>
      </trkpt>
      <trkpt lat="46.50321" lon="-0.79004">
        <ele>95.34</ele>
        <time>2019-06-16T07:33:21.000Z</time>
      </trkpt>
      <trkpt lat="46.50328" lon="-0.79019">
        <ele>94.02</ele>
        <time>2019-06-16T07:33:23.000Z</time>
      </trkpt>
      <trkpt lat="46.50335" lon="-0.79031">
        <ele>91.84</ele>
        <time>2019-06-16T07:33:25.000Z</time>
      </trkpt>
      <trkpt lat="46.50338" lon="-0.79044">
        <ele>90.12</ele>
        <time>2019-06-16T07:33:27.000Z</time>
      </trkpt>
      <trkpt lat="46.50341" lon="-0.7906">
        <ele>87.45</ele>
        <time>2019-06-16T07:33:29.000Z</time>
      </trkpt>
      <trkpt lat="46.50347" lon="-0.79078">
        <ele>84.9</ele>
        <time>2019-06-16T07:33:31.000Z</time>
      </trkpt>
      <trkpt lat="46.50348" lon="-0.79094">
        <ele>83.41</ele>
        <time>2019-06-16T07:33:33.000Z</time>
      </trkpt>
      <trkpt lat="46.50348" lon="-0.79111">
        <ele>81.99</ele>
        <time>2019-06-16T07:33:35.000Z</time>
      </trkpt>
      <trkpt lat="46.50353" lon="-0.79131">
        <ele>80.66</ele>
        <time>2019-06-16T07:33:37.000Z</time>
      </trkpt>
      <trkpt lat="46.50355" lon="-0.79149">
        <ele>79.81</ele>
        <time>2019-06-16T07:33:39.000Z</time>
      </trkpt>
      <trkpt lat="46.50356" lon="-0.79166">
        <ele>79.4</ele>
        <time>2019-06-16T07:33:41.000Z</time>
      </trkpt>
      <trkpt lat="46.50362" lon="-0.79183">
        <ele>78.35</ele>
        <time>2019-06-16T07:33:43.000Z</time>
      </trkpt>
      <trkpt lat="46.50367" lon="-0.79201">
        <ele>77.23</ele>
        <time>2019-06-16T07:33:45.000Z</time>
      </trkpt>
      <trkpt lat="46.5037" lon="-0.79216">
        <ele>75.63</ele>
        <time>2019-06-16T07:33:47.000Z</time>
      </trkpt>
      <trkpt lat="46.5037" lon="-0.79233">
        <ele>73.41</ele>
        <time>2019-06-16T07:33:49.000Z</time>
      </trkpt>
      <trkpt lat="46.50371" lon="-0.7925">
        <ele>71.77</ele>
        <time>2019-06-16T07:33:51.000Z</time>
      </trkpt>
      <trkpt lat="46.50373" lon="-0.79271">
        <ele>69.98</ele>
        <time>2019-06-16T07:33:53.000Z</time>
      </trkpt>
      <trkpt lat="46.50373" lon="-0.79286">
        <ele>68.66</ele>
        <time>2019-06-16T07:33:55.000Z</time>
      </trkpt>
      <trkpt lat="46.50372" lon="-0.79306">
        <ele>68.36</ele>
        <time>2019-06-16T07:33:58.000Z</time>
      </trkpt>
      <trkpt lat="46.50368" lon="-0.79322">
        <ele>68.51</ele>
        <time>2019-06-16T07:34:00.000Z</time>
      </trkpt>
      <trkpt lat="46.50359" lon="-0.79339">
        <ele>67.8</ele>
        <time>2019-06-16T07:34:02.000Z</time>
      </trkpt>
      <trkpt lat="46.50348" lon="-0.79345">
        <ele>68.23</ele>
        <time>2019-06-16T07:34:04.000Z</time>
      </trkpt>
      <trkpt lat="46.50334" lon="-0.79346">
        <ele>69.38</ele>
        <time>2019-06-16T07:34:06.000Z</time>
      </trkpt>
      <trkpt lat="46.50324" lon="-0.79348">
        <ele>72.28</ele>
        <time>2019-06-16T07:34:08.000Z</time>
      </trkpt>
      <trkpt lat="46.50314" lon="-0.79346">
        <ele>75.91</ele>
        <time>2019-06-16T07:34:10.000Z</time>
      </trkpt>
      <trkpt lat="46.50301" lon="-0.79339">
        <ele>79.76</ele>
        <time>2019-06-16T07:34:12.000Z</time>
      </trkpt>
      <trkpt lat="46.50288" lon="-0.7933">
        <ele>82.78</ele>
        <time>2019-06-16T07:34:14.000Z</time>
      </trkpt>
      <trkpt lat="46.50277" lon="-0.79325">
        <ele>85.8</ele>
        <time>2019-06-16T07:34:16.000Z</time>
      </trkpt>
      <trkpt lat="46.50268" lon="-0.79322">
        <ele>89.4</ele>
        <time>2019-06-16T07:34:19.000Z</time>
      </trkpt>
      <trkpt lat="46.50258" lon="-0.79327">
        <ele>90.11</ele>
        <time>2019-06-16T07:34:23.000Z</time>
      </trkpt>
      <trkpt lat="46.5025" lon="-0.79336">
        <ele>90.32</ele>
        <time>2019-06-16T07:34:25.000Z</time>
      </trkpt>
      <trkpt lat="46.5024" lon="-0.79339">
        <ele>91.08</ele>
        <time>2019-06-16T07:34:27.000Z</time>
      </trkpt>
      <trkpt lat="46.50228" lon="-0.79341">
        <ele>91.51</ele>
        <time>2019-06-16T07:34:29.000Z</time>
      </trkpt>
      <trkpt lat="46.50219" lon="-0.79341">
        <ele>91.63</ele>
        <time>2019-06-16T07:34:31.000Z</time>
      </trkpt>
      <trkpt lat="46.50208" lon="-0.79346">
        <ele>92.45</ele>
        <time>2019-06-16T07:34:33.000Z</time>
      </trkpt>
      <trkpt lat="46.50195" lon="-0.79353">
        <ele>92.5</ele>
        <time>2019-06-16T07:34:35.000Z</time>
      </trkpt>
      <trkpt lat="46.50184" lon="-0.79361">
        <ele>91.89</ele>
        <time>2019-06-16T07:34:37.000Z</time>
      </trkpt>
      <trkpt lat="46.50171" lon="-0.79371">
        <ele>90.48</ele>
        <time>2019-06-16T07:34:39.000Z</time>
      </trkpt>
      <trkpt lat="46.50157" lon="-0.79382">
        <ele>87.05</ele>
        <time>2019-06-16T07:34:41.000Z</time>
      </trkpt>
      <trkpt lat="46.50142" lon="-0.79394">
        <ele>82.55</ele>
        <time>2019-06-16T07:34:43.000Z</time>
      </trkpt>
      <trkpt lat="46.5013" lon="-0.794">
        <ele>78.11</ele>
        <time>2019-06-16T07:34:45.000Z</time>
      </trkpt>
      <trkpt lat="46.50118" lon="-0.79406">
        <ele>75.3</ele>
        <time>2019-06-16T07:34:47.000Z</time>
      </trkpt>
      <trkpt lat="46.50105" lon="-0.79415">
        <ele>73.86</ele>
        <time>2019-06-16T07:34:49.000Z</time>
      </trkpt>
      <trkpt lat="46.50094" lon="-0.79422">
        <ele>72.67</ele>
        <time>2019-06-16T07:34:51.000Z</time>
      </trkpt>
      <trkpt lat="46.50081" lon="-0.79429">
        <ele>72.57</ele>
        <time>2019-06-16T07:34:53.000Z</time>
      </trkpt>
      <trkpt lat="46.50073" lon="-0.79435">
        <ele>73.33</ele>
        <time>2019-06-16T07:34:55.000Z</time>
      </trkpt>
      <trkpt lat="46.50061" lon="-0.79439">
        <ele>74.06</ele>
        <time>2019-06-16T07:34:58.000Z</time>
      </trkpt>
      <trkpt lat="46.50051" lon="-0.79442">
        <ele>75.64</ele>
        <time>2019-06-16T07:35:00.000Z</time>
      </trkpt>
      <trkpt lat="46.50037" lon="-0.79449">
        <ele>77.65</ele>
        <time>2019-06-16T07:35:02.000Z</time>
      </trkpt>
      <trkpt lat="46.50028" lon="-0.79459">
        <ele>78.01</ele>
        <time>2019-06-16T07:35:04.000Z</time>
      </trkpt>
      <trkpt lat="46.50019" lon="-0.7947">
        <ele>82.68</ele>
        <time>2019-06-16T07:35:06.000Z</time>
      </trkpt>
      <trkpt lat="46.50009" lon="-0.79477">
        <ele>86.1</ele>
        <time>2019-06-16T07:35:09.000Z</time>
      </trkpt>
      <trkpt lat="46.5" lon="-0.79486">
        <ele>88.73</ele>
        <time>2019-06-16T07:35:11.000Z</time>
      </trkpt>
      <trkpt lat="46.49991" lon="-0.79495">
        <ele>89.39</ele>
        <time>2019-06-16T07:35:14.000Z</time>
      </trkpt>
      <trkpt lat="46.49982" lon="-0.79496">
        <ele>93.28</ele>
        <time>2019-06-16T07:35:16.000Z</time>
      </trkpt>
      <trkpt lat="46.4997" lon="-0.79501">
        <ele>94.93</ele>
        <time>2019-06-16T07:35:18.000Z</time>
      </trkpt>
      <trkpt lat="46.49959" lon="-0.79508">
        <ele>94.58</ele>
        <time>2019-06-16T07:35:20.000Z</time>
      </trkpt>
      <trkpt lat="46.49947" lon="-0.79517">
        <ele>93.09</ele>
        <time>2019-06-16T07:35:22.000Z</time>
      </trkpt>
      <trkpt lat="46.49935" lon="-0.79524">
        <ele>91.35</ele>
        <time>2019-06-16T07:35:24.000Z</time>
      </trkpt>
      <trkpt lat="46.49923" lon="-0.79529">
        <ele>90.62</ele>
        <time>2019-06-16T07:35:26.000Z</time>
      </trkpt>
      <trkpt lat="46.49912" lon="-0.79531">
        <ele>90.59</ele>
        <time>2019-06-16T07:35:28.000Z</time>
      </trkpt>
      <trkpt lat="46.49901" lon="-0.79539">
        <ele>89.82</ele>
        <time>2019-06-16T07:35:30.000Z</time>
      </trkpt>
      <trkpt lat="46.49892" lon="-0.79547">
        <ele>90.13</ele>
        <time>2019-06-16T07:35:32.000Z</time>
      </trkpt>
      <trkpt lat="46.49883" lon="-0.79555">
        <ele>90.83</ele>
        <time>2019-06-16T07:35:34.000Z</time>
      </trkpt>
      <trkpt lat="46.49873" lon="-0.79564">
        <ele>91.07</ele>
        <time>2019-06-16T07:35:36.000Z</time>
      </trkpt>
      <trkpt lat="46.49865" lon="-0.79571">
        <ele>91.27</ele>
        <time>2019-06-16T07:35:38.000Z</time>
      </trkpt>
      <trkpt lat="46.49854" lon="-0.79581">
        <ele>91.56</ele>
        <time>2019-06-16T07:35:41.000Z</time>
      </trkpt>
      <trkpt lat="46.49843" lon="-0.79591">
        <ele>91.65</ele>
        <time>2019-06-16T07:35:44.000Z</time>
      </trkpt>
      <trkpt lat="46.49831" lon="-0.79602">
        <ele>91.79</ele>
        <time>2019-06-16T07:35:47.000Z</time>
      </trkpt>
      <trkpt lat="46.49823" lon="-0.7961">
        <ele>91.94</ele>
        <time>2019-06-16T07:35:49.000Z</time>
      </trkpt>
      <trkpt lat="46.49815" lon="-0.79616">
        <ele>92.1</ele>
        <time>2019-06-16T07:35:51.000Z</time>
      </trkpt>
      <trkpt lat="46.49802" lon="-0.79626">
        <ele>94.34</ele>
        <time>2019-06-16T07:35:53.000Z</time>
      </trkpt>
      <trkpt lat="46.49791" lon="-0.79639">
        <ele>97.98</ele>
        <time>2019-06-16T07:35:55.000Z</time>
      </trkpt>
      <trkpt lat="46.49777" lon="-0.79652">
        <ele>102.47</ele>
        <time>2019-06-16T07:35:57.000Z</time>
      </trkpt>
      <trkpt lat="46.49767" lon="-0.79662">
        <ele>104.89</ele>
        <time>2019-06-16T07:35:59.000Z</time>
      </trkpt>
      <trkpt lat="46.49758" lon="-0.7967">
        <ele>106.11</ele>
        <time>2019-06-16T07:36:01.000Z</time>
      </trkpt>
      <trkpt lat="46.4975" lon="-0.79683">
        <ele>105.94</ele>
        <time>2019-06-16T07:36:03.000Z</time>
      </trkpt>
      <trkpt lat="46.49743" lon="-0.79692">
        <ele>105.6</ele>
        <time>2019-06-16T07:36:05.000Z</time>
      </trkpt>
      <trkpt lat="46.49736" lon="-0.79702">
        <ele>104.71</ele>
        <time>2019-06-16T07:36:07.000Z</time>
      </trkpt>
      <trkpt lat="46.49726" lon="-0.79713">
        <ele>103.58</ele>
        <time>2019-06-16T07:36:10.000Z</time>
      </trkpt>
      <trkpt lat="46.49717" lon="-0.79721">
        <ele>102.65</ele>
        <time>2019-06-16T07:36:13.000Z</time>
      </trkpt>
      <trkpt lat="46.49709" lon="-0.79729">
        <ele>100.73</ele>
        <time>2019-06-16T07:36:15.000Z</time>
      </trkpt>
      <trkpt lat="46.49698" lon="-0.79738">
        <ele>101</ele>
        <time>2019-06-16T07:36:18.000Z</time>
      </trkpt>
      <trkpt lat="46.49686" lon="-0.79746">
        <ele>103.4</ele>
        <time>2019-06-16T07:36:21.000Z</time>
      </trkpt>
      <trkpt lat="46.49675" lon="-0.79755">
        <ele>106.08</ele>
        <time>2019-06-16T07:36:24.000Z</time>
      </trkpt>
      <trkpt lat="46.49664" lon="-0.79773">
        <ele>107.81</ele>
        <time>2019-06-16T07:36:26.000Z</time>
      </trkpt>
      <trkpt lat="46.49657" lon="-0.79783">
        <ele>108.36</ele>
        <time>2019-06-16T07:36:27.000Z</time>
      </trkpt>
      <trkpt lat="46.49649" lon="-0.798">
        <ele>109.54</ele>
        <time>2019-06-16T07:36:29.000Z</time>
      </trkpt>
      <trkpt lat="46.49639" lon="-0.79817">
        <ele>110.62</ele>
        <time>2019-06-16T07:36:31.000Z</time>
      </trkpt>
      <trkpt lat="46.49631" lon="-0.79832">
        <ele>110.54</ele>
        <time>2019-06-16T07:36:33.000Z</time>
      </trkpt>
      <trkpt lat="46.49625" lon="-0.79852">
        <ele>109.81</ele>
        <time>2019-06-16T07:36:35.000Z</time>
      </trkpt>
      <trkpt lat="46.49627" lon="-0.79873">
        <ele>109.46</ele>
        <time>2019-06-16T07:36:37.000Z</time>
      </trkpt>
      <trkpt lat="46.49634" lon="-0.79886">
        <ele>109.03</ele>
        <time>2019-06-16T07:36:39.000Z</time>
      </trkpt>
      <trkpt lat="46.4964" lon="-0.79897">
        <ele>108.49</ele>
        <time>2019-06-16T07:36:41.000Z</time>
      </trkpt>
      <trkpt lat="46.49646" lon="-0.79908">
        <ele>107.86</ele>
        <time>2019-06-16T07:36:43.000Z</time>
      </trkpt>
      <trkpt lat="46.49653" lon="-0.79922">
        <ele>106.83</ele>
        <time>2019-06-16T07:36:46.000Z</time>
      </trkpt>
      <trkpt lat="46.49659" lon="-0.79936">
        <ele>102.53</ele>
        <time>2019-06-16T07:36:49.000Z</time>
      </trkpt>
      <trkpt lat="46.49665" lon="-0.79949">
        <ele>101.21</ele>
        <time>2019-06-16T07:36:53.000Z</time>
      </trkpt>
      <trkpt lat="46.49671" lon="-0.79961">
        <ele>99.57</ele>
        <time>2019-06-16T07:36:58.000Z</time>
      </trkpt>
      <trkpt lat="46.49678" lon="-0.79974">
        <ele>97.87</ele>
        <time>2019-06-16T07:37:03.000Z</time>
      </trkpt>
      <trkpt lat="46.49684" lon="-0.79986">
        <ele>96.41</ele>
        <time>2019-06-16T07:37:07.000Z</time>
      </trkpt>
      <trkpt lat="46.4969" lon="-0.79999">
        <ele>94.68</ele>
        <time>2019-06-16T07:37:12.000Z</time>
      </trkpt>
      <trkpt lat="46.49693" lon="-0.80013">
        <ele>93.46</ele>
        <time>2019-06-16T07:37:17.000Z</time>
      </trkpt>
      <trkpt lat="46.4969" lon="-0.80026">
        <ele>92.51</ele>
        <time>2019-06-16T07:37:23.000Z</time>
      </trkpt>
      <trkpt lat="46.49684" lon="-0.80037">
        <ele>91.72</ele>
        <time>2019-06-16T07:37:29.000Z</time>
      </trkpt>
      <trkpt lat="46.49677" lon="-0.80047">
        <ele>91.14</ele>
        <time>2019-06-16T07:37:34.000Z</time>
      </trkpt>
      <trkpt lat="46.4967" lon="-0.80058">
        <ele>90.72</ele>
        <time>2019-06-16T07:37:41.000Z</time>
      </trkpt>
      <trkpt lat="46.49664" lon="-0.80069">
        <ele>90.81</ele>
        <time>2019-06-16T07:37:50.000Z</time>
      </trkpt>
      <trkpt lat="46.49661" lon="-0.80082">
        <ele>91.33</ele>
        <time>2019-06-16T07:37:55.000Z</time>
      </trkpt>
      <trkpt lat="46.49656" lon="-0.80095">
        <ele>91.78</ele>
        <time>2019-06-16T07:38:00.000Z</time>
      </trkpt>
      <trkpt lat="46.49652" lon="-0.80108">
        <ele>92.44</ele>
        <time>2019-06-16T07:38:05.000Z</time>
      </trkpt>
      <trkpt lat="46.4965" lon="-0.80122">
        <ele>93.3</ele>
        <time>2019-06-16T07:38:10.000Z</time>
      </trkpt>
      <trkpt lat="46.49649" lon="-0.80136">
        <ele>94.66</ele>
        <time>2019-06-16T07:38:16.000Z</time>
      </trkpt>
      <trkpt lat="46.49651" lon="-0.80149">
        <ele>95.52</ele>
        <time>2019-06-16T07:38:21.000Z</time>
      </trkpt>
      <trkpt lat="46.49652" lon="-0.80163">
        <ele>96</ele>
        <time>2019-06-16T07:38:28.000Z</time>
      </trkpt>
      <trkpt lat="46.49653" lon="-0.80178">
        <ele>96.22</ele>
        <time>2019-06-16T07:38:33.000Z</time>
      </trkpt>
      <trkpt lat="46.49653" lon="-0.80192">
        <ele>96.5</ele>
        <time>2019-06-16T07:38:40.000Z</time>
      </trkpt>
      <trkpt lat="46.49645" lon="-0.80202">
        <ele>99.74</ele>
        <time>2019-06-16T07:38:57.000Z</time>
      </trkpt>
      <trkpt lat="46.49641" lon="-0.80215">
        <ele>102.17</ele>
        <time>2019-06-16T07:39:05.000Z</time>
      </trkpt>
      <trkpt lat="46.49637" lon="-0.80227">
        <ele>104.92</ele>
        <time>2019-06-16T07:39:24.000Z</time>
      </trkpt>
      <trkpt lat="46.49639" lon="-0.80241">
        <ele>106.37</ele>
        <time>2019-06-16T07:39:44.000Z</time>
      </trkpt>
      <trkpt lat="46.49647" lon="-0.80247">
        <ele>108.03</ele>
        <time>2019-06-16T07:39:58.000Z</time>
      </trkpt>
      <trkpt lat="46.49654" lon="-0.80256">
        <ele>110.57</ele>
        <time>2019-06-16T07:40:12.000Z</time>
      </trkpt>
      <trkpt lat="46.49664" lon="-0.80258">
        <ele>111.54</ele>
        <time>2019-06-16T07:43:07.000Z</time>
      </trkpt>
      <trkpt lat="46.49673" lon="-0.8026">
        <ele>111.52</ele>
        <time>2019-06-16T07:43:11.000Z</time>
      </trkpt>
      <trkpt lat="46.49685" lon="-0.80262">
        <ele>111.67</ele>
        <time>2019-06-16T07:43:15.000Z</time>
      </trkpt>
      <trkpt lat="46.49694" lon="-0.80265">
        <ele>111.94</ele>
        <time>2019-06-16T07:43:20.000Z</time>
      </trkpt>
      <trkpt lat="46.49706" lon="-0.80266">
        <ele>112.08</ele>
        <time>2019-06-16T07:43:25.000Z</time>
      </trkpt>
      <trkpt lat="46.49715" lon="-0.80266">
        <ele>112.17</ele>
        <time>2019-06-16T07:43:29.000Z</time>
      </trkpt>
      <trkpt lat="46.49725" lon="-0.80269">
        <ele>112.43</ele>
        <time>2019-06-16T07:43:34.000Z</time>
      </trkpt>
      <trkpt lat="46.49736" lon="-0.80272">
        <ele>112.83</ele>
        <time>2019-06-16T07:43:39.000Z</time>
      </trkpt>
      <trkpt lat="46.49748" lon="-0.80275">
        <ele>113.17</ele>
        <time>2019-06-16T07:43:43.000Z</time>
      </trkpt>
      <trkpt lat="46.49759" lon="-0.80279">
        <ele>113.57</ele>
        <time>2019-06-16T07:43:47.000Z</time>
      </trkpt>
      <trkpt lat="46.4977" lon="-0.80283">
        <ele>113.91</ele>
        <time>2019-06-16T07:43:51.000Z</time>
      </trkpt>
      <trkpt lat="46.49778" lon="-0.80287">
        <ele>114.13</ele>
        <time>2019-06-16T07:43:54.000Z</time>
      </trkpt>
      <trkpt lat="46.49788" lon="-0.80292">
        <ele>114.43</ele>
        <time>2019-06-16T07:43:57.000Z</time>
      </trkpt>
      <trkpt lat="46.49798" lon="-0.80297">
        <ele>114.72</ele>
        <time>2019-06-16T07:44:00.000Z</time>
      </trkpt>
      <trkpt lat="46.49809" lon="-0.80303">
        <ele>115</ele>
        <time>2019-06-16T07:44:03.000Z</time>
      </trkpt>
      <trkpt lat="46.49819" lon="-0.8031">
        <ele>115.25</ele>
        <time>2019-06-16T07:44:06.000Z</time>
      </trkpt>
      <trkpt lat="46.49829" lon="-0.80321">
        <ele>117.84</ele>
        <time>2019-06-16T07:44:09.000Z</time>
      </trkpt>
      <trkpt lat="46.49838" lon="-0.80331">
        <ele>118.09</ele>
        <time>2019-06-16T07:44:12.000Z</time>
      </trkpt>
      <trkpt lat="46.49851" lon="-0.80342">
        <ele>119.13</ele>
        <time>2019-06-16T07:44:15.000Z</time>
      </trkpt>
      <trkpt lat="46.49859" lon="-0.80351">
        <ele>119.34</ele>
        <time>2019-06-16T07:44:18.000Z</time>
      </trkpt>
      <trkpt lat="46.49867" lon="-0.80357">
        <ele>119.93</ele>
        <time>2019-06-16T07:44:20.000Z</time>
      </trkpt>
      <trkpt lat="46.49876" lon="-0.80367">
        <ele>119.97</ele>
        <time>2019-06-16T07:44:23.000Z</time>
      </trkpt>
      <trkpt lat="46.49886" lon="-0.80376">
        <ele>118.82</ele>
        <time>2019-06-16T07:44:25.000Z</time>
      </trkpt>
      <trkpt lat="46.49899" lon="-0.80384">
        <ele>118.4</ele>
        <time>2019-06-16T07:44:27.000Z</time>
      </trkpt>
      <trkpt lat="46.4991" lon="-0.80391">
        <ele>119.17</ele>
        <time>2019-06-16T07:44:29.000Z</time>
      </trkpt>
      <trkpt lat="46.49921" lon="-0.80402">
        <ele>121.96</ele>
        <time>2019-06-16T07:44:32.000Z</time>
      </trkpt>
      <trkpt lat="46.49929" lon="-0.8041">
        <ele>124.07</ele>
        <time>2019-06-16T07:44:34.000Z</time>
      </trkpt>
      <trkpt lat="46.49939" lon="-0.80416">
        <ele>124.98</ele>
        <time>2019-06-16T07:44:36.000Z</time>
      </trkpt>
      <trkpt lat="46.49947" lon="-0.80423">
        <ele>125.84</ele>
        <time>2019-06-16T07:44:38.000Z</time>
      </trkpt>
      <trkpt lat="46.49955" lon="-0.80434">
        <ele>126.53</ele>
        <time>2019-06-16T07:44:40.000Z</time>
      </trkpt>
      <trkpt lat="46.49963" lon="-0.80445">
        <ele>126.55</ele>
        <time>2019-06-16T07:44:43.000Z</time>
      </trkpt>
      <trkpt lat="46.49975" lon="-0.80453">
        <ele>127.51</ele>
        <time>2019-06-16T07:44:46.000Z</time>
      </trkpt>
      <trkpt lat="46.49985" lon="-0.80462">
        <ele>127.51</ele>
        <time>2019-06-16T07:44:49.000Z</time>
      </trkpt>
      <trkpt lat="46.49994" lon="-0.80473">
        <ele>126.79</ele>
        <time>2019-06-16T07:44:52.000Z</time>
      </trkpt>
      <trkpt lat="46.50004" lon="-0.80476">
        <ele>126.25</ele>
        <time>2019-06-16T07:44:54.000Z</time>
      </trkpt>
      <trkpt lat="46.50011" lon="-0.80484">
        <ele>124.44</ele>
        <time>2019-06-16T07:44:56.000Z</time>
      </trkpt>
      <trkpt lat="46.5002" lon="-0.80492">
        <ele>122.85</ele>
        <time>2019-06-16T07:44:58.000Z</time>
      </trkpt>
      <trkpt lat="46.5003" lon="-0.80499">
        <ele>122.53</ele>
        <time>2019-06-16T07:45:00.000Z</time>
      </trkpt>
      <trkpt lat="46.5004" lon="-0.80504">
        <ele>122.53</ele>
        <time>2019-06-16T07:45:02.000Z</time>
      </trkpt>
      <trkpt lat="46.50051" lon="-0.80506">
        <ele>122.6</ele>
        <time>2019-06-16T07:45:06.000Z</time>
      </trkpt>
      <trkpt lat="46.50061" lon="-0.80509">
        <ele>122.93</ele>
        <time>2019-06-16T07:45:13.000Z</time>
      </trkpt>
      <trkpt lat="46.50069" lon="-0.80518">
        <ele>123.72</ele>
        <time>2019-06-16T07:45:19.000Z</time>
      </trkpt>
      <trkpt lat="46.50079" lon="-0.80526">
        <ele>124.36</ele>
        <time>2019-06-16T07:45:24.000Z</time>
      </trkpt>
      <trkpt lat="46.50088" lon="-0.80529">
        <ele>125.07</ele>
        <time>2019-06-16T07:45:29.000Z</time>
      </trkpt>
      <trkpt lat="46.50097" lon="-0.80534">
        <ele>126.19</ele>
        <time>2019-06-16T07:45:35.000Z</time>
      </trkpt>
      <trkpt lat="46.50104" lon="-0.80541">
        <ele>127.47</ele>
        <time>2019-06-16T07:45:41.000Z</time>
      </trkpt>
      <trkpt lat="46.50114" lon="-0.80546">
        <ele>128.41</ele>
        <time>2019-06-16T07:45:46.000Z</time>
      </trkpt>
      <trkpt lat="46.50123" lon="-0.80551">
        <ele>128.91</ele>
        <time>2019-06-16T07:45:50.000Z</time>
      </trkpt>
      <trkpt lat="46.50132" lon="-0.80557">
        <ele>129.22</ele>
        <time>2019-06-16T07:45:54.000Z</time>
      </trkpt>
      <trkpt lat="46.5014" lon="-0.80564">
        <ele>129.48</ele>
        <time>2019-06-16T07:45:58.000Z</time>
      </trkpt>
      <trkpt lat="46.50147" lon="-0.80575">
        <ele>129.86</ele>
        <time>2019-06-16T07:46:01.000Z</time>
      </trkpt>
      <trkpt lat="46.50158" lon="-0.80583">
        <ele>130.11</ele>
        <time>2019-06-16T07:46:04.000Z</time>
      </trkpt>
      <trkpt lat="46.5017" lon="-0.80585">
        <ele>130.3</ele>
        <time>2019-06-16T07:46:07.000Z</time>
      </trkpt>
      <trkpt lat="46.5018" lon="-0.80585">
        <ele>130.48</ele>
        <time>2019-06-16T07:46:09.000Z</time>
      </trkpt>
      <trkpt lat="46.50189" lon="-0.80581">
        <ele>130.74</ele>
        <time>2019-06-16T07:46:11.000Z</time>
      </trkpt>
      <trkpt lat="46.50197" lon="-0.80573">
        <ele>130.99</ele>
        <time>2019-06-16T07:46:13.000Z</time>
      </trkpt>
      <trkpt lat="46.50206" lon="-0.80562">
        <ele>131.46</ele>
        <time>2019-06-16T07:46:16.000Z</time>
      </trkpt>
      <trkpt lat="46.50214" lon="-0.80552">
        <ele>131.95</ele>
        <time>2019-06-16T07:46:19.000Z</time>
      </trkpt>
      <trkpt lat="46.50222" lon="-0.80542">
        <ele>133.93</ele>
        <time>2019-06-16T07:46:22.000Z</time>
      </trkpt>
      <trkpt lat="46.50232" lon="-0.80532">
        <ele>134.38</ele>
        <time>2019-06-16T07:46:25.000Z</time>
      </trkpt>
      <trkpt lat="46.50242" lon="-0.80524">
        <ele>134.87</ele>
        <time>2019-06-16T07:46:28.000Z</time>
      </trkpt>
      <trkpt lat="46.5025" lon="-0.80517">
        <ele>135.37</ele>
        <time>2019-06-16T07:46:31.000Z</time>
      </trkpt>
      <trkpt lat="46.50258" lon="-0.80509">
        <ele>135.86</ele>
        <time>2019-06-16T07:46:34.000Z</time>
      </trkpt>
      <trkpt lat="46.50267" lon="-0.80501">
        <ele>136.53</ele>
        <time>2019-06-16T07:46:38.000Z</time>
      </trkpt>
      <trkpt lat="46.50277" lon="-0.80492">
        <ele>137.23</ele>
        <time>2019-06-16T07:46:42.000Z</time>
      </trkpt>
      <trkpt lat="46.50285" lon="-0.80485">
        <ele>137.79</ele>
        <time>2019-06-16T07:46:45.000Z</time>
      </trkpt>
      <trkpt lat="46.50294" lon="-0.80479">
        <ele>138.35</ele>
        <time>2019-06-16T07:46:48.000Z</time>
      </trkpt>
      <trkpt lat="46.50304" lon="-0.8047">
        <ele>139.1</ele>
        <time>2019-06-16T07:46:52.000Z</time>
      </trkpt>
      <trkpt lat="46.50312" lon="-0.80459">
        <ele>139.6</ele>
        <time>2019-06-16T07:46:55.000Z</time>
      </trkpt>
      <trkpt lat="46.50317" lon="-0.80445">
        <ele>140.24</ele>
        <time>2019-06-16T07:46:59.000Z</time>
      </trkpt>
      <trkpt lat="46.5032" lon="-0.80432">
        <ele>140.67</ele>
        <time>2019-06-16T07:47:02.000Z</time>
      </trkpt>
      <trkpt lat="46.50323" lon="-0.80417">
        <ele>141.17</ele>
        <time>2019-06-16T07:47:06.000Z</time>
      </trkpt>
      <trkpt lat="46.50327" lon="-0.80404">
        <ele>141.58</ele>
        <time>2019-06-16T07:47:10.000Z</time>
      </trkpt>
      <trkpt lat="46.50333" lon="-0.80389">
        <ele>141.96</ele>
        <time>2019-06-16T07:47:14.000Z</time>
      </trkpt>
      <trkpt lat="46.50339" lon="-0.80376">
        <ele>142.27</ele>
        <time>2019-06-16T07:47:17.000Z</time>
      </trkpt>
      <trkpt lat="46.50347" lon="-0.80363">
        <ele>142.7</ele>
        <time>2019-06-16T07:47:21.000Z</time>
      </trkpt>
      <trkpt lat="46.50355" lon="-0.80352">
        <ele>143.07</ele>
        <time>2019-06-16T07:47:25.000Z</time>
      </trkpt>
      <trkpt lat="46.50363" lon="-0.80346">
        <ele>143.28</ele>
        <time>2019-06-16T07:47:28.000Z</time>
      </trkpt>
      <trkpt lat="46.50375" lon="-0.80343">
        <ele>143.44</ele>
        <time>2019-06-16T07:47:31.000Z</time>
      </trkpt>
      <trkpt lat="46.50386" lon="-0.80339">
        <ele>143.32</ele>
        <time>2019-06-16T07:47:34.000Z</time>
      </trkpt>
      <trkpt lat="46.50399" lon="-0.80335">
        <ele>143.22</ele>
        <time>2019-06-16T07:47:38.000Z</time>
      </trkpt>
      <trkpt lat="46.50408" lon="-0.80331">
        <ele>143.34</ele>
        <time>2019-06-16T07:47:41.000Z</time>
      </trkpt>
      <trkpt lat="46.5042" lon="-0.80322">
        <ele>143.63</ele>
        <time>2019-06-16T07:47:45.000Z</time>
      </trkpt>
      <trkpt lat="46.5043" lon="-0.80315">
        <ele>143.93</ele>
        <time>2019-06-16T07:47:48.000Z</time>
      </trkpt>
      <trkpt lat="46.50438" lon="-0.80307">
        <ele>144.28</ele>
        <time>2019-06-16T07:47:51.000Z</time>
      </trkpt>
      <trkpt lat="46.50446" lon="-0.80299">
        <ele>144.62</ele>
        <time>2019-06-16T07:47:54.000Z</time>
      </trkpt>
      <trkpt lat="46.50454" lon="-0.80291">
        <ele>148.05</ele>
        <time>2019-06-16T07:47:57.000Z</time>
      </trkpt>
      <trkpt lat="46.50464" lon="-0.80283">
        <ele>150.14</ele>
        <time>2019-06-16T07:48:00.000Z</time>
      </trkpt>
      <trkpt lat="46.50478" lon="-0.80278">
        <ele>150.44</ele>
        <time>2019-06-16T07:48:03.000Z</time>
      </trkpt>
      <trkpt lat="46.50487" lon="-0.80278">
        <ele>150.26</ele>
        <time>2019-06-16T07:48:05.000Z</time>
      </trkpt>
      <trkpt lat="46.50501" lon="-0.80281">
        <ele>149.92</ele>
        <time>2019-06-16T07:48:08.000Z</time>
      </trkpt>
      <trkpt lat="46.5051" lon="-0.80283">
        <ele>149.7</ele>
        <time>2019-06-16T07:48:10.000Z</time>
      </trkpt>
      <trkpt lat="46.5052" lon="-0.80285">
        <ele>149.43</ele>
        <time>2019-06-16T07:48:12.000Z</time>
      </trkpt>
      <trkpt lat="46.50532" lon="-0.8029">
        <ele>149.51</ele>
        <time>2019-06-16T07:48:15.000Z</time>
      </trkpt>
      <trkpt lat="46.50544" lon="-0.80295">
        <ele>149.41</ele>
        <time>2019-06-16T07:48:18.000Z</time>
      </trkpt>
      <trkpt lat="46.50553" lon="-0.80299">
        <ele>149.41</ele>
        <time>2019-06-16T07:48:20.000Z</time>
      </trkpt>
      <trkpt lat="46.50566" lon="-0.80303">
        <ele>149.78</ele>
        <time>2019-06-16T07:48:23.000Z</time>
      </trkpt>
      <trkpt lat="46.50576" lon="-0.80304">
        <ele>149.95</ele>
        <time>2019-06-16T07:48:25.000Z</time>
      </trkpt>
      <trkpt lat="46.50587" lon="-0.80303">
        <ele>149.32</ele>
        <time>2019-06-16T07:48:27.000Z</time>
      </trkpt>
      <trkpt lat="46.50598" lon="-0.80299">
        <ele>148.75</ele>
        <time>2019-06-16T07:48:29.000Z</time>
      </trkpt>
      <trkpt lat="46.50607" lon="-0.80293">
        <ele>148.01</ele>
        <time>2019-06-16T07:48:31.000Z</time>
      </trkpt>
      <trkpt lat="46.50617" lon="-0.80286">
        <ele>147.69</ele>
        <time>2019-06-16T07:48:33.000Z</time>
      </trkpt>
      <trkpt lat="46.50625" lon="-0.8028">
        <ele>147.69</ele>
        <time>2019-06-16T07:48:36.000Z</time>
      </trkpt>
      <trkpt lat="46.50634" lon="-0.80277">
        <ele>147.71</ele>
        <time>2019-06-16T07:48:39.000Z</time>
      </trkpt>
      <trkpt lat="46.50644" lon="-0.80274">
        <ele>147.8</ele>
        <time>2019-06-16T07:48:43.000Z</time>
      </trkpt>
      <trkpt lat="46.50654" lon="-0.80273">
        <ele>147.99</ele>
        <time>2019-06-16T07:48:46.000Z</time>
      </trkpt>
      <trkpt lat="46.50663" lon="-0.80272">
        <ele>148.19</ele>
        <time>2019-06-16T07:48:49.000Z</time>
      </trkpt>
      <trkpt lat="46.50676" lon="-0.80272">
        <ele>148.49</ele>
        <time>2019-06-16T07:48:52.000Z</time>
      </trkpt>
      <trkpt lat="46.50686" lon="-0.80269">
        <ele>150.11</ele>
        <time>2019-06-16T07:48:56.000Z</time>
      </trkpt>
      <trkpt lat="46.50698" lon="-0.80263">
        <ele>151.8</ele>
        <time>2019-06-16T07:48:59.000Z</time>
      </trkpt>
      <trkpt lat="46.5071" lon="-0.80255">
        <ele>153.44</ele>
        <time>2019-06-16T07:49:02.000Z</time>
      </trkpt>
      <trkpt lat="46.50719" lon="-0.80245">
        <ele>154.57</ele>
        <time>2019-06-16T07:49:05.000Z</time>
      </trkpt>
      <trkpt lat="46.50727" lon="-0.80236">
        <ele>155.2</ele>
        <time>2019-06-16T07:49:07.000Z</time>
      </trkpt>
      <trkpt lat="46.50735" lon="-0.80221">
        <ele>155.1</ele>
        <time>2019-06-16T07:49:10.000Z</time>
      </trkpt>
      <trkpt lat="46.50742" lon="-0.8021">
        <ele>154.26</ele>
        <time>2019-06-16T07:49:12.000Z</time>
      </trkpt>
      <trkpt lat="46.5075" lon="-0.80197">
        <ele>152.84</ele>
        <time>2019-06-16T07:49:14.000Z</time>
      </trkpt>
      <trkpt lat="46.50753" lon="-0.80185">
        <ele>152.68</ele>
        <time>2019-06-16T07:49:22.000Z</time>
      </trkpt>
      <trkpt lat="46.50762" lon="-0.80175">
        <ele>152.35</ele>
        <time>2019-06-16T07:49:25.000Z</time>
      </trkpt>
      <trkpt lat="46.50769" lon="-0.80166">
        <ele>152.1</ele>
        <time>2019-06-16T07:49:27.000Z</time>
      </trkpt>
      <trkpt lat="46.50778" lon="-0.80161">
        <ele>152.43</ele>
        <time>2019-06-16T07:49:29.000Z</time>
      </trkpt>
      <trkpt lat="46.50789" lon="-0.80152">
        <ele>153.4</ele>
        <time>2019-06-16T07:49:31.000Z</time>
      </trkpt>
      <trkpt lat="46.50803" lon="-0.80147">
        <ele>155.04</ele>
        <time>2019-06-16T07:49:33.000Z</time>
      </trkpt>
      <trkpt lat="46.50816" lon="-0.80136">
        <ele>156.45</ele>
        <time>2019-06-16T07:49:35.000Z</time>
      </trkpt>
      <trkpt lat="46.50824" lon="-0.80127">
        <ele>156.6</ele>
        <time>2019-06-16T07:49:38.000Z</time>
      </trkpt>
      <trkpt lat="46.50832" lon="-0.8014">
        <ele>156.67</ele>
        <time>2019-06-16T07:49:45.000Z</time>
      </trkpt>
      <trkpt lat="46.50842" lon="-0.80152">
        <ele>156.55</ele>
        <time>2019-06-16T07:49:48.000Z</time>
      </trkpt>
      <trkpt lat="46.50849" lon="-0.80161">
        <ele>155.67</ele>
        <time>2019-06-16T07:49:50.000Z</time>
      </trkpt>
      <trkpt lat="46.50856" lon="-0.80169">
        <ele>155</ele>
        <time>2019-06-16T07:49:52.000Z</time>
      </trkpt>
      <trkpt lat="46.50866" lon="-0.80176">
        <ele>153.98</ele>
        <time>2019-06-16T07:49:54.000Z</time>
      </trkpt>
      <trkpt lat="46.50876" lon="-0.80185">
        <ele>152.38</ele>
        <time>2019-06-16T07:49:56.000Z</time>
      </trkpt>
      <trkpt lat="46.50885" lon="-0.80192">
        <ele>150.82</ele>
        <time>2019-06-16T07:49:58.000Z</time>
      </trkpt>
      <trkpt lat="46.50894" lon="-0.80197">
        <ele>149.58</ele>
        <time>2019-06-16T07:50:00.000Z</time>
      </trkpt>
      <trkpt lat="46.50904" lon="-0.80203">
        <ele>148.36</ele>
        <time>2019-06-16T07:50:02.000Z</time>
      </trkpt>
      <trkpt lat="46.50914" lon="-0.8021">
        <ele>147.2</ele>
        <time>2019-06-16T07:50:04.000Z</time>
      </trkpt>
      <trkpt lat="46.50924" lon="-0.80218">
        <ele>146.16</ele>
        <time>2019-06-16T07:50:06.000Z</time>
      </trkpt>
      <trkpt lat="46.50934" lon="-0.80225">
        <ele>145.5</ele>
        <time>2019-06-16T07:50:08.000Z</time>
      </trkpt>
      <trkpt lat="46.50943" lon="-0.80228">
        <ele>145.41</ele>
        <time>2019-06-16T07:50:11.000Z</time>
      </trkpt>
      <trkpt lat="46.50954" lon="-0.80228">
        <ele>145.45</ele>
        <time>2019-06-16T07:50:14.000Z</time>
      </trkpt>
      <trkpt lat="46.50962" lon="-0.80223">
        <ele>145.51</ele>
        <time>2019-06-16T07:50:16.000Z</time>
      </trkpt>
      <trkpt lat="46.50974" lon="-0.80217">
        <ele>145.09</ele>
        <time>2019-06-16T07:50:18.000Z</time>
      </trkpt>
      <trkpt lat="46.50984" lon="-0.80208">
        <ele>144.21</ele>
        <time>2019-06-16T07:50:20.000Z</time>
      </trkpt>
      <trkpt lat="46.50993" lon="-0.80201">
        <ele>143.71</ele>
        <time>2019-06-16T07:50:22.000Z</time>
      </trkpt>
      <trkpt lat="46.51001" lon="-0.80193">
        <ele>142.52</ele>
        <time>2019-06-16T07:50:24.000Z</time>
      </trkpt>
      <trkpt lat="46.5101" lon="-0.80184">
        <ele>140.83</ele>
        <time>2019-06-16T07:50:26.000Z</time>
      </trkpt>
      <trkpt lat="46.51018" lon="-0.80177">
        <ele>140.42</ele>
        <time>2019-06-16T07:50:28.000Z</time>
      </trkpt>
      <trkpt lat="46.51028" lon="-0.80168">
        <ele>139.34</ele>
        <time>2019-06-16T07:50:30.000Z</time>
      </trkpt>
      <trkpt lat="46.51038" lon="-0.80158">
        <ele>137.86</ele>
        <time>2019-06-16T07:50:32.000Z</time>
      </trkpt>
      <trkpt lat="46.51045" lon="-0.80145">
        <ele>137.61</ele>
        <time>2019-06-16T07:50:34.000Z</time>
      </trkpt>
      <trkpt lat="46.51056" lon="-0.80143">
        <ele>136.68</ele>
        <time>2019-06-16T07:50:38.000Z</time>
      </trkpt>
      <trkpt lat="46.51062" lon="-0.80151">
        <ele>134.22</ele>
        <time>2019-06-16T07:50:42.000Z</time>
      </trkpt>
      <trkpt lat="46.51069" lon="-0.80163">
        <ele>133.76</ele>
        <time>2019-06-16T07:50:46.000Z</time>
      </trkpt>
      <trkpt lat="46.51078" lon="-0.80168">
        <ele>132.55</ele>
        <time>2019-06-16T07:50:52.000Z</time>
      </trkpt>
      <trkpt lat="46.51086" lon="-0.8016">
        <ele>132.21</ele>
        <time>2019-06-16T07:50:55.000Z</time>
      </trkpt>
      <trkpt lat="46.51095" lon="-0.80152">
        <ele>132.29</ele>
        <time>2019-06-16T07:50:58.000Z</time>
      </trkpt>
      <trkpt lat="46.51105" lon="-0.8015">
        <ele>132.99</ele>
        <time>2019-06-16T07:51:05.000Z</time>
      </trkpt>
      <trkpt lat="46.51115" lon="-0.80148">
        <ele>133.4</ele>
        <time>2019-06-16T07:51:10.000Z</time>
      </trkpt>
      <trkpt lat="46.51127" lon="-0.80147">
        <ele>133.94</ele>
        <time>2019-06-16T07:51:14.000Z</time>
      </trkpt>
      <trkpt lat="46.51136" lon="-0.80145">
        <ele>134.5</ele>
        <time>2019-06-16T07:51:18.000Z</time>
      </trkpt>
      <trkpt lat="46.51147" lon="-0.8014">
        <ele>135.07</ele>
        <time>2019-06-16T07:51:23.000Z</time>
      </trkpt>
      <trkpt lat="46.51157" lon="-0.80141">
        <ele>135.08</ele>
        <time>2019-06-16T07:51:26.000Z</time>
      </trkpt>
      <trkpt lat="46.51168" lon="-0.80138">
        <ele>135.05</ele>
        <time>2019-06-16T07:51:30.000Z</time>
      </trkpt>
      <trkpt lat="46.51177" lon="-0.80143">
        <ele>134.71</ele>
        <time>2019-06-16T07:51:35.000Z</time>
      </trkpt>
      <trkpt lat="46.51186" lon="-0.8014">
        <ele>134.42</ele>
        <time>2019-06-16T07:51:40.000Z</time>
      </trkpt>
      <trkpt lat="46.51198" lon="-0.80141">
        <ele>134.39</ele>
        <time>2019-06-16T07:51:43.000Z</time>
      </trkpt>
      <trkpt lat="46.5121" lon="-0.8014">
        <ele>134.24</ele>
        <time>2019-06-16T07:51:47.000Z</time>
      </trkpt>
      <trkpt lat="46.5122" lon="-0.80138">
        <ele>134.07</ele>
        <time>2019-06-16T07:51:51.000Z</time>
      </trkpt>
      <trkpt lat="46.51231" lon="-0.80134">
        <ele>134</ele>
        <time>2019-06-16T07:51:55.000Z</time>
      </trkpt>
      <trkpt lat="46.5124" lon="-0.8013">
        <ele>134.1</ele>
        <time>2019-06-16T07:51:58.000Z</time>
      </trkpt>
      <trkpt lat="46.51251" lon="-0.80128">
        <ele>133.81</ele>
        <time>2019-06-16T07:52:02.000Z</time>
      </trkpt>
      <trkpt lat="46.5126" lon="-0.80123">
        <ele>133.39</ele>
        <time>2019-06-16T07:52:07.000Z</time>
      </trkpt>
      <trkpt lat="46.51268" lon="-0.80113">
        <ele>133.38</ele>
        <time>2019-06-16T07:52:11.000Z</time>
      </trkpt>
      <trkpt lat="46.51278" lon="-0.80111">
        <ele>133.73</ele>
        <time>2019-06-16T07:52:15.000Z</time>
      </trkpt>
      <trkpt lat="46.51286" lon="-0.80095">
        <ele>134.24</ele>
        <time>2019-06-16T07:52:18.000Z</time>
      </trkpt>
      <trkpt lat="46.51296" lon="-0.80084">
        <ele>134.78</ele>
        <time>2019-06-16T07:52:21.000Z</time>
      </trkpt>
      <trkpt lat="46.51305" lon="-0.80074">
        <ele>135.57</ele>
        <time>2019-06-16T07:52:25.000Z</time>
      </trkpt>
      <trkpt lat="46.51311" lon="-0.80065">
        <ele>136.55</ele>
        <time>2019-06-16T07:52:30.000Z</time>
      </trkpt>
      <trkpt lat="46.51321" lon="-0.80055">
        <ele>137.36</ele>
        <time>2019-06-16T07:52:35.000Z</time>
      </trkpt>
      <trkpt lat="46.51329" lon="-0.80045">
        <ele>137.95</ele>
        <time>2019-06-16T07:52:38.000Z</time>
      </trkpt>
      <trkpt lat="46.51337" lon="-0.80035">
        <ele>138.78</ele>
        <time>2019-06-16T07:52:42.000Z</time>
      </trkpt>
      <trkpt lat="46.51346" lon="-0.80031">
        <ele>139.41</ele>
        <time>2019-06-16T07:52:46.000Z</time>
      </trkpt>
      <trkpt lat="46.51355" lon="-0.80024">
        <ele>139.75</ele>
        <time>2019-06-16T07:52:49.000Z</time>
      </trkpt>
      <trkpt lat="46.51366" lon="-0.80021">
        <ele>140.56</ele>
        <time>2019-06-16T07:52:54.000Z</time>
      </trkpt>
      <trkpt lat="46.51374" lon="-0.80013">
        <ele>141.47</ele>
        <time>2019-06-16T07:52:59.000Z</time>
      </trkpt>
      <trkpt lat="46.51382" lon="-0.80006">
        <ele>142.33</ele>
        <time>2019-06-16T07:53:04.000Z</time>
      </trkpt>
      <trkpt lat="46.51392" lon="-0.8">
        <ele>143.33</ele>
        <time>2019-06-16T07:53:08.000Z</time>
      </trkpt>
      <trkpt lat="46.51402" lon="-0.79994">
        <ele>144.17</ele>
        <time>2019-06-16T07:53:12.000Z</time>
      </trkpt>
      <trkpt lat="46.51412" lon="-0.79993">
        <ele>145.36</ele>
        <time>2019-06-16T07:53:18.000Z</time>
      </trkpt>
      <trkpt lat="46.51423" lon="-0.79991">
        <ele>146.27</ele>
        <time>2019-06-16T07:53:23.000Z</time>
      </trkpt>
      <trkpt lat="46.51435" lon="-0.79989">
        <ele>147.27</ele>
        <time>2019-06-16T07:53:28.000Z</time>
      </trkpt>
      <trkpt lat="46.51446" lon="-0.79982">
        <ele>148.01</ele>
        <time>2019-06-16T07:53:31.000Z</time>
      </trkpt>
      <trkpt lat="46.51456" lon="-0.79975">
        <ele>148.84</ele>
        <time>2019-06-16T07:53:35.000Z</time>
      </trkpt>
      <trkpt lat="46.51466" lon="-0.79968">
        <ele>149.22</ele>
        <time>2019-06-16T07:53:38.000Z</time>
      </trkpt>
      <trkpt lat="46.51474" lon="-0.79958">
        <ele>149.5</ele>
        <time>2019-06-16T07:53:41.000Z</time>
      </trkpt>
      <trkpt lat="46.51481" lon="-0.79948">
        <ele>150.3</ele>
        <time>2019-06-16T07:53:46.000Z</time>
      </trkpt>
      <trkpt lat="46.5149" lon="-0.79938">
        <ele>150.98</ele>
        <time>2019-06-16T07:53:49.000Z</time>
      </trkpt>
      <trkpt lat="46.51498" lon="-0.79927">
        <ele>151.97</ele>
        <time>2019-06-16T07:53:52.000Z</time>
      </trkpt>
      <trkpt lat="46.51507" lon="-0.79918">
        <ele>153.2</ele>
        <time>2019-06-16T07:53:56.000Z</time>
      </trkpt>
      <trkpt lat="46.51518" lon="-0.79908">
        <ele>153.88</ele>
        <time>2019-06-16T07:54:01.000Z</time>
      </trkpt>
      <trkpt lat="46.51526" lon="-0.79897">
        <ele>153.98</ele>
        <time>2019-06-16T07:54:03.000Z</time>
      </trkpt>
      <trkpt lat="46.51534" lon="-0.79889">
        <ele>154.02</ele>
        <time>2019-06-16T07:54:05.000Z</time>
      </trkpt>
      <trkpt lat="46.51543" lon="-0.79881">
        <ele>153.85</ele>
        <time>2019-06-16T07:54:08.000Z</time>
      </trkpt>
      <trkpt lat="46.51552" lon="-0.79875">
        <ele>153.3</ele>
        <time>2019-06-16T07:54:13.000Z</time>
      </trkpt>
      <trkpt lat="46.51561" lon="-0.7987">
        <ele>152.89</ele>
        <time>2019-06-16T07:54:17.000Z</time>
      </trkpt>
      <trkpt lat="46.51571" lon="-0.79864">
        <ele>152.66</ele>
        <time>2019-06-16T07:54:20.000Z</time>
      </trkpt>
      <trkpt lat="46.5158" lon="-0.79857">
        <ele>152.68</ele>
        <time>2019-06-16T07:54:24.000Z</time>
      </trkpt>
      <trkpt lat="46.51588" lon="-0.7985">
        <ele>152.81</ele>
        <time>2019-06-16T07:54:26.000Z</time>
      </trkpt>
      <trkpt lat="46.51599" lon="-0.79842">
        <ele>153.15</ele>
        <time>2019-06-16T07:54:29.000Z</time>
      </trkpt>
      <trkpt lat="46.51608" lon="-0.79836">
        <ele>154.53</ele>
        <time>2019-06-16T07:54:31.000Z</time>
      </trkpt>
      <trkpt lat="46.51618" lon="-0.79832">
        <ele>155.14</ele>
        <time>2019-06-16T07:54:33.000Z</time>
      </trkpt>
      <trkpt lat="46.51627" lon="-0.79829">
        <ele>155.39</ele>
        <time>2019-06-16T07:54:35.000Z</time>
      </trkpt>
      <trkpt lat="46.51637" lon="-0.79828">
        <ele>155.42</ele>
        <time>2019-06-16T07:54:37.000Z</time>
      </trkpt>
      <trkpt lat="46.5165" lon="-0.79822">
        <ele>156.41</ele>
        <time>2019-06-16T07:54:40.000Z</time>
      </trkpt>
      <trkpt lat="46.51661" lon="-0.7982">
        <ele>156.21</ele>
        <time>2019-06-16T07:54:42.000Z</time>
      </trkpt>
      <trkpt lat="46.51672" lon="-0.79814">
        <ele>155.72</ele>
        <time>2019-06-16T07:54:44.000Z</time>
      </trkpt>
      <trkpt lat="46.51685" lon="-0.79807">
        <ele>155.23</ele>
        <time>2019-06-16T07:54:46.000Z</time>
      </trkpt>
      <trkpt lat="46.51696" lon="-0.79799">
        <ele>155.29</ele>
        <time>2019-06-16T07:54:48.000Z</time>
      </trkpt>
      <trkpt lat="46.51706" lon="-0.7979">
        <ele>156.51</ele>
        <time>2019-06-16T07:54:50.000Z</time>
      </trkpt>
      <trkpt lat="46.51715" lon="-0.7978">
        <ele>158.38</ele>
        <time>2019-06-16T07:54:52.000Z</time>
      </trkpt>
      <trkpt lat="46.51724" lon="-0.7977">
        <ele>159.24</ele>
        <time>2019-06-16T07:54:54.000Z</time>
      </trkpt>
      <trkpt lat="46.51735" lon="-0.79759">
        <ele>160.6</ele>
        <time>2019-06-16T07:54:56.000Z</time>
      </trkpt>
      <trkpt lat="46.51747" lon="-0.79749">
        <ele>161.71</ele>
        <time>2019-06-16T07:54:58.000Z</time>
      </trkpt>
      <trkpt lat="46.51757" lon="-0.79737">
        <ele>161.48</ele>
        <time>2019-06-16T07:55:01.000Z</time>
      </trkpt>
      <trkpt lat="46.51763" lon="-0.79727">
        <ele>161.49</ele>
        <time>2019-06-16T07:55:03.000Z</time>
      </trkpt>
      <trkpt lat="46.5177" lon="-0.79715">
        <ele>161.02</ele>
        <time>2019-06-16T07:55:13.000Z</time>
      </trkpt>
      <trkpt lat="46.5178" lon="-0.79708">
        <ele>160.67</ele>
        <time>2019-06-16T07:55:16.000Z</time>
      </trkpt>
      <trkpt lat="46.51791" lon="-0.797">
        <ele>160.44</ele>
        <time>2019-06-16T07:55:19.000Z</time>
      </trkpt>
      <trkpt lat="46.51798" lon="-0.79692">
        <ele>160.2</ele>
        <time>2019-06-16T07:55:21.000Z</time>
      </trkpt>
      <trkpt lat="46.51806" lon="-0.79683">
        <ele>159.94</ele>
        <time>2019-06-16T07:55:24.000Z</time>
      </trkpt>
      <trkpt lat="46.51811" lon="-0.79666">
        <ele>158.68</ele>
        <time>2019-06-16T07:55:27.000Z</time>
      </trkpt>
      <trkpt lat="46.51817" lon="-0.79654">
        <ele>158.43</ele>
        <time>2019-06-16T07:55:29.000Z</time>
      </trkpt>
      <trkpt lat="46.51827" lon="-0.79643">
        <ele>158.27</ele>
        <time>2019-06-16T07:55:32.000Z</time>
      </trkpt>
      <trkpt lat="46.51835" lon="-0.79638">
        <ele>158.16</ele>
        <time>2019-06-16T07:55:35.000Z</time>
      </trkpt>
      <trkpt lat="46.51848" lon="-0.79638">
        <ele>158.13</ele>
        <time>2019-06-16T07:55:39.000Z</time>
      </trkpt>
      <trkpt lat="46.51857" lon="-0.7964">
        <ele>158.16</ele>
        <time>2019-06-16T07:55:42.000Z</time>
      </trkpt>
      <trkpt lat="46.5187" lon="-0.79638">
        <ele>158.18</ele>
        <time>2019-06-16T07:55:45.000Z</time>
      </trkpt>
      <trkpt lat="46.51878" lon="-0.79633">
        <ele>158.18</ele>
        <time>2019-06-16T07:55:49.000Z</time>
      </trkpt>
      <trkpt lat="46.51888" lon="-0.79632">
        <ele>158.34</ele>
        <time>2019-06-16T07:55:53.000Z</time>
      </trkpt>
      <trkpt lat="46.51898" lon="-0.79623">
        <ele>158.45</ele>
        <time>2019-06-16T07:55:56.000Z</time>
      </trkpt>
      <trkpt lat="46.5191" lon="-0.79618">
        <ele>158.52</ele>
        <time>2019-06-16T07:55:59.000Z</time>
      </trkpt>
      <trkpt lat="46.5192" lon="-0.79618">
        <ele>158.44</ele>
        <time>2019-06-16T07:56:02.000Z</time>
      </trkpt>
      <trkpt lat="46.51929" lon="-0.79609">
        <ele>158.32</ele>
        <time>2019-06-16T07:56:05.000Z</time>
      </trkpt>
      <trkpt lat="46.51941" lon="-0.79598">
        <ele>157.31</ele>
        <time>2019-06-16T07:56:08.000Z</time>
      </trkpt>
      <trkpt lat="46.51951" lon="-0.79589">
        <ele>156.88</ele>
        <time>2019-06-16T07:56:10.000Z</time>
      </trkpt>
      <trkpt lat="46.51961" lon="-0.79583">
        <ele>156.26</ele>
        <time>2019-06-16T07:56:12.000Z</time>
      </trkpt>
      <trkpt lat="46.51973" lon="-0.79576">
        <ele>155.99</ele>
        <time>2019-06-16T07:56:14.000Z</time>
      </trkpt>
      <trkpt lat="46.51981" lon="-0.79569">
        <ele>154.82</ele>
        <time>2019-06-16T07:56:16.000Z</time>
      </trkpt>
      <trkpt lat="46.51992" lon="-0.7957">
        <ele>152.37</ele>
        <time>2019-06-16T07:56:18.000Z</time>
      </trkpt>
      <trkpt lat="46.52004" lon="-0.79571">
        <ele>149.26</ele>
        <time>2019-06-16T07:56:20.000Z</time>
      </trkpt>
      <trkpt lat="46.52018" lon="-0.79563">
        <ele>146.19</ele>
        <time>2019-06-16T07:56:22.000Z</time>
      </trkpt>
      <trkpt lat="46.52031" lon="-0.79553">
        <ele>144.42</ele>
        <time>2019-06-16T07:56:24.000Z</time>
      </trkpt>
      <trkpt lat="46.52042" lon="-0.79546">
        <ele>143.09</ele>
        <time>2019-06-16T07:56:26.000Z</time>
      </trkpt>
      <trkpt lat="46.52051" lon="-0.79541">
        <ele>142.98</ele>
        <time>2019-06-16T07:56:28.000Z</time>
      </trkpt>
      <trkpt lat="46.52063" lon="-0.79538">
        <ele>142.98</ele>
        <time>2019-06-16T07:56:31.000Z</time>
      </trkpt>
      <trkpt lat="46.52073" lon="-0.79532">
        <ele>143.11</ele>
        <time>2019-06-16T07:56:33.000Z</time>
      </trkpt>
      <trkpt lat="46.52083" lon="-0.79528">
        <ele>144.93</ele>
        <time>2019-06-16T07:56:37.000Z</time>
      </trkpt>
      <trkpt lat="46.52095" lon="-0.79523">
        <ele>145.23</ele>
        <time>2019-06-16T07:56:40.000Z</time>
      </trkpt>
      <trkpt lat="46.52106" lon="-0.79517">
        <ele>146.19</ele>
        <time>2019-06-16T07:56:43.000Z</time>
      </trkpt>
      <trkpt lat="46.52118" lon="-0.79517">
        <ele>146.28</ele>
        <time>2019-06-16T07:56:46.000Z</time>
      </trkpt>
      <trkpt lat="46.5213" lon="-0.79514">
        <ele>147.77</ele>
        <time>2019-06-16T07:56:49.000Z</time>
      </trkpt>
      <trkpt lat="46.5214" lon="-0.79509">
        <ele>148.74</ele>
        <time>2019-06-16T07:56:51.000Z</time>
      </trkpt>
      <trkpt lat="46.5215" lon="-0.79505">
        <ele>149.27</ele>
        <time>2019-06-16T07:56:54.000Z</time>
      </trkpt>
      <trkpt lat="46.5216" lon="-0.79501">
        <ele>149.73</ele>
        <time>2019-06-16T07:56:56.000Z</time>
      </trkpt>
      <trkpt lat="46.5217" lon="-0.79497">
        <ele>149.54</ele>
        <time>2019-06-16T07:56:59.000Z</time>
      </trkpt>
      <trkpt lat="46.52181" lon="-0.79491">
        <ele>148.24</ele>
        <time>2019-06-16T07:57:02.000Z</time>
      </trkpt>
      <trkpt lat="46.52191" lon="-0.79485">
        <ele>147.09</ele>
        <time>2019-06-16T07:57:04.000Z</time>
      </trkpt>
      <trkpt lat="46.52202" lon="-0.79481">
        <ele>145.04</ele>
        <time>2019-06-16T07:57:07.000Z</time>
      </trkpt>
      <trkpt lat="46.52214" lon="-0.79477">
        <ele>142.78</ele>
        <time>2019-06-16T07:57:10.000Z</time>
      </trkpt>
      <trkpt lat="46.52226" lon="-0.79472">
        <ele>141.49</ele>
        <time>2019-06-16T07:57:13.000Z</time>
      </trkpt>
      <trkpt lat="46.52236" lon="-0.79468">
        <ele>139.62</ele>
        <time>2019-06-16T07:57:15.000Z</time>
      </trkpt>
      <trkpt lat="46.52246" lon="-0.79464">
        <ele>138.54</ele>
        <time>2019-06-16T07:57:17.000Z</time>
      </trkpt>
      <trkpt lat="46.52257" lon="-0.79463">
        <ele>138.39</ele>
        <time>2019-06-16T07:57:20.000Z</time>
      </trkpt>
      <trkpt lat="46.52266" lon="-0.79458">
        <ele>138.91</ele>
        <time>2019-06-16T07:57:22.000Z</time>
      </trkpt>
      <trkpt lat="46.52278" lon="-0.79453">
        <ele>139.8</ele>
        <time>2019-06-16T07:57:25.000Z</time>
      </trkpt>
      <trkpt lat="46.52288" lon="-0.79448">
        <ele>139.87</ele>
        <time>2019-06-16T07:57:28.000Z</time>
      </trkpt>
      <trkpt lat="46.52299" lon="-0.79446">
        <ele>139.97</ele>
        <time>2019-06-16T07:57:31.000Z</time>
      </trkpt>
      <trkpt lat="46.52311" lon="-0.79443">
        <ele>141.99</ele>
        <time>2019-06-16T07:57:34.000Z</time>
      </trkpt>
      <trkpt lat="46.52322" lon="-0.79439">
        <ele>142.94</ele>
        <time>2019-06-16T07:57:37.000Z</time>
      </trkpt>
      <trkpt lat="46.52334" lon="-0.79435">
        <ele>145.02</ele>
        <time>2019-06-16T07:57:40.000Z</time>
      </trkpt>
      <trkpt lat="46.52346" lon="-0.79429">
        <ele>146.38</ele>
        <time>2019-06-16T07:57:43.000Z</time>
      </trkpt>
      <trkpt lat="46.52355" lon="-0.79425">
        <ele>146.49</ele>
        <time>2019-06-16T07:57:45.000Z</time>
      </trkpt>
      <trkpt lat="46.52364" lon="-0.79421">
        <ele>146.74</ele>
        <time>2019-06-16T07:57:48.000Z</time>
      </trkpt>
      <trkpt lat="46.52374" lon="-0.79416">
        <ele>147.04</ele>
        <time>2019-06-16T07:57:51.000Z</time>
      </trkpt>
      <trkpt lat="46.52387" lon="-0.79411">
        <ele>148.45</ele>
        <time>2019-06-16T07:57:54.000Z</time>
      </trkpt>
      <trkpt lat="46.52398" lon="-0.79407">
        <ele>149.17</ele>
        <time>2019-06-16T07:57:57.000Z</time>
      </trkpt>
      <trkpt lat="46.52407" lon="-0.79403">
        <ele>150.25</ele>
        <time>2019-06-16T07:57:59.000Z</time>
      </trkpt>
      <trkpt lat="46.5242" lon="-0.794">
        <ele>151.28</ele>
        <time>2019-06-16T07:58:02.000Z</time>
      </trkpt>
      <trkpt lat="46.5243" lon="-0.794">
        <ele>152.1</ele>
        <time>2019-06-16T07:58:04.000Z</time>
      </trkpt>
      <trkpt lat="46.52443" lon="-0.79395">
        <ele>153.33</ele>
        <time>2019-06-16T07:58:07.000Z</time>
      </trkpt>
      <trkpt lat="46.52454" lon="-0.7939">
        <ele>153.82</ele>
        <time>2019-06-16T07:58:09.000Z</time>
      </trkpt>
      <trkpt lat="46.52464" lon="-0.79385">
        <ele>154.24</ele>
        <time>2019-06-16T07:58:11.000Z</time>
      </trkpt>
      <trkpt lat="46.52475" lon="-0.79381">
        <ele>154.26</ele>
        <time>2019-06-16T07:58:13.000Z</time>
      </trkpt>
      <trkpt lat="46.52485" lon="-0.79376">
        <ele>154.24</ele>
        <time>2019-06-16T07:58:15.000Z</time>
      </trkpt>
      <trkpt lat="46.52496" lon="-0.79372">
        <ele>153.93</ele>
        <time>2019-06-16T07:58:17.000Z</time>
      </trkpt>
      <trkpt lat="46.52506" lon="-0.79368">
        <ele>153.81</ele>
        <time>2019-06-16T07:58:19.000Z</time>
      </trkpt>
      <trkpt lat="46.52515" lon="-0.79364">
        <ele>153.77</ele>
        <time>2019-06-16T07:58:21.000Z</time>
      </trkpt>
      <trkpt lat="46.52525" lon="-0.7936">
        <ele>153.76</ele>
        <time>2019-06-16T07:58:23.000Z</time>
      </trkpt>
      <trkpt lat="46.52536" lon="-0.79356">
        <ele>153.27</ele>
        <time>2019-06-16T07:58:25.000Z</time>
      </trkpt>
      <trkpt lat="46.52548" lon="-0.79352">
        <ele>153.36</ele>
        <time>2019-06-16T07:58:27.000Z</time>
      </trkpt>
      <trkpt lat="46.52559" lon="-0.79349">
        <ele>153.71</ele>
        <time>2019-06-16T07:58:29.000Z</time>
      </trkpt>
      <trkpt lat="46.52564" lon="-0.79335">
        <ele>153.77</ele>
        <time>2019-06-16T07:58:32.000Z</time>
      </trkpt>
      <trkpt lat="46.52564" lon="-0.79319">
        <ele>153.94</ele>
        <time>2019-06-16T07:58:34.000Z</time>
      </trkpt>
      <trkpt lat="46.52563" lon="-0.79301">
        <ele>154.15</ele>
        <time>2019-06-16T07:58:36.000Z</time>
      </trkpt>
      <trkpt lat="46.52562" lon="-0.79278">
        <ele>153.49</ele>
        <time>2019-06-16T07:58:38.000Z</time>
      </trkpt>
      <trkpt lat="46.52562" lon="-0.79254">
        <ele>152.31</ele>
        <time>2019-06-16T07:58:40.000Z</time>
      </trkpt>
      <trkpt lat="46.52562" lon="-0.7923">
        <ele>151.28</ele>
        <time>2019-06-16T07:58:42.000Z</time>
      </trkpt>
      <trkpt lat="46.52562" lon="-0.79214">
        <ele>150.5</ele>
        <time>2019-06-16T07:58:44.000Z</time>
      </trkpt>
      <trkpt lat="46.52563" lon="-0.79197">
        <ele>150.11</ele>
        <time>2019-06-16T07:58:47.000Z</time>
      </trkpt>
      <trkpt lat="46.52566" lon="-0.79181">
        <ele>149.87</ele>
        <time>2019-06-16T07:58:51.000Z</time>
      </trkpt>
      <trkpt lat="46.52566" lon="-0.79168">
        <ele>149.69</ele>
        <time>2019-06-16T07:58:54.000Z</time>
      </trkpt>
      <trkpt lat="46.52565" lon="-0.79154">
        <ele>149.54</ele>
        <time>2019-06-16T07:58:57.000Z</time>
      </trkpt>
      <trkpt lat="46.52565" lon="-0.79141">
        <ele>149.51</ele>
        <time>2019-06-16T07:59:00.000Z</time>
      </trkpt>
      <trkpt lat="46.52567" lon="-0.79123">
        <ele>149.52</ele>
        <time>2019-06-16T07:59:03.000Z</time>
      </trkpt>
      <trkpt lat="46.52567" lon="-0.79109">
        <ele>149.7</ele>
        <time>2019-06-16T07:59:05.000Z</time>
      </trkpt>
      <trkpt lat="46.52567" lon="-0.79094">
        <ele>149.77</ele>
        <time>2019-06-16T07:59:07.000Z</time>
      </trkpt>
      <trkpt lat="46.52567" lon="-0.79078">
        <ele>150.31</ele>
        <time>2019-06-16T07:59:09.000Z</time>
      </trkpt>
      <trkpt lat="46.52567" lon="-0.79064">
        <ele>150.8</ele>
        <time>2019-06-16T07:59:11.000Z</time>
      </trkpt>
      <trkpt lat="46.52564" lon="-0.79047">
        <ele>150.87</ele>
        <time>2019-06-16T07:59:13.000Z</time>
      </trkpt>
      <trkpt lat="46.52557" lon="-0.79037">
        <ele>151.01</ele>
        <time>2019-06-16T07:59:14.000Z</time>
      </trkpt>
      <trkpt lat="46.52553" lon="-0.79024">
        <ele>150.94</ele>
        <time>2019-06-16T07:59:15.000Z</time>
      </trkpt>
      <trkpt lat="46.52552" lon="-0.7901">
        <ele>151.1</ele>
        <time>2019-06-16T07:59:16.000Z</time>
      </trkpt>
      <trkpt lat="46.52551" lon="-0.78996">
        <ele>151.48</ele>
        <time>2019-06-16T07:59:17.000Z</time>
      </trkpt>
      <trkpt lat="46.52551" lon="-0.78974">
        <ele>152.1</ele>
        <time>2019-06-16T07:59:19.000Z</time>
      </trkpt>
      <trkpt lat="46.52554" lon="-0.78958">
        <ele>152.63</ele>
        <time>2019-06-16T07:59:22.000Z</time>
      </trkpt>
      <trkpt lat="46.52554" lon="-0.78941">
        <ele>152.65</ele>
        <time>2019-06-16T07:59:26.000Z</time>
      </trkpt>
      <trkpt lat="46.52552" lon="-0.78926">
        <ele>152.59</ele>
        <time>2019-06-16T07:59:29.000Z</time>
      </trkpt>
      <trkpt lat="46.52551" lon="-0.78909">
        <ele>152.38</ele>
        <time>2019-06-16T07:59:32.000Z</time>
      </trkpt>
      <trkpt lat="46.52549" lon="-0.78889">
        <ele>151.72</ele>
        <time>2019-06-16T07:59:35.000Z</time>
      </trkpt>
      <trkpt lat="46.52548" lon="-0.78872">
        <ele>150.96</ele>
        <time>2019-06-16T07:59:38.000Z</time>
      </trkpt>
      <trkpt lat="46.52548" lon="-0.78852">
        <ele>150.71</ele>
        <time>2019-06-16T07:59:41.000Z</time>
      </trkpt>
      <trkpt lat="46.52548" lon="-0.78839">
        <ele>150.39</ele>
        <time>2019-06-16T07:59:43.000Z</time>
      </trkpt>
      <trkpt lat="46.52549" lon="-0.78825">
        <ele>150.66</ele>
        <time>2019-06-16T07:59:45.000Z</time>
      </trkpt>
      <trkpt lat="46.52558" lon="-0.78816">
        <ele>150.91</ele>
        <time>2019-06-16T07:59:48.000Z</time>
      </trkpt>
      <trkpt lat="46.52568" lon="-0.78819">
        <ele>151.03</ele>
        <time>2019-06-16T07:59:51.000Z</time>
      </trkpt>
      <trkpt lat="46.52578" lon="-0.78807">
        <ele>152.62</ele>
        <time>2019-06-16T07:59:54.000Z</time>
      </trkpt>
      <trkpt lat="46.52582" lon="-0.78795">
        <ele>154.11</ele>
        <time>2019-06-16T07:59:56.000Z</time>
      </trkpt>
      <trkpt lat="46.52589" lon="-0.78784">
        <ele>156.4</ele>
        <time>2019-06-16T07:59:58.000Z</time>
      </trkpt>
      <trkpt lat="46.52596" lon="-0.78775">
        <ele>157.85</ele>
        <time>2019-06-16T08:00:00.000Z</time>
      </trkpt>
      <trkpt lat="46.52606" lon="-0.78769">
        <ele>158.35</ele>
        <time>2019-06-16T08:00:03.000Z</time>
      </trkpt>
      <trkpt lat="46.52615" lon="-0.78761">
        <ele>159.01</ele>
        <time>2019-06-16T08:00:06.000Z</time>
      </trkpt>
      <trkpt lat="46.52625" lon="-0.78753">
        <ele>159.76</ele>
        <time>2019-06-16T08:00:09.000Z</time>
      </trkpt>
      <trkpt lat="46.52634" lon="-0.78748">
        <ele>164.73</ele>
        <time>2019-06-16T08:00:12.000Z</time>
      </trkpt>
      <trkpt lat="46.52644" lon="-0.78745">
        <ele>164.99</ele>
        <time>2019-06-16T08:00:14.000Z</time>
      </trkpt>
      <trkpt lat="46.52654" lon="-0.7874">
        <ele>165.18</ele>
        <time>2019-06-16T08:00:16.000Z</time>
      </trkpt>
      <trkpt lat="46.52665" lon="-0.78744">
        <ele>165.4</ele>
        <time>2019-06-16T08:00:20.000Z</time>
      </trkpt>
      <trkpt lat="46.52678" lon="-0.78741">
        <ele>165.48</ele>
        <time>2019-06-16T08:00:23.000Z</time>
      </trkpt>
      <trkpt lat="46.52688" lon="-0.78735">
        <ele>165.62</ele>
        <time>2019-06-16T08:00:26.000Z</time>
      </trkpt>
      <trkpt lat="46.52699" lon="-0.78735">
        <ele>165.6</ele>
        <time>2019-06-16T08:00:28.000Z</time>
      </trkpt>
      <trkpt lat="46.52708" lon="-0.78733">
        <ele>165.67</ele>
        <time>2019-06-16T08:00:30.000Z</time>
      </trkpt>
      <trkpt lat="46.5272" lon="-0.78725">
        <ele>165.98</ele>
        <time>2019-06-16T08:00:33.000Z</time>
      </trkpt>
      <trkpt lat="46.52731" lon="-0.78716">
        <ele>166.27</ele>
        <time>2019-06-16T08:00:36.000Z</time>
      </trkpt>
      <trkpt lat="46.52739" lon="-0.78707">
        <ele>166.4</ele>
        <time>2019-06-16T08:00:39.000Z</time>
      </trkpt>
      <trkpt lat="46.52748" lon="-0.78702">
        <ele>165.91</ele>
        <time>2019-06-16T08:00:41.000Z</time>
      </trkpt>
      <trkpt lat="46.52758" lon="-0.78694">
        <ele>165.75</ele>
        <time>2019-06-16T08:00:43.000Z</time>
      </trkpt>
      <trkpt lat="46.52768" lon="-0.78689">
        <ele>165.83</ele>
        <time>2019-06-16T08:00:46.000Z</time>
      </trkpt>
      <trkpt lat="46.52778" lon="-0.78688">
        <ele>166.71</ele>
        <time>2019-06-16T08:00:49.000Z</time>
      </trkpt>
      <trkpt lat="46.52787" lon="-0.78686">
        <ele>167.31</ele>
        <time>2019-06-16T08:00:51.000Z</time>
      </trkpt>
      <trkpt lat="46.52796" lon="-0.78688">
        <ele>167.42</ele>
        <time>2019-06-16T08:00:54.000Z</time>
      </trkpt>
      <trkpt lat="46.52799" lon="-0.78703">
        <ele>169.21</ele>
        <time>2019-06-16T08:00:57.000Z</time>
      </trkpt>
      <trkpt lat="46.52802" lon="-0.78717">
        <ele>170.93</ele>
        <time>2019-06-16T08:00:59.000Z</time>
      </trkpt>
      <trkpt lat="46.52806" lon="-0.78734">
        <ele>171.77</ele>
        <time>2019-06-16T08:01:01.000Z</time>
      </trkpt>
      <trkpt lat="46.52808" lon="-0.7875">
        <ele>172.52</ele>
        <time>2019-06-16T08:01:04.000Z</time>
      </trkpt>
      <trkpt lat="46.52813" lon="-0.78764">
        <ele>173.48</ele>
        <time>2019-06-16T08:01:06.000Z</time>
      </trkpt>
      <trkpt lat="46.52817" lon="-0.78778">
        <ele>173.53</ele>
        <time>2019-06-16T08:01:08.000Z</time>
      </trkpt>
      <trkpt lat="46.52819" lon="-0.78792">
        <ele>173.26</ele>
        <time>2019-06-16T08:01:10.000Z</time>
      </trkpt>
      <trkpt lat="46.52823" lon="-0.78805">
        <ele>171.33</ele>
        <time>2019-06-16T08:01:12.000Z</time>
      </trkpt>
      <trkpt lat="46.52828" lon="-0.7882">
        <ele>169.7</ele>
        <time>2019-06-16T08:01:14.000Z</time>
      </trkpt>
      <trkpt lat="46.52831" lon="-0.78835">
        <ele>167.54</ele>
        <time>2019-06-16T08:01:16.000Z</time>
      </trkpt>
      <trkpt lat="46.52834" lon="-0.78851">
        <ele>163.77</ele>
        <time>2019-06-16T08:01:19.000Z</time>
      </trkpt>
      <trkpt lat="46.52833" lon="-0.78867">
        <ele>163.6</ele>
        <time>2019-06-16T08:01:22.000Z</time>
      </trkpt>
      <trkpt lat="46.52843" lon="-0.78881">
        <ele>163.41</ele>
        <time>2019-06-16T08:01:25.000Z</time>
      </trkpt>
      <trkpt lat="46.52853" lon="-0.78885">
        <ele>162.25</ele>
        <time>2019-06-16T08:01:27.000Z</time>
      </trkpt>
      <trkpt lat="46.52863" lon="-0.78887">
        <ele>161.34</ele>
        <time>2019-06-16T08:01:29.000Z</time>
      </trkpt>
      <trkpt lat="46.52872" lon="-0.7889">
        <ele>160.59</ele>
        <time>2019-06-16T08:01:31.000Z</time>
      </trkpt>
      <trkpt lat="46.52882" lon="-0.78894">
        <ele>160.19</ele>
        <time>2019-06-16T08:01:33.000Z</time>
      </trkpt>
      <trkpt lat="46.52895" lon="-0.78898">
        <ele>159.72</ele>
        <time>2019-06-16T08:01:36.000Z</time>
      </trkpt>
      <trkpt lat="46.52905" lon="-0.78904">
        <ele>159.32</ele>
        <time>2019-06-16T08:01:38.000Z</time>
      </trkpt>
      <trkpt lat="46.52914" lon="-0.78908">
        <ele>159.06</ele>
        <time>2019-06-16T08:01:40.000Z</time>
      </trkpt>
      <trkpt lat="46.52926" lon="-0.78912">
        <ele>158.39</ele>
        <time>2019-06-16T08:01:43.000Z</time>
      </trkpt>
      <trkpt lat="46.52936" lon="-0.78917">
        <ele>158.04</ele>
        <time>2019-06-16T08:01:46.000Z</time>
      </trkpt>
      <trkpt lat="46.52945" lon="-0.78919">
        <ele>157.83</ele>
        <time>2019-06-16T08:01:51.000Z</time>
      </trkpt>
      <trkpt lat="46.52954" lon="-0.78924">
        <ele>157.6</ele>
        <time>2019-06-16T08:01:56.000Z</time>
      </trkpt>
      <trkpt lat="46.52963" lon="-0.78927">
        <ele>157.38</ele>
        <time>2019-06-16T08:01:59.000Z</time>
      </trkpt>
      <trkpt lat="46.52972" lon="-0.78932">
        <ele>157.14</ele>
        <time>2019-06-16T08:02:02.000Z</time>
      </trkpt>
      <trkpt lat="46.52984" lon="-0.78935">
        <ele>156.9</ele>
        <time>2019-06-16T08:02:05.000Z</time>
      </trkpt>
      <trkpt lat="46.52996" lon="-0.7894">
        <ele>155.36</ele>
        <time>2019-06-16T08:02:08.000Z</time>
      </trkpt>
      <trkpt lat="46.53006" lon="-0.78947">
        <ele>155.2</ele>
        <time>2019-06-16T08:02:11.000Z</time>
      </trkpt>
      <trkpt lat="46.53008" lon="-0.78961">
        <ele>155.54</ele>
        <time>2019-06-16T08:02:14.000Z</time>
      </trkpt>
      <trkpt lat="46.53009" lon="-0.78974">
        <ele>156.12</ele>
        <time>2019-06-16T08:02:16.000Z</time>
      </trkpt>
      <trkpt lat="46.53011" lon="-0.78989">
        <ele>156.32</ele>
        <time>2019-06-16T08:02:19.000Z</time>
      </trkpt>
      <trkpt lat="46.53013" lon="-0.79002">
        <ele>156.73</ele>
        <time>2019-06-16T08:02:22.000Z</time>
      </trkpt>
      <trkpt lat="46.53016" lon="-0.79016">
        <ele>157.16</ele>
        <time>2019-06-16T08:02:25.000Z</time>
      </trkpt>
      <trkpt lat="46.53018" lon="-0.79032">
        <ele>157.8</ele>
        <time>2019-06-16T08:02:29.000Z</time>
      </trkpt>
      <trkpt lat="46.53021" lon="-0.79048">
        <ele>158.4</ele>
        <time>2019-06-16T08:02:33.000Z</time>
      </trkpt>
      <trkpt lat="46.53022" lon="-0.79062">
        <ele>158.78</ele>
        <time>2019-06-16T08:02:36.000Z</time>
      </trkpt>
      <trkpt lat="46.53028" lon="-0.79075">
        <ele>159.32</ele>
        <time>2019-06-16T08:02:40.000Z</time>
      </trkpt>
      <trkpt lat="46.5303" lon="-0.79092">
        <ele>161.14</ele>
        <time>2019-06-16T08:02:43.000Z</time>
      </trkpt>
      <trkpt lat="46.53033" lon="-0.79108">
        <ele>163.02</ele>
        <time>2019-06-16T08:02:46.000Z</time>
      </trkpt>
      <trkpt lat="46.53035" lon="-0.79122">
        <ele>163.34</ele>
        <time>2019-06-16T08:02:49.000Z</time>
      </trkpt>
      <trkpt lat="46.53034" lon="-0.79135">
        <ele>163.47</ele>
        <time>2019-06-16T08:02:52.000Z</time>
      </trkpt>
      <trkpt lat="46.53036" lon="-0.79148">
        <ele>163.52</ele>
        <time>2019-06-16T08:02:55.000Z</time>
      </trkpt>
      <trkpt lat="46.53039" lon="-0.79162">
        <ele>163.67</ele>
        <time>2019-06-16T08:02:59.000Z</time>
      </trkpt>
      <trkpt lat="46.53048" lon="-0.79166">
        <ele>163.57</ele>
        <time>2019-06-16T08:03:12.000Z</time>
      </trkpt>
      <trkpt lat="46.53057" lon="-0.79164">
        <ele>163.72</ele>
        <time>2019-06-16T08:03:15.000Z</time>
      </trkpt>
      <trkpt lat="46.53066" lon="-0.79162">
        <ele>163.89</ele>
        <time>2019-06-16T08:03:18.000Z</time>
      </trkpt>
      <trkpt lat="46.53079" lon="-0.79158">
        <ele>163.95</ele>
        <time>2019-06-16T08:03:21.000Z</time>
      </trkpt>
      <trkpt lat="46.53091" lon="-0.79153">
        <ele>163.88</ele>
        <time>2019-06-16T08:03:24.000Z</time>
      </trkpt>
      <trkpt lat="46.53103" lon="-0.79148">
        <ele>164.73</ele>
        <time>2019-06-16T08:03:27.000Z</time>
      </trkpt>
      <trkpt lat="46.53115" lon="-0.79143">
        <ele>164.89</ele>
        <time>2019-06-16T08:03:30.000Z</time>
      </trkpt>
      <trkpt lat="46.53125" lon="-0.7914">
        <ele>166.19</ele>
        <time>2019-06-16T08:03:33.000Z</time>
      </trkpt>
      <trkpt lat="46.53134" lon="-0.79136">
        <ele>167.16</ele>
        <time>2019-06-16T08:03:35.000Z</time>
      </trkpt>
      <trkpt lat="46.53144" lon="-0.79132">
        <ele>167.4</ele>
        <time>2019-06-16T08:03:37.000Z</time>
      </trkpt>
      <trkpt lat="46.53153" lon="-0.79127">
        <ele>167.31</ele>
        <time>2019-06-16T08:03:39.000Z</time>
      </trkpt>
      <trkpt lat="46.53163" lon="-0.79123">
        <ele>167.05</ele>
        <time>2019-06-16T08:03:41.000Z</time>
      </trkpt>
      <trkpt lat="46.53177" lon="-0.79119">
        <ele>166.62</ele>
        <time>2019-06-16T08:03:44.000Z</time>
      </trkpt>
      <trkpt lat="46.53188" lon="-0.79117">
        <ele>165.77</ele>
        <time>2019-06-16T08:03:46.000Z</time>
      </trkpt>
      <trkpt lat="46.532" lon="-0.79111">
        <ele>164.08</ele>
        <time>2019-06-16T08:03:48.000Z</time>
      </trkpt>
      <trkpt lat="46.53212" lon="-0.79109">
        <ele>162.71</ele>
        <time>2019-06-16T08:03:50.000Z</time>
      </trkpt>
      <trkpt lat="46.53224" lon="-0.79104">
        <ele>161.59</ele>
        <time>2019-06-16T08:03:52.000Z</time>
      </trkpt>
      <trkpt lat="46.53236" lon="-0.79098">
        <ele>159.84</ele>
        <time>2019-06-16T08:03:54.000Z</time>
      </trkpt>
      <trkpt lat="46.53247" lon="-0.79094">
        <ele>158.88</ele>
        <time>2019-06-16T08:03:56.000Z</time>
      </trkpt>
      <trkpt lat="46.53259" lon="-0.79093">
        <ele>158.85</ele>
        <time>2019-06-16T08:03:59.000Z</time>
      </trkpt>
      <trkpt lat="46.53267" lon="-0.79086">
        <ele>158.72</ele>
        <time>2019-06-16T08:04:02.000Z</time>
      </trkpt>
      <trkpt lat="46.53277" lon="-0.79083">
        <ele>158.62</ele>
        <time>2019-06-16T08:04:04.000Z</time>
      </trkpt>
      <trkpt lat="46.53287" lon="-0.7908">
        <ele>158.31</ele>
        <time>2019-06-16T08:04:08.000Z</time>
      </trkpt>
      <trkpt lat="46.53296" lon="-0.79073">
        <ele>158.62</ele>
        <time>2019-06-16T08:04:22.000Z</time>
      </trkpt>
      <trkpt lat="46.53297" lon="-0.79059">
        <ele>159.18</ele>
        <time>2019-06-16T08:04:34.000Z</time>
      </trkpt>
      <trkpt lat="46.53291" lon="-0.79069">
        <ele>158.68</ele>
        <time>2019-06-16T08:04:46.000Z</time>
      </trkpt>
      <trkpt lat="46.53292" lon="-0.79082">
        <ele>159.66</ele>
        <time>2019-06-16T08:06:30.000Z</time>
      </trkpt>
      <trkpt lat="46.53296" lon="-0.79069">
        <ele>157.81</ele>
        <time>2019-06-16T08:10:53.000Z</time>
      </trkpt>
      <trkpt lat="46.53286" lon="-0.79075">
        <ele>157.45</ele>
        <time>2019-06-16T08:11:08.000Z</time>
      </trkpt>
      <trkpt lat="46.53279" lon="-0.79083">
        <ele>157.24</ele>
        <time>2019-06-16T08:11:12.000Z</time>
      </trkpt>
      <trkpt lat="46.53269" lon="-0.79089">
        <ele>157.23</ele>
        <time>2019-06-16T08:11:15.000Z</time>
      </trkpt>
      <trkpt lat="46.53262" lon="-0.79097">
        <ele>157.35</ele>
        <time>2019-06-16T08:11:18.000Z</time>
      </trkpt>
      <trkpt lat="46.53252" lon="-0.79108">
        <ele>157.67</ele>
        <time>2019-06-16T08:11:21.000Z</time>
      </trkpt>
      <trkpt lat="46.53245" lon="-0.79118">
        <ele>158.14</ele>
        <time>2019-06-16T08:11:24.000Z</time>
      </trkpt>
      <trkpt lat="46.53238" lon="-0.79128">
        <ele>158.69</ele>
        <time>2019-06-16T08:11:27.000Z</time>
      </trkpt>
      <trkpt lat="46.53231" lon="-0.79139">
        <ele>159.18</ele>
        <time>2019-06-16T08:11:30.000Z</time>
      </trkpt>
      <trkpt lat="46.53223" lon="-0.7915">
        <ele>159.68</ele>
        <time>2019-06-16T08:11:33.000Z</time>
      </trkpt>
      <trkpt lat="46.53217" lon="-0.79161">
        <ele>160.27</ele>
        <time>2019-06-16T08:11:36.000Z</time>
      </trkpt>
      <trkpt lat="46.53211" lon="-0.79174">
        <ele>161.07</ele>
        <time>2019-06-16T08:11:39.000Z</time>
      </trkpt>
      <trkpt lat="46.53204" lon="-0.79182">
        <ele>161.89</ele>
        <time>2019-06-16T08:11:42.000Z</time>
      </trkpt>
      <trkpt lat="46.53197" lon="-0.79193">
        <ele>162.7</ele>
        <time>2019-06-16T08:11:45.000Z</time>
      </trkpt>
      <trkpt lat="46.5319" lon="-0.79202">
        <ele>163.55</ele>
        <time>2019-06-16T08:11:48.000Z</time>
      </trkpt>
      <trkpt lat="46.53183" lon="-0.79213">
        <ele>164.34</ele>
        <time>2019-06-16T08:11:51.000Z</time>
      </trkpt>
      <trkpt lat="46.5318" lon="-0.79227">
        <ele>165.1</ele>
        <time>2019-06-16T08:11:54.000Z</time>
      </trkpt>
      <trkpt lat="46.53175" lon="-0.79242">
        <ele>165.87</ele>
        <time>2019-06-16T08:11:57.000Z</time>
      </trkpt>
      <trkpt lat="46.5317" lon="-0.79256">
        <ele>166.79</ele>
        <time>2019-06-16T08:12:01.000Z</time>
      </trkpt>
      <trkpt lat="46.53164" lon="-0.79266">
        <ele>167.44</ele>
        <time>2019-06-16T08:12:04.000Z</time>
      </trkpt>
      <trkpt lat="46.53157" lon="-0.79279">
        <ele>167.93</ele>
        <time>2019-06-16T08:12:07.000Z</time>
      </trkpt>
      <trkpt lat="46.53152" lon="-0.79291">
        <ele>168.26</ele>
        <time>2019-06-16T08:12:10.000Z</time>
      </trkpt>
      <trkpt lat="46.53147" lon="-0.79302">
        <ele>168.51</ele>
        <time>2019-06-16T08:12:14.000Z</time>
      </trkpt>
      <trkpt lat="46.53139" lon="-0.79316">
        <ele>168.69</ele>
        <time>2019-06-16T08:12:18.000Z</time>
      </trkpt>
      <trkpt lat="46.53133" lon="-0.79326">
        <ele>168.88</ele>
        <time>2019-06-16T08:12:21.000Z</time>
      </trkpt>
      <trkpt lat="46.53128" lon="-0.79337">
        <ele>168.99</ele>
        <time>2019-06-16T08:12:24.000Z</time>
      </trkpt>
      <trkpt lat="46.53121" lon="-0.79349">
        <ele>169.04</ele>
        <time>2019-06-16T08:12:27.000Z</time>
      </trkpt>
      <trkpt lat="46.53116" lon="-0.79362">
        <ele>169.15</ele>
        <time>2019-06-16T08:12:30.000Z</time>
      </trkpt>
      <trkpt lat="46.53111" lon="-0.79373">
        <ele>169.3</ele>
        <time>2019-06-16T08:12:33.000Z</time>
      </trkpt>
      <trkpt lat="46.53106" lon="-0.79388">
        <ele>169.42</ele>
        <time>2019-06-16T08:12:36.000Z</time>
      </trkpt>
      <trkpt lat="46.53101" lon="-0.79403">
        <ele>169.49</ele>
        <time>2019-06-16T08:12:39.000Z</time>
      </trkpt>
      <trkpt lat="46.53095" lon="-0.79416">
        <ele>169.53</ele>
        <time>2019-06-16T08:12:42.000Z</time>
      </trkpt>
      <trkpt lat="46.5309" lon="-0.79427">
        <ele>169.55</ele>
        <time>2019-06-16T08:12:44.000Z</time>
      </trkpt>
      <trkpt lat="46.53083" lon="-0.79441">
        <ele>169.61</ele>
        <time>2019-06-16T08:12:47.000Z</time>
      </trkpt>
      <trkpt lat="46.53077" lon="-0.79457">
        <ele>169.68</ele>
        <time>2019-06-16T08:12:50.000Z</time>
      </trkpt>
      <trkpt lat="46.53069" lon="-0.79475">
        <ele>169.64</ele>
        <time>2019-06-16T08:12:53.000Z</time>
      </trkpt>
      <trkpt lat="46.53064" lon="-0.79486">
        <ele>169.49</ele>
        <time>2019-06-16T08:12:55.000Z</time>
      </trkpt>
      <trkpt lat="46.53055" lon="-0.79501">
        <ele>169.37</ele>
        <time>2019-06-16T08:12:58.000Z</time>
      </trkpt>
      <trkpt lat="46.53049" lon="-0.79512">
        <ele>169.55</ele>
        <time>2019-06-16T08:13:00.000Z</time>
      </trkpt>
      <trkpt lat="46.53042" lon="-0.79526">
        <ele>169.42</ele>
        <time>2019-06-16T08:13:02.000Z</time>
      </trkpt>
      <trkpt lat="46.53035" lon="-0.79538">
        <ele>169.54</ele>
        <time>2019-06-16T08:13:04.000Z</time>
      </trkpt>
      <trkpt lat="46.53028" lon="-0.79553">
        <ele>169.77</ele>
        <time>2019-06-16T08:13:06.000Z</time>
      </trkpt>
      <trkpt lat="46.53021" lon="-0.79567">
        <ele>170.22</ele>
        <time>2019-06-16T08:13:08.000Z</time>
      </trkpt>
      <trkpt lat="46.53014" lon="-0.79582">
        <ele>170.71</ele>
        <time>2019-06-16T08:13:10.000Z</time>
      </trkpt>
      <trkpt lat="46.53005" lon="-0.79595">
        <ele>170.4</ele>
        <time>2019-06-16T08:13:12.000Z</time>
      </trkpt>
      <trkpt lat="46.52998" lon="-0.79609">
        <ele>170.33</ele>
        <time>2019-06-16T08:13:14.000Z</time>
      </trkpt>
      <trkpt lat="46.52991" lon="-0.79622">
        <ele>170.67</ele>
        <time>2019-06-16T08:13:16.000Z</time>
      </trkpt>
      <trkpt lat="46.52981" lon="-0.79638">
        <ele>170.36</ele>
        <time>2019-06-16T08:13:18.000Z</time>
      </trkpt>
      <trkpt lat="46.52971" lon="-0.79658">
        <ele>168.87</ele>
        <time>2019-06-16T08:13:20.000Z</time>
      </trkpt>
      <trkpt lat="46.52964" lon="-0.79671">
        <ele>167.72</ele>
        <time>2019-06-16T08:13:22.000Z</time>
      </trkpt>
      <trkpt lat="46.52956" lon="-0.79685">
        <ele>167.08</ele>
        <time>2019-06-16T08:13:24.000Z</time>
      </trkpt>
      <trkpt lat="46.52947" lon="-0.79699">
        <ele>166.2</ele>
        <time>2019-06-16T08:13:26.000Z</time>
      </trkpt>
      <trkpt lat="46.5294" lon="-0.79709">
        <ele>165.39</ele>
        <time>2019-06-16T08:13:28.000Z</time>
      </trkpt>
      <trkpt lat="46.52933" lon="-0.79721">
        <ele>164.31</ele>
        <time>2019-06-16T08:13:30.000Z</time>
      </trkpt>
      <trkpt lat="46.52925" lon="-0.79735">
        <ele>163.74</ele>
        <time>2019-06-16T08:13:32.000Z</time>
      </trkpt>
      <trkpt lat="46.52917" lon="-0.79752">
        <ele>163.07</ele>
        <time>2019-06-16T08:13:34.000Z</time>
      </trkpt>
      <trkpt lat="46.52908" lon="-0.79769">
        <ele>162.1</ele>
        <time>2019-06-16T08:13:36.000Z</time>
      </trkpt>
      <trkpt lat="46.529" lon="-0.79786">
        <ele>160.33</ele>
        <time>2019-06-16T08:13:38.000Z</time>
      </trkpt>
      <trkpt lat="46.52893" lon="-0.79805">
        <ele>158.94</ele>
        <time>2019-06-16T08:13:40.000Z</time>
      </trkpt>
      <trkpt lat="46.52885" lon="-0.79824">
        <ele>157.14</ele>
        <time>2019-06-16T08:13:42.000Z</time>
      </trkpt>
      <trkpt lat="46.52876" lon="-0.79843">
        <ele>155.79</ele>
        <time>2019-06-16T08:13:44.000Z</time>
      </trkpt>
      <trkpt lat="46.52867" lon="-0.79861">
        <ele>154.96</ele>
        <time>2019-06-16T08:13:46.000Z</time>
      </trkpt>
      <trkpt lat="46.52858" lon="-0.7988">
        <ele>153.98</ele>
        <time>2019-06-16T08:13:48.000Z</time>
      </trkpt>
      <trkpt lat="46.5285" lon="-0.79898">
        <ele>153.5</ele>
        <time>2019-06-16T08:13:50.000Z</time>
      </trkpt>
      <trkpt lat="46.52841" lon="-0.79917">
        <ele>153.48</ele>
        <time>2019-06-16T08:13:52.000Z</time>
      </trkpt>
      <trkpt lat="46.52834" lon="-0.79935">
        <ele>153.11</ele>
        <time>2019-06-16T08:13:54.000Z</time>
      </trkpt>
      <trkpt lat="46.52827" lon="-0.79953">
        <ele>153.63</ele>
        <time>2019-06-16T08:13:56.000Z</time>
      </trkpt>
      <trkpt lat="46.52816" lon="-0.79974">
        <ele>153.43</ele>
        <time>2019-06-16T08:13:58.000Z</time>
      </trkpt>
      <trkpt lat="46.52808" lon="-0.79992">
        <ele>153.04</ele>
        <time>2019-06-16T08:14:00.000Z</time>
      </trkpt>
      <trkpt lat="46.528" lon="-0.80007">
        <ele>152.34</ele>
        <time>2019-06-16T08:14:02.000Z</time>
      </trkpt>
      <trkpt lat="46.52789" lon="-0.80025">
        <ele>151.49</ele>
        <time>2019-06-16T08:14:04.000Z</time>
      </trkpt>
      <trkpt lat="46.5278" lon="-0.80046">
        <ele>150.8</ele>
        <time>2019-06-16T08:14:06.000Z</time>
      </trkpt>
      <trkpt lat="46.52771" lon="-0.80067">
        <ele>150.6</ele>
        <time>2019-06-16T08:14:08.000Z</time>
      </trkpt>
      <trkpt lat="46.52762" lon="-0.80087">
        <ele>149.72</ele>
        <time>2019-06-16T08:14:10.000Z</time>
      </trkpt>
      <trkpt lat="46.52753" lon="-0.80105">
        <ele>148.84</ele>
        <time>2019-06-16T08:14:12.000Z</time>
      </trkpt>
      <trkpt lat="46.52744" lon="-0.80123">
        <ele>148.08</ele>
        <time>2019-06-16T08:14:14.000Z</time>
      </trkpt>
      <trkpt lat="46.52735" lon="-0.80139">
        <ele>147.85</ele>
        <time>2019-06-16T08:14:16.000Z</time>
      </trkpt>
      <trkpt lat="46.52728" lon="-0.80153">
        <ele>147.98</ele>
        <time>2019-06-16T08:14:18.000Z</time>
      </trkpt>
      <trkpt lat="46.5272" lon="-0.80164">
        <ele>148.31</ele>
        <time>2019-06-16T08:14:20.000Z</time>
      </trkpt>
      <trkpt lat="46.52712" lon="-0.80177">
        <ele>148</ele>
        <time>2019-06-16T08:14:22.000Z</time>
      </trkpt>
      <trkpt lat="46.52704" lon="-0.8019">
        <ele>147.49</ele>
        <time>2019-06-16T08:14:24.000Z</time>
      </trkpt>
      <trkpt lat="46.52697" lon="-0.80206">
        <ele>146.23</ele>
        <time>2019-06-16T08:14:26.000Z</time>
      </trkpt>
      <trkpt lat="46.52689" lon="-0.80223">
        <ele>145.13</ele>
        <time>2019-06-16T08:14:28.000Z</time>
      </trkpt>
      <trkpt lat="46.52682" lon="-0.8024">
        <ele>143.57</ele>
        <time>2019-06-16T08:14:30.000Z</time>
      </trkpt>
      <trkpt lat="46.52678" lon="-0.80252">
        <ele>143.53</ele>
        <time>2019-06-16T08:14:32.000Z</time>
      </trkpt>
      <trkpt lat="46.52686" lon="-0.80266">
        <ele>143.41</ele>
        <time>2019-06-16T08:14:35.000Z</time>
      </trkpt>
      <trkpt lat="46.527" lon="-0.80271">
        <ele>141.87</ele>
        <time>2019-06-16T08:14:38.000Z</time>
      </trkpt>
      <trkpt lat="46.52711" lon="-0.80274">
        <ele>140.22</ele>
        <time>2019-06-16T08:14:40.000Z</time>
      </trkpt>
      <trkpt lat="46.52724" lon="-0.80277">
        <ele>139.41</ele>
        <time>2019-06-16T08:14:42.000Z</time>
      </trkpt>
      <trkpt lat="46.52737" lon="-0.80282">
        <ele>139.7</ele>
        <time>2019-06-16T08:14:44.000Z</time>
      </trkpt>
      <trkpt lat="46.52749" lon="-0.80285">
        <ele>139.16</ele>
        <time>2019-06-16T08:14:46.000Z</time>
      </trkpt>
      <trkpt lat="46.52763" lon="-0.80286">
        <ele>138.69</ele>
        <time>2019-06-16T08:14:48.000Z</time>
      </trkpt>
      <trkpt lat="46.52775" lon="-0.80288">
        <ele>138.65</ele>
        <time>2019-06-16T08:14:50.000Z</time>
      </trkpt>
      <trkpt lat="46.52787" lon="-0.80291">
        <ele>139.46</ele>
        <time>2019-06-16T08:14:52.000Z</time>
      </trkpt>
      <trkpt lat="46.52799" lon="-0.80292">
        <ele>140.67</ele>
        <time>2019-06-16T08:14:54.000Z</time>
      </trkpt>
      <trkpt lat="46.52808" lon="-0.80289">
        <ele>141.64</ele>
        <time>2019-06-16T08:14:56.000Z</time>
      </trkpt>
      <trkpt lat="46.52818" lon="-0.8029">
        <ele>141.84</ele>
        <time>2019-06-16T08:14:58.000Z</time>
      </trkpt>
      <trkpt lat="46.52832" lon="-0.8029">
        <ele>144.18</ele>
        <time>2019-06-16T08:15:01.000Z</time>
      </trkpt>
      <trkpt lat="46.52844" lon="-0.80293">
        <ele>145.78</ele>
        <time>2019-06-16T08:15:04.000Z</time>
      </trkpt>
      <trkpt lat="46.52854" lon="-0.80295">
        <ele>146.29</ele>
        <time>2019-06-16T08:15:06.000Z</time>
      </trkpt>
      <trkpt lat="46.52864" lon="-0.80294">
        <ele>146.32</ele>
        <time>2019-06-16T08:15:08.000Z</time>
      </trkpt>
      <trkpt lat="46.52876" lon="-0.80294">
        <ele>146.03</ele>
        <time>2019-06-16T08:15:10.000Z</time>
      </trkpt>
      <trkpt lat="46.52886" lon="-0.80298">
        <ele>146.12</ele>
        <time>2019-06-16T08:15:12.000Z</time>
      </trkpt>
      <trkpt lat="46.529" lon="-0.80296">
        <ele>146.22</ele>
        <time>2019-06-16T08:15:15.000Z</time>
      </trkpt>
      <trkpt lat="46.52911" lon="-0.80299">
        <ele>146.63</ele>
        <time>2019-06-16T08:15:18.000Z</time>
      </trkpt>
      <trkpt lat="46.52921" lon="-0.80301">
        <ele>146.87</ele>
        <time>2019-06-16T08:15:23.000Z</time>
      </trkpt>
      <trkpt lat="46.52931" lon="-0.80306">
        <ele>147.19</ele>
        <time>2019-06-16T08:15:28.000Z</time>
      </trkpt>
      <trkpt lat="46.52942" lon="-0.80304">
        <ele>147.71</ele>
        <time>2019-06-16T08:15:33.000Z</time>
      </trkpt>
      <trkpt lat="46.5295" lon="-0.80299">
        <ele>148.43</ele>
        <time>2019-06-16T08:15:41.000Z</time>
      </trkpt>
      <trkpt lat="46.5296" lon="-0.80301">
        <ele>149.01</ele>
        <time>2019-06-16T08:15:46.000Z</time>
      </trkpt>
      <trkpt lat="46.52968" lon="-0.80308">
        <ele>149.6</ele>
        <time>2019-06-16T08:15:51.000Z</time>
      </trkpt>
      <trkpt lat="46.52982" lon="-0.80308">
        <ele>150.07</ele>
        <time>2019-06-16T08:15:55.000Z</time>
      </trkpt>
      <trkpt lat="46.52993" lon="-0.80307">
        <ele>150.46</ele>
        <time>2019-06-16T08:15:58.000Z</time>
      </trkpt>
      <trkpt lat="46.53004" lon="-0.80309">
        <ele>150.83</ele>
        <time>2019-06-16T08:16:02.000Z</time>
      </trkpt>
      <trkpt lat="46.53014" lon="-0.80307">
        <ele>151.25</ele>
        <time>2019-06-16T08:16:05.000Z</time>
      </trkpt>
      <trkpt lat="46.53025" lon="-0.80307">
        <ele>151.66</ele>
        <time>2019-06-16T08:16:08.000Z</time>
      </trkpt>
      <trkpt lat="46.53037" lon="-0.80305">
        <ele>151.85</ele>
        <time>2019-06-16T08:16:11.000Z</time>
      </trkpt>
      <trkpt lat="46.53046" lon="-0.80304">
        <ele>151.77</ele>
        <time>2019-06-16T08:16:14.000Z</time>
      </trkpt>
      <trkpt lat="46.53058" lon="-0.80301">
        <ele>151.3</ele>
        <time>2019-06-16T08:16:18.000Z</time>
      </trkpt>
      <trkpt lat="46.53069" lon="-0.80302">
        <ele>150.55</ele>
        <time>2019-06-16T08:16:22.000Z</time>
      </trkpt>
      <trkpt lat="46.5308" lon="-0.80303">
        <ele>149.73</ele>
        <time>2019-06-16T08:16:26.000Z</time>
      </trkpt>
      <trkpt lat="46.5309" lon="-0.80305">
        <ele>149.24</ele>
        <time>2019-06-16T08:16:29.000Z</time>
      </trkpt>
      <trkpt lat="46.53101" lon="-0.80308">
        <ele>148.96</ele>
        <time>2019-06-16T08:16:32.000Z</time>
      </trkpt>
      <trkpt lat="46.53111" lon="-0.80308">
        <ele>149.02</ele>
        <time>2019-06-16T08:16:36.000Z</time>
      </trkpt>
      <trkpt lat="46.53121" lon="-0.80308">
        <ele>149.36</ele>
        <time>2019-06-16T08:16:40.000Z</time>
      </trkpt>
      <trkpt lat="46.5313" lon="-0.80309">
        <ele>149.69</ele>
        <time>2019-06-16T08:16:43.000Z</time>
      </trkpt>
      <trkpt lat="46.53141" lon="-0.80312">
        <ele>150.16</ele>
        <time>2019-06-16T08:16:47.000Z</time>
      </trkpt>
      <trkpt lat="46.53152" lon="-0.80313">
        <ele>150.63</ele>
        <time>2019-06-16T08:16:50.000Z</time>
      </trkpt>
      <trkpt lat="46.53161" lon="-0.80313">
        <ele>151.14</ele>
        <time>2019-06-16T08:16:53.000Z</time>
      </trkpt>
      <trkpt lat="46.53172" lon="-0.80312">
        <ele>151.81</ele>
        <time>2019-06-16T08:16:57.000Z</time>
      </trkpt>
      <trkpt lat="46.53182" lon="-0.80311">
        <ele>152.22</ele>
        <time>2019-06-16T08:17:00.000Z</time>
      </trkpt>
      <trkpt lat="46.53193" lon="-0.80312">
        <ele>152.56</ele>
        <time>2019-06-16T08:17:04.000Z</time>
      </trkpt>
      <trkpt lat="46.53203" lon="-0.80314">
        <ele>152.64</ele>
        <time>2019-06-16T08:17:09.000Z</time>
      </trkpt>
      <trkpt lat="46.53213" lon="-0.80313">
        <ele>152.7</ele>
        <time>2019-06-16T08:17:12.000Z</time>
      </trkpt>
      <trkpt lat="46.53222" lon="-0.80315">
        <ele>152.63</ele>
        <time>2019-06-16T08:17:15.000Z</time>
      </trkpt>
      <trkpt lat="46.53231" lon="-0.80316">
        <ele>152.48</ele>
        <time>2019-06-16T08:17:19.000Z</time>
      </trkpt>
      <trkpt lat="46.53237" lon="-0.80326">
        <ele>152.27</ele>
        <time>2019-06-16T08:17:22.000Z</time>
      </trkpt>
      <trkpt lat="46.53236" lon="-0.80341">
        <ele>152.1</ele>
        <time>2019-06-16T08:17:25.000Z</time>
      </trkpt>
      <trkpt lat="46.53244" lon="-0.80354">
        <ele>152.18</ele>
        <time>2019-06-16T08:17:28.000Z</time>
      </trkpt>
      <trkpt lat="46.53254" lon="-0.80357">
        <ele>152.6</ele>
        <time>2019-06-16T08:17:30.000Z</time>
      </trkpt>
      <trkpt lat="46.53263" lon="-0.80365">
        <ele>152.06</ele>
        <time>2019-06-16T08:17:32.000Z</time>
      </trkpt>
      <trkpt lat="46.53272" lon="-0.80374">
        <ele>152.08</ele>
        <time>2019-06-16T08:17:37.000Z</time>
      </trkpt>
      <trkpt lat="46.53281" lon="-0.80367">
        <ele>152.67</ele>
        <time>2019-06-16T08:17:42.000Z</time>
      </trkpt>
      <trkpt lat="46.53291" lon="-0.80367">
        <ele>153</ele>
        <time>2019-06-16T08:17:45.000Z</time>
      </trkpt>
      <trkpt lat="46.53302" lon="-0.80364">
        <ele>153.33</ele>
        <time>2019-06-16T08:17:48.000Z</time>
      </trkpt>
      <trkpt lat="46.53312" lon="-0.80362">
        <ele>153.68</ele>
        <time>2019-06-16T08:17:51.000Z</time>
      </trkpt>
      <trkpt lat="46.53322" lon="-0.80363">
        <ele>153.85</ele>
        <time>2019-06-16T08:17:53.000Z</time>
      </trkpt>
      <trkpt lat="46.53331" lon="-0.80362">
        <ele>155.18</ele>
        <time>2019-06-16T08:17:55.000Z</time>
      </trkpt>
      <trkpt lat="46.53339" lon="-0.80355">
        <ele>155.52</ele>
        <time>2019-06-16T08:17:57.000Z</time>
      </trkpt>
      <trkpt lat="46.53347" lon="-0.80348">
        <ele>155.67</ele>
        <time>2019-06-16T08:17:59.000Z</time>
      </trkpt>
      <trkpt lat="46.53347" lon="-0.80365">
        <ele>155.83</ele>
        <time>2019-06-16T08:18:10.000Z</time>
      </trkpt>
      <trkpt lat="46.53349" lon="-0.8038">
        <ele>155.84</ele>
        <time>2019-06-16T08:18:12.000Z</time>
      </trkpt>
      <trkpt lat="46.53357" lon="-0.80388">
        <ele>155.81</ele>
        <time>2019-06-16T08:18:14.000Z</time>
      </trkpt>
      <trkpt lat="46.53367" lon="-0.8039">
        <ele>155.83</ele>
        <time>2019-06-16T08:18:16.000Z</time>
      </trkpt>
      <trkpt lat="46.53378" lon="-0.80388">
        <ele>156.03</ele>
        <time>2019-06-16T08:18:18.000Z</time>
      </trkpt>
      <trkpt lat="46.53387" lon="-0.80378">
        <ele>156.69</ele>
        <time>2019-06-16T08:18:20.000Z</time>
      </trkpt>
      <trkpt lat="46.53398" lon="-0.80366">
        <ele>156.91</ele>
        <time>2019-06-16T08:18:22.000Z</time>
      </trkpt>
      <trkpt lat="46.53408" lon="-0.80352">
        <ele>157.91</ele>
        <time>2019-06-16T08:18:24.000Z</time>
      </trkpt>
      <trkpt lat="46.53415" lon="-0.80343">
        <ele>158.83</ele>
        <time>2019-06-16T08:18:26.000Z</time>
      </trkpt>
      <trkpt lat="46.53423" lon="-0.80336">
        <ele>160.33</ele>
        <time>2019-06-16T08:18:28.000Z</time>
      </trkpt>
      <trkpt lat="46.53434" lon="-0.80327">
        <ele>161.57</ele>
        <time>2019-06-16T08:18:30.000Z</time>
      </trkpt>
      <trkpt lat="46.53441" lon="-0.8032">
        <ele>162.78</ele>
        <time>2019-06-16T08:18:32.000Z</time>
      </trkpt>
      <trkpt lat="46.53449" lon="-0.80314">
        <ele>162.93</ele>
        <time>2019-06-16T08:18:35.000Z</time>
      </trkpt>
      <trkpt lat="46.53459" lon="-0.80311">
        <ele>162.98</ele>
        <time>2019-06-16T08:18:38.000Z</time>
      </trkpt>
      <trkpt lat="46.53469" lon="-0.80309">
        <ele>163.44</ele>
        <time>2019-06-16T08:18:40.000Z</time>
      </trkpt>
      <trkpt lat="46.53479" lon="-0.80309">
        <ele>162.38</ele>
        <time>2019-06-16T08:18:42.000Z</time>
      </trkpt>
      <trkpt lat="46.53492" lon="-0.80307">
        <ele>160.96</ele>
        <time>2019-06-16T08:18:45.000Z</time>
      </trkpt>
      <trkpt lat="46.53504" lon="-0.80305">
        <ele>160.9</ele>
        <time>2019-06-16T08:18:48.000Z</time>
      </trkpt>
      <trkpt lat="46.53513" lon="-0.80304">
        <ele>160.75</ele>
        <time>2019-06-16T08:18:50.000Z</time>
      </trkpt>
      <trkpt lat="46.53523" lon="-0.80301">
        <ele>160.7</ele>
        <time>2019-06-16T08:18:52.000Z</time>
      </trkpt>
      <trkpt lat="46.53535" lon="-0.80302">
        <ele>159.7</ele>
        <time>2019-06-16T08:18:55.000Z</time>
      </trkpt>
      <trkpt lat="46.53546" lon="-0.80303">
        <ele>159.35</ele>
        <time>2019-06-16T08:18:58.000Z</time>
      </trkpt>
      <trkpt lat="46.53556" lon="-0.80307">
        <ele>159.13</ele>
        <time>2019-06-16T08:19:01.000Z</time>
      </trkpt>
      <trkpt lat="46.53566" lon="-0.80314">
        <ele>158.82</ele>
        <time>2019-06-16T08:19:04.000Z</time>
      </trkpt>
      <trkpt lat="46.53576" lon="-0.8032">
        <ele>159.07</ele>
        <time>2019-06-16T08:19:08.000Z</time>
      </trkpt>
      <trkpt lat="46.53587" lon="-0.80325">
        <ele>159.32</ele>
        <time>2019-06-16T08:19:12.000Z</time>
      </trkpt>
      <trkpt lat="46.53598" lon="-0.80326">
        <ele>159.29</ele>
        <time>2019-06-16T08:19:15.000Z</time>
      </trkpt>
      <trkpt lat="46.53608" lon="-0.80331">
        <ele>159.25</ele>
        <time>2019-06-16T08:19:19.000Z</time>
      </trkpt>
      <trkpt lat="46.53618" lon="-0.80333">
        <ele>159.37</ele>
        <time>2019-06-16T08:19:22.000Z</time>
      </trkpt>
      <trkpt lat="46.53627" lon="-0.80338">
        <ele>159.59</ele>
        <time>2019-06-16T08:19:25.000Z</time>
      </trkpt>
      <trkpt lat="46.53638" lon="-0.80343">
        <ele>159.78</ele>
        <time>2019-06-16T08:19:28.000Z</time>
      </trkpt>
      <trkpt lat="46.5365" lon="-0.80344">
        <ele>159.97</ele>
        <time>2019-06-16T08:19:31.000Z</time>
      </trkpt>
      <trkpt lat="46.53659" lon="-0.80344">
        <ele>160.14</ele>
        <time>2019-06-16T08:19:34.000Z</time>
      </trkpt>
      <trkpt lat="46.53673" lon="-0.80343">
        <ele>160.38</ele>
        <time>2019-06-16T08:19:38.000Z</time>
      </trkpt>
      <trkpt lat="46.53682" lon="-0.80342">
        <ele>160.53</ele>
        <time>2019-06-16T08:19:41.000Z</time>
      </trkpt>
      <trkpt lat="46.53693" lon="-0.80341">
        <ele>160.84</ele>
        <time>2019-06-16T08:19:45.000Z</time>
      </trkpt>
      <trkpt lat="46.53703" lon="-0.80339">
        <ele>160.96</ele>
        <time>2019-06-16T08:19:47.000Z</time>
      </trkpt>
      <trkpt lat="46.53714" lon="-0.80341">
        <ele>160.97</ele>
        <time>2019-06-16T08:19:50.000Z</time>
      </trkpt>
      <trkpt lat="46.53725" lon="-0.80335">
        <ele>160.9</ele>
        <time>2019-06-16T08:19:53.000Z</time>
      </trkpt>
      <trkpt lat="46.53733" lon="-0.80331">
        <ele>160.94</ele>
        <time>2019-06-16T08:19:56.000Z</time>
      </trkpt>
      <trkpt lat="46.53743" lon="-0.80324">
        <ele>161.06</ele>
        <time>2019-06-16T08:19:58.000Z</time>
      </trkpt>
      <trkpt lat="46.53754" lon="-0.80315">
        <ele>161.4</ele>
        <time>2019-06-16T08:20:01.000Z</time>
      </trkpt>
      <trkpt lat="46.53763" lon="-0.80308">
        <ele>163.07</ele>
        <time>2019-06-16T08:20:03.000Z</time>
      </trkpt>
      <trkpt lat="46.53771" lon="-0.80301">
        <ele>163.41</ele>
        <time>2019-06-16T08:20:05.000Z</time>
      </trkpt>
      <trkpt lat="46.53781" lon="-0.80298">
        <ele>163.91</ele>
        <time>2019-06-16T08:20:08.000Z</time>
      </trkpt>
      <trkpt lat="46.53792" lon="-0.80292">
        <ele>164.46</ele>
        <time>2019-06-16T08:20:11.000Z</time>
      </trkpt>
      <trkpt lat="46.53801" lon="-0.80291">
        <ele>164.74</ele>
        <time>2019-06-16T08:20:13.000Z</time>
      </trkpt>
      <trkpt lat="46.5381" lon="-0.80288">
        <ele>165.03</ele>
        <time>2019-06-16T08:20:15.000Z</time>
      </trkpt>
      <trkpt lat="46.53824" lon="-0.8029">
        <ele>165.52</ele>
        <time>2019-06-16T08:20:18.000Z</time>
      </trkpt>
      <trkpt lat="46.53836" lon="-0.80293">
        <ele>164.97</ele>
        <time>2019-06-16T08:20:21.000Z</time>
      </trkpt>
      <trkpt lat="46.53847" lon="-0.80297">
        <ele>164.62</ele>
        <time>2019-06-16T08:20:23.000Z</time>
      </trkpt>
      <trkpt lat="46.53856" lon="-0.80304">
        <ele>163.94</ele>
        <time>2019-06-16T08:20:26.000Z</time>
      </trkpt>
      <trkpt lat="46.53867" lon="-0.80306">
        <ele>163.58</ele>
        <time>2019-06-16T08:20:28.000Z</time>
      </trkpt>
      <trkpt lat="46.5388" lon="-0.8031">
        <ele>164.27</ele>
        <time>2019-06-16T08:20:31.000Z</time>
      </trkpt>
      <trkpt lat="46.53892" lon="-0.80312">
        <ele>164.31</ele>
        <time>2019-06-16T08:20:33.000Z</time>
      </trkpt>
      <trkpt lat="46.53903" lon="-0.80311">
        <ele>164.98</ele>
        <time>2019-06-16T08:20:35.000Z</time>
      </trkpt>
      <trkpt lat="46.53912" lon="-0.80309">
        <ele>165.98</ele>
        <time>2019-06-16T08:20:37.000Z</time>
      </trkpt>
      <trkpt lat="46.53922" lon="-0.80309">
        <ele>167.02</ele>
        <time>2019-06-16T08:20:39.000Z</time>
      </trkpt>
      <trkpt lat="46.53933" lon="-0.80304">
        <ele>167.11</ele>
        <time>2019-06-16T08:20:41.000Z</time>
      </trkpt>
      <trkpt lat="46.53944" lon="-0.80302">
        <ele>166.82</ele>
        <time>2019-06-16T08:20:45.000Z</time>
      </trkpt>
      <trkpt lat="46.53954" lon="-0.80297">
        <ele>165</ele>
        <time>2019-06-16T08:20:47.000Z</time>
      </trkpt>
      <trkpt lat="46.53964" lon="-0.80286">
        <ele>164.39</ele>
        <time>2019-06-16T08:20:49.000Z</time>
      </trkpt>
      <trkpt lat="46.53977" lon="-0.80285">
        <ele>164.48</ele>
        <time>2019-06-16T08:20:51.000Z</time>
      </trkpt>
      <trkpt lat="46.53991" lon="-0.80282">
        <ele>165.44</ele>
        <time>2019-06-16T08:20:53.000Z</time>
      </trkpt>
      <trkpt lat="46.54002" lon="-0.80282">
        <ele>166.14</ele>
        <time>2019-06-16T08:20:55.000Z</time>
      </trkpt>
      <trkpt lat="46.54011" lon="-0.80283">
        <ele>167.09</ele>
        <time>2019-06-16T08:20:57.000Z</time>
      </trkpt>
      <trkpt lat="46.5402" lon="-0.80284">
        <ele>166.25</ele>
        <time>2019-06-16T08:20:59.000Z</time>
      </trkpt>
      <trkpt lat="46.5403" lon="-0.8028">
        <ele>164.91</ele>
        <time>2019-06-16T08:21:01.000Z</time>
      </trkpt>
      <trkpt lat="46.5404" lon="-0.80281">
        <ele>163.62</ele>
        <time>2019-06-16T08:21:03.000Z</time>
      </trkpt>
      <trkpt lat="46.5405" lon="-0.80291">
        <ele>163.29</ele>
        <time>2019-06-16T08:21:06.000Z</time>
      </trkpt>
      <trkpt lat="46.54057" lon="-0.803">
        <ele>163.05</ele>
        <time>2019-06-16T08:21:08.000Z</time>
      </trkpt>
      <trkpt lat="46.5407" lon="-0.80309">
        <ele>162.55</ele>
        <time>2019-06-16T08:21:11.000Z</time>
      </trkpt>
      <trkpt lat="46.54078" lon="-0.80317">
        <ele>162.69</ele>
        <time>2019-06-16T08:21:13.000Z</time>
      </trkpt>
      <trkpt lat="46.54086" lon="-0.80323">
        <ele>163.26</ele>
        <time>2019-06-16T08:21:15.000Z</time>
      </trkpt>
      <trkpt lat="46.54096" lon="-0.80329">
        <ele>164.7</ele>
        <time>2019-06-16T08:21:17.000Z</time>
      </trkpt>
      <trkpt lat="46.54108" lon="-0.80336">
        <ele>165.22</ele>
        <time>2019-06-16T08:21:19.000Z</time>
      </trkpt>
      <trkpt lat="46.54115" lon="-0.80343">
        <ele>165.73</ele>
        <time>2019-06-16T08:21:21.000Z</time>
      </trkpt>
      <trkpt lat="46.54124" lon="-0.8035">
        <ele>165.81</ele>
        <time>2019-06-16T08:21:23.000Z</time>
      </trkpt>
      <trkpt lat="46.54133" lon="-0.80348">
        <ele>165.75</ele>
        <time>2019-06-16T08:21:25.000Z</time>
      </trkpt>
      <trkpt lat="46.54141" lon="-0.80335">
        <ele>166.01</ele>
        <time>2019-06-16T08:21:27.000Z</time>
      </trkpt>
      <trkpt lat="46.54155" lon="-0.80322">
        <ele>166.22</ele>
        <time>2019-06-16T08:21:29.000Z</time>
      </trkpt>
      <trkpt lat="46.54163" lon="-0.80313">
        <ele>166.32</ele>
        <time>2019-06-16T08:21:30.000Z</time>
      </trkpt>
      <trkpt lat="46.54174" lon="-0.80302">
        <ele>166.53</ele>
        <time>2019-06-16T08:21:32.000Z</time>
      </trkpt>
      <trkpt lat="46.54183" lon="-0.80294">
        <ele>166.75</ele>
        <time>2019-06-16T08:21:34.000Z</time>
      </trkpt>
      <trkpt lat="46.54193" lon="-0.80293">
        <ele>167.02</ele>
        <time>2019-06-16T08:21:37.000Z</time>
      </trkpt>
      <trkpt lat="46.54204" lon="-0.80291">
        <ele>167.15</ele>
        <time>2019-06-16T08:21:40.000Z</time>
      </trkpt>
      <trkpt lat="46.54215" lon="-0.80287">
        <ele>167.13</ele>
        <time>2019-06-16T08:21:43.000Z</time>
      </trkpt>
      <trkpt lat="46.54224" lon="-0.80284">
        <ele>166.88</ele>
        <time>2019-06-16T08:21:46.000Z</time>
      </trkpt>
      <trkpt lat="46.54235" lon="-0.80282">
        <ele>166.59</ele>
        <time>2019-06-16T08:21:49.000Z</time>
      </trkpt>
      <trkpt lat="46.54245" lon="-0.80281">
        <ele>166.31</ele>
        <time>2019-06-16T08:21:52.000Z</time>
      </trkpt>
      <trkpt lat="46.54255" lon="-0.80282">
        <ele>165.84</ele>
        <time>2019-06-16T08:21:56.000Z</time>
      </trkpt>
      <trkpt lat="46.54267" lon="-0.80281">
        <ele>165.38</ele>
        <time>2019-06-16T08:22:00.000Z</time>
      </trkpt>
      <trkpt lat="46.54277" lon="-0.80283">
        <ele>164.8</ele>
        <time>2019-06-16T08:22:05.000Z</time>
      </trkpt>
      <trkpt lat="46.54286" lon="-0.80276">
        <ele>164.73</ele>
        <time>2019-06-16T08:22:08.000Z</time>
      </trkpt>
      <trkpt lat="46.54295" lon="-0.8027">
        <ele>164.92</ele>
        <time>2019-06-16T08:22:11.000Z</time>
      </trkpt>
      <trkpt lat="46.54305" lon="-0.80269">
        <ele>165.17</ele>
        <time>2019-06-16T08:22:14.000Z</time>
      </trkpt>
      <trkpt lat="46.54315" lon="-0.80275">
        <ele>165.48</ele>
        <time>2019-06-16T08:22:19.000Z</time>
      </trkpt>
      <trkpt lat="46.54325" lon="-0.80282">
        <ele>165.65</ele>
        <time>2019-06-16T08:22:23.000Z</time>
      </trkpt>
      <trkpt lat="46.54336" lon="-0.80281">
        <ele>165.8</ele>
        <time>2019-06-16T08:22:27.000Z</time>
      </trkpt>
      <trkpt lat="46.54347" lon="-0.80284">
        <ele>166.36</ele>
        <time>2019-06-16T08:22:31.000Z</time>
      </trkpt>
      <trkpt lat="46.54356" lon="-0.8029">
        <ele>167.14</ele>
        <time>2019-06-16T08:22:34.000Z</time>
      </trkpt>
      <trkpt lat="46.54366" lon="-0.80295">
        <ele>168.16</ele>
        <time>2019-06-16T08:22:37.000Z</time>
      </trkpt>
      <trkpt lat="46.54377" lon="-0.80295">
        <ele>169.16</ele>
        <time>2019-06-16T08:22:40.000Z</time>
      </trkpt>
      <trkpt lat="46.54389" lon="-0.80291">
        <ele>169.97</ele>
        <time>2019-06-16T08:22:43.000Z</time>
      </trkpt>
      <trkpt lat="46.54398" lon="-0.80289">
        <ele>170.62</ele>
        <time>2019-06-16T08:22:46.000Z</time>
      </trkpt>
      <trkpt lat="46.54409" lon="-0.8029">
        <ele>171.11</ele>
        <time>2019-06-16T08:22:49.000Z</time>
      </trkpt>
      <trkpt lat="46.54417" lon="-0.80279">
        <ele>171.63</ele>
        <time>2019-06-16T08:22:52.000Z</time>
      </trkpt>
      <trkpt lat="46.54421" lon="-0.80268">
        <ele>172.12</ele>
        <time>2019-06-16T08:22:55.000Z</time>
      </trkpt>
      <trkpt lat="46.5443" lon="-0.80258">
        <ele>172.71</ele>
        <time>2019-06-16T08:22:58.000Z</time>
      </trkpt>
      <trkpt lat="46.54436" lon="-0.80248">
        <ele>173.05</ele>
        <time>2019-06-16T08:23:00.000Z</time>
      </trkpt>
      <trkpt lat="46.54438" lon="-0.80232">
        <ele>173.37</ele>
        <time>2019-06-16T08:23:03.000Z</time>
      </trkpt>
      <trkpt lat="46.54436" lon="-0.80215">
        <ele>173.5</ele>
        <time>2019-06-16T08:23:06.000Z</time>
      </trkpt>
      <trkpt lat="46.54441" lon="-0.80201">
        <ele>173.56</ele>
        <time>2019-06-16T08:23:09.000Z</time>
      </trkpt>
      <trkpt lat="46.54447" lon="-0.80191">
        <ele>174.31</ele>
        <time>2019-06-16T08:23:11.000Z</time>
      </trkpt>
      <trkpt lat="46.54455" lon="-0.80181">
        <ele>174.93</ele>
        <time>2019-06-16T08:23:13.000Z</time>
      </trkpt>
      <trkpt lat="46.54461" lon="-0.80168">
        <ele>177.06</ele>
        <time>2019-06-16T08:23:15.000Z</time>
      </trkpt>
      <trkpt lat="46.54467" lon="-0.80152">
        <ele>178.32</ele>
        <time>2019-06-16T08:23:17.000Z</time>
      </trkpt>
      <trkpt lat="46.5447" lon="-0.8014">
        <ele>178.82</ele>
        <time>2019-06-16T08:23:19.000Z</time>
      </trkpt>
      <trkpt lat="46.5448" lon="-0.80118">
        <ele>179.31</ele>
        <time>2019-06-16T08:23:22.000Z</time>
      </trkpt>
      <trkpt lat="46.54483" lon="-0.80097">
        <ele>179.2</ele>
        <time>2019-06-16T08:23:24.000Z</time>
      </trkpt>
      <trkpt lat="46.54483" lon="-0.8008">
        <ele>179.07</ele>
        <time>2019-06-16T08:23:26.000Z</time>
      </trkpt>
      <trkpt lat="46.54485" lon="-0.80062">
        <ele>178.36</ele>
        <time>2019-06-16T08:23:28.000Z</time>
      </trkpt>
      <trkpt lat="46.54489" lon="-0.8005">
        <ele>177.83</ele>
        <time>2019-06-16T08:23:30.000Z</time>
      </trkpt>
      <trkpt lat="46.5449" lon="-0.80033">
        <ele>176.68</ele>
        <time>2019-06-16T08:23:32.000Z</time>
      </trkpt>
      <trkpt lat="46.54493" lon="-0.80015">
        <ele>176.04</ele>
        <time>2019-06-16T08:23:34.000Z</time>
      </trkpt>
      <trkpt lat="46.54491" lon="-0.79995">
        <ele>175.33</ele>
        <time>2019-06-16T08:23:36.000Z</time>
      </trkpt>
      <trkpt lat="46.54492" lon="-0.79975">
        <ele>174.33</ele>
        <time>2019-06-16T08:23:38.000Z</time>
      </trkpt>
      <trkpt lat="46.54489" lon="-0.79957">
        <ele>173.4</ele>
        <time>2019-06-16T08:23:40.000Z</time>
      </trkpt>
      <trkpt lat="46.54484" lon="-0.79942">
        <ele>173.34</ele>
        <time>2019-06-16T08:23:42.000Z</time>
      </trkpt>
      <trkpt lat="46.54481" lon="-0.79927">
        <ele>174.1</ele>
        <time>2019-06-16T08:23:44.000Z</time>
      </trkpt>
      <trkpt lat="46.54477" lon="-0.79911">
        <ele>174</ele>
        <time>2019-06-16T08:23:46.000Z</time>
      </trkpt>
      <trkpt lat="46.54467" lon="-0.79899">
        <ele>173.53</ele>
        <time>2019-06-16T08:23:48.000Z</time>
      </trkpt>
      <trkpt lat="46.54462" lon="-0.79885">
        <ele>173.33</ele>
        <time>2019-06-16T08:23:50.000Z</time>
      </trkpt>
      <trkpt lat="46.54461" lon="-0.79871">
        <ele>173.25</ele>
        <time>2019-06-16T08:23:52.000Z</time>
      </trkpt>
      <trkpt lat="46.54454" lon="-0.79857">
        <ele>172.99</ele>
        <time>2019-06-16T08:23:56.000Z</time>
      </trkpt>
      <trkpt lat="46.54446" lon="-0.7985">
        <ele>172.86</ele>
        <time>2019-06-16T08:23:59.000Z</time>
      </trkpt>
      <trkpt lat="46.54446" lon="-0.79835">
        <ele>173.05</ele>
        <time>2019-06-16T08:24:05.000Z</time>
      </trkpt>
      <trkpt lat="46.54439" lon="-0.79821">
        <ele>173.27</ele>
        <time>2019-06-16T08:24:09.000Z</time>
      </trkpt>
      <trkpt lat="46.54433" lon="-0.79811">
        <ele>173.37</ele>
        <time>2019-06-16T08:24:11.000Z</time>
      </trkpt>
      <trkpt lat="46.54427" lon="-0.79796">
        <ele>173.09</ele>
        <time>2019-06-16T08:24:14.000Z</time>
      </trkpt>
      <trkpt lat="46.54416" lon="-0.79788">
        <ele>172.29</ele>
        <time>2019-06-16T08:24:16.000Z</time>
      </trkpt>
      <trkpt lat="46.54408" lon="-0.79776">
        <ele>170.74</ele>
        <time>2019-06-16T08:24:18.000Z</time>
      </trkpt>
      <trkpt lat="46.544" lon="-0.79764">
        <ele>170.4</ele>
        <time>2019-06-16T08:24:20.000Z</time>
      </trkpt>
      <trkpt lat="46.5439" lon="-0.79748">
        <ele>170.46</ele>
        <time>2019-06-16T08:24:23.000Z</time>
      </trkpt>
      <trkpt lat="46.54383" lon="-0.79736">
        <ele>170.56</ele>
        <time>2019-06-16T08:24:25.000Z</time>
      </trkpt>
      <trkpt lat="46.54375" lon="-0.79721">
        <ele>170.42</ele>
        <time>2019-06-16T08:24:27.000Z</time>
      </trkpt>
      <trkpt lat="46.54366" lon="-0.79704">
        <ele>170.4</ele>
        <time>2019-06-16T08:24:29.000Z</time>
      </trkpt>
      <trkpt lat="46.54357" lon="-0.79689">
        <ele>170.1</ele>
        <time>2019-06-16T08:24:31.000Z</time>
      </trkpt>
      <trkpt lat="46.54346" lon="-0.79679">
        <ele>169.68</ele>
        <time>2019-06-16T08:24:33.000Z</time>
      </trkpt>
      <trkpt lat="46.54335" lon="-0.79667">
        <ele>169</ele>
        <time>2019-06-16T08:24:35.000Z</time>
      </trkpt>
      <trkpt lat="46.54328" lon="-0.79659">
        <ele>168.6</ele>
        <time>2019-06-16T08:24:37.000Z</time>
      </trkpt>
      <trkpt lat="46.54316" lon="-0.79655">
        <ele>168.42</ele>
        <time>2019-06-16T08:24:40.000Z</time>
      </trkpt>
      <trkpt lat="46.54312" lon="-0.79642">
        <ele>168.05</ele>
        <time>2019-06-16T08:24:47.000Z</time>
      </trkpt>
      <trkpt lat="46.54306" lon="-0.79631">
        <ele>168.03</ele>
        <time>2019-06-16T08:24:51.000Z</time>
      </trkpt>
      <trkpt lat="46.54298" lon="-0.79621">
        <ele>168</ele>
        <time>2019-06-16T08:24:55.000Z</time>
      </trkpt>
      <trkpt lat="46.54288" lon="-0.79609">
        <ele>167.98</ele>
        <time>2019-06-16T08:24:58.000Z</time>
      </trkpt>
      <trkpt lat="46.54281" lon="-0.79596">
        <ele>167.95</ele>
        <time>2019-06-16T08:25:01.000Z</time>
      </trkpt>
      <trkpt lat="46.54276" lon="-0.79584">
        <ele>167.93</ele>
        <time>2019-06-16T08:25:04.000Z</time>
      </trkpt>
      <trkpt lat="46.54269" lon="-0.79572">
        <ele>167.76</ele>
        <time>2019-06-16T08:25:07.000Z</time>
      </trkpt>
      <trkpt lat="46.5426" lon="-0.7956">
        <ele>167.35</ele>
        <time>2019-06-16T08:25:11.000Z</time>
      </trkpt>
      <trkpt lat="46.54255" lon="-0.79543">
        <ele>167.11</ele>
        <time>2019-06-16T08:25:15.000Z</time>
      </trkpt>
      <trkpt lat="46.5425" lon="-0.79532">
        <ele>166.89</ele>
        <time>2019-06-16T08:25:18.000Z</time>
      </trkpt>
      <trkpt lat="46.54245" lon="-0.7952">
        <ele>166.69</ele>
        <time>2019-06-16T08:25:21.000Z</time>
      </trkpt>
      <trkpt lat="46.5424" lon="-0.79507">
        <ele>166.69</ele>
        <time>2019-06-16T08:25:24.000Z</time>
      </trkpt>
      <trkpt lat="46.54231" lon="-0.79494">
        <ele>166.98</ele>
        <time>2019-06-16T08:25:28.000Z</time>
      </trkpt>
      <trkpt lat="46.54221" lon="-0.79481">
        <ele>167.33</ele>
        <time>2019-06-16T08:25:32.000Z</time>
      </trkpt>
      <trkpt lat="46.54211" lon="-0.79476">
        <ele>167.42</ele>
        <time>2019-06-16T08:25:34.000Z</time>
      </trkpt>
      <trkpt lat="46.54202" lon="-0.79469">
        <ele>167.6</ele>
        <time>2019-06-16T08:25:37.000Z</time>
      </trkpt>
      <trkpt lat="46.54195" lon="-0.79455">
        <ele>167.31</ele>
        <time>2019-06-16T08:25:40.000Z</time>
      </trkpt>
      <trkpt lat="46.54184" lon="-0.79447">
        <ele>167.19</ele>
        <time>2019-06-16T08:25:43.000Z</time>
      </trkpt>
      <trkpt lat="46.54176" lon="-0.79436">
        <ele>167.19</ele>
        <time>2019-06-16T08:25:46.000Z</time>
      </trkpt>
      <trkpt lat="46.54166" lon="-0.79426">
        <ele>167.22</ele>
        <time>2019-06-16T08:25:49.000Z</time>
      </trkpt>
      <trkpt lat="46.54159" lon="-0.7941">
        <ele>168.32</ele>
        <time>2019-06-16T08:25:52.000Z</time>
      </trkpt>
      <trkpt lat="46.5415" lon="-0.79402">
        <ele>169.15</ele>
        <time>2019-06-16T08:25:54.000Z</time>
      </trkpt>
      <trkpt lat="46.54141" lon="-0.79399">
        <ele>170.9</ele>
        <time>2019-06-16T08:25:56.000Z</time>
      </trkpt>
      <trkpt lat="46.54131" lon="-0.79385">
        <ele>171.59</ele>
        <time>2019-06-16T08:25:58.000Z</time>
      </trkpt>
      <trkpt lat="46.5412" lon="-0.79373">
        <ele>171.1</ele>
        <time>2019-06-16T08:26:00.000Z</time>
      </trkpt>
      <trkpt lat="46.5411" lon="-0.79365">
        <ele>169.62</ele>
        <time>2019-06-16T08:26:02.000Z</time>
      </trkpt>
      <trkpt lat="46.54102" lon="-0.79353">
        <ele>167.51</ele>
        <time>2019-06-16T08:26:04.000Z</time>
      </trkpt>
      <trkpt lat="46.54092" lon="-0.79348">
        <ele>166.03</ele>
        <time>2019-06-16T08:26:06.000Z</time>
      </trkpt>
      <trkpt lat="46.54081" lon="-0.79334">
        <ele>165.37</ele>
        <time>2019-06-16T08:26:08.000Z</time>
      </trkpt>
      <trkpt lat="46.54073" lon="-0.79318">
        <ele>165.5</ele>
        <time>2019-06-16T08:26:10.000Z</time>
      </trkpt>
      <trkpt lat="46.54063" lon="-0.7931">
        <ele>165.28</ele>
        <time>2019-06-16T08:26:13.000Z</time>
      </trkpt>
      <trkpt lat="46.54055" lon="-0.79296">
        <ele>166.07</ele>
        <time>2019-06-16T08:26:15.000Z</time>
      </trkpt>
      <trkpt lat="46.54046" lon="-0.79281">
        <ele>165.75</ele>
        <time>2019-06-16T08:26:18.000Z</time>
      </trkpt>
      <trkpt lat="46.54034" lon="-0.79278">
        <ele>164.9</ele>
        <time>2019-06-16T08:26:20.000Z</time>
      </trkpt>
      <trkpt lat="46.54027" lon="-0.79262">
        <ele>164.49</ele>
        <time>2019-06-16T08:26:23.000Z</time>
      </trkpt>
      <trkpt lat="46.54018" lon="-0.7925">
        <ele>163.79</ele>
        <time>2019-06-16T08:26:25.000Z</time>
      </trkpt>
      <trkpt lat="46.54011" lon="-0.79234">
        <ele>164.44</ele>
        <time>2019-06-16T08:26:27.000Z</time>
      </trkpt>
      <trkpt lat="46.54004" lon="-0.7922">
        <ele>165.15</ele>
        <time>2019-06-16T08:26:29.000Z</time>
      </trkpt>
      <trkpt lat="46.53996" lon="-0.79208">
        <ele>164.74</ele>
        <time>2019-06-16T08:26:31.000Z</time>
      </trkpt>
      <trkpt lat="46.53987" lon="-0.79198">
        <ele>164.26</ele>
        <time>2019-06-16T08:26:33.000Z</time>
      </trkpt>
      <trkpt lat="46.53973" lon="-0.79192">
        <ele>163.41</ele>
        <time>2019-06-16T08:26:35.000Z</time>
      </trkpt>
      <trkpt lat="46.53964" lon="-0.79185">
        <ele>163</ele>
        <time>2019-06-16T08:26:37.000Z</time>
      </trkpt>
      <trkpt lat="46.53952" lon="-0.79176">
        <ele>162.51</ele>
        <time>2019-06-16T08:26:39.000Z</time>
      </trkpt>
      <trkpt lat="46.5394" lon="-0.79166">
        <ele>161.88</ele>
        <time>2019-06-16T08:26:41.000Z</time>
      </trkpt>
      <trkpt lat="46.53932" lon="-0.79156">
        <ele>161.08</ele>
        <time>2019-06-16T08:26:43.000Z</time>
      </trkpt>
      <trkpt lat="46.53919" lon="-0.79149">
        <ele>160.28</ele>
        <time>2019-06-16T08:26:45.000Z</time>
      </trkpt>
      <trkpt lat="46.5391" lon="-0.79141">
        <ele>159.25</ele>
        <time>2019-06-16T08:26:47.000Z</time>
      </trkpt>
      <trkpt lat="46.53902" lon="-0.79135">
        <ele>158.59</ele>
        <time>2019-06-16T08:26:49.000Z</time>
      </trkpt>
      <trkpt lat="46.53894" lon="-0.79122">
        <ele>158.3</ele>
        <time>2019-06-16T08:26:52.000Z</time>
      </trkpt>
      <trkpt lat="46.53894" lon="-0.79106">
        <ele>158.8</ele>
        <time>2019-06-16T08:26:55.000Z</time>
      </trkpt>
      <trkpt lat="46.53904" lon="-0.79096">
        <ele>159.51</ele>
        <time>2019-06-16T08:26:57.000Z</time>
      </trkpt>
      <trkpt lat="46.53914" lon="-0.79083">
        <ele>160.56</ele>
        <time>2019-06-16T08:26:59.000Z</time>
      </trkpt>
      <trkpt lat="46.53921" lon="-0.79065">
        <ele>161.83</ele>
        <time>2019-06-16T08:27:01.000Z</time>
      </trkpt>
      <trkpt lat="46.53931" lon="-0.7905">
        <ele>163.06</ele>
        <time>2019-06-16T08:27:03.000Z</time>
      </trkpt>
      <trkpt lat="46.53945" lon="-0.79039">
        <ele>163.79</ele>
        <time>2019-06-16T08:27:05.000Z</time>
      </trkpt>
      <trkpt lat="46.53958" lon="-0.79024">
        <ele>163.56</ele>
        <time>2019-06-16T08:27:07.000Z</time>
      </trkpt>
      <trkpt lat="46.53967" lon="-0.79003">
        <ele>163.93</ele>
        <time>2019-06-16T08:27:09.000Z</time>
      </trkpt>
      <trkpt lat="46.53977" lon="-0.78982">
        <ele>164.37</ele>
        <time>2019-06-16T08:27:11.000Z</time>
      </trkpt>
      <trkpt lat="46.53985" lon="-0.78961">
        <ele>164.66</ele>
        <time>2019-06-16T08:27:13.000Z</time>
      </trkpt>
      <trkpt lat="46.53989" lon="-0.78946">
        <ele>164.92</ele>
        <time>2019-06-16T08:27:15.000Z</time>
      </trkpt>
      <trkpt lat="46.53991" lon="-0.78931">
        <ele>164.86</ele>
        <time>2019-06-16T08:27:20.000Z</time>
      </trkpt>
      <trkpt lat="46.53994" lon="-0.78918">
        <ele>164.79</ele>
        <time>2019-06-16T08:27:23.000Z</time>
      </trkpt>
      <trkpt lat="46.53998" lon="-0.78903">
        <ele>164.62</ele>
        <time>2019-06-16T08:27:27.000Z</time>
      </trkpt>
      <trkpt lat="46.54004" lon="-0.7889">
        <ele>163.57</ele>
        <time>2019-06-16T08:27:30.000Z</time>
      </trkpt>
      <trkpt lat="46.54007" lon="-0.78877">
        <ele>161.69</ele>
        <time>2019-06-16T08:27:32.000Z</time>
      </trkpt>
      <trkpt lat="46.5401" lon="-0.78861">
        <ele>160.25</ele>
        <time>2019-06-16T08:27:34.000Z</time>
      </trkpt>
      <trkpt lat="46.54013" lon="-0.78847">
        <ele>158.88</ele>
        <time>2019-06-16T08:27:36.000Z</time>
      </trkpt>
      <trkpt lat="46.54018" lon="-0.78836">
        <ele>158.17</ele>
        <time>2019-06-16T08:27:38.000Z</time>
      </trkpt>
      <trkpt lat="46.54023" lon="-0.78821">
        <ele>157.57</ele>
        <time>2019-06-16T08:27:41.000Z</time>
      </trkpt>
      <trkpt lat="46.54031" lon="-0.78811">
        <ele>157.52</ele>
        <time>2019-06-16T08:27:43.000Z</time>
      </trkpt>
      <trkpt lat="46.54041" lon="-0.788">
        <ele>157.32</ele>
        <time>2019-06-16T08:27:45.000Z</time>
      </trkpt>
      <trkpt lat="46.54052" lon="-0.7879">
        <ele>156.71</ele>
        <time>2019-06-16T08:27:47.000Z</time>
      </trkpt>
      <trkpt lat="46.54062" lon="-0.78783">
        <ele>155.98</ele>
        <time>2019-06-16T08:27:49.000Z</time>
      </trkpt>
      <trkpt lat="46.54075" lon="-0.78775">
        <ele>155.53</ele>
        <time>2019-06-16T08:27:51.000Z</time>
      </trkpt>
      <trkpt lat="46.54086" lon="-0.78766">
        <ele>155.3</ele>
        <time>2019-06-16T08:27:54.000Z</time>
      </trkpt>
      <trkpt lat="46.54094" lon="-0.78759">
        <ele>155.18</ele>
        <time>2019-06-16T08:27:56.000Z</time>
      </trkpt>
      <trkpt lat="46.54102" lon="-0.78749">
        <ele>154.96</ele>
        <time>2019-06-16T08:27:58.000Z</time>
      </trkpt>
      <trkpt lat="46.5411" lon="-0.78739">
        <ele>154.7</ele>
        <time>2019-06-16T08:28:00.000Z</time>
      </trkpt>
      <trkpt lat="46.54119" lon="-0.78727">
        <ele>154.71</ele>
        <time>2019-06-16T08:28:02.000Z</time>
      </trkpt>
      <trkpt lat="46.54129" lon="-0.78714">
        <ele>154.56</ele>
        <time>2019-06-16T08:28:04.000Z</time>
      </trkpt>
      <trkpt lat="46.54139" lon="-0.78702">
        <ele>154.25</ele>
        <time>2019-06-16T08:28:06.000Z</time>
      </trkpt>
      <trkpt lat="46.54148" lon="-0.78696">
        <ele>153.82</ele>
        <time>2019-06-16T08:28:08.000Z</time>
      </trkpt>
      <trkpt lat="46.54159" lon="-0.78702">
        <ele>153.75</ele>
        <time>2019-06-16T08:28:10.000Z</time>
      </trkpt>
      <trkpt lat="46.54171" lon="-0.78708">
        <ele>153.26</ele>
        <time>2019-06-16T08:28:12.000Z</time>
      </trkpt>
      <trkpt lat="46.54183" lon="-0.7872">
        <ele>152.57</ele>
        <time>2019-06-16T08:28:14.000Z</time>
      </trkpt>
      <trkpt lat="46.54197" lon="-0.78724">
        <ele>151.2</ele>
        <time>2019-06-16T08:28:16.000Z</time>
      </trkpt>
      <trkpt lat="46.54209" lon="-0.78723">
        <ele>150.36</ele>
        <time>2019-06-16T08:28:18.000Z</time>
      </trkpt>
      <trkpt lat="46.54223" lon="-0.78721">
        <ele>149.56</ele>
        <time>2019-06-16T08:28:20.000Z</time>
      </trkpt>
      <trkpt lat="46.54238" lon="-0.78717">
        <ele>148.73</ele>
        <time>2019-06-16T08:28:22.000Z</time>
      </trkpt>
      <trkpt lat="46.54253" lon="-0.78715">
        <ele>147.9</ele>
        <time>2019-06-16T08:28:24.000Z</time>
      </trkpt>
      <trkpt lat="46.54269" lon="-0.78715">
        <ele>147.45</ele>
        <time>2019-06-16T08:28:26.000Z</time>
      </trkpt>
      <trkpt lat="46.54283" lon="-0.78713">
        <ele>147.23</ele>
        <time>2019-06-16T08:28:28.000Z</time>
      </trkpt>
      <trkpt lat="46.54297" lon="-0.78713">
        <ele>148.09</ele>
        <time>2019-06-16T08:28:30.000Z</time>
      </trkpt>
      <trkpt lat="46.54311" lon="-0.78709">
        <ele>149.08</ele>
        <time>2019-06-16T08:28:32.000Z</time>
      </trkpt>
      <trkpt lat="46.54323" lon="-0.787">
        <ele>148.83</ele>
        <time>2019-06-16T08:28:34.000Z</time>
      </trkpt>
      <trkpt lat="46.54337" lon="-0.7869">
        <ele>148.35</ele>
        <time>2019-06-16T08:28:36.000Z</time>
      </trkpt>
      <trkpt lat="46.54351" lon="-0.78681">
        <ele>146.78</ele>
        <time>2019-06-16T08:28:38.000Z</time>
      </trkpt>
      <trkpt lat="46.54366" lon="-0.78675">
        <ele>146.35</ele>
        <time>2019-06-16T08:28:40.000Z</time>
      </trkpt>
      <trkpt lat="46.54382" lon="-0.78671">
        <ele>146.36</ele>
        <time>2019-06-16T08:28:42.000Z</time>
      </trkpt>
      <trkpt lat="46.54395" lon="-0.78669">
        <ele>146.67</ele>
        <time>2019-06-16T08:28:44.000Z</time>
      </trkpt>
      <trkpt lat="46.54407" lon="-0.78664">
        <ele>146.62</ele>
        <time>2019-06-16T08:28:46.000Z</time>
      </trkpt>
      <trkpt lat="46.54419" lon="-0.78663">
        <ele>147.08</ele>
        <time>2019-06-16T08:28:49.000Z</time>
      </trkpt>
      <trkpt lat="46.5443" lon="-0.78665">
        <ele>146.89</ele>
        <time>2019-06-16T08:28:51.000Z</time>
      </trkpt>
      <trkpt lat="46.54442" lon="-0.78671">
        <ele>146.88</ele>
        <time>2019-06-16T08:28:53.000Z</time>
      </trkpt>
      <trkpt lat="46.54453" lon="-0.78675">
        <ele>146.93</ele>
        <time>2019-06-16T08:28:55.000Z</time>
      </trkpt>
      <trkpt lat="46.54464" lon="-0.78666">
        <ele>145.89</ele>
        <time>2019-06-16T08:28:58.000Z</time>
      </trkpt>
      <trkpt lat="46.54471" lon="-0.78654">
        <ele>144.33</ele>
        <time>2019-06-16T08:29:00.000Z</time>
      </trkpt>
      <trkpt lat="46.54481" lon="-0.78642">
        <ele>141.43</ele>
        <time>2019-06-16T08:29:02.000Z</time>
      </trkpt>
      <trkpt lat="46.54491" lon="-0.78628">
        <ele>139.73</ele>
        <time>2019-06-16T08:29:04.000Z</time>
      </trkpt>
      <trkpt lat="46.54496" lon="-0.78608">
        <ele>138.59</ele>
        <time>2019-06-16T08:29:06.000Z</time>
      </trkpt>
      <trkpt lat="46.54501" lon="-0.78588">
        <ele>137.41</ele>
        <time>2019-06-16T08:29:08.000Z</time>
      </trkpt>
      <trkpt lat="46.54508" lon="-0.78572">
        <ele>135.49</ele>
        <time>2019-06-16T08:29:10.000Z</time>
      </trkpt>
      <trkpt lat="46.54514" lon="-0.78551">
        <ele>133.63</ele>
        <time>2019-06-16T08:29:12.000Z</time>
      </trkpt>
      <trkpt lat="46.54519" lon="-0.78535">
        <ele>131.96</ele>
        <time>2019-06-16T08:29:14.000Z</time>
      </trkpt>
      <trkpt lat="46.54523" lon="-0.78523">
        <ele>131.16</ele>
        <time>2019-06-16T08:29:16.000Z</time>
      </trkpt>
      <trkpt lat="46.54528" lon="-0.78511">
        <ele>130.98</ele>
        <time>2019-06-16T08:29:19.000Z</time>
      </trkpt>
      <trkpt lat="46.54533" lon="-0.78499">
        <ele>130.13</ele>
        <time>2019-06-16T08:29:22.000Z</time>
      </trkpt>
      <trkpt lat="46.54538" lon="-0.78486">
        <ele>128.72</ele>
        <time>2019-06-16T08:29:24.000Z</time>
      </trkpt>
      <trkpt lat="46.54541" lon="-0.78469">
        <ele>128.53</ele>
        <time>2019-06-16T08:29:27.000Z</time>
      </trkpt>
      <trkpt lat="46.54545" lon="-0.7845">
        <ele>125.71</ele>
        <time>2019-06-16T08:29:30.000Z</time>
      </trkpt>
      <trkpt lat="46.54544" lon="-0.78434">
        <ele>124.14</ele>
        <time>2019-06-16T08:29:32.000Z</time>
      </trkpt>
      <trkpt lat="46.54544" lon="-0.7842">
        <ele>123.03</ele>
        <time>2019-06-16T08:29:34.000Z</time>
      </trkpt>
      <trkpt lat="46.54535" lon="-0.7842">
        <ele>121.46</ele>
        <time>2019-06-16T08:29:46.000Z</time>
      </trkpt>
      <trkpt lat="46.54525" lon="-0.78425">
        <ele>121.9</ele>
        <time>2019-06-16T08:29:55.000Z</time>
      </trkpt>
      <trkpt lat="46.54518" lon="-0.78434">
        <ele>122.98</ele>
        <time>2019-06-16T08:30:02.000Z</time>
      </trkpt>
      <trkpt lat="46.54512" lon="-0.78447">
        <ele>124.7</ele>
        <time>2019-06-16T08:30:11.000Z</time>
      </trkpt>
      <trkpt lat="46.54505" lon="-0.78457">
        <ele>126.44</ele>
        <time>2019-06-16T08:30:18.000Z</time>
      </trkpt>
      <trkpt lat="46.54503" lon="-0.78472">
        <ele>128.34</ele>
        <time>2019-06-16T08:30:25.000Z</time>
      </trkpt>
      <trkpt lat="46.54496" lon="-0.78482">
        <ele>129.24</ele>
        <time>2019-06-16T08:30:31.000Z</time>
      </trkpt>
      <trkpt lat="46.54488" lon="-0.78489">
        <ele>131.11</ele>
        <time>2019-06-16T08:30:40.000Z</time>
      </trkpt>
      <trkpt lat="46.54478" lon="-0.78498">
        <ele>132.88</ele>
        <time>2019-06-16T08:30:53.000Z</time>
      </trkpt>
      <trkpt lat="46.54467" lon="-0.78505">
        <ele>134.85</ele>
        <time>2019-06-16T08:31:02.000Z</time>
      </trkpt>
      <trkpt lat="46.54456" lon="-0.78507">
        <ele>136.36</ele>
        <time>2019-06-16T08:31:12.000Z</time>
      </trkpt>
      <trkpt lat="46.54445" lon="-0.78509">
        <ele>137.18</ele>
        <time>2019-06-16T08:31:21.000Z</time>
      </trkpt>
      <trkpt lat="46.54437" lon="-0.78517">
        <ele>137.17</ele>
        <time>2019-06-16T08:31:28.000Z</time>
      </trkpt>
      <trkpt lat="46.54428" lon="-0.78523">
        <ele>137.57</ele>
        <time>2019-06-16T08:31:34.000Z</time>
      </trkpt>
      <trkpt lat="46.54419" lon="-0.78527">
        <ele>138.27</ele>
        <time>2019-06-16T08:31:40.000Z</time>
      </trkpt>
      <trkpt lat="46.5441" lon="-0.78528">
        <ele>139.01</ele>
        <time>2019-06-16T08:31:45.000Z</time>
      </trkpt>
      <trkpt lat="46.54401" lon="-0.78526">
        <ele>139.55</ele>
        <time>2019-06-16T08:31:49.000Z</time>
      </trkpt>
      <trkpt lat="46.54392" lon="-0.78522">
        <ele>140.2</ele>
        <time>2019-06-16T08:31:53.000Z</time>
      </trkpt>
      <trkpt lat="46.54379" lon="-0.78518">
        <ele>140.64</ele>
        <time>2019-06-16T08:31:56.000Z</time>
      </trkpt>
      <trkpt lat="46.54369" lon="-0.78518">
        <ele>141.65</ele>
        <time>2019-06-16T08:32:02.000Z</time>
      </trkpt>
      <trkpt lat="46.54358" lon="-0.78515">
        <ele>142.5</ele>
        <time>2019-06-16T08:32:07.000Z</time>
      </trkpt>
      <trkpt lat="46.54348" lon="-0.78514">
        <ele>143.3</ele>
        <time>2019-06-16T08:32:11.000Z</time>
      </trkpt>
      <trkpt lat="46.54337" lon="-0.78511">
        <ele>144.48</ele>
        <time>2019-06-16T08:32:16.000Z</time>
      </trkpt>
      <trkpt lat="46.54327" lon="-0.78512">
        <ele>145.66</ele>
        <time>2019-06-16T08:32:21.000Z</time>
      </trkpt>
      <trkpt lat="46.54318" lon="-0.78512">
        <ele>146.34</ele>
        <time>2019-06-16T08:32:24.000Z</time>
      </trkpt>
      <trkpt lat="46.54309" lon="-0.78514">
        <ele>147.06</ele>
        <time>2019-06-16T08:32:28.000Z</time>
      </trkpt>
      <trkpt lat="46.54299" lon="-0.78513">
        <ele>147.6</ele>
        <time>2019-06-16T08:32:31.000Z</time>
      </trkpt>
      <trkpt lat="46.54288" lon="-0.78509">
        <ele>148.8</ele>
        <time>2019-06-16T08:32:36.000Z</time>
      </trkpt>
      <trkpt lat="46.54278" lon="-0.7851">
        <ele>149.18</ele>
        <time>2019-06-16T08:32:38.000Z</time>
      </trkpt>
      <trkpt lat="46.54266" lon="-0.78509">
        <ele>149.83</ele>
        <time>2019-06-16T08:32:42.000Z</time>
      </trkpt>
      <trkpt lat="46.54256" lon="-0.78507">
        <ele>150.37</ele>
        <time>2019-06-16T08:32:45.000Z</time>
      </trkpt>
      <trkpt lat="46.54246" lon="-0.78503">
        <ele>153.25</ele>
        <time>2019-06-16T08:32:47.000Z</time>
      </trkpt>
      <trkpt lat="46.54233" lon="-0.78498">
        <ele>154.07</ele>
        <time>2019-06-16T08:32:49.000Z</time>
      </trkpt>
      <trkpt lat="46.54223" lon="-0.78489">
        <ele>153.67</ele>
        <time>2019-06-16T08:32:51.000Z</time>
      </trkpt>
      <trkpt lat="46.54215" lon="-0.78483">
        <ele>153.45</ele>
        <time>2019-06-16T08:32:53.000Z</time>
      </trkpt>
      <trkpt lat="46.54206" lon="-0.78474">
        <ele>153.15</ele>
        <time>2019-06-16T08:32:55.000Z</time>
      </trkpt>
      <trkpt lat="46.54197" lon="-0.78461">
        <ele>153.42</ele>
        <time>2019-06-16T08:32:57.000Z</time>
      </trkpt>
      <trkpt lat="46.54189" lon="-0.78454">
        <ele>152.62</ele>
        <time>2019-06-16T08:32:59.000Z</time>
      </trkpt>
      <trkpt lat="46.5418" lon="-0.78445">
        <ele>151.81</ele>
        <time>2019-06-16T08:33:01.000Z</time>
      </trkpt>
      <trkpt lat="46.5417" lon="-0.7844">
        <ele>151.98</ele>
        <time>2019-06-16T08:33:03.000Z</time>
      </trkpt>
      <trkpt lat="46.54156" lon="-0.78435">
        <ele>152.86</ele>
        <time>2019-06-16T08:33:05.000Z</time>
      </trkpt>
      <trkpt lat="46.54146" lon="-0.78435">
        <ele>153</ele>
        <time>2019-06-16T08:33:07.000Z</time>
      </trkpt>
      <trkpt lat="46.54135" lon="-0.7843">
        <ele>152.95</ele>
        <time>2019-06-16T08:33:09.000Z</time>
      </trkpt>
      <trkpt lat="46.54127" lon="-0.78421">
        <ele>153.72</ele>
        <time>2019-06-16T08:33:11.000Z</time>
      </trkpt>
      <trkpt lat="46.5412" lon="-0.78403">
        <ele>154.1</ele>
        <time>2019-06-16T08:33:14.000Z</time>
      </trkpt>
      <trkpt lat="46.54119" lon="-0.78387">
        <ele>153.67</ele>
        <time>2019-06-16T08:33:16.000Z</time>
      </trkpt>
      <trkpt lat="46.54112" lon="-0.78372">
        <ele>152.8</ele>
        <time>2019-06-16T08:33:18.000Z</time>
      </trkpt>
      <trkpt lat="46.54106" lon="-0.78356">
        <ele>152.7</ele>
        <time>2019-06-16T08:33:20.000Z</time>
      </trkpt>
      <trkpt lat="46.54103" lon="-0.78343">
        <ele>152.67</ele>
        <time>2019-06-16T08:33:22.000Z</time>
      </trkpt>
      <trkpt lat="46.541" lon="-0.7833">
        <ele>152.03</ele>
        <time>2019-06-16T08:33:24.000Z</time>
      </trkpt>
      <trkpt lat="46.54091" lon="-0.78334">
        <ele>151.75</ele>
        <time>2019-06-16T08:33:28.000Z</time>
      </trkpt>
      <trkpt lat="46.54082" lon="-0.78342">
        <ele>151.56</ele>
        <time>2019-06-16T08:33:31.000Z</time>
      </trkpt>
      <trkpt lat="46.54074" lon="-0.78348">
        <ele>151.48</ele>
        <time>2019-06-16T08:33:34.000Z</time>
      </trkpt>
      <trkpt lat="46.54069" lon="-0.78369">
        <ele>151.69</ele>
        <time>2019-06-16T08:33:37.000Z</time>
      </trkpt>
      <trkpt lat="46.54067" lon="-0.78383">
        <ele>153.11</ele>
        <time>2019-06-16T08:33:39.000Z</time>
      </trkpt>
      <trkpt lat="46.54065" lon="-0.78396">
        <ele>154.07</ele>
        <time>2019-06-16T08:33:41.000Z</time>
      </trkpt>
      <trkpt lat="46.54056" lon="-0.78405">
        <ele>154.7</ele>
        <time>2019-06-16T08:33:44.000Z</time>
      </trkpt>
      <trkpt lat="46.54047" lon="-0.78418">
        <ele>154.79</ele>
        <time>2019-06-16T08:33:47.000Z</time>
      </trkpt>
      <trkpt lat="46.54038" lon="-0.78427">
        <ele>155</ele>
        <time>2019-06-16T08:33:50.000Z</time>
      </trkpt>
      <trkpt lat="46.5403" lon="-0.78439">
        <ele>155.31</ele>
        <time>2019-06-16T08:33:53.000Z</time>
      </trkpt>
      <trkpt lat="46.54023" lon="-0.78447">
        <ele>157.39</ele>
        <time>2019-06-16T08:33:55.000Z</time>
      </trkpt>
      <trkpt lat="46.54015" lon="-0.78453">
        <ele>158.44</ele>
        <time>2019-06-16T08:33:57.000Z</time>
      </trkpt>
      <trkpt lat="46.54007" lon="-0.78459">
        <ele>159.1</ele>
        <time>2019-06-16T08:33:59.000Z</time>
      </trkpt>
      <trkpt lat="46.53999" lon="-0.78465">
        <ele>159.39</ele>
        <time>2019-06-16T08:34:01.000Z</time>
      </trkpt>
      <trkpt lat="46.53986" lon="-0.78473">
        <ele>157.63</ele>
        <time>2019-06-16T08:34:04.000Z</time>
      </trkpt>
      <trkpt lat="46.53978" lon="-0.7848">
        <ele>155.74</ele>
        <time>2019-06-16T08:34:06.000Z</time>
      </trkpt>
      <trkpt lat="46.53968" lon="-0.7849">
        <ele>155.6</ele>
        <time>2019-06-16T08:34:09.000Z</time>
      </trkpt>
      <trkpt lat="46.53958" lon="-0.78496">
        <ele>155.56</ele>
        <time>2019-06-16T08:34:12.000Z</time>
      </trkpt>
      <trkpt lat="46.53948" lon="-0.78503">
        <ele>155.63</ele>
        <time>2019-06-16T08:34:15.000Z</time>
      </trkpt>
      <trkpt lat="46.53937" lon="-0.78505">
        <ele>155.68</ele>
        <time>2019-06-16T08:34:18.000Z</time>
      </trkpt>
      <trkpt lat="46.53927" lon="-0.78509">
        <ele>155.71</ele>
        <time>2019-06-16T08:34:21.000Z</time>
      </trkpt>
      <trkpt lat="46.53916" lon="-0.78512">
        <ele>155.58</ele>
        <time>2019-06-16T08:34:24.000Z</time>
      </trkpt>
      <trkpt lat="46.53906" lon="-0.78516">
        <ele>154.97</ele>
        <time>2019-06-16T08:34:27.000Z</time>
      </trkpt>
      <trkpt lat="46.53896" lon="-0.7852">
        <ele>154.88</ele>
        <time>2019-06-16T08:34:30.000Z</time>
      </trkpt>
      <trkpt lat="46.53886" lon="-0.78524">
        <ele>154.76</ele>
        <time>2019-06-16T08:34:34.000Z</time>
      </trkpt>
      <trkpt lat="46.53875" lon="-0.78527">
        <ele>154.73</ele>
        <time>2019-06-16T08:34:37.000Z</time>
      </trkpt>
      <trkpt lat="46.53864" lon="-0.78527">
        <ele>153.89</ele>
        <time>2019-06-16T08:34:39.000Z</time>
      </trkpt>
      <trkpt lat="46.53853" lon="-0.78525">
        <ele>152.5</ele>
        <time>2019-06-16T08:34:41.000Z</time>
      </trkpt>
      <trkpt lat="46.53839" lon="-0.78524">
        <ele>151.77</ele>
        <time>2019-06-16T08:34:43.000Z</time>
      </trkpt>
      <trkpt lat="46.53828" lon="-0.78519">
        <ele>150.78</ele>
        <time>2019-06-16T08:34:45.000Z</time>
      </trkpt>
      <trkpt lat="46.53818" lon="-0.78508">
        <ele>150.92</ele>
        <time>2019-06-16T08:34:47.000Z</time>
      </trkpt>
      <trkpt lat="46.53808" lon="-0.78496">
        <ele>151.5</ele>
        <time>2019-06-16T08:34:49.000Z</time>
      </trkpt>
      <trkpt lat="46.53799" lon="-0.78485">
        <ele>152.05</ele>
        <time>2019-06-16T08:34:51.000Z</time>
      </trkpt>
      <trkpt lat="46.53792" lon="-0.78473">
        <ele>152.54</ele>
        <time>2019-06-16T08:34:53.000Z</time>
      </trkpt>
      <trkpt lat="46.53783" lon="-0.78463">
        <ele>152.81</ele>
        <time>2019-06-16T08:34:55.000Z</time>
      </trkpt>
      <trkpt lat="46.53771" lon="-0.78454">
        <ele>153.11</ele>
        <time>2019-06-16T08:34:58.000Z</time>
      </trkpt>
      <trkpt lat="46.53758" lon="-0.78451">
        <ele>153.15</ele>
        <time>2019-06-16T08:35:00.000Z</time>
      </trkpt>
      <trkpt lat="46.53748" lon="-0.78447">
        <ele>152.26</ele>
        <time>2019-06-16T08:35:02.000Z</time>
      </trkpt>
      <trkpt lat="46.53738" lon="-0.78435">
        <ele>150.84</ele>
        <time>2019-06-16T08:35:05.000Z</time>
      </trkpt>
      <trkpt lat="46.53733" lon="-0.78418">
        <ele>150.53</ele>
        <time>2019-06-16T08:35:07.000Z</time>
      </trkpt>
      <trkpt lat="46.53732" lon="-0.78403">
        <ele>150.96</ele>
        <time>2019-06-16T08:35:09.000Z</time>
      </trkpt>
      <trkpt lat="46.53729" lon="-0.78388">
        <ele>151.08</ele>
        <time>2019-06-16T08:35:11.000Z</time>
      </trkpt>
      <trkpt lat="46.53725" lon="-0.78372">
        <ele>151.08</ele>
        <time>2019-06-16T08:35:13.000Z</time>
      </trkpt>
      <trkpt lat="46.53724" lon="-0.78358">
        <ele>151.3</ele>
        <time>2019-06-16T08:35:15.000Z</time>
      </trkpt>
      <trkpt lat="46.53714" lon="-0.78355">
        <ele>151.13</ele>
        <time>2019-06-16T08:35:18.000Z</time>
      </trkpt>
      <trkpt lat="46.53703" lon="-0.78356">
        <ele>151.37</ele>
        <time>2019-06-16T08:35:20.000Z</time>
      </trkpt>
      <trkpt lat="46.53691" lon="-0.78359">
        <ele>151.96</ele>
        <time>2019-06-16T08:35:22.000Z</time>
      </trkpt>
      <trkpt lat="46.53679" lon="-0.78363">
        <ele>153.45</ele>
        <time>2019-06-16T08:35:24.000Z</time>
      </trkpt>
      <trkpt lat="46.53667" lon="-0.78368">
        <ele>154.9</ele>
        <time>2019-06-16T08:35:26.000Z</time>
      </trkpt>
      <trkpt lat="46.53656" lon="-0.78372">
        <ele>155.65</ele>
        <time>2019-06-16T08:35:28.000Z</time>
      </trkpt>
      <trkpt lat="46.53643" lon="-0.78376">
        <ele>156.05</ele>
        <time>2019-06-16T08:35:30.000Z</time>
      </trkpt>
      <trkpt lat="46.53631" lon="-0.78383">
        <ele>156.02</ele>
        <time>2019-06-16T08:35:32.000Z</time>
      </trkpt>
      <trkpt lat="46.53621" lon="-0.78389">
        <ele>155.2</ele>
        <time>2019-06-16T08:35:34.000Z</time>
      </trkpt>
      <trkpt lat="46.5361" lon="-0.78391">
        <ele>153.59</ele>
        <time>2019-06-16T08:35:36.000Z</time>
      </trkpt>
      <trkpt lat="46.536" lon="-0.78392">
        <ele>153.44</ele>
        <time>2019-06-16T08:35:39.000Z</time>
      </trkpt>
      <trkpt lat="46.53597" lon="-0.78369">
        <ele>152.96</ele>
        <time>2019-06-16T08:35:43.000Z</time>
      </trkpt>
      <trkpt lat="46.53601" lon="-0.78354">
        <ele>152.63</ele>
        <time>2019-06-16T08:35:46.000Z</time>
      </trkpt>
      <trkpt lat="46.53613" lon="-0.78352">
        <ele>152.64</ele>
        <time>2019-06-16T08:35:49.000Z</time>
      </trkpt>
      <trkpt lat="46.53622" lon="-0.78351">
        <ele>153.53</ele>
        <time>2019-06-16T08:35:51.000Z</time>
      </trkpt>
      <trkpt lat="46.53633" lon="-0.78347">
        <ele>154.1</ele>
        <time>2019-06-16T08:35:53.000Z</time>
      </trkpt>
      <trkpt lat="46.53639" lon="-0.78335">
        <ele>154.49</ele>
        <time>2019-06-16T08:35:56.000Z</time>
      </trkpt>
      <trkpt lat="46.53639" lon="-0.78318">
        <ele>154.94</ele>
        <time>2019-06-16T08:35:59.000Z</time>
      </trkpt>
      <trkpt lat="46.53634" lon="-0.78304">
        <ele>155.07</ele>
        <time>2019-06-16T08:36:03.000Z</time>
      </trkpt>
      <trkpt lat="46.53637" lon="-0.78287">
        <ele>155.2</ele>
        <time>2019-06-16T08:36:10.000Z</time>
      </trkpt>
      <trkpt lat="46.53642" lon="-0.78269">
        <ele>155.91</ele>
        <time>2019-06-16T08:36:12.000Z</time>
      </trkpt>
      <trkpt lat="46.53647" lon="-0.78252">
        <ele>156.04</ele>
        <time>2019-06-16T08:36:14.000Z</time>
      </trkpt>
      <trkpt lat="46.53651" lon="-0.78231">
        <ele>155.27</ele>
        <time>2019-06-16T08:36:16.000Z</time>
      </trkpt>
      <trkpt lat="46.53653" lon="-0.78218">
        <ele>155.14</ele>
        <time>2019-06-16T08:36:17.000Z</time>
      </trkpt>
      <trkpt lat="46.53653" lon="-0.78193">
        <ele>153.77</ele>
        <time>2019-06-16T08:36:19.000Z</time>
      </trkpt>
      <trkpt lat="46.53651" lon="-0.7817">
        <ele>151.16</ele>
        <time>2019-06-16T08:36:21.000Z</time>
      </trkpt>
      <trkpt lat="46.53653" lon="-0.78148">
        <ele>148.72</ele>
        <time>2019-06-16T08:36:23.000Z</time>
      </trkpt>
      <trkpt lat="46.53653" lon="-0.78129">
        <ele>146.99</ele>
        <time>2019-06-16T08:36:25.000Z</time>
      </trkpt>
      <trkpt lat="46.53647" lon="-0.78114">
        <ele>144.73</ele>
        <time>2019-06-16T08:36:27.000Z</time>
      </trkpt>
      <trkpt lat="46.53642" lon="-0.78092">
        <ele>142.71</ele>
        <time>2019-06-16T08:36:29.000Z</time>
      </trkpt>
      <trkpt lat="46.5364" lon="-0.78079">
        <ele>141.4</ele>
        <time>2019-06-16T08:36:30.000Z</time>
      </trkpt>
      <trkpt lat="46.53642" lon="-0.78057">
        <ele>138.55</ele>
        <time>2019-06-16T08:36:32.000Z</time>
      </trkpt>
      <trkpt lat="46.53643" lon="-0.78035">
        <ele>135.89</ele>
        <time>2019-06-16T08:36:34.000Z</time>
      </trkpt>
      <trkpt lat="46.53643" lon="-0.78016">
        <ele>133.65</ele>
        <time>2019-06-16T08:36:36.000Z</time>
      </trkpt>
      <trkpt lat="46.53642" lon="-0.77995">
        <ele>131.25</ele>
        <time>2019-06-16T08:36:38.000Z</time>
      </trkpt>
      <trkpt lat="46.53639" lon="-0.77979">
        <ele>129.33</ele>
        <time>2019-06-16T08:36:40.000Z</time>
      </trkpt>
      <trkpt lat="46.53641" lon="-0.77966">
        <ele>127.06</ele>
        <time>2019-06-16T08:36:42.000Z</time>
      </trkpt>
      <trkpt lat="46.53643" lon="-0.77953">
        <ele>125.02</ele>
        <time>2019-06-16T08:36:44.000Z</time>
      </trkpt>
      <trkpt lat="46.53648" lon="-0.77938">
        <ele>122.15</ele>
        <time>2019-06-16T08:36:47.000Z</time>
      </trkpt>
      <trkpt lat="46.53655" lon="-0.77924">
        <ele>117.52</ele>
        <time>2019-06-16T08:36:50.000Z</time>
      </trkpt>
      <trkpt lat="46.53663" lon="-0.77909">
        <ele>113.3</ele>
        <time>2019-06-16T08:36:53.000Z</time>
      </trkpt>
      <trkpt lat="46.53669" lon="-0.77893">
        <ele>110.63</ele>
        <time>2019-06-16T08:36:55.000Z</time>
      </trkpt>
      <trkpt lat="46.53674" lon="-0.77876">
        <ele>108.17</ele>
        <time>2019-06-16T08:36:57.000Z</time>
      </trkpt>
      <trkpt lat="46.53678" lon="-0.77858">
        <ele>104.59</ele>
        <time>2019-06-16T08:36:59.000Z</time>
      </trkpt>
      <trkpt lat="46.53679" lon="-0.77842">
        <ele>100.98</ele>
        <time>2019-06-16T08:37:01.000Z</time>
      </trkpt>
      <trkpt lat="46.53682" lon="-0.77824">
        <ele>97.35</ele>
        <time>2019-06-16T08:37:03.000Z</time>
      </trkpt>
      <trkpt lat="46.53678" lon="-0.77805">
        <ele>92.29</ele>
        <time>2019-06-16T08:37:06.000Z</time>
      </trkpt>
      <trkpt lat="46.53676" lon="-0.77789">
        <ele>89.01</ele>
        <time>2019-06-16T08:37:08.000Z</time>
      </trkpt>
      <trkpt lat="46.53669" lon="-0.77772">
        <ele>87.94</ele>
        <time>2019-06-16T08:37:11.000Z</time>
      </trkpt>
      <trkpt lat="46.5366" lon="-0.77759">
        <ele>87.08</ele>
        <time>2019-06-16T08:37:14.000Z</time>
      </trkpt>
      <trkpt lat="46.53651" lon="-0.77746">
        <ele>87.1</ele>
        <time>2019-06-16T08:37:17.000Z</time>
      </trkpt>
      <trkpt lat="46.53642" lon="-0.77736">
        <ele>87.5</ele>
        <time>2019-06-16T08:37:20.000Z</time>
      </trkpt>
      <trkpt lat="46.53632" lon="-0.77728">
        <ele>90.27</ele>
        <time>2019-06-16T08:37:22.000Z</time>
      </trkpt>
      <trkpt lat="46.53621" lon="-0.77713">
        <ele>90.89</ele>
        <time>2019-06-16T08:37:25.000Z</time>
      </trkpt>
      <trkpt lat="46.53608" lon="-0.77703">
        <ele>92.48</ele>
        <time>2019-06-16T08:37:27.000Z</time>
      </trkpt>
      <trkpt lat="46.53598" lon="-0.77698">
        <ele>93.09</ele>
        <time>2019-06-16T08:37:29.000Z</time>
      </trkpt>
      <trkpt lat="46.53585" lon="-0.77696">
        <ele>93.37</ele>
        <time>2019-06-16T08:37:32.000Z</time>
      </trkpt>
      <trkpt lat="46.53574" lon="-0.77697">
        <ele>94.53</ele>
        <time>2019-06-16T08:37:35.000Z</time>
      </trkpt>
      <trkpt lat="46.53561" lon="-0.77692">
        <ele>95.2</ele>
        <time>2019-06-16T08:37:38.000Z</time>
      </trkpt>
      <trkpt lat="46.5355" lon="-0.77688">
        <ele>95.25</ele>
        <time>2019-06-16T08:37:41.000Z</time>
      </trkpt>
      <trkpt lat="46.5354" lon="-0.77682">
        <ele>95.62</ele>
        <time>2019-06-16T08:37:44.000Z</time>
      </trkpt>
      <trkpt lat="46.53529" lon="-0.77672">
        <ele>96</ele>
        <time>2019-06-16T08:37:47.000Z</time>
      </trkpt>
      <trkpt lat="46.53521" lon="-0.7766">
        <ele>96.92</ele>
        <time>2019-06-16T08:37:50.000Z</time>
      </trkpt>
      <trkpt lat="46.53513" lon="-0.77647">
        <ele>97.95</ele>
        <time>2019-06-16T08:37:53.000Z</time>
      </trkpt>
      <trkpt lat="46.53505" lon="-0.7764">
        <ele>98.11</ele>
        <time>2019-06-16T08:37:55.000Z</time>
      </trkpt>
      <trkpt lat="46.53496" lon="-0.7763">
        <ele>98.54</ele>
        <time>2019-06-16T08:37:57.000Z</time>
      </trkpt>
      <trkpt lat="46.53489" lon="-0.77616">
        <ele>98.86</ele>
        <time>2019-06-16T08:37:59.000Z</time>
      </trkpt>
      <trkpt lat="46.5348" lon="-0.77604">
        <ele>98.41</ele>
        <time>2019-06-16T08:38:01.000Z</time>
      </trkpt>
      <trkpt lat="46.53473" lon="-0.77595">
        <ele>97.31</ele>
        <time>2019-06-16T08:38:03.000Z</time>
      </trkpt>
      <trkpt lat="46.53465" lon="-0.77585">
        <ele>96.29</ele>
        <time>2019-06-16T08:38:05.000Z</time>
      </trkpt>
      <trkpt lat="46.53458" lon="-0.77575">
        <ele>95.9</ele>
        <time>2019-06-16T08:38:07.000Z</time>
      </trkpt>
      <trkpt lat="46.5345" lon="-0.77566">
        <ele>95.76</ele>
        <time>2019-06-16T08:38:09.000Z</time>
      </trkpt>
      <trkpt lat="46.53443" lon="-0.77556">
        <ele>95.64</ele>
        <time>2019-06-16T08:38:11.000Z</time>
      </trkpt>
      <trkpt lat="46.53437" lon="-0.77546">
        <ele>95.28</ele>
        <time>2019-06-16T08:38:13.000Z</time>
      </trkpt>
      <trkpt lat="46.53427" lon="-0.77534">
        <ele>94.29</ele>
        <time>2019-06-16T08:38:16.000Z</time>
      </trkpt>
      <trkpt lat="46.53419" lon="-0.77523">
        <ele>93.6</ele>
        <time>2019-06-16T08:38:18.000Z</time>
      </trkpt>
      <trkpt lat="46.53411" lon="-0.7751">
        <ele>92.86</ele>
        <time>2019-06-16T08:38:20.000Z</time>
      </trkpt>
      <trkpt lat="46.53404" lon="-0.77495">
        <ele>92.11</ele>
        <time>2019-06-16T08:38:22.000Z</time>
      </trkpt>
      <trkpt lat="46.53399" lon="-0.77479">
        <ele>91.3</ele>
        <time>2019-06-16T08:38:24.000Z</time>
      </trkpt>
      <trkpt lat="46.53391" lon="-0.77464">
        <ele>90.57</ele>
        <time>2019-06-16T08:38:26.000Z</time>
      </trkpt>
      <trkpt lat="46.53382" lon="-0.77451">
        <ele>89.6</ele>
        <time>2019-06-16T08:38:28.000Z</time>
      </trkpt>
      <trkpt lat="46.53375" lon="-0.7744">
        <ele>88.74</ele>
        <time>2019-06-16T08:38:30.000Z</time>
      </trkpt>
      <trkpt lat="46.5337" lon="-0.7743">
        <ele>88.42</ele>
        <time>2019-06-16T08:38:32.000Z</time>
      </trkpt>
      <trkpt lat="46.53363" lon="-0.77418">
        <ele>88.36</ele>
        <time>2019-06-16T08:38:36.000Z</time>
      </trkpt>
      <trkpt lat="46.53356" lon="-0.77408">
        <ele>88.85</ele>
        <time>2019-06-16T08:38:42.000Z</time>
      </trkpt>
      <trkpt lat="46.5336" lon="-0.77393">
        <ele>89.48</ele>
        <time>2019-06-16T08:38:49.000Z</time>
      </trkpt>
      <trkpt lat="46.53367" lon="-0.77383">
        <ele>90.04</ele>
        <time>2019-06-16T08:38:54.000Z</time>
      </trkpt>
      <trkpt lat="46.53377" lon="-0.77376">
        <ele>90.7</ele>
        <time>2019-06-16T08:38:58.000Z</time>
      </trkpt>
      <trkpt lat="46.53388" lon="-0.77374">
        <ele>91.26</ele>
        <time>2019-06-16T08:39:01.000Z</time>
      </trkpt>
      <trkpt lat="46.53397" lon="-0.77379">
        <ele>91.94</ele>
        <time>2019-06-16T08:39:04.000Z</time>
      </trkpt>
      <trkpt lat="46.53406" lon="-0.77385">
        <ele>92.51</ele>
        <time>2019-06-16T08:39:07.000Z</time>
      </trkpt>
      <trkpt lat="46.53414" lon="-0.77392">
        <ele>92.99</ele>
        <time>2019-06-16T08:39:10.000Z</time>
      </trkpt>
      <trkpt lat="46.53423" lon="-0.774">
        <ele>93.38</ele>
        <time>2019-06-16T08:39:14.000Z</time>
      </trkpt>
      <trkpt lat="46.53433" lon="-0.7741">
        <ele>93.53</ele>
        <time>2019-06-16T08:39:18.000Z</time>
      </trkpt>
      <trkpt lat="46.53441" lon="-0.77419">
        <ele>93.47</ele>
        <time>2019-06-16T08:39:21.000Z</time>
      </trkpt>
      <trkpt lat="46.53446" lon="-0.77431">
        <ele>93.35</ele>
        <time>2019-06-16T08:39:24.000Z</time>
      </trkpt>
      <trkpt lat="46.53453" lon="-0.77445">
        <ele>93.21</ele>
        <time>2019-06-16T08:39:27.000Z</time>
      </trkpt>
      <trkpt lat="46.53461" lon="-0.77455">
        <ele>93.07</ele>
        <time>2019-06-16T08:39:30.000Z</time>
      </trkpt>
      <trkpt lat="46.5347" lon="-0.77467">
        <ele>93.09</ele>
        <time>2019-06-16T08:39:34.000Z</time>
      </trkpt>
      <trkpt lat="46.53478" lon="-0.77475">
        <ele>93.28</ele>
        <time>2019-06-16T08:39:37.000Z</time>
      </trkpt>
      <trkpt lat="46.53488" lon="-0.77485">
        <ele>93.52</ele>
        <time>2019-06-16T08:39:40.000Z</time>
      </trkpt>
      <trkpt lat="46.53498" lon="-0.77494">
        <ele>94.01</ele>
        <time>2019-06-16T08:39:44.000Z</time>
      </trkpt>
      <trkpt lat="46.53506" lon="-0.77502">
        <ele>94.57</ele>
        <time>2019-06-16T08:39:47.000Z</time>
      </trkpt>
      <trkpt lat="46.53516" lon="-0.7751">
        <ele>95.57</ele>
        <time>2019-06-16T08:39:51.000Z</time>
      </trkpt>
      <trkpt lat="46.53526" lon="-0.77513">
        <ele>97.07</ele>
        <time>2019-06-16T08:39:55.000Z</time>
      </trkpt>
      <trkpt lat="46.53536" lon="-0.77511">
        <ele>99.08</ele>
        <time>2019-06-16T08:39:59.000Z</time>
      </trkpt>
      <trkpt lat="46.53544" lon="-0.77506">
        <ele>100.77</ele>
        <time>2019-06-16T08:40:02.000Z</time>
      </trkpt>
      <trkpt lat="46.53555" lon="-0.77499">
        <ele>103.2</ele>
        <time>2019-06-16T08:40:06.000Z</time>
      </trkpt>
      <trkpt lat="46.53565" lon="-0.77489">
        <ele>106.4</ele>
        <time>2019-06-16T08:40:11.000Z</time>
      </trkpt>
      <trkpt lat="46.53571" lon="-0.77479">
        <ele>107.66</ele>
        <time>2019-06-16T08:40:13.000Z</time>
      </trkpt>
      <trkpt lat="46.53577" lon="-0.77465">
        <ele>108.76</ele>
        <time>2019-06-16T08:40:15.000Z</time>
      </trkpt>
      <trkpt lat="46.53581" lon="-0.7745">
        <ele>109.66</ele>
        <time>2019-06-16T08:40:17.000Z</time>
      </trkpt>
      <trkpt lat="46.53583" lon="-0.77435">
        <ele>110.45</ele>
        <time>2019-06-16T08:40:19.000Z</time>
      </trkpt>
      <trkpt lat="46.53585" lon="-0.77417">
        <ele>111.42</ele>
        <time>2019-06-16T08:40:22.000Z</time>
      </trkpt>
      <trkpt lat="46.53586" lon="-0.77401">
        <ele>112.53</ele>
        <time>2019-06-16T08:40:26.000Z</time>
      </trkpt>
      <trkpt lat="46.53591" lon="-0.77388">
        <ele>113.9</ele>
        <time>2019-06-16T08:40:33.000Z</time>
      </trkpt>
      <trkpt lat="46.53598" lon="-0.77377">
        <ele>115.14</ele>
        <time>2019-06-16T08:40:39.000Z</time>
      </trkpt>
      <trkpt lat="46.5361" lon="-0.77372">
        <ele>116.48</ele>
        <time>2019-06-16T08:40:44.000Z</time>
      </trkpt>
      <trkpt lat="46.5362" lon="-0.77373">
        <ele>117.67</ele>
        <time>2019-06-16T08:40:48.000Z</time>
      </trkpt>
      <trkpt lat="46.5363" lon="-0.77378">
        <ele>118.76</ele>
        <time>2019-06-16T08:40:52.000Z</time>
      </trkpt>
      <trkpt lat="46.5364" lon="-0.77374">
        <ele>120.01</ele>
        <time>2019-06-16T08:40:57.000Z</time>
      </trkpt>
      <trkpt lat="46.53649" lon="-0.77367">
        <ele>121.22</ele>
        <time>2019-06-16T08:41:01.000Z</time>
      </trkpt>
      <trkpt lat="46.53658" lon="-0.77359">
        <ele>123.03</ele>
        <time>2019-06-16T08:41:06.000Z</time>
      </trkpt>
      <trkpt lat="46.53666" lon="-0.77348">
        <ele>124.92</ele>
        <time>2019-06-16T08:41:11.000Z</time>
      </trkpt>
      <trkpt lat="46.53672" lon="-0.77333">
        <ele>126.21</ele>
        <time>2019-06-16T08:41:15.000Z</time>
      </trkpt>
      <trkpt lat="46.53675" lon="-0.77313">
        <ele>126.79</ele>
        <time>2019-06-16T08:41:18.000Z</time>
      </trkpt>
      <trkpt lat="46.53671" lon="-0.77299">
        <ele>127.26</ele>
        <time>2019-06-16T08:41:23.000Z</time>
      </trkpt>
      <trkpt lat="46.53664" lon="-0.77288">
        <ele>127.24</ele>
        <time>2019-06-16T08:41:27.000Z</time>
      </trkpt>
      <trkpt lat="46.53658" lon="-0.77279">
        <ele>126.89</ele>
        <time>2019-06-16T08:41:32.000Z</time>
      </trkpt>
      <trkpt lat="46.53663" lon="-0.77267">
        <ele>126.56</ele>
        <time>2019-06-16T08:41:46.000Z</time>
      </trkpt>
      <trkpt lat="46.53672" lon="-0.77256">
        <ele>127.8</ele>
        <time>2019-06-16T08:41:54.000Z</time>
      </trkpt>
      <trkpt lat="46.53681" lon="-0.77255">
        <ele>128.89</ele>
        <time>2019-06-16T08:41:59.000Z</time>
      </trkpt>
      <trkpt lat="46.5369" lon="-0.77258">
        <ele>130.65</ele>
        <time>2019-06-16T08:42:05.000Z</time>
      </trkpt>
      <trkpt lat="46.537" lon="-0.77258">
        <ele>132.54</ele>
        <time>2019-06-16T08:42:10.000Z</time>
      </trkpt>
      <trkpt lat="46.5371" lon="-0.7726">
        <ele>134.12</ele>
        <time>2019-06-16T08:42:14.000Z</time>
      </trkpt>
      <trkpt lat="46.5372" lon="-0.7726">
        <ele>136.33</ele>
        <time>2019-06-16T08:42:20.000Z</time>
      </trkpt>
      <trkpt lat="46.53731" lon="-0.77264">
        <ele>138.16</ele>
        <time>2019-06-16T08:42:25.000Z</time>
      </trkpt>
      <trkpt lat="46.53741" lon="-0.77268">
        <ele>140.09</ele>
        <time>2019-06-16T08:42:30.000Z</time>
      </trkpt>
      <trkpt lat="46.5375" lon="-0.77271">
        <ele>141.72</ele>
        <time>2019-06-16T08:42:34.000Z</time>
      </trkpt>
      <trkpt lat="46.53761" lon="-0.77275">
        <ele>143.33</ele>
        <time>2019-06-16T08:42:38.000Z</time>
      </trkpt>
      <trkpt lat="46.53772" lon="-0.77278">
        <ele>144.86</ele>
        <time>2019-06-16T08:42:42.000Z</time>
      </trkpt>
      <trkpt lat="46.53782" lon="-0.77281">
        <ele>149.27</ele>
        <time>2019-06-16T08:42:45.000Z</time>
      </trkpt>
      <trkpt lat="46.53792" lon="-0.77282">
        <ele>150.35</ele>
        <time>2019-06-16T08:42:48.000Z</time>
      </trkpt>
      <trkpt lat="46.53803" lon="-0.77285">
        <ele>157.96</ele>
        <time>2019-06-16T08:42:51.000Z</time>
      </trkpt>
      <trkpt lat="46.53812" lon="-0.77288">
        <ele>162.99</ele>
        <time>2019-06-16T08:42:53.000Z</time>
      </trkpt>
      <trkpt lat="46.53822" lon="-0.77291">
        <ele>167.12</ele>
        <time>2019-06-16T08:42:55.000Z</time>
      </trkpt>
      <trkpt lat="46.53835" lon="-0.77296">
        <ele>171.4</ele>
        <time>2019-06-16T08:42:57.000Z</time>
      </trkpt>
      <trkpt lat="46.53848" lon="-0.77296">
        <ele>176.03</ele>
        <time>2019-06-16T08:42:59.000Z</time>
      </trkpt>
      <trkpt lat="46.53861" lon="-0.77294">
        <ele>180.35</ele>
        <time>2019-06-16T08:43:01.000Z</time>
      </trkpt>
      <trkpt lat="46.53874" lon="-0.77294">
        <ele>185.16</ele>
        <time>2019-06-16T08:43:04.000Z</time>
      </trkpt>
      <trkpt lat="46.53883" lon="-0.77295">
        <ele>186.41</ele>
        <time>2019-06-16T08:43:06.000Z</time>
      </trkpt>
      <trkpt lat="46.53893" lon="-0.77294">
        <ele>186.95</ele>
        <time>2019-06-16T08:43:10.000Z</time>
      </trkpt>
      <trkpt lat="46.53905" lon="-0.77294">
        <ele>187.65</ele>
        <time>2019-06-16T08:43:14.000Z</time>
      </trkpt>
      <trkpt lat="46.53915" lon="-0.77297">
        <ele>193.09</ele>
        <time>2019-06-16T08:43:17.000Z</time>
      </trkpt>
      <trkpt lat="46.53925" lon="-0.773">
        <ele>196.95</ele>
        <time>2019-06-16T08:43:19.000Z</time>
      </trkpt>
      <trkpt lat="46.53934" lon="-0.77303">
        <ele>199.47</ele>
        <time>2019-06-16T08:43:21.000Z</time>
      </trkpt>
      <trkpt lat="46.53944" lon="-0.77306">
        <ele>199.78</ele>
        <time>2019-06-16T08:43:24.000Z</time>
      </trkpt>
      <trkpt lat="46.53953" lon="-0.77305">
        <ele>200.03</ele>
        <time>2019-06-16T08:43:27.000Z</time>
      </trkpt>
      <trkpt lat="46.53963" lon="-0.77303">
        <ele>200.05</ele>
        <time>2019-06-16T08:43:31.000Z</time>
      </trkpt>
      <trkpt lat="46.53972" lon="-0.77297">
        <ele>200.12</ele>
        <time>2019-06-16T08:43:35.000Z</time>
      </trkpt>
      <trkpt lat="46.53981" lon="-0.77291">
        <ele>199.99</ele>
        <time>2019-06-16T08:43:39.000Z</time>
      </trkpt>
      <trkpt lat="46.53991" lon="-0.77288">
        <ele>199.68</ele>
        <time>2019-06-16T08:43:43.000Z</time>
      </trkpt>
      <trkpt lat="46.54001" lon="-0.77285">
        <ele>199.19</ele>
        <time>2019-06-16T08:43:47.000Z</time>
      </trkpt>
      <trkpt lat="46.54011" lon="-0.77284">
        <ele>198.44</ele>
        <time>2019-06-16T08:43:51.000Z</time>
      </trkpt>
      <trkpt lat="46.54021" lon="-0.77283">
        <ele>197.6</ele>
        <time>2019-06-16T08:43:55.000Z</time>
      </trkpt>
      <trkpt lat="46.54032" lon="-0.77283">
        <ele>196.71</ele>
        <time>2019-06-16T08:43:59.000Z</time>
      </trkpt>
      <trkpt lat="46.54043" lon="-0.77282">
        <ele>195.87</ele>
        <time>2019-06-16T08:44:03.000Z</time>
      </trkpt>
      <trkpt lat="46.54053" lon="-0.77282">
        <ele>194.96</ele>
        <time>2019-06-16T08:44:08.000Z</time>
      </trkpt>
      <trkpt lat="46.54063" lon="-0.77281">
        <ele>194.24</ele>
        <time>2019-06-16T08:44:13.000Z</time>
      </trkpt>
      <trkpt lat="46.54074" lon="-0.77282">
        <ele>193.48</ele>
        <time>2019-06-16T08:44:18.000Z</time>
      </trkpt>
      <trkpt lat="46.54084" lon="-0.7728">
        <ele>192.78</ele>
        <time>2019-06-16T08:44:23.000Z</time>
      </trkpt>
      <trkpt lat="46.54095" lon="-0.77281">
        <ele>192.14</ele>
        <time>2019-06-16T08:44:27.000Z</time>
      </trkpt>
      <trkpt lat="46.54105" lon="-0.7728">
        <ele>191.52</ele>
        <time>2019-06-16T08:44:31.000Z</time>
      </trkpt>
      <trkpt lat="46.54115" lon="-0.77281">
        <ele>190.93</ele>
        <time>2019-06-16T08:44:35.000Z</time>
      </trkpt>
      <trkpt lat="46.54124" lon="-0.77279">
        <ele>190.19</ele>
        <time>2019-06-16T08:44:40.000Z</time>
      </trkpt>
      <trkpt lat="46.54134" lon="-0.77277">
        <ele>189.68</ele>
        <time>2019-06-16T08:44:44.000Z</time>
      </trkpt>
      <trkpt lat="46.54145" lon="-0.77276">
        <ele>189.28</ele>
        <time>2019-06-16T08:44:49.000Z</time>
      </trkpt>
      <trkpt lat="46.54157" lon="-0.77276">
        <ele>189.11</ele>
        <time>2019-06-16T08:44:53.000Z</time>
      </trkpt>
      <trkpt lat="46.54166" lon="-0.77277">
        <ele>189.05</ele>
        <time>2019-06-16T08:44:56.000Z</time>
      </trkpt>
      <trkpt lat="46.54179" lon="-0.7728">
        <ele>188.25</ele>
        <time>2019-06-16T08:44:59.000Z</time>
      </trkpt>
      <trkpt lat="46.5419" lon="-0.7728">
        <ele>187.82</ele>
        <time>2019-06-16T08:45:01.000Z</time>
      </trkpt>
      <trkpt lat="46.54201" lon="-0.77281">
        <ele>187.34</ele>
        <time>2019-06-16T08:45:03.000Z</time>
      </trkpt>
      <trkpt lat="46.54213" lon="-0.77282">
        <ele>187.21</ele>
        <time>2019-06-16T08:45:05.000Z</time>
      </trkpt>
      <trkpt lat="46.54227" lon="-0.77282">
        <ele>187.06</ele>
        <time>2019-06-16T08:45:07.000Z</time>
      </trkpt>
      <trkpt lat="46.54244" lon="-0.77279">
        <ele>187.93</ele>
        <time>2019-06-16T08:45:09.000Z</time>
      </trkpt>
      <trkpt lat="46.54261" lon="-0.77276">
        <ele>187.91</ele>
        <time>2019-06-16T08:45:11.000Z</time>
      </trkpt>
      <trkpt lat="46.54278" lon="-0.77275">
        <ele>188.45</ele>
        <time>2019-06-16T08:45:13.000Z</time>
      </trkpt>
      <trkpt lat="46.54287" lon="-0.77275">
        <ele>188.78</ele>
        <time>2019-06-16T08:45:14.000Z</time>
      </trkpt>
      <trkpt lat="46.54304" lon="-0.77272">
        <ele>189.71</ele>
        <time>2019-06-16T08:45:16.000Z</time>
      </trkpt>
      <trkpt lat="46.54321" lon="-0.77271">
        <ele>191.28</ele>
        <time>2019-06-16T08:45:18.000Z</time>
      </trkpt>
      <trkpt lat="46.5433" lon="-0.77272">
        <ele>191.96</ele>
        <time>2019-06-16T08:45:19.000Z</time>
      </trkpt>
      <trkpt lat="46.54345" lon="-0.77273">
        <ele>192.83</ele>
        <time>2019-06-16T08:45:21.000Z</time>
      </trkpt>
      <trkpt lat="46.54359" lon="-0.77276">
        <ele>193.31</ele>
        <time>2019-06-16T08:45:23.000Z</time>
      </trkpt>
      <trkpt lat="46.54371" lon="-0.77277">
        <ele>192.85</ele>
        <time>2019-06-16T08:45:25.000Z</time>
      </trkpt>
      <trkpt lat="46.54384" lon="-0.77276">
        <ele>191.28</ele>
        <time>2019-06-16T08:45:27.000Z</time>
      </trkpt>
      <trkpt lat="46.54395" lon="-0.77275">
        <ele>189.06</ele>
        <time>2019-06-16T08:45:29.000Z</time>
      </trkpt>
      <trkpt lat="46.54408" lon="-0.77276">
        <ele>187.14</ele>
        <time>2019-06-16T08:45:31.000Z</time>
      </trkpt>
      <trkpt lat="46.54421" lon="-0.77273">
        <ele>185.02</ele>
        <time>2019-06-16T08:45:33.000Z</time>
      </trkpt>
      <trkpt lat="46.54433" lon="-0.77274">
        <ele>184.47</ele>
        <time>2019-06-16T08:45:35.000Z</time>
      </trkpt>
      <trkpt lat="46.54446" lon="-0.77272">
        <ele>184.28</ele>
        <time>2019-06-16T08:45:37.000Z</time>
      </trkpt>
      <trkpt lat="46.54459" lon="-0.77273">
        <ele>183.7</ele>
        <time>2019-06-16T08:45:39.000Z</time>
      </trkpt>
      <trkpt lat="46.54472" lon="-0.77272">
        <ele>183.77</ele>
        <time>2019-06-16T08:45:41.000Z</time>
      </trkpt>
      <trkpt lat="46.54485" lon="-0.77272">
        <ele>184.37</ele>
        <time>2019-06-16T08:45:43.000Z</time>
      </trkpt>
      <trkpt lat="46.54498" lon="-0.77272">
        <ele>184.52</ele>
        <time>2019-06-16T08:45:45.000Z</time>
      </trkpt>
      <trkpt lat="46.5451" lon="-0.77274">
        <ele>184.79</ele>
        <time>2019-06-16T08:45:47.000Z</time>
      </trkpt>
      <trkpt lat="46.54523" lon="-0.77275">
        <ele>184.95</ele>
        <time>2019-06-16T08:45:49.000Z</time>
      </trkpt>
      <trkpt lat="46.54535" lon="-0.77274">
        <ele>184.26</ele>
        <time>2019-06-16T08:45:51.000Z</time>
      </trkpt>
      <trkpt lat="46.54546" lon="-0.77276">
        <ele>184.52</ele>
        <time>2019-06-16T08:45:53.000Z</time>
      </trkpt>
      <trkpt lat="46.54556" lon="-0.77277">
        <ele>184.56</ele>
        <time>2019-06-16T08:45:55.000Z</time>
      </trkpt>
      <trkpt lat="46.54565" lon="-0.77275">
        <ele>184.26</ele>
        <time>2019-06-16T08:45:58.000Z</time>
      </trkpt>
      <trkpt lat="46.54576" lon="-0.77268">
        <ele>183.48</ele>
        <time>2019-06-16T08:46:02.000Z</time>
      </trkpt>
      <trkpt lat="46.54585" lon="-0.7726">
        <ele>181.97</ele>
        <time>2019-06-16T08:46:06.000Z</time>
      </trkpt>
      <trkpt lat="46.54592" lon="-0.77251">
        <ele>176.48</ele>
        <time>2019-06-16T08:46:34.000Z</time>
      </trkpt>
      <trkpt lat="46.54592" lon="-0.77237">
        <ele>153.71</ele>
        <time>2019-06-16T08:50:26.000Z</time>
      </trkpt>
      <trkpt lat="46.5459" lon="-0.77224">
        <ele>153.24</ele>
        <time>2019-06-16T08:50:35.000Z</time>
      </trkpt>
      <trkpt lat="46.54592" lon="-0.77206">
        <ele>148.85</ele>
        <time>2019-06-16T08:50:38.000Z</time>
      </trkpt>
      <trkpt lat="46.54595" lon="-0.77189">
        <ele>145.73</ele>
        <time>2019-06-16T08:50:40.000Z</time>
      </trkpt>
      <trkpt lat="46.54598" lon="-0.77168">
        <ele>142.31</ele>
        <time>2019-06-16T08:50:42.000Z</time>
      </trkpt>
      <trkpt lat="46.54602" lon="-0.77145">
        <ele>139.82</ele>
        <time>2019-06-16T08:50:44.000Z</time>
      </trkpt>
      <trkpt lat="46.54604" lon="-0.7712">
        <ele>136.06</ele>
        <time>2019-06-16T08:50:46.000Z</time>
      </trkpt>
      <trkpt lat="46.54606" lon="-0.77107">
        <ele>133.96</ele>
        <time>2019-06-16T08:50:47.000Z</time>
      </trkpt>
      <trkpt lat="46.54609" lon="-0.77085">
        <ele>131.29</ele>
        <time>2019-06-16T08:50:49.000Z</time>
      </trkpt>
      <trkpt lat="46.54615" lon="-0.77068">
        <ele>129.17</ele>
        <time>2019-06-16T08:50:51.000Z</time>
      </trkpt>
      <trkpt lat="46.54618" lon="-0.77052">
        <ele>127.7</ele>
        <time>2019-06-16T08:50:53.000Z</time>
      </trkpt>
      <trkpt lat="46.5462" lon="-0.77036">
        <ele>127.5</ele>
        <time>2019-06-16T08:50:55.000Z</time>
      </trkpt>
      <trkpt lat="46.54623" lon="-0.77022">
        <ele>126.92</ele>
        <time>2019-06-16T08:50:57.000Z</time>
      </trkpt>
      <trkpt lat="46.54625" lon="-0.77006">
        <ele>126.35</ele>
        <time>2019-06-16T08:50:59.000Z</time>
      </trkpt>
      <trkpt lat="46.54628" lon="-0.7699">
        <ele>125.13</ele>
        <time>2019-06-16T08:51:01.000Z</time>
      </trkpt>
      <trkpt lat="46.5463" lon="-0.76976">
        <ele>124.11</ele>
        <time>2019-06-16T08:51:03.000Z</time>
      </trkpt>
      <trkpt lat="46.54633" lon="-0.76962">
        <ele>122.54</ele>
        <time>2019-06-16T08:51:05.000Z</time>
      </trkpt>
      <trkpt lat="46.54636" lon="-0.76947">
        <ele>121.01</ele>
        <time>2019-06-16T08:51:07.000Z</time>
      </trkpt>
      <trkpt lat="46.54638" lon="-0.76932">
        <ele>120.6</ele>
        <time>2019-06-16T08:51:09.000Z</time>
      </trkpt>
      <trkpt lat="46.54642" lon="-0.76916">
        <ele>120.98</ele>
        <time>2019-06-16T08:51:11.000Z</time>
      </trkpt>
      <trkpt lat="46.54645" lon="-0.769">
        <ele>122.05</ele>
        <time>2019-06-16T08:51:13.000Z</time>
      </trkpt>
      <trkpt lat="46.54647" lon="-0.76882">
        <ele>122.63</ele>
        <time>2019-06-16T08:51:15.000Z</time>
      </trkpt>
      <trkpt lat="46.54651" lon="-0.76862">
        <ele>122.87</ele>
        <time>2019-06-16T08:51:17.000Z</time>
      </trkpt>
      <trkpt lat="46.54654" lon="-0.76841">
        <ele>122.99</ele>
        <time>2019-06-16T08:51:19.000Z</time>
      </trkpt>
      <trkpt lat="46.54658" lon="-0.76821">
        <ele>122.92</ele>
        <time>2019-06-16T08:51:21.000Z</time>
      </trkpt>
      <trkpt lat="46.54662" lon="-0.768">
        <ele>122.92</ele>
        <time>2019-06-16T08:51:23.000Z</time>
      </trkpt>
      <trkpt lat="46.54666" lon="-0.76782">
        <ele>123</ele>
        <time>2019-06-16T08:51:25.000Z</time>
      </trkpt>
      <trkpt lat="46.54668" lon="-0.76764">
        <ele>123.23</ele>
        <time>2019-06-16T08:51:27.000Z</time>
      </trkpt>
      <trkpt lat="46.5467" lon="-0.76749">
        <ele>123.83</ele>
        <time>2019-06-16T08:51:29.000Z</time>
      </trkpt>
      <trkpt lat="46.54673" lon="-0.76732">
        <ele>125.08</ele>
        <time>2019-06-16T08:51:32.000Z</time>
      </trkpt>
      <trkpt lat="46.54675" lon="-0.76713">
        <ele>126.27</ele>
        <time>2019-06-16T08:51:35.000Z</time>
      </trkpt>
      <trkpt lat="46.54677" lon="-0.76694">
        <ele>127.4</ele>
        <time>2019-06-16T08:51:38.000Z</time>
      </trkpt>
      <trkpt lat="46.5468" lon="-0.76676">
        <ele>128.12</ele>
        <time>2019-06-16T08:51:41.000Z</time>
      </trkpt>
      <trkpt lat="46.54684" lon="-0.76659">
        <ele>128.59</ele>
        <time>2019-06-16T08:51:44.000Z</time>
      </trkpt>
      <trkpt lat="46.54687" lon="-0.76642">
        <ele>128.83</ele>
        <time>2019-06-16T08:51:47.000Z</time>
      </trkpt>
      <trkpt lat="46.5468" lon="-0.76627">
        <ele>129.22</ele>
        <time>2019-06-16T08:51:55.000Z</time>
      </trkpt>
      <trkpt lat="46.54671" lon="-0.76627">
        <ele>129.86</ele>
        <time>2019-06-16T08:51:58.000Z</time>
      </trkpt>
      <trkpt lat="46.54661" lon="-0.76628">
        <ele>130.46</ele>
        <time>2019-06-16T08:52:00.000Z</time>
      </trkpt>
      <trkpt lat="46.54652" lon="-0.76629">
        <ele>131.23</ele>
        <time>2019-06-16T08:52:02.000Z</time>
      </trkpt>
      <trkpt lat="46.54639" lon="-0.76628">
        <ele>132.17</ele>
        <time>2019-06-16T08:52:04.000Z</time>
      </trkpt>
      <trkpt lat="46.54625" lon="-0.76629">
        <ele>133.25</ele>
        <time>2019-06-16T08:52:06.000Z</time>
      </trkpt>
      <trkpt lat="46.54614" lon="-0.7663">
        <ele>134.47</ele>
        <time>2019-06-16T08:52:08.000Z</time>
      </trkpt>
      <trkpt lat="46.54601" lon="-0.76632">
        <ele>135.67</ele>
        <time>2019-06-16T08:52:10.000Z</time>
      </trkpt>
      <trkpt lat="46.54589" lon="-0.76632">
        <ele>136.85</ele>
        <time>2019-06-16T08:52:12.000Z</time>
      </trkpt>
      <trkpt lat="46.5458" lon="-0.76632">
        <ele>137.98</ele>
        <time>2019-06-16T08:52:14.000Z</time>
      </trkpt>
      <trkpt lat="46.54568" lon="-0.76635">
        <ele>139.62</ele>
        <time>2019-06-16T08:52:17.000Z</time>
      </trkpt>
      <trkpt lat="46.54559" lon="-0.76635">
        <ele>140.58</ele>
        <time>2019-06-16T08:52:19.000Z</time>
      </trkpt>
      <trkpt lat="46.54548" lon="-0.76637">
        <ele>141.41</ele>
        <time>2019-06-16T08:52:21.000Z</time>
      </trkpt>
      <trkpt lat="46.54538" lon="-0.76649">
        <ele>142.06</ele>
        <time>2019-06-16T08:52:23.000Z</time>
      </trkpt>
      <trkpt lat="46.54533" lon="-0.76665">
        <ele>143.03</ele>
        <time>2019-06-16T08:52:27.000Z</time>
      </trkpt>
      <trkpt lat="46.54532" lon="-0.76678">
        <ele>143.45</ele>
        <time>2019-06-16T08:52:29.000Z</time>
      </trkpt>
      <trkpt lat="46.54526" lon="-0.7669">
        <ele>144.01</ele>
        <time>2019-06-16T08:52:32.000Z</time>
      </trkpt>
      <trkpt lat="46.54519" lon="-0.76703">
        <ele>144.5</ele>
        <time>2019-06-16T08:52:35.000Z</time>
      </trkpt>
      <trkpt lat="46.54513" lon="-0.76716">
        <ele>144.98</ele>
        <time>2019-06-16T08:52:38.000Z</time>
      </trkpt>
      <trkpt lat="46.5451" lon="-0.76729">
        <ele>145.34</ele>
        <time>2019-06-16T08:52:42.000Z</time>
      </trkpt>
      <trkpt lat="46.54509" lon="-0.76746">
        <ele>145.36</ele>
        <time>2019-06-16T08:52:45.000Z</time>
      </trkpt>
      <trkpt lat="46.54505" lon="-0.76762">
        <ele>145.08</ele>
        <time>2019-06-16T08:52:49.000Z</time>
      </trkpt>
      <trkpt lat="46.54498" lon="-0.76774">
        <ele>144.8</ele>
        <time>2019-06-16T08:52:55.000Z</time>
      </trkpt>
      <trkpt lat="46.5449" lon="-0.76781">
        <ele>145.34</ele>
        <time>2019-06-16T08:53:01.000Z</time>
      </trkpt>
      <trkpt lat="46.54479" lon="-0.76786">
        <ele>145.67</ele>
        <time>2019-06-16T08:53:06.000Z</time>
      </trkpt>
      <trkpt lat="46.54469" lon="-0.76788">
        <ele>146.05</ele>
        <time>2019-06-16T08:53:10.000Z</time>
      </trkpt>
      <trkpt lat="46.54459" lon="-0.76792">
        <ele>146.38</ele>
        <time>2019-06-16T08:53:13.000Z</time>
      </trkpt>
      <trkpt lat="46.5445" lon="-0.76796">
        <ele>146.65</ele>
        <time>2019-06-16T08:53:16.000Z</time>
      </trkpt>
      <trkpt lat="46.5444" lon="-0.768">
        <ele>147.02</ele>
        <time>2019-06-16T08:53:20.000Z</time>
      </trkpt>
      <trkpt lat="46.54431" lon="-0.76802">
        <ele>147.65</ele>
        <time>2019-06-16T08:53:24.000Z</time>
      </trkpt>
      <trkpt lat="46.54421" lon="-0.76804">
        <ele>148.8</ele>
        <time>2019-06-16T08:53:29.000Z</time>
      </trkpt>
      <trkpt lat="46.54411" lon="-0.76806">
        <ele>149.56</ele>
        <time>2019-06-16T08:53:32.000Z</time>
      </trkpt>
      <trkpt lat="46.54399" lon="-0.76809">
        <ele>150.7</ele>
        <time>2019-06-16T08:53:36.000Z</time>
      </trkpt>
      <trkpt lat="46.5439" lon="-0.7681">
        <ele>151.08</ele>
        <time>2019-06-16T08:53:38.000Z</time>
      </trkpt>
      <trkpt lat="46.54381" lon="-0.76814">
        <ele>151.48</ele>
        <time>2019-06-16T08:53:41.000Z</time>
      </trkpt>
      <trkpt lat="46.54369" lon="-0.76817">
        <ele>151.95</ele>
        <time>2019-06-16T08:53:44.000Z</time>
      </trkpt>
      <trkpt lat="46.5436" lon="-0.76819">
        <ele>152.37</ele>
        <time>2019-06-16T08:53:47.000Z</time>
      </trkpt>
      <trkpt lat="46.5435" lon="-0.76822">
        <ele>152.77</ele>
        <time>2019-06-16T08:53:50.000Z</time>
      </trkpt>
      <trkpt lat="46.5434" lon="-0.76825">
        <ele>153.27</ele>
        <time>2019-06-16T08:53:53.000Z</time>
      </trkpt>
      <trkpt lat="46.54328" lon="-0.76829">
        <ele>153.9</ele>
        <time>2019-06-16T08:53:56.000Z</time>
      </trkpt>
      <trkpt lat="46.54319" lon="-0.76832">
        <ele>154.63</ele>
        <time>2019-06-16T08:53:59.000Z</time>
      </trkpt>
      <trkpt lat="46.54308" lon="-0.76837">
        <ele>155.29</ele>
        <time>2019-06-16T08:54:02.000Z</time>
      </trkpt>
      <trkpt lat="46.54298" lon="-0.76839">
        <ele>155.89</ele>
        <time>2019-06-16T08:54:05.000Z</time>
      </trkpt>
      <trkpt lat="46.54288" lon="-0.76841">
        <ele>156.3</ele>
        <time>2019-06-16T08:54:07.000Z</time>
      </trkpt>
      <trkpt lat="46.54274" lon="-0.76843">
        <ele>156.88</ele>
        <time>2019-06-16T08:54:10.000Z</time>
      </trkpt>
      <trkpt lat="46.54262" lon="-0.76846">
        <ele>157.49</ele>
        <time>2019-06-16T08:54:13.000Z</time>
      </trkpt>
      <trkpt lat="46.5425" lon="-0.76849">
        <ele>158.04</ele>
        <time>2019-06-16T08:54:16.000Z</time>
      </trkpt>
      <trkpt lat="46.5424" lon="-0.76851">
        <ele>158.54</ele>
        <time>2019-06-16T08:54:19.000Z</time>
      </trkpt>
      <trkpt lat="46.5423" lon="-0.76854">
        <ele>158.96</ele>
        <time>2019-06-16T08:54:22.000Z</time>
      </trkpt>
      <trkpt lat="46.5422" lon="-0.76855">
        <ele>159.26</ele>
        <time>2019-06-16T08:54:24.000Z</time>
      </trkpt>
      <trkpt lat="46.54209" lon="-0.76856">
        <ele>159.52</ele>
        <time>2019-06-16T08:54:26.000Z</time>
      </trkpt>
      <trkpt lat="46.54198" lon="-0.76856">
        <ele>161.15</ele>
        <time>2019-06-16T08:54:28.000Z</time>
      </trkpt>
      <trkpt lat="46.54185" lon="-0.7686">
        <ele>161.73</ele>
        <time>2019-06-16T08:54:31.000Z</time>
      </trkpt>
      <trkpt lat="46.54176" lon="-0.76863">
        <ele>162.21</ele>
        <time>2019-06-16T08:54:33.000Z</time>
      </trkpt>
      <trkpt lat="46.54163" lon="-0.76868">
        <ele>162.9</ele>
        <time>2019-06-16T08:54:36.000Z</time>
      </trkpt>
      <trkpt lat="46.54153" lon="-0.76871">
        <ele>163.5</ele>
        <time>2019-06-16T08:54:39.000Z</time>
      </trkpt>
      <trkpt lat="46.54141" lon="-0.76873">
        <ele>163.97</ele>
        <time>2019-06-16T08:54:42.000Z</time>
      </trkpt>
      <trkpt lat="46.54129" lon="-0.76876">
        <ele>164.43</ele>
        <time>2019-06-16T08:54:45.000Z</time>
      </trkpt>
      <trkpt lat="46.54116" lon="-0.76878">
        <ele>164.81</ele>
        <time>2019-06-16T08:54:48.000Z</time>
      </trkpt>
      <trkpt lat="46.54105" lon="-0.76881">
        <ele>164.84</ele>
        <time>2019-06-16T08:54:50.000Z</time>
      </trkpt>
      <trkpt lat="46.54096" lon="-0.76886">
        <ele>164.94</ele>
        <time>2019-06-16T08:54:53.000Z</time>
      </trkpt>
      <trkpt lat="46.54085" lon="-0.76888">
        <ele>165.11</ele>
        <time>2019-06-16T08:54:56.000Z</time>
      </trkpt>
      <trkpt lat="46.54076" lon="-0.7689">
        <ele>166.14</ele>
        <time>2019-06-16T08:54:58.000Z</time>
      </trkpt>
      <trkpt lat="46.54065" lon="-0.76893">
        <ele>165.86</ele>
        <time>2019-06-16T08:55:01.000Z</time>
      </trkpt>
      <trkpt lat="46.54054" lon="-0.76897">
        <ele>165.79</ele>
        <time>2019-06-16T08:55:04.000Z</time>
      </trkpt>
      <trkpt lat="46.54042" lon="-0.769">
        <ele>165.78</ele>
        <time>2019-06-16T08:55:08.000Z</time>
      </trkpt>
      <trkpt lat="46.54031" lon="-0.76903">
        <ele>165.85</ele>
        <time>2019-06-16T08:55:12.000Z</time>
      </trkpt>
      <trkpt lat="46.5402" lon="-0.76905">
        <ele>166.03</ele>
        <time>2019-06-16T08:55:17.000Z</time>
      </trkpt>
      <trkpt lat="46.5401" lon="-0.76907">
        <ele>166.31</ele>
        <time>2019-06-16T08:55:21.000Z</time>
      </trkpt>
      <trkpt lat="46.53996" lon="-0.76909">
        <ele>166.57</ele>
        <time>2019-06-16T08:55:27.000Z</time>
      </trkpt>
      <trkpt lat="46.53985" lon="-0.76915">
        <ele>166.71</ele>
        <time>2019-06-16T08:55:30.000Z</time>
      </trkpt>
      <trkpt lat="46.53975" lon="-0.76916">
        <ele>166.97</ele>
        <time>2019-06-16T08:55:33.000Z</time>
      </trkpt>
      <trkpt lat="46.53962" lon="-0.76919">
        <ele>167.33</ele>
        <time>2019-06-16T08:55:36.000Z</time>
      </trkpt>
      <trkpt lat="46.53951" lon="-0.76922">
        <ele>167.85</ele>
        <time>2019-06-16T08:55:39.000Z</time>
      </trkpt>
      <trkpt lat="46.53937" lon="-0.76925">
        <ele>168.25</ele>
        <time>2019-06-16T08:55:42.000Z</time>
      </trkpt>
      <trkpt lat="46.53926" lon="-0.76928">
        <ele>168.58</ele>
        <time>2019-06-16T08:55:45.000Z</time>
      </trkpt>
      <trkpt lat="46.53915" lon="-0.76933">
        <ele>169.03</ele>
        <time>2019-06-16T08:55:48.000Z</time>
      </trkpt>
      <trkpt lat="46.53903" lon="-0.76939">
        <ele>169.82</ele>
        <time>2019-06-16T08:55:53.000Z</time>
      </trkpt>
      <trkpt lat="46.53893" lon="-0.7694">
        <ele>170.25</ele>
        <time>2019-06-16T08:55:55.000Z</time>
      </trkpt>
      <trkpt lat="46.5388" lon="-0.76944">
        <ele>171.05</ele>
        <time>2019-06-16T08:55:58.000Z</time>
      </trkpt>
      <trkpt lat="46.5387" lon="-0.76945">
        <ele>171.63</ele>
        <time>2019-06-16T08:56:00.000Z</time>
      </trkpt>
      <trkpt lat="46.53862" lon="-0.76935">
        <ele>173.36</ele>
        <time>2019-06-16T08:56:07.000Z</time>
      </trkpt>
      <trkpt lat="46.53861" lon="-0.76916">
        <ele>173.93</ele>
        <time>2019-06-16T08:56:10.000Z</time>
      </trkpt>
      <trkpt lat="46.53862" lon="-0.76901">
        <ele>174.28</ele>
        <time>2019-06-16T08:56:12.000Z</time>
      </trkpt>
      <trkpt lat="46.53859" lon="-0.76883">
        <ele>174.88</ele>
        <time>2019-06-16T08:56:15.000Z</time>
      </trkpt>
      <trkpt lat="46.53855" lon="-0.76867">
        <ele>174.8</ele>
        <time>2019-06-16T08:56:18.000Z</time>
      </trkpt>
      <trkpt lat="46.53849" lon="-0.76854">
        <ele>174.35</ele>
        <time>2019-06-16T08:56:20.000Z</time>
      </trkpt>
      <trkpt lat="46.53843" lon="-0.76842">
        <ele>174.35</ele>
        <time>2019-06-16T08:56:22.000Z</time>
      </trkpt>
      <trkpt lat="46.5384" lon="-0.76824">
        <ele>174.09</ele>
        <time>2019-06-16T08:56:25.000Z</time>
      </trkpt>
      <trkpt lat="46.53835" lon="-0.76812">
        <ele>173.85</ele>
        <time>2019-06-16T08:56:27.000Z</time>
      </trkpt>
      <trkpt lat="46.53828" lon="-0.76802">
        <ele>173.62</ele>
        <time>2019-06-16T08:56:29.000Z</time>
      </trkpt>
      <trkpt lat="46.53821" lon="-0.76788">
        <ele>173.4</ele>
        <time>2019-06-16T08:56:31.000Z</time>
      </trkpt>
      <trkpt lat="46.53814" lon="-0.76772">
        <ele>171.53</ele>
        <time>2019-06-16T08:56:33.000Z</time>
      </trkpt>
      <trkpt lat="46.53808" lon="-0.76756">
        <ele>169.31</ele>
        <time>2019-06-16T08:56:35.000Z</time>
      </trkpt>
      <trkpt lat="46.53803" lon="-0.76743">
        <ele>168.4</ele>
        <time>2019-06-16T08:56:37.000Z</time>
      </trkpt>
      <trkpt lat="46.53798" lon="-0.76731">
        <ele>167.45</ele>
        <time>2019-06-16T08:56:39.000Z</time>
      </trkpt>
      <trkpt lat="46.53787" lon="-0.76719">
        <ele>167.36</ele>
        <time>2019-06-16T08:56:42.000Z</time>
      </trkpt>
      <trkpt lat="46.53775" lon="-0.76715">
        <ele>167.41</ele>
        <time>2019-06-16T08:56:44.000Z</time>
      </trkpt>
      <trkpt lat="46.53767" lon="-0.76701">
        <ele>165.59</ele>
        <time>2019-06-16T08:56:47.000Z</time>
      </trkpt>
      <trkpt lat="46.53767" lon="-0.76687">
        <ele>162.09</ele>
        <time>2019-06-16T08:56:50.000Z</time>
      </trkpt>
      <trkpt lat="46.53766" lon="-0.76672">
        <ele>161.64</ele>
        <time>2019-06-16T08:56:53.000Z</time>
      </trkpt>
      <trkpt lat="46.53765" lon="-0.76658">
        <ele>160.51</ele>
        <time>2019-06-16T08:56:58.000Z</time>
      </trkpt>
      <trkpt lat="46.53774" lon="-0.76645">
        <ele>160.32</ele>
        <time>2019-06-16T08:57:01.000Z</time>
      </trkpt>
      <trkpt lat="46.53781" lon="-0.76636">
        <ele>161.24</ele>
        <time>2019-06-16T08:57:03.000Z</time>
      </trkpt>
      <trkpt lat="46.5379" lon="-0.76622">
        <ele>163.06</ele>
        <time>2019-06-16T08:57:05.000Z</time>
      </trkpt>
      <trkpt lat="46.53797" lon="-0.76609">
        <ele>163.79</ele>
        <time>2019-06-16T08:57:07.000Z</time>
      </trkpt>
      <trkpt lat="46.53802" lon="-0.76595">
        <ele>164.17</ele>
        <time>2019-06-16T08:57:13.000Z</time>
      </trkpt>
      <trkpt lat="46.53803" lon="-0.7658">
        <ele>163.7</ele>
        <time>2019-06-16T08:57:16.000Z</time>
      </trkpt>
      <trkpt lat="46.53801" lon="-0.76567">
        <ele>163.22</ele>
        <time>2019-06-16T08:57:18.000Z</time>
      </trkpt>
      <trkpt lat="46.53798" lon="-0.76553">
        <ele>160.78</ele>
        <time>2019-06-16T08:57:20.000Z</time>
      </trkpt>
      <trkpt lat="46.53791" lon="-0.76538">
        <ele>157.19</ele>
        <time>2019-06-16T08:57:22.000Z</time>
      </trkpt>
      <trkpt lat="46.53783" lon="-0.76523">
        <ele>154.29</ele>
        <time>2019-06-16T08:57:24.000Z</time>
      </trkpt>
      <trkpt lat="46.53778" lon="-0.76505">
        <ele>151.43</ele>
        <time>2019-06-16T08:57:26.000Z</time>
      </trkpt>
      <trkpt lat="46.53775" lon="-0.76492">
        <ele>149.9</ele>
        <time>2019-06-16T08:57:27.000Z</time>
      </trkpt>
      <trkpt lat="46.5377" lon="-0.76465">
        <ele>145.64</ele>
        <time>2019-06-16T08:57:29.000Z</time>
      </trkpt>
      <trkpt lat="46.53767" lon="-0.76451">
        <ele>142.84</ele>
        <time>2019-06-16T08:57:30.000Z</time>
      </trkpt>
      <trkpt lat="46.53762" lon="-0.76429">
        <ele>138.61</ele>
        <time>2019-06-16T08:57:32.000Z</time>
      </trkpt>
      <trkpt lat="46.53755" lon="-0.76407">
        <ele>134.27</ele>
        <time>2019-06-16T08:57:34.000Z</time>
      </trkpt>
      <trkpt lat="46.5375" lon="-0.76394">
        <ele>132.03</ele>
        <time>2019-06-16T08:57:35.000Z</time>
      </trkpt>
      <trkpt lat="46.53742" lon="-0.76382">
        <ele>129.84</ele>
        <time>2019-06-16T08:57:36.000Z</time>
      </trkpt>
      <trkpt lat="46.53733" lon="-0.7637">
        <ele>127.71</ele>
        <time>2019-06-16T08:57:37.000Z</time>
      </trkpt>
      <trkpt lat="46.53722" lon="-0.76351">
        <ele>123.01</ele>
        <time>2019-06-16T08:57:39.000Z</time>
      </trkpt>
      <trkpt lat="46.53716" lon="-0.7634">
        <ele>120.51</ele>
        <time>2019-06-16T08:57:40.000Z</time>
      </trkpt>
      <trkpt lat="46.5371" lon="-0.76329">
        <ele>118.69</ele>
        <time>2019-06-16T08:57:41.000Z</time>
      </trkpt>
      <trkpt lat="46.53705" lon="-0.76318">
        <ele>117.19</ele>
        <time>2019-06-16T08:57:42.000Z</time>
      </trkpt>
      <trkpt lat="46.53701" lon="-0.76304">
        <ele>116.13</ele>
        <time>2019-06-16T08:57:43.000Z</time>
      </trkpt>
      <trkpt lat="46.53696" lon="-0.76289">
        <ele>115.33</ele>
        <time>2019-06-16T08:57:44.000Z</time>
      </trkpt>
      <trkpt lat="46.53692" lon="-0.76274">
        <ele>114.52</ele>
        <time>2019-06-16T08:57:45.000Z</time>
      </trkpt>
      <trkpt lat="46.53687" lon="-0.76261">
        <ele>113.52</ele>
        <time>2019-06-16T08:57:46.000Z</time>
      </trkpt>
      <trkpt lat="46.53682" lon="-0.76248">
        <ele>112.23</ele>
        <time>2019-06-16T08:57:47.000Z</time>
      </trkpt>
      <trkpt lat="46.53679" lon="-0.76234">
        <ele>111.36</ele>
        <time>2019-06-16T08:57:48.000Z</time>
      </trkpt>
      <trkpt lat="46.53675" lon="-0.7622">
        <ele>110.94</ele>
        <time>2019-06-16T08:57:49.000Z</time>
      </trkpt>
      <trkpt lat="46.5367" lon="-0.76206">
        <ele>110.6</ele>
        <time>2019-06-16T08:57:50.000Z</time>
      </trkpt>
      <trkpt lat="46.53665" lon="-0.76194">
        <ele>110.18</ele>
        <time>2019-06-16T08:57:51.000Z</time>
      </trkpt>
      <trkpt lat="46.53659" lon="-0.76172">
        <ele>110.42</ele>
        <time>2019-06-16T08:57:53.000Z</time>
      </trkpt>
      <trkpt lat="46.53655" lon="-0.76156">
        <ele>110.84</ele>
        <time>2019-06-16T08:57:55.000Z</time>
      </trkpt>
      <trkpt lat="46.53649" lon="-0.76139">
        <ele>109.9</ele>
        <time>2019-06-16T08:57:57.000Z</time>
      </trkpt>
      <trkpt lat="46.53642" lon="-0.76119">
        <ele>107.43</ele>
        <time>2019-06-16T08:57:59.000Z</time>
      </trkpt>
      <trkpt lat="46.53634" lon="-0.76109">
        <ele>108.26</ele>
        <time>2019-06-16T08:58:01.000Z</time>
      </trkpt>
      <trkpt lat="46.53618" lon="-0.76104">
        <ele>107.91</ele>
        <time>2019-06-16T08:58:03.000Z</time>
      </trkpt>
      <trkpt lat="46.53603" lon="-0.76099">
        <ele>107.68</ele>
        <time>2019-06-16T08:58:07.000Z</time>
      </trkpt>
      <trkpt lat="46.53593" lon="-0.76107">
        <ele>107.42</ele>
        <time>2019-06-16T08:58:10.000Z</time>
      </trkpt>
      <trkpt lat="46.53588" lon="-0.76093">
        <ele>107.46</ele>
        <time>2019-06-16T08:58:19.000Z</time>
      </trkpt>
      <trkpt lat="46.53587" lon="-0.76078">
        <ele>106.78</ele>
        <time>2019-06-16T08:58:23.000Z</time>
      </trkpt>
      <trkpt lat="46.53582" lon="-0.76066">
        <ele>104.47</ele>
        <time>2019-06-16T08:58:33.000Z</time>
      </trkpt>
      <trkpt lat="46.53575" lon="-0.76055">
        <ele>103.25</ele>
        <time>2019-06-16T08:58:39.000Z</time>
      </trkpt>
      <trkpt lat="46.53568" lon="-0.76043">
        <ele>102.48</ele>
        <time>2019-06-16T08:58:44.000Z</time>
      </trkpt>
      <trkpt lat="46.53563" lon="-0.76031">
        <ele>101.97</ele>
        <time>2019-06-16T08:58:48.000Z</time>
      </trkpt>
      <trkpt lat="46.53554" lon="-0.76038">
        <ele>101.9</ele>
        <time>2019-06-16T08:58:54.000Z</time>
      </trkpt>
      <trkpt lat="46.53545" lon="-0.7605">
        <ele>101.85</ele>
        <time>2019-06-16T08:58:57.000Z</time>
      </trkpt>
      <trkpt lat="46.53535" lon="-0.76055">
        <ele>101.95</ele>
        <time>2019-06-16T08:59:01.000Z</time>
      </trkpt>
      <trkpt lat="46.53524" lon="-0.76056">
        <ele>102.08</ele>
        <time>2019-06-16T08:59:03.000Z</time>
      </trkpt>
      <trkpt lat="46.53515" lon="-0.76052">
        <ele>102.32</ele>
        <time>2019-06-16T08:59:06.000Z</time>
      </trkpt>
      <trkpt lat="46.53507" lon="-0.76043">
        <ele>102.49</ele>
        <time>2019-06-16T08:59:08.000Z</time>
      </trkpt>
      <trkpt lat="46.535" lon="-0.76033">
        <ele>102.71</ele>
        <time>2019-06-16T08:59:10.000Z</time>
      </trkpt>
      <trkpt lat="46.53495" lon="-0.76017">
        <ele>102.59</ele>
        <time>2019-06-16T08:59:13.000Z</time>
      </trkpt>
      <trkpt lat="46.53487" lon="-0.76001">
        <ele>102.41</ele>
        <time>2019-06-16T08:59:16.000Z</time>
      </trkpt>
      <trkpt lat="46.53476" lon="-0.76">
        <ele>102.47</ele>
        <time>2019-06-16T08:59:18.000Z</time>
      </trkpt>
      <trkpt lat="46.53467" lon="-0.75995">
        <ele>102.6</ele>
        <time>2019-06-16T08:59:22.000Z</time>
      </trkpt>
      <trkpt lat="46.53462" lon="-0.75983">
        <ele>102.59</ele>
        <time>2019-06-16T08:59:25.000Z</time>
      </trkpt>
      <trkpt lat="46.53455" lon="-0.75974">
        <ele>102.51</ele>
        <time>2019-06-16T08:59:27.000Z</time>
      </trkpt>
      <trkpt lat="46.53447" lon="-0.75967">
        <ele>102.46</ele>
        <time>2019-06-16T08:59:29.000Z</time>
      </trkpt>
      <trkpt lat="46.53437" lon="-0.75961">
        <ele>102.41</ele>
        <time>2019-06-16T08:59:31.000Z</time>
      </trkpt>
      <trkpt lat="46.53428" lon="-0.75957">
        <ele>102.26</ele>
        <time>2019-06-16T08:59:33.000Z</time>
      </trkpt>
      <trkpt lat="46.53413" lon="-0.75954">
        <ele>102.27</ele>
        <time>2019-06-16T08:59:35.000Z</time>
      </trkpt>
      <trkpt lat="46.53401" lon="-0.75954">
        <ele>102.46</ele>
        <time>2019-06-16T08:59:37.000Z</time>
      </trkpt>
      <trkpt lat="46.53389" lon="-0.75957">
        <ele>102.81</ele>
        <time>2019-06-16T08:59:40.000Z</time>
      </trkpt>
      <trkpt lat="46.5338" lon="-0.7596">
        <ele>103.13</ele>
        <time>2019-06-16T08:59:42.000Z</time>
      </trkpt>
      <trkpt lat="46.53369" lon="-0.75964">
        <ele>103.74</ele>
        <time>2019-06-16T08:59:45.000Z</time>
      </trkpt>
      <trkpt lat="46.5336" lon="-0.75972">
        <ele>104.08</ele>
        <time>2019-06-16T08:59:47.000Z</time>
      </trkpt>
      <trkpt lat="46.53351" lon="-0.75979">
        <ele>105.01</ele>
        <time>2019-06-16T08:59:52.000Z</time>
      </trkpt>
      <trkpt lat="46.53341" lon="-0.75984">
        <ele>105.78</ele>
        <time>2019-06-16T08:59:55.000Z</time>
      </trkpt>
      <trkpt lat="46.53332" lon="-0.75988">
        <ele>106.67</ele>
        <time>2019-06-16T08:59:58.000Z</time>
      </trkpt>
      <trkpt lat="46.53321" lon="-0.75996">
        <ele>107.85</ele>
        <time>2019-06-16T09:00:01.000Z</time>
      </trkpt>
      <trkpt lat="46.53313" lon="-0.76001">
        <ele>108.6</ele>
        <time>2019-06-16T09:00:03.000Z</time>
      </trkpt>
      <trkpt lat="46.53304" lon="-0.76009">
        <ele>109.27</ele>
        <time>2019-06-16T09:00:05.000Z</time>
      </trkpt>
      <trkpt lat="46.53295" lon="-0.76021">
        <ele>112.75</ele>
        <time>2019-06-16T09:00:07.000Z</time>
      </trkpt>
      <trkpt lat="46.53285" lon="-0.76032">
        <ele>115.72</ele>
        <time>2019-06-16T09:00:09.000Z</time>
      </trkpt>
      <trkpt lat="46.53273" lon="-0.76043">
        <ele>120.03</ele>
        <time>2019-06-16T09:00:11.000Z</time>
      </trkpt>
      <trkpt lat="46.53258" lon="-0.76058">
        <ele>122.32</ele>
        <time>2019-06-16T09:00:13.000Z</time>
      </trkpt>
      <trkpt lat="46.53249" lon="-0.7607">
        <ele>122.82</ele>
        <time>2019-06-16T09:00:15.000Z</time>
      </trkpt>
      <trkpt lat="46.53241" lon="-0.76081">
        <ele>121.67</ele>
        <time>2019-06-16T09:00:17.000Z</time>
      </trkpt>
      <trkpt lat="46.53232" lon="-0.76092">
        <ele>120.92</ele>
        <time>2019-06-16T09:00:19.000Z</time>
      </trkpt>
      <trkpt lat="46.53222" lon="-0.76101">
        <ele>120.79</ele>
        <time>2019-06-16T09:00:22.000Z</time>
      </trkpt>
      <trkpt lat="46.5321" lon="-0.761">
        <ele>119.16</ele>
        <time>2019-06-16T09:00:26.000Z</time>
      </trkpt>
      <trkpt lat="46.532" lon="-0.76085">
        <ele>115.08</ele>
        <time>2019-06-16T09:00:29.000Z</time>
      </trkpt>
      <trkpt lat="46.53195" lon="-0.76075">
        <ele>113.62</ele>
        <time>2019-06-16T09:00:31.000Z</time>
      </trkpt>
      <trkpt lat="46.53191" lon="-0.7606">
        <ele>113.02</ele>
        <time>2019-06-16T09:00:34.000Z</time>
      </trkpt>
      <trkpt lat="46.53187" lon="-0.76047">
        <ele>112.26</ele>
        <time>2019-06-16T09:00:37.000Z</time>
      </trkpt>
      <trkpt lat="46.53183" lon="-0.76035">
        <ele>111.56</ele>
        <time>2019-06-16T09:00:40.000Z</time>
      </trkpt>
      <trkpt lat="46.53178" lon="-0.76024">
        <ele>110.85</ele>
        <time>2019-06-16T09:00:43.000Z</time>
      </trkpt>
      <trkpt lat="46.53169" lon="-0.76013">
        <ele>109.93</ele>
        <time>2019-06-16T09:00:47.000Z</time>
      </trkpt>
      <trkpt lat="46.5316" lon="-0.76005">
        <ele>107.37</ele>
        <time>2019-06-16T09:00:49.000Z</time>
      </trkpt>
      <trkpt lat="46.53152" lon="-0.75997">
        <ele>107.06</ele>
        <time>2019-06-16T09:00:51.000Z</time>
      </trkpt>
      <trkpt lat="46.5314" lon="-0.7599">
        <ele>106.49</ele>
        <time>2019-06-16T09:00:54.000Z</time>
      </trkpt>
      <trkpt lat="46.5313" lon="-0.75986">
        <ele>106.09</ele>
        <time>2019-06-16T09:00:56.000Z</time>
      </trkpt>
      <trkpt lat="46.5312" lon="-0.75979">
        <ele>105.74</ele>
        <time>2019-06-16T09:00:58.000Z</time>
      </trkpt>
      <trkpt lat="46.53108" lon="-0.75974">
        <ele>105.37</ele>
        <time>2019-06-16T09:01:01.000Z</time>
      </trkpt>
      <trkpt lat="46.53095" lon="-0.75976">
        <ele>105.15</ele>
        <time>2019-06-16T09:01:03.000Z</time>
      </trkpt>
      <trkpt lat="46.53085" lon="-0.75973">
        <ele>105.16</ele>
        <time>2019-06-16T09:01:05.000Z</time>
      </trkpt>
      <trkpt lat="46.53074" lon="-0.75976">
        <ele>105.09</ele>
        <time>2019-06-16T09:01:07.000Z</time>
      </trkpt>
      <trkpt lat="46.53064" lon="-0.7598">
        <ele>105.09</ele>
        <time>2019-06-16T09:01:09.000Z</time>
      </trkpt>
      <trkpt lat="46.53055" lon="-0.75986">
        <ele>105.16</ele>
        <time>2019-06-16T09:01:11.000Z</time>
      </trkpt>
      <trkpt lat="46.53044" lon="-0.75995">
        <ele>105.36</ele>
        <time>2019-06-16T09:01:14.000Z</time>
      </trkpt>
      <trkpt lat="46.53033" lon="-0.76001">
        <ele>105.53</ele>
        <time>2019-06-16T09:01:16.000Z</time>
      </trkpt>
      <trkpt lat="46.53022" lon="-0.76007">
        <ele>105.86</ele>
        <time>2019-06-16T09:01:18.000Z</time>
      </trkpt>
      <trkpt lat="46.53013" lon="-0.7601">
        <ele>106.27</ele>
        <time>2019-06-16T09:01:20.000Z</time>
      </trkpt>
      <trkpt lat="46.52997" lon="-0.76011">
        <ele>109.93</ele>
        <time>2019-06-16T09:01:23.000Z</time>
      </trkpt>
      <trkpt lat="46.52988" lon="-0.76011">
        <ele>113.75</ele>
        <time>2019-06-16T09:01:25.000Z</time>
      </trkpt>
      <trkpt lat="46.52979" lon="-0.76007">
        <ele>114.67</ele>
        <time>2019-06-16T09:01:27.000Z</time>
      </trkpt>
      <trkpt lat="46.52969" lon="-0.76001">
        <ele>114.8</ele>
        <time>2019-06-16T09:01:29.000Z</time>
      </trkpt>
      <trkpt lat="46.52958" lon="-0.75993">
        <ele>114.83</ele>
        <time>2019-06-16T09:01:31.000Z</time>
      </trkpt>
      <trkpt lat="46.52948" lon="-0.75989">
        <ele>114.82</ele>
        <time>2019-06-16T09:01:33.000Z</time>
      </trkpt>
      <trkpt lat="46.5294" lon="-0.75981">
        <ele>112.94</ele>
        <time>2019-06-16T09:01:35.000Z</time>
      </trkpt>
      <trkpt lat="46.52937" lon="-0.75968">
        <ele>110.9</ele>
        <time>2019-06-16T09:01:38.000Z</time>
      </trkpt>
      <trkpt lat="46.52935" lon="-0.7595">
        <ele>109.42</ele>
        <time>2019-06-16T09:01:41.000Z</time>
      </trkpt>
      <trkpt lat="46.52934" lon="-0.75932">
        <ele>109.66</ele>
        <time>2019-06-16T09:01:44.000Z</time>
      </trkpt>
      <trkpt lat="46.52934" lon="-0.75918">
        <ele>109.58</ele>
        <time>2019-06-16T09:01:46.000Z</time>
      </trkpt>
      <trkpt lat="46.52934" lon="-0.759">
        <ele>109.41</ele>
        <time>2019-06-16T09:01:49.000Z</time>
      </trkpt>
      <trkpt lat="46.52934" lon="-0.75886">
        <ele>109.1</ele>
        <time>2019-06-16T09:01:51.000Z</time>
      </trkpt>
      <trkpt lat="46.52935" lon="-0.7587">
        <ele>108.68</ele>
        <time>2019-06-16T09:01:53.000Z</time>
      </trkpt>
      <trkpt lat="46.52937" lon="-0.75851">
        <ele>108.75</ele>
        <time>2019-06-16T09:01:56.000Z</time>
      </trkpt>
      <trkpt lat="46.52939" lon="-0.75837">
        <ele>109.07</ele>
        <time>2019-06-16T09:01:59.000Z</time>
      </trkpt>
      <trkpt lat="46.5294" lon="-0.75819">
        <ele>111.71</ele>
        <time>2019-06-16T09:02:01.000Z</time>
      </trkpt>
      <trkpt lat="46.5294" lon="-0.75801">
        <ele>113.67</ele>
        <time>2019-06-16T09:02:03.000Z</time>
      </trkpt>
      <trkpt lat="46.52944" lon="-0.7578">
        <ele>114.02</ele>
        <time>2019-06-16T09:02:05.000Z</time>
      </trkpt>
      <trkpt lat="46.52948" lon="-0.7576">
        <ele>113.67</ele>
        <time>2019-06-16T09:02:07.000Z</time>
      </trkpt>
      <trkpt lat="46.5295" lon="-0.75745">
        <ele>113.66</ele>
        <time>2019-06-16T09:02:10.000Z</time>
      </trkpt>
      <trkpt lat="46.52954" lon="-0.75729">
        <ele>113.75</ele>
        <time>2019-06-16T09:02:12.000Z</time>
      </trkpt>
      <trkpt lat="46.52955" lon="-0.75711">
        <ele>113.81</ele>
        <time>2019-06-16T09:02:14.000Z</time>
      </trkpt>
      <trkpt lat="46.52958" lon="-0.75694">
        <ele>113.76</ele>
        <time>2019-06-16T09:02:17.000Z</time>
      </trkpt>
      <trkpt lat="46.52959" lon="-0.75678">
        <ele>114.47</ele>
        <time>2019-06-16T09:02:19.000Z</time>
      </trkpt>
      <trkpt lat="46.52962" lon="-0.7566">
        <ele>114.74</ele>
        <time>2019-06-16T09:02:21.000Z</time>
      </trkpt>
      <trkpt lat="46.52964" lon="-0.75641">
        <ele>114.79</ele>
        <time>2019-06-16T09:02:23.000Z</time>
      </trkpt>
      <trkpt lat="46.52966" lon="-0.75624">
        <ele>114.59</ele>
        <time>2019-06-16T09:02:25.000Z</time>
      </trkpt>
      <trkpt lat="46.52968" lon="-0.75608">
        <ele>111.4</ele>
        <time>2019-06-16T09:02:27.000Z</time>
      </trkpt>
      <trkpt lat="46.5297" lon="-0.75595">
        <ele>108.73</ele>
        <time>2019-06-16T09:02:29.000Z</time>
      </trkpt>
      <trkpt lat="46.52974" lon="-0.75578">
        <ele>106.79</ele>
        <time>2019-06-16T09:02:31.000Z</time>
      </trkpt>
      <trkpt lat="46.52977" lon="-0.75559">
        <ele>106.56</ele>
        <time>2019-06-16T09:02:34.000Z</time>
      </trkpt>
      <trkpt lat="46.52979" lon="-0.75544">
        <ele>104.96</ele>
        <time>2019-06-16T09:02:36.000Z</time>
      </trkpt>
      <trkpt lat="46.5298" lon="-0.7553">
        <ele>104.87</ele>
        <time>2019-06-16T09:02:38.000Z</time>
      </trkpt>
      <trkpt lat="46.52982" lon="-0.75514">
        <ele>104.15</ele>
        <time>2019-06-16T09:02:40.000Z</time>
      </trkpt>
      <trkpt lat="46.52982" lon="-0.75496">
        <ele>103.12</ele>
        <time>2019-06-16T09:02:42.000Z</time>
      </trkpt>
      <trkpt lat="46.52984" lon="-0.75478">
        <ele>101.87</ele>
        <time>2019-06-16T09:02:44.000Z</time>
      </trkpt>
      <trkpt lat="46.52984" lon="-0.75465">
        <ele>101.55</ele>
        <time>2019-06-16T09:02:46.000Z</time>
      </trkpt>
      <trkpt lat="46.52985" lon="-0.75448">
        <ele>100.9</ele>
        <time>2019-06-16T09:02:48.000Z</time>
      </trkpt>
      <trkpt lat="46.52985" lon="-0.75434">
        <ele>100.85</ele>
        <time>2019-06-16T09:02:50.000Z</time>
      </trkpt>
      <trkpt lat="46.52985" lon="-0.75418">
        <ele>99.29</ele>
        <time>2019-06-16T09:02:52.000Z</time>
      </trkpt>
      <trkpt lat="46.52982" lon="-0.754">
        <ele>99.1</ele>
        <time>2019-06-16T09:02:55.000Z</time>
      </trkpt>
      <trkpt lat="46.5298" lon="-0.75382">
        <ele>99</ele>
        <time>2019-06-16T09:02:58.000Z</time>
      </trkpt>
      <trkpt lat="46.52975" lon="-0.75367">
        <ele>98.83</ele>
        <time>2019-06-16T09:03:01.000Z</time>
      </trkpt>
      <trkpt lat="46.52971" lon="-0.7535">
        <ele>98.54</ele>
        <time>2019-06-16T09:03:04.000Z</time>
      </trkpt>
      <trkpt lat="46.52963" lon="-0.75341">
        <ele>101.49</ele>
        <time>2019-06-16T09:03:30.000Z</time>
      </trkpt>
      <trkpt lat="46.52971" lon="-0.75344">
        <ele>109.19</ele>
        <time>2019-06-16T09:03:59.000Z</time>
      </trkpt>
      <trkpt lat="46.5298" lon="-0.7534">
        <ele>111.29</ele>
        <time>2019-06-16T09:04:13.000Z</time>
      </trkpt>
      <trkpt lat="46.5299" lon="-0.75344">
        <ele>113.63</ele>
        <time>2019-06-16T09:04:30.000Z</time>
      </trkpt>
      <trkpt lat="46.52999" lon="-0.75348">
        <ele>115.1</ele>
        <time>2019-06-16T09:05:08.000Z</time>
      </trkpt>
      <trkpt lat="46.53008" lon="-0.75351">
        <ele>118.73</ele>
        <time>2019-06-16T09:05:40.000Z</time>
      </trkpt>
      <trkpt lat="46.53017" lon="-0.75356">
        <ele>122.81</ele>
        <time>2019-06-16T09:06:08.000Z</time>
      </trkpt>
      <trkpt lat="46.53027" lon="-0.75357">
        <ele>126.1</ele>
        <time>2019-06-16T09:06:39.000Z</time>
      </trkpt>
      <trkpt lat="46.53036" lon="-0.75358">
        <ele>129.12</ele>
        <time>2019-06-16T09:07:00.000Z</time>
      </trkpt>
      <trkpt lat="46.53046" lon="-0.75356">
        <ele>132.15</ele>
        <time>2019-06-16T09:07:19.000Z</time>
      </trkpt>
      <trkpt lat="46.53055" lon="-0.75353">
        <ele>133.43</ele>
        <time>2019-06-16T09:07:36.000Z</time>
      </trkpt>
      <trkpt lat="46.53064" lon="-0.75355">
        <ele>133.78</ele>
        <time>2019-06-16T09:07:48.000Z</time>
      </trkpt>
      <trkpt lat="46.53075" lon="-0.7536">
        <ele>134.69</ele>
        <time>2019-06-16T09:08:01.000Z</time>
      </trkpt>
      <trkpt lat="46.53085" lon="-0.75364">
        <ele>135.81</ele>
        <time>2019-06-16T09:08:08.000Z</time>
      </trkpt>
      <trkpt lat="46.53095" lon="-0.75365">
        <ele>137</ele>
        <time>2019-06-16T09:08:14.000Z</time>
      </trkpt>
      <trkpt lat="46.53106" lon="-0.75369">
        <ele>138.1</ele>
        <time>2019-06-16T09:08:19.000Z</time>
      </trkpt>
      <trkpt lat="46.53115" lon="-0.75372">
        <ele>139.31</ele>
        <time>2019-06-16T09:08:24.000Z</time>
      </trkpt>
      <trkpt lat="46.53124" lon="-0.75375">
        <ele>140.96</ele>
        <time>2019-06-16T09:08:30.000Z</time>
      </trkpt>
      <trkpt lat="46.53133" lon="-0.75377">
        <ele>142.67</ele>
        <time>2019-06-16T09:08:37.000Z</time>
      </trkpt>
      <trkpt lat="46.53144" lon="-0.75379">
        <ele>144.04</ele>
        <time>2019-06-16T09:08:43.000Z</time>
      </trkpt>
      <trkpt lat="46.53153" lon="-0.75379">
        <ele>145.12</ele>
        <time>2019-06-16T09:08:50.000Z</time>
      </trkpt>
      <trkpt lat="46.53163" lon="-0.75379">
        <ele>146.21</ele>
        <time>2019-06-16T09:08:55.000Z</time>
      </trkpt>
      <trkpt lat="46.53173" lon="-0.75382">
        <ele>147.41</ele>
        <time>2019-06-16T09:09:01.000Z</time>
      </trkpt>
      <trkpt lat="46.53183" lon="-0.75383">
        <ele>148.63</ele>
        <time>2019-06-16T09:09:06.000Z</time>
      </trkpt>
      <trkpt lat="46.53191" lon="-0.75374">
        <ele>149.11</ele>
        <time>2019-06-16T09:09:08.000Z</time>
      </trkpt>
      <trkpt lat="46.53197" lon="-0.75362">
        <ele>149.44</ele>
        <time>2019-06-16T09:09:10.000Z</time>
      </trkpt>
      <trkpt lat="46.53196" lon="-0.75347">
        <ele>149.76</ele>
        <time>2019-06-16T09:09:14.000Z</time>
      </trkpt>
      <trkpt lat="46.53191" lon="-0.75336">
        <ele>149.79</ele>
        <time>2019-06-16T09:09:18.000Z</time>
      </trkpt>
      <trkpt lat="46.53184" lon="-0.75323">
        <ele>149.56</ele>
        <time>2019-06-16T09:09:21.000Z</time>
      </trkpt>
      <trkpt lat="46.53178" lon="-0.75312">
        <ele>149.18</ele>
        <time>2019-06-16T09:09:24.000Z</time>
      </trkpt>
      <trkpt lat="46.53172" lon="-0.75299">
        <ele>148.7</ele>
        <time>2019-06-16T09:09:27.000Z</time>
      </trkpt>
      <trkpt lat="46.53165" lon="-0.75286">
        <ele>148.07</ele>
        <time>2019-06-16T09:09:30.000Z</time>
      </trkpt>
      <trkpt lat="46.53159" lon="-0.75273">
        <ele>147.32</ele>
        <time>2019-06-16T09:09:33.000Z</time>
      </trkpt>
      <trkpt lat="46.53152" lon="-0.75261">
        <ele>144.16</ele>
        <time>2019-06-16T09:09:35.000Z</time>
      </trkpt>
      <trkpt lat="46.53147" lon="-0.75248">
        <ele>140.09</ele>
        <time>2019-06-16T09:09:37.000Z</time>
      </trkpt>
      <trkpt lat="46.53138" lon="-0.75232">
        <ele>136.58</ele>
        <time>2019-06-16T09:09:39.000Z</time>
      </trkpt>
      <trkpt lat="46.53131" lon="-0.7522">
        <ele>133.06</ele>
        <time>2019-06-16T09:09:41.000Z</time>
      </trkpt>
      <trkpt lat="46.53123" lon="-0.75206">
        <ele>130.25</ele>
        <time>2019-06-16T09:09:43.000Z</time>
      </trkpt>
      <trkpt lat="46.53116" lon="-0.75194">
        <ele>127.71</ele>
        <time>2019-06-16T09:09:45.000Z</time>
      </trkpt>
      <trkpt lat="46.53107" lon="-0.75182">
        <ele>126.06</ele>
        <time>2019-06-16T09:09:47.000Z</time>
      </trkpt>
      <trkpt lat="46.53099" lon="-0.75166">
        <ele>124.81</ele>
        <time>2019-06-16T09:09:49.000Z</time>
      </trkpt>
      <trkpt lat="46.53091" lon="-0.75154">
        <ele>123.22</ele>
        <time>2019-06-16T09:09:51.000Z</time>
      </trkpt>
      <trkpt lat="46.53085" lon="-0.75139">
        <ele>122.52</ele>
        <time>2019-06-16T09:09:53.000Z</time>
      </trkpt>
      <trkpt lat="46.53076" lon="-0.75122">
        <ele>122.95</ele>
        <time>2019-06-16T09:09:55.000Z</time>
      </trkpt>
      <trkpt lat="46.5307" lon="-0.75102">
        <ele>123.53</ele>
        <time>2019-06-16T09:09:57.000Z</time>
      </trkpt>
      <trkpt lat="46.53064" lon="-0.75084">
        <ele>123.17</ele>
        <time>2019-06-16T09:09:59.000Z</time>
      </trkpt>
      <trkpt lat="46.53058" lon="-0.75067">
        <ele>123.06</ele>
        <time>2019-06-16T09:10:01.000Z</time>
      </trkpt>
      <trkpt lat="46.53049" lon="-0.75051">
        <ele>122.72</ele>
        <time>2019-06-16T09:10:03.000Z</time>
      </trkpt>
      <trkpt lat="46.53035" lon="-0.75042">
        <ele>124.16</ele>
        <time>2019-06-16T09:10:05.000Z</time>
      </trkpt>
      <trkpt lat="46.5302" lon="-0.75034">
        <ele>126.27</ele>
        <time>2019-06-16T09:10:07.000Z</time>
      </trkpt>
      <trkpt lat="46.53008" lon="-0.75026">
        <ele>128.94</ele>
        <time>2019-06-16T09:10:09.000Z</time>
      </trkpt>
      <trkpt lat="46.52997" lon="-0.75019">
        <ele>130.01</ele>
        <time>2019-06-16T09:10:11.000Z</time>
      </trkpt>
      <trkpt lat="46.52986" lon="-0.75011">
        <ele>129.93</ele>
        <time>2019-06-16T09:10:13.000Z</time>
      </trkpt>
      <trkpt lat="46.52977" lon="-0.75005">
        <ele>129.69</ele>
        <time>2019-06-16T09:10:15.000Z</time>
      </trkpt>
      <trkpt lat="46.52968" lon="-0.74998">
        <ele>129.61</ele>
        <time>2019-06-16T09:10:18.000Z</time>
      </trkpt>
      <trkpt lat="46.52958" lon="-0.74991">
        <ele>129.56</ele>
        <time>2019-06-16T09:10:22.000Z</time>
      </trkpt>
      <trkpt lat="46.52948" lon="-0.74993">
        <ele>129.58</ele>
        <time>2019-06-16T09:10:28.000Z</time>
      </trkpt>
      <trkpt lat="46.52935" lon="-0.74993">
        <ele>129.9</ele>
        <time>2019-06-16T09:10:31.000Z</time>
      </trkpt>
      <trkpt lat="46.52923" lon="-0.74994">
        <ele>130.4</ele>
        <time>2019-06-16T09:10:34.000Z</time>
      </trkpt>
      <trkpt lat="46.52913" lon="-0.74996">
        <ele>132.32</ele>
        <time>2019-06-16T09:10:45.000Z</time>
      </trkpt>
      <trkpt lat="46.52904" lon="-0.74997">
        <ele>132.7</ele>
        <time>2019-06-16T09:10:47.000Z</time>
      </trkpt>
      <trkpt lat="46.5289" lon="-0.74995">
        <ele>135.63</ele>
        <time>2019-06-16T09:10:50.000Z</time>
      </trkpt>
      <trkpt lat="46.52879" lon="-0.74993">
        <ele>139.44</ele>
        <time>2019-06-16T09:10:53.000Z</time>
      </trkpt>
      <trkpt lat="46.52868" lon="-0.74991">
        <ele>141.3</ele>
        <time>2019-06-16T09:10:55.000Z</time>
      </trkpt>
      <trkpt lat="46.52856" lon="-0.7499">
        <ele>143.36</ele>
        <time>2019-06-16T09:10:57.000Z</time>
      </trkpt>
      <trkpt lat="46.52845" lon="-0.74989">
        <ele>145.08</ele>
        <time>2019-06-16T09:10:59.000Z</time>
      </trkpt>
      <trkpt lat="46.5283" lon="-0.7499">
        <ele>146.45</ele>
        <time>2019-06-16T09:11:02.000Z</time>
      </trkpt>
      <trkpt lat="46.52818" lon="-0.74993">
        <ele>147.49</ele>
        <time>2019-06-16T09:11:05.000Z</time>
      </trkpt>
      <trkpt lat="46.52808" lon="-0.74997">
        <ele>147.76</ele>
        <time>2019-06-16T09:11:08.000Z</time>
      </trkpt>
      <trkpt lat="46.52799" lon="-0.75004">
        <ele>148.14</ele>
        <time>2019-06-16T09:11:11.000Z</time>
      </trkpt>
      <trkpt lat="46.52788" lon="-0.75012">
        <ele>150.06</ele>
        <time>2019-06-16T09:11:14.000Z</time>
      </trkpt>
      <trkpt lat="46.52779" lon="-0.75018">
        <ele>151.61</ele>
        <time>2019-06-16T09:11:16.000Z</time>
      </trkpt>
      <trkpt lat="46.52767" lon="-0.75025">
        <ele>152.86</ele>
        <time>2019-06-16T09:11:18.000Z</time>
      </trkpt>
      <trkpt lat="46.52756" lon="-0.7503">
        <ele>153.58</ele>
        <time>2019-06-16T09:11:20.000Z</time>
      </trkpt>
      <trkpt lat="46.52748" lon="-0.7504">
        <ele>154.93</ele>
        <time>2019-06-16T09:11:22.000Z</time>
      </trkpt>
      <trkpt lat="46.52735" lon="-0.75047">
        <ele>156.67</ele>
        <time>2019-06-16T09:11:24.000Z</time>
      </trkpt>
      <trkpt lat="46.52726" lon="-0.75054">
        <ele>158.29</ele>
        <time>2019-06-16T09:11:26.000Z</time>
      </trkpt>
      <trkpt lat="46.52714" lon="-0.75063">
        <ele>159.38</ele>
        <time>2019-06-16T09:11:28.000Z</time>
      </trkpt>
      <trkpt lat="46.52705" lon="-0.75073">
        <ele>159.83</ele>
        <time>2019-06-16T09:11:29.000Z</time>
      </trkpt>
      <trkpt lat="46.52698" lon="-0.75081">
        <ele>160.29</ele>
        <time>2019-06-16T09:11:30.000Z</time>
      </trkpt>
      <trkpt lat="46.52691" lon="-0.75089">
        <ele>160.97</ele>
        <time>2019-06-16T09:11:31.000Z</time>
      </trkpt>
      <trkpt lat="46.52683" lon="-0.75095">
        <ele>161.6</ele>
        <time>2019-06-16T09:11:32.000Z</time>
      </trkpt>
      <trkpt lat="46.52674" lon="-0.751">
        <ele>162.4</ele>
        <time>2019-06-16T09:11:33.000Z</time>
      </trkpt>
      <trkpt lat="46.52665" lon="-0.75105">
        <ele>162.7</ele>
        <time>2019-06-16T09:11:34.000Z</time>
      </trkpt>
      <trkpt lat="46.52655" lon="-0.75111">
        <ele>162.58</ele>
        <time>2019-06-16T09:11:35.000Z</time>
      </trkpt>
      <trkpt lat="46.52646" lon="-0.75117">
        <ele>161.99</ele>
        <time>2019-06-16T09:11:36.000Z</time>
      </trkpt>
      <trkpt lat="46.52638" lon="-0.75124">
        <ele>160.88</ele>
        <time>2019-06-16T09:11:37.000Z</time>
      </trkpt>
      <trkpt lat="46.52629" lon="-0.75131">
        <ele>159.11</ele>
        <time>2019-06-16T09:11:38.000Z</time>
      </trkpt>
      <trkpt lat="46.5262" lon="-0.75138">
        <ele>157.58</ele>
        <time>2019-06-16T09:11:39.000Z</time>
      </trkpt>
      <trkpt lat="46.52611" lon="-0.75147">
        <ele>156.13</ele>
        <time>2019-06-16T09:11:40.000Z</time>
      </trkpt>
      <trkpt lat="46.52602" lon="-0.75158">
        <ele>154.42</ele>
        <time>2019-06-16T09:11:41.000Z</time>
      </trkpt>
      <trkpt lat="46.52593" lon="-0.75168">
        <ele>152.66</ele>
        <time>2019-06-16T09:11:42.000Z</time>
      </trkpt>
      <trkpt lat="46.52585" lon="-0.75178">
        <ele>150.87</ele>
        <time>2019-06-16T09:11:43.000Z</time>
      </trkpt>
      <trkpt lat="46.52579" lon="-0.75189">
        <ele>148.76</ele>
        <time>2019-06-16T09:11:44.000Z</time>
      </trkpt>
      <trkpt lat="46.52574" lon="-0.75202">
        <ele>146.24</ele>
        <time>2019-06-16T09:11:45.000Z</time>
      </trkpt>
      <trkpt lat="46.52572" lon="-0.75225">
        <ele>141.2</ele>
        <time>2019-06-16T09:11:47.000Z</time>
      </trkpt>
      <trkpt lat="46.52573" lon="-0.75241">
        <ele>138.86</ele>
        <time>2019-06-16T09:11:48.000Z</time>
      </trkpt>
      <trkpt lat="46.52572" lon="-0.75264">
        <ele>135.05</ele>
        <time>2019-06-16T09:11:50.000Z</time>
      </trkpt>
      <trkpt lat="46.5257" lon="-0.75284">
        <ele>131.9</ele>
        <time>2019-06-16T09:11:52.000Z</time>
      </trkpt>
      <trkpt lat="46.52561" lon="-0.75298">
        <ele>128.91</ele>
        <time>2019-06-16T09:11:55.000Z</time>
      </trkpt>
      <trkpt lat="46.52555" lon="-0.75308">
        <ele>126.99</ele>
        <time>2019-06-16T09:11:57.000Z</time>
      </trkpt>
      <trkpt lat="46.52544" lon="-0.75304">
        <ele>125.55</ele>
        <time>2019-06-16T09:12:01.000Z</time>
      </trkpt>
      <trkpt lat="46.52534" lon="-0.75299">
        <ele>122.7</ele>
        <time>2019-06-16T09:12:03.000Z</time>
      </trkpt>
      <trkpt lat="46.52522" lon="-0.75301">
        <ele>120.64</ele>
        <time>2019-06-16T09:12:05.000Z</time>
      </trkpt>
      <trkpt lat="46.52512" lon="-0.75299">
        <ele>118.41</ele>
        <time>2019-06-16T09:12:09.000Z</time>
      </trkpt>
      <trkpt lat="46.52513" lon="-0.75284">
        <ele>110.94</ele>
        <time>2019-06-16T09:12:13.000Z</time>
      </trkpt>
      <trkpt lat="46.52512" lon="-0.7527">
        <ele>110.5</ele>
        <time>2019-06-16T09:12:16.000Z</time>
      </trkpt>
      <trkpt lat="46.5251" lon="-0.75251">
        <ele>105.93</ele>
        <time>2019-06-16T09:12:19.000Z</time>
      </trkpt>
      <trkpt lat="46.52509" lon="-0.75233">
        <ele>103.39</ele>
        <time>2019-06-16T09:12:21.000Z</time>
      </trkpt>
      <trkpt lat="46.52506" lon="-0.75214">
        <ele>100.13</ele>
        <time>2019-06-16T09:12:23.000Z</time>
      </trkpt>
      <trkpt lat="46.52505" lon="-0.75199">
        <ele>97.28</ele>
        <time>2019-06-16T09:12:25.000Z</time>
      </trkpt>
      <trkpt lat="46.52504" lon="-0.75183">
        <ele>94.96</ele>
        <time>2019-06-16T09:12:27.000Z</time>
      </trkpt>
      <trkpt lat="46.52502" lon="-0.75167">
        <ele>92.09</ele>
        <time>2019-06-16T09:12:29.000Z</time>
      </trkpt>
      <trkpt lat="46.52499" lon="-0.75153">
        <ele>91.07</ele>
        <time>2019-06-16T09:12:31.000Z</time>
      </trkpt>
      <trkpt lat="46.52495" lon="-0.7514">
        <ele>90.32</ele>
        <time>2019-06-16T09:12:33.000Z</time>
      </trkpt>
      <trkpt lat="46.52492" lon="-0.75123">
        <ele>89.49</ele>
        <time>2019-06-16T09:12:36.000Z</time>
      </trkpt>
      <trkpt lat="46.52491" lon="-0.75103">
        <ele>87.07</ele>
        <time>2019-06-16T09:12:39.000Z</time>
      </trkpt>
      <trkpt lat="46.5249" lon="-0.75089">
        <ele>85.87</ele>
        <time>2019-06-16T09:12:41.000Z</time>
      </trkpt>
      <trkpt lat="46.52489" lon="-0.75074">
        <ele>84.55</ele>
        <time>2019-06-16T09:12:43.000Z</time>
      </trkpt>
      <trkpt lat="46.52486" lon="-0.75056">
        <ele>83.98</ele>
        <time>2019-06-16T09:12:46.000Z</time>
      </trkpt>
      <trkpt lat="46.52486" lon="-0.75038">
        <ele>83.77</ele>
        <time>2019-06-16T09:12:49.000Z</time>
      </trkpt>
      <trkpt lat="46.52485" lon="-0.75022">
        <ele>83.66</ele>
        <time>2019-06-16T09:12:52.000Z</time>
      </trkpt>
      <trkpt lat="46.52483" lon="-0.75006">
        <ele>83.77</ele>
        <time>2019-06-16T09:12:55.000Z</time>
      </trkpt>
      <trkpt lat="46.52484" lon="-0.74988">
        <ele>84.62</ele>
        <time>2019-06-16T09:12:58.000Z</time>
      </trkpt>
      <trkpt lat="46.52485" lon="-0.74974">
        <ele>84.85</ele>
        <time>2019-06-16T09:13:01.000Z</time>
      </trkpt>
      <trkpt lat="46.52487" lon="-0.7496">
        <ele>85.37</ele>
        <time>2019-06-16T09:13:05.000Z</time>
      </trkpt>
      <trkpt lat="46.52491" lon="-0.74948">
        <ele>86.5</ele>
        <time>2019-06-16T09:13:11.000Z</time>
      </trkpt>
      <trkpt lat="46.52495" lon="-0.7493">
        <ele>87.3</ele>
        <time>2019-06-16T09:13:15.000Z</time>
      </trkpt>
      <trkpt lat="46.5249" lon="-0.74917">
        <ele>88.1</ele>
        <time>2019-06-16T09:13:20.000Z</time>
      </trkpt>
      <trkpt lat="46.52481" lon="-0.74921">
        <ele>88.72</ele>
        <time>2019-06-16T09:13:23.000Z</time>
      </trkpt>
      <trkpt lat="46.52471" lon="-0.74926">
        <ele>89.24</ele>
        <time>2019-06-16T09:13:26.000Z</time>
      </trkpt>
      <trkpt lat="46.5246" lon="-0.74929">
        <ele>89.56</ele>
        <time>2019-06-16T09:13:29.000Z</time>
      </trkpt>
      <trkpt lat="46.52451" lon="-0.74931">
        <ele>90.04</ele>
        <time>2019-06-16T09:13:33.000Z</time>
      </trkpt>
      <trkpt lat="46.5244" lon="-0.74936">
        <ele>91.07</ele>
        <time>2019-06-16T09:13:39.000Z</time>
      </trkpt>
      <trkpt lat="46.52432" lon="-0.7494">
        <ele>92.31</ele>
        <time>2019-06-16T09:13:46.000Z</time>
      </trkpt>
      <trkpt lat="46.52426" lon="-0.74952">
        <ele>92.78</ele>
        <time>2019-06-16T09:14:01.000Z</time>
      </trkpt>
      <trkpt lat="46.52415" lon="-0.74957">
        <ele>92.82</ele>
        <time>2019-06-16T09:14:06.000Z</time>
      </trkpt>
      <trkpt lat="46.52405" lon="-0.74963">
        <ele>92.87</ele>
        <time>2019-06-16T09:14:09.000Z</time>
      </trkpt>
      <trkpt lat="46.52395" lon="-0.74969">
        <ele>92.97</ele>
        <time>2019-06-16T09:14:12.000Z</time>
      </trkpt>
      <trkpt lat="46.52383" lon="-0.74976">
        <ele>92.91</ele>
        <time>2019-06-16T09:14:15.000Z</time>
      </trkpt>
      <trkpt lat="46.52371" lon="-0.74984">
        <ele>92.68</ele>
        <time>2019-06-16T09:14:18.000Z</time>
      </trkpt>
      <trkpt lat="46.52361" lon="-0.74991">
        <ele>92.35</ele>
        <time>2019-06-16T09:14:21.000Z</time>
      </trkpt>
      <trkpt lat="46.52352" lon="-0.74996">
        <ele>92.14</ele>
        <time>2019-06-16T09:14:24.000Z</time>
      </trkpt>
      <trkpt lat="46.52342" lon="-0.75005">
        <ele>91.87</ele>
        <time>2019-06-16T09:14:27.000Z</time>
      </trkpt>
      <trkpt lat="46.52333" lon="-0.75012">
        <ele>91.59</ele>
        <time>2019-06-16T09:14:30.000Z</time>
      </trkpt>
      <trkpt lat="46.52324" lon="-0.75021">
        <ele>91.32</ele>
        <time>2019-06-16T09:14:33.000Z</time>
      </trkpt>
      <trkpt lat="46.52313" lon="-0.75028">
        <ele>91.12</ele>
        <time>2019-06-16T09:14:36.000Z</time>
      </trkpt>
      <trkpt lat="46.52302" lon="-0.75037">
        <ele>90.82</ele>
        <time>2019-06-16T09:14:39.000Z</time>
      </trkpt>
      <trkpt lat="46.52293" lon="-0.75046">
        <ele>90.63</ele>
        <time>2019-06-16T09:14:42.000Z</time>
      </trkpt>
      <trkpt lat="46.52286" lon="-0.75055">
        <ele>90.46</ele>
        <time>2019-06-16T09:14:44.000Z</time>
      </trkpt>
      <trkpt lat="46.52279" lon="-0.75068">
        <ele>90.21</ele>
        <time>2019-06-16T09:14:47.000Z</time>
      </trkpt>
      <trkpt lat="46.52276" lon="-0.75082">
        <ele>89.97</ele>
        <time>2019-06-16T09:14:50.000Z</time>
      </trkpt>
      <trkpt lat="46.52274" lon="-0.75096">
        <ele>89.83</ele>
        <time>2019-06-16T09:14:53.000Z</time>
      </trkpt>
      <trkpt lat="46.52272" lon="-0.75113">
        <ele>89.72</ele>
        <time>2019-06-16T09:14:57.000Z</time>
      </trkpt>
      <trkpt lat="46.52272" lon="-0.75126">
        <ele>89.66</ele>
        <time>2019-06-16T09:15:01.000Z</time>
      </trkpt>
      <trkpt lat="46.52272" lon="-0.7514">
        <ele>89.69</ele>
        <time>2019-06-16T09:15:07.000Z</time>
      </trkpt>
      <trkpt lat="46.52272" lon="-0.75155">
        <ele>89.93</ele>
        <time>2019-06-16T09:15:14.000Z</time>
      </trkpt>
      <trkpt lat="46.52274" lon="-0.7517">
        <ele>90.16</ele>
        <time>2019-06-16T09:15:19.000Z</time>
      </trkpt>
      <trkpt lat="46.52275" lon="-0.75185">
        <ele>90.48</ele>
        <time>2019-06-16T09:15:24.000Z</time>
      </trkpt>
      <trkpt lat="46.52277" lon="-0.75198">
        <ele>91.37</ele>
        <time>2019-06-16T09:15:30.000Z</time>
      </trkpt>
      <trkpt lat="46.52279" lon="-0.75212">
        <ele>93.19</ele>
        <time>2019-06-16T09:15:39.000Z</time>
      </trkpt>
      <trkpt lat="46.52279" lon="-0.75226">
        <ele>94.28</ele>
        <time>2019-06-16T09:15:45.000Z</time>
      </trkpt>
      <trkpt lat="46.52279" lon="-0.75241">
        <ele>96.26</ele>
        <time>2019-06-16T09:15:55.000Z</time>
      </trkpt>
      <trkpt lat="46.52277" lon="-0.75253">
        <ele>97.88</ele>
        <time>2019-06-16T09:16:04.000Z</time>
      </trkpt>
      <trkpt lat="46.52272" lon="-0.75266">
        <ele>101.34</ele>
        <time>2019-06-16T09:16:17.000Z</time>
      </trkpt>
      <trkpt lat="46.52264" lon="-0.75275">
        <ele>104.9</ele>
        <time>2019-06-16T09:16:28.000Z</time>
      </trkpt>
      <trkpt lat="46.52256" lon="-0.75283">
        <ele>108.36</ele>
        <time>2019-06-16T09:16:39.000Z</time>
      </trkpt>
      <trkpt lat="46.52248" lon="-0.7529">
        <ele>110.51</ele>
        <time>2019-06-16T09:16:46.000Z</time>
      </trkpt>
      <trkpt lat="46.52239" lon="-0.75297">
        <ele>113.74</ele>
        <time>2019-06-16T09:16:57.000Z</time>
      </trkpt>
      <trkpt lat="46.52231" lon="-0.75307">
        <ele>115.68</ele>
        <time>2019-06-16T09:17:04.000Z</time>
      </trkpt>
      <trkpt lat="46.52224" lon="-0.75319">
        <ele>117.09</ele>
        <time>2019-06-16T09:17:10.000Z</time>
      </trkpt>
      <trkpt lat="46.52221" lon="-0.75332">
        <ele>118.49</ele>
        <time>2019-06-16T09:17:18.000Z</time>
      </trkpt>
      <trkpt lat="46.52219" lon="-0.75346">
        <ele>119.45</ele>
        <time>2019-06-16T09:17:25.000Z</time>
      </trkpt>
      <trkpt lat="46.52221" lon="-0.7536">
        <ele>120.58</ele>
        <time>2019-06-16T09:17:33.000Z</time>
      </trkpt>
      <trkpt lat="46.52223" lon="-0.75376">
        <ele>121.52</ele>
        <time>2019-06-16T09:17:41.000Z</time>
      </trkpt>
      <trkpt lat="46.52225" lon="-0.7539">
        <ele>122.24</ele>
        <time>2019-06-16T09:17:47.000Z</time>
      </trkpt>
      <trkpt lat="46.52231" lon="-0.75403">
        <ele>123.58</ele>
        <time>2019-06-16T09:17:55.000Z</time>
      </trkpt>
      <trkpt lat="46.52237" lon="-0.75415">
        <ele>124.44</ele>
        <time>2019-06-16T09:18:02.000Z</time>
      </trkpt>
      <trkpt lat="46.52242" lon="-0.75427">
        <ele>124.9</ele>
        <time>2019-06-16T09:18:07.000Z</time>
      </trkpt>
      <trkpt lat="46.52247" lon="-0.75441">
        <ele>125.56</ele>
        <time>2019-06-16T09:18:12.000Z</time>
      </trkpt>
      <trkpt lat="46.52251" lon="-0.75455">
        <ele>126.48</ele>
        <time>2019-06-16T09:18:18.000Z</time>
      </trkpt>
      <trkpt lat="46.52254" lon="-0.75469">
        <ele>127.67</ele>
        <time>2019-06-16T09:18:25.000Z</time>
      </trkpt>
      <trkpt lat="46.52254" lon="-0.75483">
        <ele>128.54</ele>
        <time>2019-06-16T09:18:30.000Z</time>
      </trkpt>
      <trkpt lat="46.52254" lon="-0.75499">
        <ele>129.52</ele>
        <time>2019-06-16T09:18:36.000Z</time>
      </trkpt>
      <trkpt lat="46.52257" lon="-0.75512">
        <ele>130.39</ele>
        <time>2019-06-16T09:18:41.000Z</time>
      </trkpt>
      <trkpt lat="46.52263" lon="-0.75523">
        <ele>131.17</ele>
        <time>2019-06-16T09:18:45.000Z</time>
      </trkpt>
      <trkpt lat="46.52268" lon="-0.75534">
        <ele>131.91</ele>
        <time>2019-06-16T09:18:49.000Z</time>
      </trkpt>
      <trkpt lat="46.52274" lon="-0.75548">
        <ele>132.83</ele>
        <time>2019-06-16T09:18:54.000Z</time>
      </trkpt>
      <trkpt lat="46.52281" lon="-0.7556">
        <ele>133.35</ele>
        <time>2019-06-16T09:18:58.000Z</time>
      </trkpt>
      <trkpt lat="46.52287" lon="-0.75573">
        <ele>133.78</ele>
        <time>2019-06-16T09:19:03.000Z</time>
      </trkpt>
      <trkpt lat="46.52292" lon="-0.75585">
        <ele>134.1</ele>
        <time>2019-06-16T09:19:07.000Z</time>
      </trkpt>
      <trkpt lat="46.52298" lon="-0.756">
        <ele>134.39</ele>
        <time>2019-06-16T09:19:11.000Z</time>
      </trkpt>
      <trkpt lat="46.52304" lon="-0.75613">
        <ele>134.65</ele>
        <time>2019-06-16T09:19:15.000Z</time>
      </trkpt>
      <trkpt lat="46.52306" lon="-0.75629">
        <ele>134.91</ele>
        <time>2019-06-16T09:19:19.000Z</time>
      </trkpt>
      <trkpt lat="46.52307" lon="-0.75642">
        <ele>135.22</ele>
        <time>2019-06-16T09:19:23.000Z</time>
      </trkpt>
      <trkpt lat="46.52307" lon="-0.75656">
        <ele>135.51</ele>
        <time>2019-06-16T09:19:28.000Z</time>
      </trkpt>
      <trkpt lat="46.52315" lon="-0.75663">
        <ele>135.71</ele>
        <time>2019-06-16T09:19:32.000Z</time>
      </trkpt>
      <trkpt lat="46.52327" lon="-0.75664">
        <ele>136.15</ele>
        <time>2019-06-16T09:19:36.000Z</time>
      </trkpt>
      <trkpt lat="46.52335" lon="-0.75673">
        <ele>136.41</ele>
        <time>2019-06-16T09:19:39.000Z</time>
      </trkpt>
      <trkpt lat="46.52342" lon="-0.75683">
        <ele>136.74</ele>
        <time>2019-06-16T09:19:43.000Z</time>
      </trkpt>
      <trkpt lat="46.52346" lon="-0.75694">
        <ele>137.18</ele>
        <time>2019-06-16T09:19:47.000Z</time>
      </trkpt>
      <trkpt lat="46.52352" lon="-0.75705">
        <ele>137.79</ele>
        <time>2019-06-16T09:19:53.000Z</time>
      </trkpt>
      <trkpt lat="46.52361" lon="-0.75705">
        <ele>138.7</ele>
        <time>2019-06-16T09:20:00.000Z</time>
      </trkpt>
      <trkpt lat="46.52369" lon="-0.75696">
        <ele>139.55</ele>
        <time>2019-06-16T09:20:06.000Z</time>
      </trkpt>
      <trkpt lat="46.52371" lon="-0.75682">
        <ele>141.34</ele>
        <time>2019-06-16T09:20:58.000Z</time>
      </trkpt>
      <trkpt lat="46.5238" lon="-0.75678">
        <ele>147.88</ele>
        <time>2019-06-16T09:24:49.000Z</time>
      </trkpt>
      <trkpt lat="46.52382" lon="-0.75663">
        <ele>147.82</ele>
        <time>2019-06-16T09:26:05.000Z</time>
      </trkpt>
    </trkseg>
  </trk>
</gpx>